<?xml version='1.0' encoding='UTF-8'?><gpx version="1.1" creator="JPX - https://github.com/jenetics/jpx" xmlns="http://www.topografix.com/GPX/1/1"><trk><trkseg><trkpt lat="45.9867648" lon="10.3198265"><ele>387.0</ele><time>2026-04-23T15:35:08.985Z</time></trkpt><trkpt lat="45.9867037" lon="10.3198661"><ele>387.0</ele><time>2026-04-23T15:35:12.005Z</time></trkpt><trkpt lat="45.9867436" lon="10.3199656"><ele>387.0</ele><time>2026-04-23T15:35:15.014Z</time></trkpt><trkpt lat="45.9868163" lon="10.3200153"><ele>387.0</ele><time>2026-04-23T15:35:17.985Z</time></trkpt><trkpt lat="45.9868728" lon="10.3200847"><ele>387.0</ele><time>2026-04-23T15:35:20.984Z</time></trkpt><trkpt lat="45.9869407" lon="10.3201387"><ele>387.0</ele><time>2026-04-23T15:35:23.985Z</time></trkpt><trkpt lat="45.9870104" lon="10.3201922"><ele>387.0</ele><time>2026-04-23T15:35:26.985Z</time></trkpt><trkpt lat="45.9870921" lon="10.3202274"><ele>387.0</ele><time>2026-04-23T15:35:29.985Z</time></trkpt><trkpt lat="45.9871693" lon="10.3202498"><ele>387.0</ele><time>2026-04-23T15:35:32.985Z</time></trkpt><trkpt lat="45.9872499" lon="10.3202547"><ele>387.0</ele><time>2026-04-23T15:35:36.985Z</time></trkpt><trkpt lat="45.9873175" lon="10.320258"><ele>387.0</ele><time>2026-04-23T15:35:38.985Z</time></trkpt><trkpt lat="45.9873843" lon="10.3202455"><ele>387.0</ele><time>2026-04-23T15:35:40.985Z</time></trkpt><trkpt lat="45.987472" lon="10.320214"><ele>389.0</ele><time>2026-04-23T15:35:43.985Z</time></trkpt><trkpt lat="45.987561" lon="10.3201754"><ele>391.0</ele><time>2026-04-23T15:35:46.985Z</time></trkpt><trkpt lat="45.9876417" lon="10.3202081"><ele>393.0</ele><time>2026-04-23T15:35:49.985Z</time></trkpt><trkpt lat="45.9876678" lon="10.3202932"><ele>395.0</ele><time>2026-04-23T15:35:51.985Z</time></trkpt><trkpt lat="45.9877076" lon="10.3204148"><ele>397.0</ele><time>2026-04-23T15:35:54.985Z</time></trkpt><trkpt lat="45.9877324" lon="10.3205029"><ele>399.0</ele><time>2026-04-23T15:35:56.985Z</time></trkpt><trkpt lat="45.987761" lon="10.3205989"><ele>399.0</ele><time>2026-04-23T15:35:58.985Z</time></trkpt><trkpt lat="45.9877927" lon="10.3207004"><ele>399.0</ele><time>2026-04-23T15:36:00.985Z</time></trkpt><trkpt lat="45.9878115" lon="10.3208147"><ele>399.0</ele><time>2026-04-23T15:36:02.985Z</time></trkpt><trkpt lat="45.9878266" lon="10.3209336"><ele>399.0</ele><time>2026-04-23T15:36:04.985Z</time></trkpt><trkpt lat="45.9878425" lon="10.3210536"><ele>399.0</ele><time>2026-04-23T15:36:06.985Z</time></trkpt><trkpt lat="45.9878593" lon="10.3211741"><ele>399.0</ele><time>2026-04-23T15:36:08.984Z</time></trkpt><trkpt lat="45.9878903" lon="10.3212869"><ele>399.0</ele><time>2026-04-23T15:36:10.985Z</time></trkpt><trkpt lat="45.9879256" lon="10.3213949"><ele>399.0</ele><time>2026-04-23T15:36:12.985Z</time></trkpt><trkpt lat="45.9879612" lon="10.321498"><ele>399.0</ele><time>2026-04-23T15:36:14.985Z</time></trkpt><trkpt lat="45.9880029" lon="10.3216011"><ele>399.0</ele><time>2026-04-23T15:36:16.984Z</time></trkpt><trkpt lat="45.9880446" lon="10.3217004"><ele>399.0</ele><time>2026-04-23T15:36:18.985Z</time></trkpt><trkpt lat="45.9880881" lon="10.3217917"><ele>399.0</ele><time>2026-04-23T15:36:20.985Z</time></trkpt><trkpt lat="45.9881294" lon="10.321883"><ele>398.6666666666667</ele><time>2026-04-23T15:36:22.985Z</time></trkpt><trkpt lat="45.9881641" lon="10.3219835"><ele>398.33333333333337</ele><time>2026-04-23T15:36:24.985Z</time></trkpt><trkpt lat="45.9882031" lon="10.3220826"><ele>398.0</ele><time>2026-04-23T15:36:26.985Z</time></trkpt><trkpt lat="45.9882432" lon="10.3221817"><ele>397.6666666666667</ele><time>2026-04-23T15:36:28.985Z</time></trkpt><trkpt lat="45.9882862" lon="10.3222814"><ele>397.33333333333337</ele><time>2026-04-23T15:36:30.985Z</time></trkpt><trkpt lat="45.9883332" lon="10.3223777"><ele>397.0</ele><time>2026-04-23T15:36:32.985Z</time></trkpt><trkpt lat="45.9883823" lon="10.3224675"><ele>399.33333333333337</ele><time>2026-04-23T15:36:34.985Z</time></trkpt><trkpt lat="45.988437" lon="10.3225594"><ele>401.6666666666667</ele><time>2026-04-23T15:36:36.985Z</time></trkpt><trkpt lat="45.9884943" lon="10.3226459"><ele>404.0</ele><time>2026-04-23T15:36:38.985Z</time></trkpt><trkpt lat="45.988555" lon="10.3227236"><ele>406.33333333333337</ele><time>2026-04-23T15:36:40.985Z</time></trkpt><trkpt lat="45.9886132" lon="10.3228043"><ele>408.6666666666667</ele><time>2026-04-23T15:36:42.985Z</time></trkpt><trkpt lat="45.9886719" lon="10.3228882"><ele>411.0</ele><time>2026-04-23T15:36:44.984Z</time></trkpt><trkpt lat="45.9887317" lon="10.3229703"><ele>411.0</ele><time>2026-04-23T15:36:46.984Z</time></trkpt><trkpt lat="45.9887905" lon="10.3230494"><ele>411.0</ele><time>2026-04-23T15:36:48.985Z</time></trkpt><trkpt lat="45.9888462" lon="10.3231282"><ele>411.0</ele><time>2026-04-23T15:36:50.985Z</time></trkpt><trkpt lat="45.9889007" lon="10.3232072"><ele>411.0</ele><time>2026-04-23T15:36:52.984Z</time></trkpt><trkpt lat="45.9889564" lon="10.3232872"><ele>411.0</ele><time>2026-04-23T15:36:54.985Z</time></trkpt><trkpt lat="45.9890128" lon="10.3233683"><ele>411.0</ele><time>2026-04-23T15:36:56.985Z</time></trkpt><trkpt lat="45.9890577" lon="10.3234662"><ele>411.0</ele><time>2026-04-23T15:36:58.985Z</time></trkpt><trkpt lat="45.9891127" lon="10.3235614"><ele>411.0</ele><time>2026-04-23T15:37:00.985Z</time></trkpt><trkpt lat="45.9891746" lon="10.3236547"><ele>411.0</ele><time>2026-04-23T15:37:02.985Z</time></trkpt><trkpt lat="45.9892428" lon="10.323746"><ele>411.0</ele><time>2026-04-23T15:37:04.985Z</time></trkpt><trkpt lat="45.9892999" lon="10.323846"><ele>411.0</ele><time>2026-04-23T15:37:06.985Z</time></trkpt><trkpt lat="45.9893637" lon="10.3239268"><ele>411.0</ele><time>2026-04-23T15:37:08.985Z</time></trkpt><trkpt lat="45.9894249" lon="10.3239982"><ele>411.0</ele><time>2026-04-23T15:37:10.984Z</time></trkpt><trkpt lat="45.9894858" lon="10.3240746"><ele>411.0</ele><time>2026-04-23T15:37:12.984Z</time></trkpt><trkpt lat="45.9895431" lon="10.3241468"><ele>411.0</ele><time>2026-04-23T15:37:14.985Z</time></trkpt><trkpt lat="45.9896007" lon="10.3242209"><ele>411.0</ele><time>2026-04-23T15:37:16.985Z</time></trkpt><trkpt lat="45.9896616" lon="10.3242931"><ele>411.0</ele><time>2026-04-23T15:37:18.984Z</time></trkpt><trkpt lat="45.989727" lon="10.3243571"><ele>411.0</ele><time>2026-04-23T15:37:20.985Z</time></trkpt><trkpt lat="45.9897923" lon="10.3244187"><ele>411.0</ele><time>2026-04-23T15:37:22.985Z</time></trkpt><trkpt lat="45.9898601" lon="10.3244771"><ele>411.0</ele><time>2026-04-23T15:37:24.985Z</time></trkpt><trkpt lat="45.9899301" lon="10.3245324"><ele>411.0</ele><time>2026-04-23T15:37:26.985Z</time></trkpt><trkpt lat="45.9899977" lon="10.3245867"><ele>411.0</ele><time>2026-04-23T15:37:28.985Z</time></trkpt><trkpt lat="45.9900659" lon="10.3246391"><ele>411.0</ele><time>2026-04-23T15:37:30.985Z</time></trkpt><trkpt lat="45.9901372" lon="10.3246903"><ele>411.0</ele><time>2026-04-23T15:37:32.985Z</time></trkpt><trkpt lat="45.9902094" lon="10.3247375"><ele>411.8333333333333</ele><time>2026-04-23T15:37:34.985Z</time></trkpt><trkpt lat="45.990281" lon="10.3247822"><ele>412.66666666666663</ele><time>2026-04-23T15:37:36.985Z</time></trkpt><trkpt lat="45.9903536" lon="10.3248192"><ele>413.5</ele><time>2026-04-23T15:37:38.985Z</time></trkpt><trkpt lat="45.9904218" lon="10.3248627"><ele>414.3333333333333</ele><time>2026-04-23T15:37:40.985Z</time></trkpt><trkpt lat="45.9904921" lon="10.3249008"><ele>415.16666666666663</ele><time>2026-04-23T15:37:42.985Z</time></trkpt><trkpt lat="45.9905644" lon="10.3249343"><ele>416.0</ele><time>2026-04-23T15:37:44.985Z</time></trkpt><trkpt lat="45.9906343" lon="10.3249698"><ele>416.0</ele><time>2026-04-23T15:37:46.985Z</time></trkpt><trkpt lat="45.9907035" lon="10.324999"><ele>416.0</ele><time>2026-04-23T15:37:48.985Z</time></trkpt><trkpt lat="45.9907714" lon="10.3250267"><ele>416.0</ele><time>2026-04-23T15:37:50.985Z</time></trkpt><trkpt lat="45.9908353" lon="10.325058"><ele>416.0</ele><time>2026-04-23T15:37:52.985Z</time></trkpt><trkpt lat="45.9908971" lon="10.3250906"><ele>416.0</ele><time>2026-04-23T15:37:54.985Z</time></trkpt><trkpt lat="45.9909592" lon="10.3251203"><ele>416.0</ele><time>2026-04-23T15:37:56.985Z</time></trkpt><trkpt lat="45.9910333" lon="10.3251913"><ele>416.0</ele><time>2026-04-23T15:37:59.985Z</time></trkpt><trkpt lat="45.9911006" lon="10.3252349"><ele>416.57142857142856</ele><time>2026-04-23T15:38:01.985Z</time></trkpt><trkpt lat="45.9911668" lon="10.3252793"><ele>417.14285714285717</ele><time>2026-04-23T15:38:03.985Z</time></trkpt><trkpt lat="45.9912242" lon="10.325337"><ele>417.7142857142857</ele><time>2026-04-23T15:38:05.985Z</time></trkpt><trkpt lat="45.9912812" lon="10.3253963"><ele>418.2857142857143</ele><time>2026-04-23T15:38:07.985Z</time></trkpt><trkpt lat="45.9913411" lon="10.3254576"><ele>418.8571428571429</ele><time>2026-04-23T15:38:09.985Z</time></trkpt><trkpt lat="45.9914065" lon="10.325512"><ele>419.42857142857144</ele><time>2026-04-23T15:38:11.985Z</time></trkpt><trkpt lat="45.9914759" lon="10.3255594"><ele>420.0</ele><time>2026-04-23T15:38:13.985Z</time></trkpt><trkpt lat="45.9915492" lon="10.3256018"><ele>420.0</ele><time>2026-04-23T15:38:15.985Z</time></trkpt><trkpt lat="45.9916204" lon="10.3256464"><ele>420.0</ele><time>2026-04-23T15:38:17.984Z</time></trkpt><trkpt lat="45.991691" lon="10.3256943"><ele>420.0</ele><time>2026-04-23T15:38:19.985Z</time></trkpt><trkpt lat="45.9917598" lon="10.3257457"><ele>420.0</ele><time>2026-04-23T15:38:21.985Z</time></trkpt><trkpt lat="45.9918293" lon="10.3257942"><ele>420.0</ele><time>2026-04-23T15:38:23.985Z</time></trkpt><trkpt lat="45.9919001" lon="10.3258388"><ele>420.0</ele><time>2026-04-23T15:38:25.985Z</time></trkpt><trkpt lat="45.9919702" lon="10.32588"><ele>422.5</ele><time>2026-04-23T15:38:27.985Z</time></trkpt><trkpt lat="45.9920401" lon="10.3259234"><ele>425.0</ele><time>2026-04-23T15:38:29.985Z</time></trkpt><trkpt lat="45.9921092" lon="10.325972"><ele>427.5</ele><time>2026-04-23T15:38:31.984Z</time></trkpt><trkpt lat="45.9921788" lon="10.3260278"><ele>430.0</ele><time>2026-04-23T15:38:33.984Z</time></trkpt><trkpt lat="45.9922488" lon="10.3260831"><ele>432.5</ele><time>2026-04-23T15:38:35.985Z</time></trkpt><trkpt lat="45.9923172" lon="10.3261409"><ele>435.0</ele><time>2026-04-23T15:38:37.985Z</time></trkpt><trkpt lat="45.9923865" lon="10.3262014"><ele>435.0</ele><time>2026-04-23T15:38:39.985Z</time></trkpt><trkpt lat="45.9924575" lon="10.3262591"><ele>435.0</ele><time>2026-04-23T15:38:41.985Z</time></trkpt><trkpt lat="45.9925312" lon="10.326312"><ele>435.0</ele><time>2026-04-23T15:38:43.985Z</time></trkpt><trkpt lat="45.9926054" lon="10.3263642"><ele>435.0</ele><time>2026-04-23T15:38:45.985Z</time></trkpt><trkpt lat="45.9926837" lon="10.3264164"><ele>435.0</ele><time>2026-04-23T15:38:47.985Z</time></trkpt><trkpt lat="45.9927645" lon="10.3264664"><ele>435.0</ele><time>2026-04-23T15:38:49.985Z</time></trkpt><trkpt lat="45.9928501" lon="10.3265193"><ele>434.4</ele><time>2026-04-23T15:38:51.985Z</time></trkpt><trkpt lat="45.9929426" lon="10.3265729"><ele>433.8</ele><time>2026-04-23T15:38:53.985Z</time></trkpt><trkpt lat="45.9930385" lon="10.3266197"><ele>433.20000000000005</ele><time>2026-04-23T15:38:55.985Z</time></trkpt><trkpt lat="45.9931309" lon="10.3266702"><ele>432.6</ele><time>2026-04-23T15:38:57.984Z</time></trkpt><trkpt lat="45.993219" lon="10.3267342"><ele>432.0</ele><time>2026-04-23T15:38:59.985Z</time></trkpt><trkpt lat="45.9933125" lon="10.3268076"><ele>434.0</ele><time>2026-04-23T15:39:01.985Z</time></trkpt><trkpt lat="45.9934042" lon="10.3268864"><ele>436.00000000000006</ele><time>2026-04-23T15:39:03.985Z</time></trkpt><trkpt lat="45.9934923" lon="10.3269586"><ele>438.00000000000006</ele><time>2026-04-23T15:39:05.985Z</time></trkpt><trkpt lat="45.9935806" lon="10.327031"><ele>440.0</ele><time>2026-04-23T15:39:07.985Z</time></trkpt><trkpt lat="45.9936736" lon="10.3270958"><ele>442.0</ele><time>2026-04-23T15:39:09.985Z</time></trkpt><trkpt lat="45.9937671" lon="10.3271514"><ele>442.0</ele><time>2026-04-23T15:39:11.985Z</time></trkpt><trkpt lat="45.9938565" lon="10.3272106"><ele>442.00000000000006</ele><time>2026-04-23T15:39:13.985Z</time></trkpt><trkpt lat="45.9939359" lon="10.3272884"><ele>442.00000000000006</ele><time>2026-04-23T15:39:15.985Z</time></trkpt><trkpt lat="45.9940126" lon="10.3273678"><ele>442.0</ele><time>2026-04-23T15:39:17.985Z</time></trkpt><trkpt lat="45.9940931" lon="10.3274339"><ele>442.0</ele><time>2026-04-23T15:39:19.984Z</time></trkpt><trkpt lat="45.9941873" lon="10.3274839"><ele>440.8</ele><time>2026-04-23T15:39:21.985Z</time></trkpt><trkpt lat="45.9942901" lon="10.3275128"><ele>439.6</ele><time>2026-04-23T15:39:23.985Z</time></trkpt><trkpt lat="45.9943977" lon="10.3275451"><ele>438.40000000000003</ele><time>2026-04-23T15:39:25.985Z</time></trkpt><trkpt lat="45.9944991" lon="10.3275993"><ele>437.20000000000005</ele><time>2026-04-23T15:39:27.985Z</time></trkpt><trkpt lat="45.994557" lon="10.3276442"><ele>436.0</ele><time>2026-04-23T15:39:28.985Z</time></trkpt><trkpt lat="45.9946186" lon="10.3276909"><ele>436.00000000000006</ele><time>2026-04-23T15:39:29.985Z</time></trkpt><trkpt lat="45.9946828" lon="10.3277347"><ele>436.0</ele><time>2026-04-23T15:39:30.985Z</time></trkpt><trkpt lat="45.9947485" lon="10.3277747"><ele>436.0</ele><time>2026-04-23T15:39:31.985Z</time></trkpt><trkpt lat="45.994814" lon="10.3278088"><ele>436.0</ele><time>2026-04-23T15:39:32.985Z</time></trkpt><trkpt lat="45.9949174" lon="10.3278587"><ele>436.00000000000006</ele><time>2026-04-23T15:39:34.985Z</time></trkpt><trkpt lat="45.9949849" lon="10.3278825"><ele>436.0</ele><time>2026-04-23T15:39:35.985Z</time></trkpt><trkpt lat="45.9950476" lon="10.3279066"><ele>435.20000000000005</ele><time>2026-04-23T15:39:36.985Z</time></trkpt><trkpt lat="45.9951591" lon="10.327947"><ele>434.40000000000003</ele><time>2026-04-23T15:39:38.985Z</time></trkpt><trkpt lat="45.9952642" lon="10.3279699"><ele>433.6</ele><time>2026-04-23T15:39:40.985Z</time></trkpt><trkpt lat="45.9953694" lon="10.3279903"><ele>432.8</ele><time>2026-04-23T15:39:42.985Z</time></trkpt><trkpt lat="45.9954709" lon="10.3280254"><ele>432.0</ele><time>2026-04-23T15:39:44.984Z</time></trkpt><trkpt lat="45.995568" lon="10.3280764"><ele>432.0</ele><time>2026-04-23T15:39:46.985Z</time></trkpt><trkpt lat="45.9956606" lon="10.3281325"><ele>432.00000000000006</ele><time>2026-04-23T15:39:48.985Z</time></trkpt><trkpt lat="45.9957494" lon="10.3281796"><ele>432.00000000000006</ele><time>2026-04-23T15:39:50.985Z</time></trkpt><trkpt lat="45.9958385" lon="10.3282147"><ele>432.0</ele><time>2026-04-23T15:39:52.985Z</time></trkpt><trkpt lat="45.9959359" lon="10.3282208"><ele>432.0</ele><time>2026-04-23T15:39:54.985Z</time></trkpt><trkpt lat="45.9960338" lon="10.3282219"><ele>432.8</ele><time>2026-04-23T15:39:56.985Z</time></trkpt><trkpt lat="45.9961353" lon="10.3282354"><ele>433.6</ele><time>2026-04-23T15:39:58.985Z</time></trkpt><trkpt lat="45.9962385" lon="10.3282765"><ele>434.40000000000003</ele><time>2026-04-23T15:40:00.985Z</time></trkpt><trkpt lat="45.9963431" lon="10.3283191"><ele>435.20000000000005</ele><time>2026-04-23T15:40:02.984Z</time></trkpt><trkpt lat="45.9964479" lon="10.3283698"><ele>436.0</ele><time>2026-04-23T15:40:04.985Z</time></trkpt><trkpt lat="45.9965446" lon="10.3283998"><ele>436.0</ele><time>2026-04-23T15:40:06.985Z</time></trkpt><trkpt lat="45.9966419" lon="10.3283944"><ele>436.0</ele><time>2026-04-23T15:40:08.985Z</time></trkpt><trkpt lat="45.9967306" lon="10.3283513"><ele>436.0</ele><time>2026-04-23T15:40:10.985Z</time></trkpt><trkpt lat="45.9968099" lon="10.3282841"><ele>436.0</ele><time>2026-04-23T15:40:12.985Z</time></trkpt><trkpt lat="45.9968934" lon="10.3281944"><ele>436.0</ele><time>2026-04-23T15:40:14.985Z</time></trkpt><trkpt lat="45.9969816" lon="10.3280938"><ele>437.8</ele><time>2026-04-23T15:40:16.985Z</time></trkpt><trkpt lat="45.9970748" lon="10.3280031"><ele>439.6</ele><time>2026-04-23T15:40:18.985Z</time></trkpt><trkpt lat="45.9971745" lon="10.3279553"><ele>441.4</ele><time>2026-04-23T15:40:20.985Z</time></trkpt><trkpt lat="45.9972705" lon="10.327904"><ele>443.2</ele><time>2026-04-23T15:40:22.985Z</time></trkpt><trkpt lat="45.9973665" lon="10.3278573"><ele>445.0</ele><time>2026-04-23T15:40:24.985Z</time></trkpt><trkpt lat="45.9974591" lon="10.3278086"><ele>444.83333333333337</ele><time>2026-04-23T15:40:26.985Z</time></trkpt><trkpt lat="45.9975424" lon="10.3277552"><ele>444.6666666666667</ele><time>2026-04-23T15:40:28.985Z</time></trkpt><trkpt lat="45.9976138" lon="10.3277194"><ele>444.5</ele><time>2026-04-23T15:40:30.985Z</time></trkpt><trkpt lat="45.9976912" lon="10.3276787"><ele>444.33333333333337</ele><time>2026-04-23T15:40:32.985Z</time></trkpt><trkpt lat="45.9977699" lon="10.3276461"><ele>444.1666666666667</ele><time>2026-04-23T15:40:34.985Z</time></trkpt><trkpt lat="45.9978471" lon="10.3276124"><ele>444.0</ele><time>2026-04-23T15:40:36.985Z</time></trkpt><trkpt lat="45.9979218" lon="10.327575"><ele>444.0</ele><time>2026-04-23T15:40:38.985Z</time></trkpt><trkpt lat="45.9979972" lon="10.3275316"><ele>444.0</ele><time>2026-04-23T15:40:40.985Z</time></trkpt><trkpt lat="45.9980764" lon="10.3274927"><ele>444.0</ele><time>2026-04-23T15:40:42.985Z</time></trkpt><trkpt lat="45.9981536" lon="10.3274515"><ele>444.0</ele><time>2026-04-23T15:40:44.985Z</time></trkpt><trkpt lat="45.9982262" lon="10.3274205"><ele>444.0</ele><time>2026-04-23T15:40:46.985Z</time></trkpt><trkpt lat="45.9983024" lon="10.3273984"><ele>444.0</ele><time>2026-04-23T15:40:48.985Z</time></trkpt><trkpt lat="45.99839" lon="10.3273929"><ele>444.79999999999995</ele><time>2026-04-23T15:40:50.985Z</time></trkpt><trkpt lat="45.9984826" lon="10.3273916"><ele>445.59999999999997</ele><time>2026-04-23T15:40:52.984Z</time></trkpt><trkpt lat="45.9985562" lon="10.3273912"><ele>446.4</ele><time>2026-04-23T15:40:54.985Z</time></trkpt><trkpt lat="45.99866" lon="10.3273894"><ele>447.2</ele><time>2026-04-23T15:40:56.985Z</time></trkpt><trkpt lat="45.9987589" lon="10.3273841"><ele>448.0</ele><time>2026-04-23T15:40:58.985Z</time></trkpt><trkpt lat="45.9988533" lon="10.3273891"><ele>448.00000000000006</ele><time>2026-04-23T15:41:00.985Z</time></trkpt><trkpt lat="45.998944" lon="10.3274147"><ele>448.0</ele><time>2026-04-23T15:41:02.985Z</time></trkpt><trkpt lat="45.9990291" lon="10.3274469"><ele>448.0</ele><time>2026-04-23T15:41:04.985Z</time></trkpt><trkpt lat="45.9991141" lon="10.327472"><ele>448.0</ele><time>2026-04-23T15:41:06.984Z</time></trkpt><trkpt lat="45.9991992" lon="10.3274844"><ele>448.00000000000006</ele><time>2026-04-23T15:41:08.985Z</time></trkpt><trkpt lat="45.9992826" lon="10.327486"><ele>448.0</ele><time>2026-04-23T15:41:10.985Z</time></trkpt><trkpt lat="45.9993688" lon="10.3274758"><ele>447.4</ele><time>2026-04-23T15:41:12.985Z</time></trkpt><trkpt lat="45.9994576" lon="10.3274581"><ele>446.79999999999995</ele><time>2026-04-23T15:41:14.985Z</time></trkpt><trkpt lat="45.9995486" lon="10.3274263"><ele>446.2</ele><time>2026-04-23T15:41:16.984Z</time></trkpt><trkpt lat="45.9996458" lon="10.327394"><ele>445.6</ele><time>2026-04-23T15:41:18.985Z</time></trkpt><trkpt lat="45.9997458" lon="10.3273318"><ele>445.0</ele><time>2026-04-23T15:41:20.985Z</time></trkpt><trkpt lat="45.9998188" lon="10.3272188"><ele>447.2</ele><time>2026-04-23T15:41:22.985Z</time></trkpt><trkpt lat="45.9999052" lon="10.3270991"><ele>449.4</ele><time>2026-04-23T15:41:24.985Z</time></trkpt><trkpt lat="45.9999833" lon="10.3269883"><ele>451.6</ele><time>2026-04-23T15:41:26.984Z</time></trkpt><trkpt lat="46.0000558" lon="10.3268881"><ele>453.8</ele><time>2026-04-23T15:41:28.984Z</time></trkpt><trkpt lat="46.0001159" lon="10.3267847"><ele>456.0</ele><time>2026-04-23T15:41:30.985Z</time></trkpt><trkpt lat="46.0001661" lon="10.3266801"><ele>456.0</ele><time>2026-04-23T15:41:32.985Z</time></trkpt><trkpt lat="46.0002228" lon="10.3265838"><ele>456.0</ele><time>2026-04-23T15:41:34.985Z</time></trkpt><trkpt lat="46.0002822" lon="10.3264924"><ele>456.0</ele><time>2026-04-23T15:41:36.985Z</time></trkpt><trkpt lat="46.0003343" lon="10.3264146"><ele>456.0</ele><time>2026-04-23T15:41:38.985Z</time></trkpt><trkpt lat="46.0003878" lon="10.3263449"><ele>456.0</ele><time>2026-04-23T15:41:40.985Z</time></trkpt><trkpt lat="46.000442" lon="10.326282"><ele>456.0</ele><time>2026-04-23T15:41:42.985Z</time></trkpt><trkpt lat="46.0004925" lon="10.3262166"><ele>457.3333333333333</ele><time>2026-04-23T15:41:44.985Z</time></trkpt><trkpt lat="46.0005374" lon="10.326147"><ele>458.66666666666663</ele><time>2026-04-23T15:41:46.985Z</time></trkpt><trkpt lat="46.0005876" lon="10.3260398"><ele>460.0</ele><time>2026-04-23T15:41:49.985Z</time></trkpt><trkpt lat="46.0006268" lon="10.325918"><ele>461.3333333333333</ele><time>2026-04-23T15:41:52.985Z</time></trkpt><trkpt lat="46.0006524" lon="10.3258334"><ele>462.66666666666663</ele><time>2026-04-23T15:41:54.984Z</time></trkpt><trkpt lat="46.0006833" lon="10.3257507"><ele>464.0</ele><time>2026-04-23T15:41:56.984Z</time></trkpt><trkpt lat="46.0007252" lon="10.3256597"><ele>464.0</ele><time>2026-04-23T15:41:59.985Z</time></trkpt><trkpt lat="46.0007983" lon="10.3256252"><ele>464.0</ele><time>2026-04-23T15:42:42.985Z</time></trkpt><trkpt lat="46.0008751" lon="10.3256134"><ele>464.0</ele><time>2026-04-23T15:42:44.985Z</time></trkpt><trkpt lat="46.0009828" lon="10.3255672"><ele>464.0</ele><time>2026-04-23T15:42:46.985Z</time></trkpt><trkpt lat="46.0011059" lon="10.3255148"><ele>464.0</ele><time>2026-04-23T15:42:48.985Z</time></trkpt><trkpt lat="46.0011717" lon="10.3254818"><ele>464.49999999999994</ele><time>2026-04-23T15:42:49.985Z</time></trkpt><trkpt lat="46.0012416" lon="10.325461"><ele>465.0</ele><time>2026-04-23T15:42:50.985Z</time></trkpt><trkpt lat="46.0013126" lon="10.3254926"><ele>465.5</ele><time>2026-04-23T15:42:51.985Z</time></trkpt><trkpt lat="46.0013739" lon="10.3255702"><ele>466.0</ele><time>2026-04-23T15:42:52.985Z</time></trkpt><trkpt lat="46.0014338" lon="10.3256764"><ele>466.49999999999994</ele><time>2026-04-23T15:42:53.985Z</time></trkpt><trkpt lat="46.001509" lon="10.3257923"><ele>467.0</ele><time>2026-04-23T15:42:54.984Z</time></trkpt><trkpt lat="46.0015955" lon="10.3259024"><ele>462.0</ele><time>2026-04-23T15:42:55.985Z</time></trkpt><trkpt lat="46.0017022" lon="10.3259897"><ele>457.00000000000006</ele><time>2026-04-23T15:42:56.985Z</time></trkpt><trkpt lat="46.0018143" lon="10.3260271"><ele>452.00000000000006</ele><time>2026-04-23T15:42:57.985Z</time></trkpt><trkpt lat="46.0019171" lon="10.326061"><ele>447.0</ele><time>2026-04-23T15:42:58.985Z</time></trkpt><trkpt lat="46.0020062" lon="10.3261287"><ele>442.0</ele><time>2026-04-23T15:42:59.985Z</time></trkpt><trkpt lat="46.0020719" lon="10.3262426"><ele>442.0</ele><time>2026-04-23T15:43:00.985Z</time></trkpt><trkpt lat="46.0021032" lon="10.326378"><ele>442.00000000000006</ele><time>2026-04-23T15:43:01.985Z</time></trkpt><trkpt lat="46.0020811" lon="10.3265111"><ele>442.00000000000006</ele><time>2026-04-23T15:43:02.985Z</time></trkpt><trkpt lat="46.0020234" lon="10.3266335"><ele>442.0</ele><time>2026-04-23T15:43:03.985Z</time></trkpt><trkpt lat="46.0019551" lon="10.326752"><ele>442.0</ele><time>2026-04-23T15:43:04.985Z</time></trkpt><trkpt lat="46.0018858" lon="10.3268807"><ele>439.75</ele><time>2026-04-23T15:43:05.985Z</time></trkpt><trkpt lat="46.0018121" lon="10.3270067"><ele>437.5</ele><time>2026-04-23T15:43:06.985Z</time></trkpt><trkpt lat="46.0017363" lon="10.3271416"><ele>435.25</ele><time>2026-04-23T15:43:07.985Z</time></trkpt><trkpt lat="46.0016704" lon="10.327286"><ele>433.0</ele><time>2026-04-23T15:43:08.985Z</time></trkpt><trkpt lat="46.001606" lon="10.327437"><ele>433.0</ele><time>2026-04-23T15:43:09.985Z</time></trkpt><trkpt lat="46.0015645" lon="10.3276005"><ele>433.0</ele><time>2026-04-23T15:43:10.985Z</time></trkpt><trkpt lat="46.0015487" lon="10.3277762"><ele>433.0</ele><time>2026-04-23T15:43:11.985Z</time></trkpt><trkpt lat="46.001544" lon="10.327952"><ele>433.0</ele><time>2026-04-23T15:43:12.985Z</time></trkpt><trkpt lat="46.0015494" lon="10.3281294"><ele>431.0</ele><time>2026-04-23T15:43:13.985Z</time></trkpt><trkpt lat="46.0015721" lon="10.328308"><ele>429.0</ele><time>2026-04-23T15:43:14.985Z</time></trkpt><trkpt lat="46.0015941" lon="10.3284878"><ele>427.0</ele><time>2026-04-23T15:43:15.984Z</time></trkpt><trkpt lat="46.0016082" lon="10.3286711"><ele>425.0</ele><time>2026-04-23T15:43:16.985Z</time></trkpt><trkpt lat="46.0015879" lon="10.3288546"><ele>423.0</ele><time>2026-04-23T15:43:17.985Z</time></trkpt><trkpt lat="46.0015504" lon="10.3290403"><ele>421.0</ele><time>2026-04-23T15:43:18.985Z</time></trkpt><trkpt lat="46.0015016" lon="10.3292208"><ele>419.0</ele><time>2026-04-23T15:43:19.985Z</time></trkpt><trkpt lat="46.0014767" lon="10.3294113"><ele>417.0</ele><time>2026-04-23T15:43:20.985Z</time></trkpt><trkpt lat="46.0014941" lon="10.32961"><ele>414.75</ele><time>2026-04-23T15:43:21.985Z</time></trkpt><trkpt lat="46.0015433" lon="10.3297876"><ele>412.5</ele><time>2026-04-23T15:43:22.985Z</time></trkpt><trkpt lat="46.0016315" lon="10.3299288"><ele>410.25</ele><time>2026-04-23T15:43:23.985Z</time></trkpt><trkpt lat="46.0017482" lon="10.330013"><ele>408.0</ele><time>2026-04-23T15:43:24.985Z</time></trkpt><trkpt lat="46.0018665" lon="10.3301045"><ele>407.5</ele><time>2026-04-23T15:43:25.985Z</time></trkpt><trkpt lat="46.00198" lon="10.3301876"><ele>407.0</ele><time>2026-04-23T15:43:26.985Z</time></trkpt><trkpt lat="46.0020658" lon="10.330325"><ele>406.5</ele><time>2026-04-23T15:43:27.985Z</time></trkpt><trkpt lat="46.0021286" lon="10.3304812"><ele>406.0</ele><time>2026-04-23T15:43:28.985Z</time></trkpt><trkpt lat="46.0021857" lon="10.3306479"><ele>404.25</ele><time>2026-04-23T15:43:29.985Z</time></trkpt><trkpt lat="46.0022253" lon="10.3308222"><ele>402.5</ele><time>2026-04-23T15:43:30.984Z</time></trkpt><trkpt lat="46.0022359" lon="10.3310108"><ele>400.75</ele><time>2026-04-23T15:43:31.985Z</time></trkpt><trkpt lat="46.0022151" lon="10.3311995"><ele>399.0</ele><time>2026-04-23T15:43:32.985Z</time></trkpt><trkpt lat="46.0021744" lon="10.3313854"><ele>397.25</ele><time>2026-04-23T15:43:33.985Z</time></trkpt><trkpt lat="46.0021307" lon="10.3315764"><ele>395.5</ele><time>2026-04-23T15:43:34.984Z</time></trkpt><trkpt lat="46.0020893" lon="10.3317686"><ele>393.75</ele><time>2026-04-23T15:43:35.985Z</time></trkpt><trkpt lat="46.0020467" lon="10.3319667"><ele>392.0</ele><time>2026-04-23T15:43:36.985Z</time></trkpt><trkpt lat="46.0020095" lon="10.3321698"><ele>390.0</ele><time>2026-04-23T15:43:37.985Z</time></trkpt><trkpt lat="46.00197" lon="10.3323757"><ele>388.0</ele><time>2026-04-23T15:43:38.985Z</time></trkpt><trkpt lat="46.001926" lon="10.332584"><ele>386.0</ele><time>2026-04-23T15:43:39.985Z</time></trkpt><trkpt lat="46.0018661" lon="10.3327835"><ele>386.0</ele><time>2026-04-23T15:43:40.985Z</time></trkpt><trkpt lat="46.0017821" lon="10.3329664"><ele>386.0</ele><time>2026-04-23T15:43:41.985Z</time></trkpt><trkpt lat="46.0016856" lon="10.3331323"><ele>386.0</ele><time>2026-04-23T15:43:42.985Z</time></trkpt><trkpt lat="46.0015873" lon="10.3332923"><ele>383.75</ele><time>2026-04-23T15:43:43.984Z</time></trkpt><trkpt lat="46.0014724" lon="10.3334315"><ele>381.5</ele><time>2026-04-23T15:43:44.985Z</time></trkpt><trkpt lat="46.0013507" lon="10.3335478"><ele>379.25</ele><time>2026-04-23T15:43:45.985Z</time></trkpt><trkpt lat="46.0012265" lon="10.3336572"><ele>377.0</ele><time>2026-04-23T15:43:46.985Z</time></trkpt><trkpt lat="46.001099" lon="10.3337608"><ele>377.0</ele><time>2026-04-23T15:43:47.985Z</time></trkpt><trkpt lat="46.0009794" lon="10.333867"><ele>377.0</ele><time>2026-04-23T15:43:48.985Z</time></trkpt><trkpt lat="46.0008648" lon="10.3339914"><ele>377.0</ele><time>2026-04-23T15:43:49.985Z</time></trkpt><trkpt lat="46.0007707" lon="10.3341455"><ele>377.0</ele><time>2026-04-23T15:43:50.985Z</time></trkpt><trkpt lat="46.0006962" lon="10.3343211"><ele>375.0</ele><time>2026-04-23T15:43:51.985Z</time></trkpt><trkpt lat="46.0006294" lon="10.3345036"><ele>373.0</ele><time>2026-04-23T15:43:52.985Z</time></trkpt><trkpt lat="46.0005609" lon="10.334692"><ele>371.0</ele><time>2026-04-23T15:43:53.985Z</time></trkpt><trkpt lat="46.0004905" lon="10.3348823"><ele>369.0</ele><time>2026-04-23T15:43:54.984Z</time></trkpt><trkpt lat="46.0004233" lon="10.3350757"><ele>366.3333333333333</ele><time>2026-04-23T15:43:55.985Z</time></trkpt><trkpt lat="46.0003535" lon="10.335264"><ele>363.66666666666663</ele><time>2026-04-23T15:43:56.985Z</time></trkpt><trkpt lat="46.0002784" lon="10.3354553"><ele>361.0</ele><time>2026-04-23T15:43:57.985Z</time></trkpt><trkpt lat="46.0002047" lon="10.3356493"><ele>359.75</ele><time>2026-04-23T15:43:58.985Z</time></trkpt><trkpt lat="46.0001351" lon="10.3358421"><ele>358.5</ele><time>2026-04-23T15:43:59.985Z</time></trkpt><trkpt lat="46.0000651" lon="10.3360339"><ele>357.25</ele><time>2026-04-23T15:44:00.985Z</time></trkpt><trkpt lat="45.9999921" lon="10.3362169"><ele>356.0</ele><time>2026-04-23T15:44:01.985Z</time></trkpt><trkpt lat="45.999918" lon="10.3364"><ele>354.25</ele><time>2026-04-23T15:44:02.985Z</time></trkpt><trkpt lat="45.999835" lon="10.3365689"><ele>352.5</ele><time>2026-04-23T15:44:03.985Z</time></trkpt><trkpt lat="45.9997393" lon="10.3367232"><ele>350.75</ele><time>2026-04-23T15:44:04.985Z</time></trkpt><trkpt lat="45.9996365" lon="10.3368657"><ele>349.0</ele><time>2026-04-23T15:44:05.985Z</time></trkpt><trkpt lat="45.9995281" lon="10.3369862"><ele>349.0</ele><time>2026-04-23T15:44:06.985Z</time></trkpt><trkpt lat="45.9994389" lon="10.3371284"><ele>349.0</ele><time>2026-04-23T15:44:07.984Z</time></trkpt><trkpt lat="45.9993464" lon="10.337261"><ele>349.0</ele><time>2026-04-23T15:44:08.985Z</time></trkpt><trkpt lat="45.9992464" lon="10.337375"><ele>349.0</ele><time>2026-04-23T15:44:09.984Z</time></trkpt><trkpt lat="45.999151" lon="10.3374893"><ele>347.5</ele><time>2026-04-23T15:44:10.985Z</time></trkpt><trkpt lat="45.9990603" lon="10.3375997"><ele>346.0</ele><time>2026-04-23T15:44:11.985Z</time></trkpt><trkpt lat="45.9989716" lon="10.3377087"><ele>344.5</ele><time>2026-04-23T15:44:12.985Z</time></trkpt><trkpt lat="45.9988862" lon="10.3378115"><ele>343.0</ele><time>2026-04-23T15:44:13.985Z</time></trkpt><trkpt lat="45.9988076" lon="10.3379181"><ele>343.0</ele><time>2026-04-23T15:44:14.985Z</time></trkpt><trkpt lat="45.9987312" lon="10.3380155"><ele>343.0</ele><time>2026-04-23T15:44:15.985Z</time></trkpt><trkpt lat="45.998656" lon="10.3381149"><ele>343.0</ele><time>2026-04-23T15:44:16.985Z</time></trkpt><trkpt lat="45.9985803" lon="10.3382056"><ele>343.0</ele><time>2026-04-23T15:44:17.985Z</time></trkpt><trkpt lat="45.9985096" lon="10.3382955"><ele>343.0</ele><time>2026-04-23T15:44:18.984Z</time></trkpt><trkpt lat="45.9984409" lon="10.3383816"><ele>342.5</ele><time>2026-04-23T15:44:19.985Z</time></trkpt><trkpt lat="45.9983708" lon="10.338464"><ele>342.0</ele><time>2026-04-23T15:44:20.985Z</time></trkpt><trkpt lat="45.9982943" lon="10.3385237"><ele>341.5</ele><time>2026-04-23T15:44:21.985Z</time></trkpt><trkpt lat="45.9982161" lon="10.3385443"><ele>341.0</ele><time>2026-04-23T15:44:22.985Z</time></trkpt><trkpt lat="45.9981457" lon="10.3385265"><ele>340.5</ele><time>2026-04-23T15:44:23.985Z</time></trkpt><trkpt lat="45.9980798" lon="10.3385091"><ele>340.0</ele><time>2026-04-23T15:44:24.985Z</time></trkpt><trkpt lat="45.9980107" lon="10.3384989"><ele>340.0</ele><time>2026-04-23T15:44:25.984Z</time></trkpt><trkpt lat="45.9979464" lon="10.3385236"><ele>340.0</ele><time>2026-04-23T15:44:26.985Z</time></trkpt><trkpt lat="45.9978992" lon="10.3385873"><ele>340.0</ele><time>2026-04-23T15:44:27.985Z</time></trkpt><trkpt lat="45.9978789" lon="10.3386739"><ele>340.0</ele><time>2026-04-23T15:44:28.985Z</time></trkpt><trkpt lat="45.9978475" lon="10.3388428"><ele>340.0</ele><time>2026-04-23T15:44:30.985Z</time></trkpt><trkpt lat="45.9977758" lon="10.3389701"><ele>340.0</ele><time>2026-04-23T15:44:32.985Z</time></trkpt><trkpt lat="45.997686" lon="10.3390354"><ele>341.0</ele><time>2026-04-23T15:44:34.985Z</time></trkpt><trkpt lat="45.9975797" lon="10.3390311"><ele>342.0</ele><time>2026-04-23T15:44:36.985Z</time></trkpt><trkpt lat="45.9974807" lon="10.3389913"><ele>343.0</ele><time>2026-04-23T15:44:38.985Z</time></trkpt><trkpt lat="45.9973807" lon="10.3389387"><ele>344.0</ele><time>2026-04-23T15:44:40.985Z</time></trkpt><trkpt lat="45.9972864" lon="10.338887"><ele>345.0</ele><time>2026-04-23T15:44:42.985Z</time></trkpt><trkpt lat="45.9971902" lon="10.3388433"><ele>345.0</ele><time>2026-04-23T15:44:44.985Z</time></trkpt><trkpt lat="45.9971036" lon="10.3388077"><ele>345.0</ele><time>2026-04-23T15:44:46.985Z</time></trkpt><trkpt lat="45.9970254" lon="10.3387717"><ele>345.0</ele><time>2026-04-23T15:44:48.985Z</time></trkpt><trkpt lat="45.9969515" lon="10.3387497"><ele>345.0</ele><time>2026-04-23T15:44:50.985Z</time></trkpt><trkpt lat="45.9968823" lon="10.3387435"><ele>345.0</ele><time>2026-04-23T15:44:52.984Z</time></trkpt><trkpt lat="45.9967797" lon="10.3387591"><ele>345.0</ele><time>2026-04-23T15:44:54.985Z</time></trkpt><trkpt lat="45.9966724" lon="10.338829"><ele>345.6</ele><time>2026-04-23T15:44:56.985Z</time></trkpt><trkpt lat="45.99662" lon="10.338881"><ele>346.2</ele><time>2026-04-23T15:44:57.985Z</time></trkpt><trkpt lat="45.9965676" lon="10.3389334"><ele>346.79999999999995</ele><time>2026-04-23T15:44:58.985Z</time></trkpt><trkpt lat="45.9964658" lon="10.3390164"><ele>347.4</ele><time>2026-04-23T15:45:00.985Z</time></trkpt><trkpt lat="45.9963663" lon="10.3390763"><ele>348.0</ele><time>2026-04-23T15:45:02.984Z</time></trkpt><trkpt lat="45.9962623" lon="10.3391151"><ele>349.0</ele><time>2026-04-23T15:45:04.985Z</time></trkpt><trkpt lat="45.9961581" lon="10.3391367"><ele>350.0</ele><time>2026-04-23T15:45:06.985Z</time></trkpt><trkpt lat="45.9960562" lon="10.3391407"><ele>351.0</ele><time>2026-04-23T15:45:08.984Z</time></trkpt><trkpt lat="45.995958" lon="10.3391361"><ele>352.0</ele><time>2026-04-23T15:45:10.984Z</time></trkpt><trkpt lat="45.9958499" lon="10.3391212"><ele>353.0</ele><time>2026-04-23T15:45:12.985Z</time></trkpt><trkpt lat="45.995756" lon="10.339078"><ele>353.79999999999995</ele><time>2026-04-23T15:45:14.984Z</time></trkpt><trkpt lat="45.9956592" lon="10.3390194"><ele>354.6</ele><time>2026-04-23T15:45:16.985Z</time></trkpt><trkpt lat="45.9955525" lon="10.3389718"><ele>355.4</ele><time>2026-04-23T15:45:18.984Z</time></trkpt><trkpt lat="45.9954482" lon="10.3389744"><ele>356.20000000000005</ele><time>2026-04-23T15:45:20.985Z</time></trkpt><trkpt lat="45.9953773" lon="10.3390779"><ele>357.0</ele><time>2026-04-23T15:45:22.985Z</time></trkpt><trkpt lat="45.9953624" lon="10.3392255"><ele>357.0</ele><time>2026-04-23T15:45:24.985Z</time></trkpt><trkpt lat="45.995348" lon="10.3393642"><ele>357.0</ele><time>2026-04-23T15:45:26.984Z</time></trkpt><trkpt lat="45.995336" lon="10.3394885"><ele>357.0</ele><time>2026-04-23T15:45:28.985Z</time></trkpt><trkpt lat="45.9953216" lon="10.3396002"><ele>357.0</ele><time>2026-04-23T15:45:30.985Z</time></trkpt><trkpt lat="45.9953079" lon="10.3396954"><ele>357.0</ele><time>2026-04-23T15:45:32.985Z</time></trkpt><trkpt lat="45.9952975" lon="10.3397876"><ele>357.0</ele><time>2026-04-23T15:45:34.985Z</time></trkpt><trkpt lat="45.9953289" lon="10.3398811"><ele>358.0</ele><time>2026-04-23T15:45:36.985Z</time></trkpt><trkpt lat="45.9953653" lon="10.3399844"><ele>359.0</ele><time>2026-04-23T15:45:38.985Z</time></trkpt><trkpt lat="45.9954044" lon="10.3400898"><ele>360.0</ele><time>2026-04-23T15:45:40.985Z</time></trkpt><trkpt lat="45.995429" lon="10.3402143"><ele>361.0</ele><time>2026-04-23T15:45:42.985Z</time></trkpt><trkpt lat="45.9954453" lon="10.3403498"><ele>362.0</ele><time>2026-04-23T15:45:44.985Z</time></trkpt><trkpt lat="45.9954797" lon="10.3404742"><ele>363.0</ele><time>2026-04-23T15:45:46.985Z</time></trkpt><trkpt lat="45.9955231" lon="10.3405893"><ele>364.0</ele><time>2026-04-23T15:45:48.985Z</time></trkpt><trkpt lat="45.9955665" lon="10.3407072"><ele>365.0</ele><time>2026-04-23T15:45:50.985Z</time></trkpt><trkpt lat="45.9956125" lon="10.3408319"><ele>366.0</ele><time>2026-04-23T15:45:52.985Z</time></trkpt><trkpt lat="45.9956578" lon="10.340963"><ele>367.0</ele><time>2026-04-23T15:45:54.985Z</time></trkpt><trkpt lat="45.9957033" lon="10.3410839"><ele>368.0</ele><time>2026-04-23T15:45:56.985Z</time></trkpt><trkpt lat="45.9957607" lon="10.3411952"><ele>368.0</ele><time>2026-04-23T15:45:58.985Z</time></trkpt><trkpt lat="45.9958272" lon="10.3412971"><ele>368.0</ele><time>2026-04-23T15:46:00.985Z</time></trkpt><trkpt lat="45.9959042" lon="10.3413878"><ele>368.0</ele><time>2026-04-23T15:46:02.985Z</time></trkpt><trkpt lat="45.995979" lon="10.341484"><ele>368.0</ele><time>2026-04-23T15:46:04.985Z</time></trkpt><trkpt lat="45.996048" lon="10.341586"><ele>368.0</ele><time>2026-04-23T15:46:06.984Z</time></trkpt><trkpt lat="45.9961051" lon="10.341705"><ele>368.0</ele><time>2026-04-23T15:46:08.985Z</time></trkpt><trkpt lat="45.9961528" lon="10.3418278"><ele>368.0</ele><time>2026-04-23T15:46:10.985Z</time></trkpt><trkpt lat="45.996197" lon="10.3419493"><ele>368.0</ele><time>2026-04-23T15:46:12.985Z</time></trkpt><trkpt lat="45.9962427" lon="10.3420731"><ele>368.0</ele><time>2026-04-23T15:46:14.985Z</time></trkpt><trkpt lat="45.9962765" lon="10.3421973"><ele>368.0</ele><time>2026-04-23T15:46:16.985Z</time></trkpt><trkpt lat="45.9963068" lon="10.342323"><ele>369.2</ele><time>2026-04-23T15:46:18.984Z</time></trkpt><trkpt lat="45.9963278" lon="10.3424569"><ele>370.4</ele><time>2026-04-23T15:46:20.985Z</time></trkpt><trkpt lat="45.9963503" lon="10.3425873"><ele>371.59999999999997</ele><time>2026-04-23T15:46:22.985Z</time></trkpt><trkpt lat="45.9963652" lon="10.3427205"><ele>372.79999999999995</ele><time>2026-04-23T15:46:24.985Z</time></trkpt><trkpt lat="45.9963735" lon="10.3428519"><ele>374.0</ele><time>2026-04-23T15:46:26.985Z</time></trkpt><trkpt lat="45.9963827" lon="10.3429911"><ele>375.0</ele><time>2026-04-23T15:46:28.985Z</time></trkpt><trkpt lat="45.9963935" lon="10.3431253"><ele>376.0</ele><time>2026-04-23T15:46:30.985Z</time></trkpt><trkpt lat="45.9964104" lon="10.3432663"><ele>377.0</ele><time>2026-04-23T15:46:32.985Z</time></trkpt><trkpt lat="45.9964414" lon="10.3433952"><ele>378.0</ele><time>2026-04-23T15:46:34.984Z</time></trkpt><trkpt lat="45.9964852" lon="10.3435189"><ele>379.0</ele><time>2026-04-23T15:46:36.985Z</time></trkpt><trkpt lat="45.9965258" lon="10.3436434"><ele>379.0</ele><time>2026-04-23T15:46:38.985Z</time></trkpt><trkpt lat="45.9965687" lon="10.3437654"><ele>379.0</ele><time>2026-04-23T15:46:40.985Z</time></trkpt><trkpt lat="45.9966121" lon="10.3438908"><ele>379.0</ele><time>2026-04-23T15:46:42.985Z</time></trkpt><trkpt lat="45.9966566" lon="10.3440224"><ele>379.0</ele><time>2026-04-23T15:46:44.985Z</time></trkpt><trkpt lat="45.9967063" lon="10.3441491"><ele>379.0</ele><time>2026-04-23T15:46:46.984Z</time></trkpt><trkpt lat="45.996747" lon="10.3442824"><ele>379.0</ele><time>2026-04-23T15:46:48.985Z</time></trkpt><trkpt lat="45.9967857" lon="10.3444126"><ele>379.0</ele><time>2026-04-23T15:46:50.985Z</time></trkpt><trkpt lat="45.9968157" lon="10.3445478"><ele>379.0</ele><time>2026-04-23T15:46:52.984Z</time></trkpt><trkpt lat="45.9968408" lon="10.3446819"><ele>379.0</ele><time>2026-04-23T15:46:54.985Z</time></trkpt><trkpt lat="45.99687" lon="10.3448139"><ele>379.0</ele><time>2026-04-23T15:46:56.985Z</time></trkpt><trkpt lat="45.9968978" lon="10.3449395"><ele>379.0</ele><time>2026-04-23T15:46:58.985Z</time></trkpt><trkpt lat="45.9969327" lon="10.345072"><ele>379.0</ele><time>2026-04-23T15:47:00.985Z</time></trkpt><trkpt lat="45.9969617" lon="10.345201"><ele>379.0</ele><time>2026-04-23T15:47:02.985Z</time></trkpt><trkpt lat="45.9970017" lon="10.345332"><ele>379.0</ele><time>2026-04-23T15:47:04.985Z</time></trkpt><trkpt lat="45.9970378" lon="10.3454589"><ele>379.0</ele><time>2026-04-23T15:47:06.985Z</time></trkpt><trkpt lat="45.9970769" lon="10.3455844"><ele>379.79999999999995</ele><time>2026-04-23T15:47:08.985Z</time></trkpt><trkpt lat="45.9971201" lon="10.3457101"><ele>380.59999999999997</ele><time>2026-04-23T15:47:10.985Z</time></trkpt><trkpt lat="45.9971617" lon="10.3458424"><ele>381.4</ele><time>2026-04-23T15:47:12.985Z</time></trkpt><trkpt lat="45.9972023" lon="10.3459661"><ele>382.2</ele><time>2026-04-23T15:47:14.985Z</time></trkpt><trkpt lat="45.9972393" lon="10.3460939"><ele>383.0</ele><time>2026-04-23T15:47:16.985Z</time></trkpt><trkpt lat="45.9972874" lon="10.3462286"><ele>383.0</ele><time>2026-04-23T15:47:18.985Z</time></trkpt><trkpt lat="45.9973253" lon="10.3463609"><ele>383.0</ele><time>2026-04-23T15:47:20.985Z</time></trkpt><trkpt lat="45.997368" lon="10.3464897"><ele>383.0</ele><time>2026-04-23T15:47:22.985Z</time></trkpt><trkpt lat="45.9974059" lon="10.3466163"><ele>383.0</ele><time>2026-04-23T15:47:24.985Z</time></trkpt><trkpt lat="45.9974408" lon="10.3467417"><ele>383.0</ele><time>2026-04-23T15:47:26.985Z</time></trkpt><trkpt lat="45.9974738" lon="10.3468661"><ele>383.4</ele><time>2026-04-23T15:47:28.985Z</time></trkpt><trkpt lat="45.9974918" lon="10.3469971"><ele>383.79999999999995</ele><time>2026-04-23T15:47:30.985Z</time></trkpt><trkpt lat="45.9974938" lon="10.3471301"><ele>384.2</ele><time>2026-04-23T15:47:32.984Z</time></trkpt><trkpt lat="45.9974704" lon="10.34726"><ele>384.6</ele><time>2026-04-23T15:47:34.985Z</time></trkpt><trkpt lat="45.9974267" lon="10.3473767"><ele>385.0</ele><time>2026-04-23T15:47:36.985Z</time></trkpt><trkpt lat="45.9973788" lon="10.3474941"><ele>385.6</ele><time>2026-04-23T15:47:38.985Z</time></trkpt><trkpt lat="45.9973415" lon="10.3476186"><ele>386.2</ele><time>2026-04-23T15:47:40.985Z</time></trkpt><trkpt lat="45.9973161" lon="10.3477519"><ele>386.79999999999995</ele><time>2026-04-23T15:47:42.985Z</time></trkpt><trkpt lat="45.997303" lon="10.3478864"><ele>387.4</ele><time>2026-04-23T15:47:44.985Z</time></trkpt><trkpt lat="45.9972934" lon="10.3480194"><ele>388.0</ele><time>2026-04-23T15:47:46.985Z</time></trkpt><trkpt lat="45.9972906" lon="10.3481458"><ele>388.50000000000006</ele><time>2026-04-23T15:47:48.985Z</time></trkpt><trkpt lat="45.9972795" lon="10.3482694"><ele>389.0</ele><time>2026-04-23T15:47:50.985Z</time></trkpt><trkpt lat="45.9972753" lon="10.3483942"><ele>389.5</ele><time>2026-04-23T15:47:52.985Z</time></trkpt><trkpt lat="45.9972731" lon="10.3485163"><ele>390.0</ele><time>2026-04-23T15:47:54.985Z</time></trkpt><trkpt lat="45.9972659" lon="10.3486346"><ele>390.50000000000006</ele><time>2026-04-23T15:47:56.985Z</time></trkpt><trkpt lat="45.9972575" lon="10.3487535"><ele>391.0</ele><time>2026-04-23T15:47:58.985Z</time></trkpt><trkpt lat="45.9972487" lon="10.3488724"><ele>392.1666666666667</ele><time>2026-04-23T15:48:00.985Z</time></trkpt><trkpt lat="45.997244" lon="10.3489919"><ele>393.33333333333337</ele><time>2026-04-23T15:48:02.985Z</time></trkpt><trkpt lat="45.9972493" lon="10.3491098"><ele>394.5</ele><time>2026-04-23T15:48:04.984Z</time></trkpt><trkpt lat="45.9972633" lon="10.349231"><ele>395.66666666666663</ele><time>2026-04-23T15:48:06.985Z</time></trkpt><trkpt lat="45.9972885" lon="10.3493497"><ele>396.8333333333333</ele><time>2026-04-23T15:48:08.985Z</time></trkpt><trkpt lat="45.9973231" lon="10.3494591"><ele>398.0</ele><time>2026-04-23T15:48:10.984Z</time></trkpt><trkpt lat="45.9973611" lon="10.3495638"><ele>397.99999999999994</ele><time>2026-04-23T15:48:12.985Z</time></trkpt><trkpt lat="45.9974043" lon="10.3496631"><ele>398.0</ele><time>2026-04-23T15:48:14.984Z</time></trkpt><trkpt lat="45.9974546" lon="10.3497531"><ele>398.0</ele><time>2026-04-23T15:48:16.985Z</time></trkpt><trkpt lat="45.9975084" lon="10.3498394"><ele>398.0</ele><time>2026-04-23T15:48:18.985Z</time></trkpt><trkpt lat="45.9975672" lon="10.3499162"><ele>397.99999999999994</ele><time>2026-04-23T15:48:20.984Z</time></trkpt><trkpt lat="45.9976299" lon="10.3499876"><ele>398.0</ele><time>2026-04-23T15:48:22.985Z</time></trkpt><trkpt lat="45.9976921" lon="10.350056"><ele>397.16666666666663</ele><time>2026-04-23T15:48:24.985Z</time></trkpt><trkpt lat="45.9977539" lon="10.3501253"><ele>396.3333333333333</ele><time>2026-04-23T15:48:26.985Z</time></trkpt><trkpt lat="45.9978164" lon="10.3501962"><ele>395.5</ele><time>2026-04-23T15:48:28.984Z</time></trkpt><trkpt lat="45.9978793" lon="10.3502607"><ele>394.66666666666663</ele><time>2026-04-23T15:48:30.985Z</time></trkpt><trkpt lat="45.9979489" lon="10.3503451"><ele>393.8333333333333</ele><time>2026-04-23T15:48:32.985Z</time></trkpt><trkpt lat="45.9980214" lon="10.3503752"><ele>393.0</ele><time>2026-04-23T15:48:34.984Z</time></trkpt><trkpt lat="45.9980946" lon="10.3504112"><ele>393.00000000000006</ele><time>2026-04-23T15:48:36.985Z</time></trkpt><trkpt lat="45.9981622" lon="10.3504653"><ele>393.0</ele><time>2026-04-23T15:48:38.985Z</time></trkpt><trkpt lat="45.9982205" lon="10.3505182"><ele>393.0</ele><time>2026-04-23T15:48:40.985Z</time></trkpt><trkpt lat="45.9982838" lon="10.3505748"><ele>393.0</ele><time>2026-04-23T15:48:42.985Z</time></trkpt><trkpt lat="45.9983488" lon="10.3506343"><ele>393.0</ele><time>2026-04-23T15:48:44.984Z</time></trkpt><trkpt lat="45.9984048" lon="10.3506845"><ele>393.00000000000006</ele><time>2026-04-23T15:48:46.985Z</time></trkpt><trkpt lat="45.9984607" lon="10.3507354"><ele>393.0</ele><time>2026-04-23T15:48:48.985Z</time></trkpt><trkpt lat="45.9985132" lon="10.3507906"><ele>395.28571428571433</ele><time>2026-04-23T15:48:50.985Z</time></trkpt><trkpt lat="45.998572" lon="10.3508402"><ele>397.57142857142856</ele><time>2026-04-23T15:48:52.985Z</time></trkpt><trkpt lat="45.9986314" lon="10.3509056"><ele>399.8571428571429</ele><time>2026-04-23T15:48:54.985Z</time></trkpt><trkpt lat="45.9986985" lon="10.3509474"><ele>402.14285714285717</ele><time>2026-04-23T15:48:56.985Z</time></trkpt><trkpt lat="45.998761" lon="10.3509837"><ele>404.42857142857144</ele><time>2026-04-23T15:48:58.984Z</time></trkpt><trkpt lat="45.9988263" lon="10.3510329"><ele>406.7142857142857</ele><time>2026-04-23T15:49:00.985Z</time></trkpt><trkpt lat="45.9988939" lon="10.3510696"><ele>409.0</ele><time>2026-04-23T15:49:02.984Z</time></trkpt><trkpt lat="45.9989635" lon="10.3510957"><ele>409.00000000000006</ele><time>2026-04-23T15:49:04.985Z</time></trkpt><trkpt lat="45.9990381" lon="10.3511302"><ele>409.0</ele><time>2026-04-23T15:49:06.985Z</time></trkpt><trkpt lat="45.9991129" lon="10.3511618"><ele>409.0</ele><time>2026-04-23T15:49:08.985Z</time></trkpt><trkpt lat="45.9991867" lon="10.3511889"><ele>409.0</ele><time>2026-04-23T15:49:10.985Z</time></trkpt><trkpt lat="45.999262" lon="10.3512144"><ele>409.00000000000006</ele><time>2026-04-23T15:49:12.985Z</time></trkpt><trkpt lat="45.9993363" lon="10.3512455"><ele>409.0</ele><time>2026-04-23T15:49:14.985Z</time></trkpt><trkpt lat="45.9994076" lon="10.3512714"><ele>407.0</ele><time>2026-04-23T15:49:16.985Z</time></trkpt><trkpt lat="45.9994793" lon="10.3512997"><ele>405.0</ele><time>2026-04-23T15:49:18.985Z</time></trkpt><trkpt lat="45.9995505" lon="10.3513286"><ele>403.0</ele><time>2026-04-23T15:49:20.985Z</time></trkpt><trkpt lat="45.9996208" lon="10.3513685"><ele>401.0</ele><time>2026-04-23T15:49:22.984Z</time></trkpt><trkpt lat="45.9996886" lon="10.3514119"><ele>399.0</ele><time>2026-04-23T15:49:24.985Z</time></trkpt><trkpt lat="45.999753" lon="10.3514714"><ele>397.0</ele><time>2026-04-23T15:49:26.985Z</time></trkpt><trkpt lat="45.9998145" lon="10.3515269"><ele>395.0</ele><time>2026-04-23T15:49:28.985Z</time></trkpt><trkpt lat="45.9998807" lon="10.3515903"><ele>401.49999999999994</ele><time>2026-04-23T15:49:30.985Z</time></trkpt><trkpt lat="45.9999459" lon="10.3516564"><ele>408.0</ele><time>2026-04-23T15:49:32.985Z</time></trkpt><trkpt lat="46.0000092" lon="10.351721"><ele>414.5</ele><time>2026-04-23T15:49:34.985Z</time></trkpt><trkpt lat="46.0000745" lon="10.351785"><ele>421.0</ele><time>2026-04-23T15:49:36.985Z</time></trkpt><trkpt lat="46.0001358" lon="10.3518531"><ele>427.49999999999994</ele><time>2026-04-23T15:49:38.985Z</time></trkpt><trkpt lat="46.0001948" lon="10.3519194"><ele>434.0</ele><time>2026-04-23T15:49:40.984Z</time></trkpt><trkpt lat="46.0002537" lon="10.3519841"><ele>433.99999999999994</ele><time>2026-04-23T15:49:42.985Z</time></trkpt><trkpt lat="46.0003156" lon="10.3520485"><ele>434.0</ele><time>2026-04-23T15:49:44.985Z</time></trkpt><trkpt lat="46.000373" lon="10.3521153"><ele>434.0</ele><time>2026-04-23T15:49:46.985Z</time></trkpt><trkpt lat="46.0004287" lon="10.3521827"><ele>434.0</ele><time>2026-04-23T15:49:48.985Z</time></trkpt><trkpt lat="46.0004832" lon="10.3522586"><ele>433.99999999999994</ele><time>2026-04-23T15:49:50.985Z</time></trkpt><trkpt lat="46.0005474" lon="10.3523244"><ele>434.0</ele><time>2026-04-23T15:49:52.985Z</time></trkpt><trkpt lat="46.0006165" lon="10.3523848"><ele>436.3333333333333</ele><time>2026-04-23T15:49:54.985Z</time></trkpt><trkpt lat="46.0006824" lon="10.3524374"><ele>438.66666666666663</ele><time>2026-04-23T15:49:56.985Z</time></trkpt><trkpt lat="46.0007523" lon="10.3524779"><ele>441.0</ele><time>2026-04-23T15:49:58.984Z</time></trkpt><trkpt lat="46.0008281" lon="10.3525112"><ele>443.33333333333337</ele><time>2026-04-23T15:50:00.985Z</time></trkpt><trkpt lat="46.0009011" lon="10.3525494"><ele>445.6666666666667</ele><time>2026-04-23T15:50:02.985Z</time></trkpt><trkpt lat="46.0009781" lon="10.3525781"><ele>448.0</ele><time>2026-04-23T15:50:04.985Z</time></trkpt><trkpt lat="46.0010548" lon="10.3526042"><ele>448.00000000000006</ele><time>2026-04-23T15:50:06.985Z</time></trkpt><trkpt lat="46.001134" lon="10.3526321"><ele>448.0</ele><time>2026-04-23T15:50:08.985Z</time></trkpt><trkpt lat="46.0012172" lon="10.3526544"><ele>448.0</ele><time>2026-04-23T15:50:10.985Z</time></trkpt><trkpt lat="46.0013003" lon="10.3526297"><ele>448.0</ele><time>2026-04-23T15:50:12.985Z</time></trkpt><trkpt lat="46.0013738" lon="10.352568"><ele>448.00000000000006</ele><time>2026-04-23T15:50:14.985Z</time></trkpt><trkpt lat="46.0014496" lon="10.3525061"><ele>448.0</ele><time>2026-04-23T15:50:16.985Z</time></trkpt><trkpt lat="46.0015214" lon="10.3524368"><ele>448.00000000000006</ele><time>2026-04-23T15:50:18.985Z</time></trkpt><trkpt lat="46.0015923" lon="10.3523749"><ele>448.0</ele><time>2026-04-23T15:50:20.985Z</time></trkpt><trkpt lat="46.0016641" lon="10.352311"><ele>448.0</ele><time>2026-04-23T15:50:22.985Z</time></trkpt><trkpt lat="46.0017307" lon="10.3522395"><ele>448.0</ele><time>2026-04-23T15:50:24.985Z</time></trkpt><trkpt lat="46.0017967" lon="10.3521633"><ele>448.00000000000006</ele><time>2026-04-23T15:50:26.985Z</time></trkpt><trkpt lat="46.0018601" lon="10.352094"><ele>448.0</ele><time>2026-04-23T15:50:28.985Z</time></trkpt><trkpt lat="46.0018947" lon="10.3520084"><ele>447.83333333333337</ele><time>2026-04-23T15:50:30.985Z</time></trkpt><trkpt lat="46.0019461" lon="10.3519472"><ele>447.6666666666667</ele><time>2026-04-23T15:50:32.985Z</time></trkpt><trkpt lat="46.0020037" lon="10.3518922"><ele>447.5</ele><time>2026-04-23T15:50:34.985Z</time></trkpt><trkpt lat="46.0020532" lon="10.3518203"><ele>447.33333333333337</ele><time>2026-04-23T15:50:36.985Z</time></trkpt><trkpt lat="46.0021419" lon="10.3517788"><ele>447.1666666666667</ele><time>2026-04-23T15:50:38.985Z</time></trkpt><trkpt lat="46.0022072" lon="10.3517127"><ele>447.0</ele><time>2026-04-23T15:50:40.985Z</time></trkpt><trkpt lat="46.0022725" lon="10.3516261"><ele>447.0</ele><time>2026-04-23T15:50:42.985Z</time></trkpt><trkpt lat="46.0023253" lon="10.351524"><ele>447.0</ele><time>2026-04-23T15:50:44.985Z</time></trkpt><trkpt lat="46.0024202" lon="10.3513897"><ele>447.0</ele><time>2026-04-23T15:50:46.985Z</time></trkpt><trkpt lat="46.002494" lon="10.351378"><ele>447.0</ele><time>2026-04-23T15:50:48.985Z</time></trkpt><trkpt lat="46.0025583" lon="10.3514302"><ele>447.0</ele><time>2026-04-23T15:50:50.985Z</time></trkpt><trkpt lat="46.0026297" lon="10.351462"><ele>447.0</ele><time>2026-04-23T15:50:52.985Z</time></trkpt><trkpt lat="46.0026779" lon="10.3515231"><ele>448.8333333333333</ele><time>2026-04-23T15:50:54.985Z</time></trkpt><trkpt lat="46.0027145" lon="10.3516449"><ele>450.66666666666663</ele><time>2026-04-23T15:50:57.984Z</time></trkpt><trkpt lat="46.0027302" lon="10.3517363"><ele>452.5</ele><time>2026-04-23T15:50:59.985Z</time></trkpt><trkpt lat="46.002722" lon="10.3518582"><ele>454.3333333333333</ele><time>2026-04-23T15:51:02.985Z</time></trkpt><trkpt lat="46.0027169" lon="10.351986"><ele>456.16666666666663</ele><time>2026-04-23T15:51:05.985Z</time></trkpt><trkpt lat="46.0027071" lon="10.3520833"><ele>458.0</ele><time>2026-04-23T15:51:07.985Z</time></trkpt><trkpt lat="46.0026984" lon="10.3521825"><ele>459.0</ele><time>2026-04-23T15:51:09.985Z</time></trkpt><trkpt lat="46.0026918" lon="10.352284"><ele>460.0</ele><time>2026-04-23T15:51:11.984Z</time></trkpt><trkpt lat="46.0026893" lon="10.352381"><ele>461.0</ele><time>2026-04-23T15:51:13.985Z</time></trkpt><trkpt lat="46.0026847" lon="10.3525088"><ele>462.0</ele><time>2026-04-23T15:51:16.985Z</time></trkpt><trkpt lat="46.0026604" lon="10.3525983"><ele>463.0</ele><time>2026-04-23T15:51:19.985Z</time></trkpt><trkpt lat="46.0026258" lon="10.3526794"><ele>464.0</ele><time>2026-04-23T15:51:21.985Z</time></trkpt><trkpt lat="46.0026148" lon="10.3527754"><ele>465.0</ele><time>2026-04-23T15:51:23.985Z</time></trkpt><trkpt lat="46.0025944" lon="10.3528947"><ele>465.0</ele><time>2026-04-23T15:51:26.985Z</time></trkpt><trkpt lat="46.0025694" lon="10.3530018"><ele>465.0</ele><time>2026-04-23T15:51:29.985Z</time></trkpt><trkpt lat="46.002509" lon="10.353084"><ele>465.0</ele><time>2026-04-23T15:51:32.985Z</time></trkpt><trkpt lat="46.0024373" lon="10.3531598"><ele>465.0</ele><time>2026-04-23T15:51:35.985Z</time></trkpt><trkpt lat="46.0023695" lon="10.3532331"><ele>465.0</ele><time>2026-04-23T15:51:38.985Z</time></trkpt><trkpt lat="46.0023021" lon="10.3532778"><ele>465.0</ele><time>2026-04-23T15:51:41.985Z</time></trkpt><trkpt lat="46.0022441" lon="10.3533204"><ele>466.57142857142856</ele><time>2026-04-23T15:51:44.985Z</time></trkpt><trkpt lat="46.0021827" lon="10.3533731"><ele>468.14285714285717</ele><time>2026-04-23T15:51:47.985Z</time></trkpt><trkpt lat="46.0021127" lon="10.3534229"><ele>469.7142857142857</ele><time>2026-04-23T15:51:50.985Z</time></trkpt><trkpt lat="46.0020393" lon="10.3534693"><ele>471.2857142857143</ele><time>2026-04-23T15:51:53.985Z</time></trkpt><trkpt lat="46.0019709" lon="10.3535175"><ele>472.8571428571429</ele><time>2026-04-23T15:51:56.985Z</time></trkpt><trkpt lat="46.0019102" lon="10.3535697"><ele>474.42857142857144</ele><time>2026-04-23T15:51:59.985Z</time></trkpt><trkpt lat="46.0018585" lon="10.3536316"><ele>476.0</ele><time>2026-04-23T15:52:02.985Z</time></trkpt><trkpt lat="46.0018099" lon="10.3537097"><ele>475.99999999999994</ele><time>2026-04-23T15:52:05.985Z</time></trkpt><trkpt lat="46.001765" lon="10.3537762"><ele>476.0</ele><time>2026-04-23T15:52:10.985Z</time></trkpt><trkpt lat="46.0018303" lon="10.3538053"><ele>476.0</ele><time>2026-04-23T15:52:18.985Z</time></trkpt><trkpt lat="46.0018688" lon="10.3536924"><ele>476.0</ele><time>2026-04-23T15:52:20.985Z</time></trkpt><trkpt lat="46.0018665" lon="10.3535841"><ele>475.99999999999994</ele><time>2026-04-23T15:52:24.984Z</time></trkpt><trkpt lat="46.0019411" lon="10.3535279"><ele>476.0</ele><time>2026-04-23T15:52:26.985Z</time></trkpt><trkpt lat="46.002017" lon="10.3534788"><ele>476.0</ele><time>2026-04-23T15:52:28.985Z</time></trkpt><trkpt lat="46.0021285" lon="10.3534315"><ele>476.0</ele><time>2026-04-23T15:52:30.985Z</time></trkpt><trkpt lat="46.0021921" lon="10.3534014"><ele>476.0</ele><time>2026-04-23T15:52:31.985Z</time></trkpt><trkpt lat="46.0022519" lon="10.3533668"><ele>476.0</ele><time>2026-04-23T15:52:32.985Z</time></trkpt><trkpt lat="46.0023623" lon="10.3532886"><ele>476.0</ele><time>2026-04-23T15:52:34.985Z</time></trkpt><trkpt lat="46.0024515" lon="10.3531857"><ele>476.20000000000005</ele><time>2026-04-23T15:52:36.985Z</time></trkpt><trkpt lat="46.0025153" lon="10.3531106"><ele>476.40000000000003</ele><time>2026-04-23T15:52:37.985Z</time></trkpt><trkpt lat="46.0025691" lon="10.3530413"><ele>476.6</ele><time>2026-04-23T15:52:38.985Z</time></trkpt><trkpt lat="46.0026155" lon="10.3529798"><ele>476.8</ele><time>2026-04-23T15:52:39.985Z</time></trkpt><trkpt lat="46.0026708" lon="10.3528233"><ele>477.0</ele><time>2026-04-23T15:52:41.985Z</time></trkpt><trkpt lat="46.0027039" lon="10.3526675"><ele>475.0</ele><time>2026-04-23T15:52:43.985Z</time></trkpt><trkpt lat="46.0027839" lon="10.352621"><ele>473.0</ele><time>2026-04-23T15:52:47.985Z</time></trkpt><trkpt lat="46.0028723" lon="10.352681"><ele>471.0</ele><time>2026-04-23T15:52:50.985Z</time></trkpt><trkpt lat="46.0029404" lon="10.3527113"><ele>469.0</ele><time>2026-04-23T15:52:52.985Z</time></trkpt><trkpt lat="46.0030131" lon="10.3527595"><ele>467.0</ele><time>2026-04-23T15:52:54.985Z</time></trkpt><trkpt lat="46.0030857" lon="10.3527933"><ele>465.0</ele><time>2026-04-23T15:52:56.985Z</time></trkpt><trkpt lat="46.0031562" lon="10.3528142"><ele>465.0</ele><time>2026-04-23T15:52:58.985Z</time></trkpt><trkpt lat="46.0032249" lon="10.3528314"><ele>465.0</ele><time>2026-04-23T15:53:00.985Z</time></trkpt><trkpt lat="46.003299" lon="10.3528491"><ele>465.0</ele><time>2026-04-23T15:53:02.985Z</time></trkpt><trkpt lat="46.0033702" lon="10.3528522"><ele>465.0</ele><time>2026-04-23T15:53:04.985Z</time></trkpt><trkpt lat="46.0034406" lon="10.3528552"><ele>465.0</ele><time>2026-04-23T15:53:06.984Z</time></trkpt><trkpt lat="46.0035092" lon="10.3528551"><ele>465.0</ele><time>2026-04-23T15:53:08.985Z</time></trkpt><trkpt lat="46.0035767" lon="10.3528523"><ele>465.0</ele><time>2026-04-23T15:53:10.985Z</time></trkpt><trkpt lat="46.0036399" lon="10.3528558"><ele>465.3333333333333</ele><time>2026-04-23T15:53:12.985Z</time></trkpt><trkpt lat="46.0037047" lon="10.3528565"><ele>465.66666666666663</ele><time>2026-04-23T15:53:14.985Z</time></trkpt><trkpt lat="46.0037948" lon="10.3528543"><ele>466.0</ele><time>2026-04-23T15:53:17.985Z</time></trkpt><trkpt lat="46.0038852" lon="10.3528288"><ele>466.3333333333333</ele><time>2026-04-23T15:53:20.985Z</time></trkpt><trkpt lat="46.0039731" lon="10.3527961"><ele>466.66666666666663</ele><time>2026-04-23T15:53:24.003Z</time></trkpt><trkpt lat="46.0040397" lon="10.3527821"><ele>467.0</ele><time>2026-04-23T15:53:25.985Z</time></trkpt><trkpt lat="46.0041232" lon="10.3527866"><ele>467.1428571428571</ele><time>2026-04-23T15:53:28.985Z</time></trkpt><trkpt lat="46.0041937" lon="10.3527945"><ele>467.2857142857143</ele><time>2026-04-23T15:53:30.985Z</time></trkpt><trkpt lat="46.0042714" lon="10.352806"><ele>467.42857142857144</ele><time>2026-04-23T15:53:32.985Z</time></trkpt><trkpt lat="46.0043414" lon="10.3528191"><ele>467.57142857142856</ele><time>2026-04-23T15:53:34.985Z</time></trkpt><trkpt lat="46.0044104" lon="10.3528426"><ele>467.7142857142858</ele><time>2026-04-23T15:53:36.985Z</time></trkpt><trkpt lat="46.0044784" lon="10.3528662"><ele>467.8571428571429</ele><time>2026-04-23T15:53:38.985Z</time></trkpt><trkpt lat="46.0045458" lon="10.352876"><ele>468.0</ele><time>2026-04-23T15:53:40.984Z</time></trkpt><trkpt lat="46.0046105" lon="10.3528994"><ele>468.0</ele><time>2026-04-23T15:53:42.984Z</time></trkpt><trkpt lat="46.0046744" lon="10.3529194"><ele>468.0</ele><time>2026-04-23T15:53:44.985Z</time></trkpt><trkpt lat="46.0047377" lon="10.3529422"><ele>468.0</ele><time>2026-04-23T15:53:46.985Z</time></trkpt><trkpt lat="46.0047993" lon="10.3529697"><ele>468.0</ele><time>2026-04-23T15:53:48.985Z</time></trkpt><trkpt lat="46.0048858" lon="10.3529918"><ele>468.0</ele><time>2026-04-23T15:53:51.985Z</time></trkpt><trkpt lat="46.0049618" lon="10.3530116"><ele>468.0</ele><time>2026-04-23T15:53:54.985Z</time></trkpt><trkpt lat="46.0050613" lon="10.3530214"><ele>468.7142857142857</ele><time>2026-04-23T15:53:57.985Z</time></trkpt><trkpt lat="46.0051391" lon="10.3530225"><ele>469.42857142857144</ele><time>2026-04-23T15:53:59.985Z</time></trkpt><trkpt lat="46.0052099" lon="10.3530335"><ele>470.14285714285717</ele><time>2026-04-23T15:54:01.985Z</time></trkpt><trkpt lat="46.0052734" lon="10.3530451"><ele>470.8571428571429</ele><time>2026-04-23T15:54:03.985Z</time></trkpt><trkpt lat="46.0053414" lon="10.3530696"><ele>471.57142857142856</ele><time>2026-04-23T15:54:05.985Z</time></trkpt><trkpt lat="46.0054089" lon="10.3530991"><ele>472.28571428571433</ele><time>2026-04-23T15:54:07.985Z</time></trkpt><trkpt lat="46.0054753" lon="10.3531317"><ele>473.0</ele><time>2026-04-23T15:54:09.985Z</time></trkpt><trkpt lat="46.0055369" lon="10.3531672"><ele>475.16666666666663</ele><time>2026-04-23T15:54:11.985Z</time></trkpt><trkpt lat="46.0056225" lon="10.3532174"><ele>477.3333333333333</ele><time>2026-04-23T15:54:14.985Z</time></trkpt><trkpt lat="46.0057083" lon="10.3532663"><ele>479.5</ele><time>2026-04-23T15:54:17.985Z</time></trkpt><trkpt lat="46.0057695" lon="10.3532939"><ele>481.66666666666663</ele><time>2026-04-23T15:54:19.985Z</time></trkpt><trkpt lat="46.0058322" lon="10.353383"><ele>483.8333333333333</ele><time>2026-04-23T15:54:22.984Z</time></trkpt><trkpt lat="46.0058721" lon="10.3534885"><ele>486.0</ele><time>2026-04-23T15:54:25.985Z</time></trkpt><trkpt lat="46.0059157" lon="10.353576"><ele>487.0</ele><time>2026-04-23T15:54:28.984Z</time></trkpt><trkpt lat="46.0059679" lon="10.3536712"><ele>488.0</ele><time>2026-04-23T15:54:31.984Z</time></trkpt><trkpt lat="46.0060121" lon="10.353781"><ele>489.0</ele><time>2026-04-23T15:54:34.985Z</time></trkpt><trkpt lat="46.0060386" lon="10.3539118"><ele>490.0</ele><time>2026-04-23T15:54:37.985Z</time></trkpt><trkpt lat="46.0060547" lon="10.3540087"><ele>491.0</ele><time>2026-04-23T15:54:39.984Z</time></trkpt><trkpt lat="46.0060739" lon="10.3541059"><ele>492.0</ele><time>2026-04-23T15:54:41.985Z</time></trkpt><trkpt lat="46.0061008" lon="10.3542005"><ele>492.4285714285715</ele><time>2026-04-23T15:54:43.985Z</time></trkpt><trkpt lat="46.0061312" lon="10.3542905"><ele>492.8571428571429</ele><time>2026-04-23T15:54:45.985Z</time></trkpt><trkpt lat="46.0061606" lon="10.3543823"><ele>493.2857142857143</ele><time>2026-04-23T15:54:47.985Z</time></trkpt><trkpt lat="46.0061782" lon="10.3544736"><ele>493.7142857142857</ele><time>2026-04-23T15:54:49.985Z</time></trkpt><trkpt lat="46.0061725" lon="10.3545667"><ele>494.1428571428571</ele><time>2026-04-23T15:54:51.985Z</time></trkpt><trkpt lat="46.0061618" lon="10.3546615"><ele>494.5714285714285</ele><time>2026-04-23T15:54:53.984Z</time></trkpt><trkpt lat="46.0061609" lon="10.354757"><ele>494.99999999999994</ele><time>2026-04-23T15:54:55.985Z</time></trkpt><trkpt lat="46.0061655" lon="10.3548889"><ele>496.2857142857142</ele><time>2026-04-23T15:54:58.985Z</time></trkpt><trkpt lat="46.0061749" lon="10.3549823"><ele>497.57142857142856</ele><time>2026-04-23T15:55:00.985Z</time></trkpt><trkpt lat="46.0061856" lon="10.3550734"><ele>498.85714285714283</ele><time>2026-04-23T15:55:02.984Z</time></trkpt><trkpt lat="46.0061967" lon="10.355165"><ele>500.1428571428571</ele><time>2026-04-23T15:55:04.984Z</time></trkpt><trkpt lat="46.006218" lon="10.3552903"><ele>501.42857142857144</ele><time>2026-04-23T15:55:07.985Z</time></trkpt><trkpt lat="46.0062267" lon="10.3554251"><ele>502.7142857142857</ele><time>2026-04-23T15:55:10.985Z</time></trkpt><trkpt lat="46.0062311" lon="10.3555175"><ele>504.0</ele><time>2026-04-23T15:55:12.985Z</time></trkpt><trkpt lat="46.0062325" lon="10.3556091"><ele>505.2857142857143</ele><time>2026-04-23T15:55:14.985Z</time></trkpt><trkpt lat="46.0062169" lon="10.3557377"><ele>506.57142857142856</ele><time>2026-04-23T15:55:17.985Z</time></trkpt><trkpt lat="46.0061962" lon="10.3558615"><ele>507.8571428571429</ele><time>2026-04-23T15:55:20.985Z</time></trkpt><trkpt lat="46.0061908" lon="10.3559526"><ele>509.14285714285717</ele><time>2026-04-23T15:55:22.985Z</time></trkpt><trkpt lat="46.0062162" lon="10.356037"><ele>510.42857142857144</ele><time>2026-04-23T15:55:24.985Z</time></trkpt><trkpt lat="46.0062779" lon="10.3560798"><ele>511.7142857142858</ele><time>2026-04-23T15:55:26.985Z</time></trkpt><trkpt lat="46.0063438" lon="10.3561175"><ele>513.0</ele><time>2026-04-23T15:55:28.985Z</time></trkpt><trkpt lat="46.0063998" lon="10.3561623"><ele>513.0</ele><time>2026-04-23T15:55:30.985Z</time></trkpt><trkpt lat="46.006454" lon="10.3562222"><ele>513.0</ele><time>2026-04-23T15:55:34.985Z</time></trkpt><trkpt lat="46.0064853" lon="10.3563155"><ele>513.0</ele><time>2026-04-23T15:55:37.985Z</time></trkpt><trkpt lat="46.0065238" lon="10.3564282"><ele>513.0</ele><time>2026-04-23T15:55:40.985Z</time></trkpt><trkpt lat="46.0065705" lon="10.3565425"><ele>513.0</ele><time>2026-04-23T15:55:43.985Z</time></trkpt><trkpt lat="46.0066051" lon="10.3566647"><ele>513.0</ele><time>2026-04-23T15:55:46.984Z</time></trkpt><trkpt lat="46.0066292" lon="10.3567964"><ele>515.0</ele><time>2026-04-23T15:55:49.985Z</time></trkpt><trkpt lat="46.0066591" lon="10.3569187"><ele>517.0</ele><time>2026-04-23T15:55:52.985Z</time></trkpt><trkpt lat="46.0067221" lon="10.3569992"><ele>519.0</ele><time>2026-04-23T15:55:55.985Z</time></trkpt><trkpt lat="46.0067915" lon="10.3570576"><ele>521.0</ele><time>2026-04-23T15:55:58.985Z</time></trkpt><trkpt lat="46.0068511" lon="10.3571119"><ele>523.0</ele><time>2026-04-23T15:56:01.985Z</time></trkpt><trkpt lat="46.006928" lon="10.357128"><ele>525.0</ele><time>2026-04-23T15:56:04.985Z</time></trkpt><trkpt lat="46.0070121" lon="10.3571303"><ele>525.5</ele><time>2026-04-23T15:56:07.985Z</time></trkpt><trkpt lat="46.0071004" lon="10.3571271"><ele>526.0</ele><time>2026-04-23T15:56:10.985Z</time></trkpt><trkpt lat="46.0071843" lon="10.3571392"><ele>526.5</ele><time>2026-04-23T15:56:13.985Z</time></trkpt><trkpt lat="46.007261" lon="10.3571728"><ele>527.0</ele><time>2026-04-23T15:56:16.985Z</time></trkpt><trkpt lat="46.0073159" lon="10.3572658"><ele>527.5</ele><time>2026-04-23T15:56:19.985Z</time></trkpt><trkpt lat="46.0073993" lon="10.3573309"><ele>528.0</ele><time>2026-04-23T15:56:22.985Z</time></trkpt><trkpt lat="46.0074606" lon="10.3573704"><ele>531.4285714285714</ele><time>2026-04-23T15:56:24.985Z</time></trkpt><trkpt lat="46.0075182" lon="10.3574136"><ele>534.8571428571429</ele><time>2026-04-23T15:56:26.985Z</time></trkpt><trkpt lat="46.0075738" lon="10.3574569"><ele>538.2857142857143</ele><time>2026-04-23T15:56:28.985Z</time></trkpt><trkpt lat="46.0076318" lon="10.3574968"><ele>541.7142857142858</ele><time>2026-04-23T15:56:30.985Z</time></trkpt><trkpt lat="46.0076877" lon="10.3575449"><ele>545.1428571428572</ele><time>2026-04-23T15:56:32.985Z</time></trkpt><trkpt lat="46.0077472" lon="10.3575846"><ele>548.5714285714286</ele><time>2026-04-23T15:56:34.985Z</time></trkpt><trkpt lat="46.0078096" lon="10.357622"><ele>552.0</ele><time>2026-04-23T15:56:36.985Z</time></trkpt><trkpt lat="46.0078711" lon="10.3576494"><ele>552.0</ele><time>2026-04-23T15:56:38.985Z</time></trkpt><trkpt lat="46.0079628" lon="10.3576752"><ele>552.0</ele><time>2026-04-23T15:56:41.985Z</time></trkpt><trkpt lat="46.0080564" lon="10.3576979"><ele>552.0</ele><time>2026-04-23T15:56:44.985Z</time></trkpt><trkpt lat="46.0081524" lon="10.357707"><ele>552.0</ele><time>2026-04-23T15:56:47.985Z</time></trkpt><trkpt lat="46.0082196" lon="10.3577114"><ele>552.0</ele><time>2026-04-23T15:56:49.985Z</time></trkpt><trkpt lat="46.0082846" lon="10.3577199"><ele>552.0</ele><time>2026-04-23T15:56:51.985Z</time></trkpt><trkpt lat="46.0083515" lon="10.3577317"><ele>552.0</ele><time>2026-04-23T15:56:53.985Z</time></trkpt><trkpt lat="46.0084177" lon="10.357743"><ele>552.0</ele><time>2026-04-23T15:56:55.985Z</time></trkpt><trkpt lat="46.0084823" lon="10.357759"><ele>552.0</ele><time>2026-04-23T15:56:57.985Z</time></trkpt><trkpt lat="46.0085443" lon="10.3577748"><ele>552.0</ele><time>2026-04-23T15:56:59.985Z</time></trkpt><trkpt lat="46.0086035" lon="10.3578077"><ele>552.0</ele><time>2026-04-23T15:57:01.984Z</time></trkpt><trkpt lat="46.0086619" lon="10.3578449"><ele>552.0</ele><time>2026-04-23T15:57:03.985Z</time></trkpt><trkpt lat="46.0087187" lon="10.3578946"><ele>552.0</ele><time>2026-04-23T15:57:05.985Z</time></trkpt><trkpt lat="46.0087756" lon="10.3579519"><ele>552.0</ele><time>2026-04-23T15:57:07.985Z</time></trkpt><trkpt lat="46.0088329" lon="10.3580007"><ele>552.0</ele><time>2026-04-23T15:57:09.985Z</time></trkpt><trkpt lat="46.0088961" lon="10.3580331"><ele>552.0</ele><time>2026-04-23T15:57:11.985Z</time></trkpt><trkpt lat="46.0089687" lon="10.358032"><ele>552.0</ele><time>2026-04-23T15:57:13.985Z</time></trkpt><trkpt lat="46.009042" lon="10.3579969"><ele>552.0</ele><time>2026-04-23T15:57:15.985Z</time></trkpt><trkpt lat="46.0091094" lon="10.3579465"><ele>552.0</ele><time>2026-04-23T15:57:17.984Z</time></trkpt><trkpt lat="46.0091691" lon="10.357871"><ele>552.0</ele><time>2026-04-23T15:57:19.985Z</time></trkpt><trkpt lat="46.0092162" lon="10.3577752"><ele>551.2857142857143</ele><time>2026-04-23T15:57:21.985Z</time></trkpt><trkpt lat="46.0092334" lon="10.3576765"><ele>550.5714285714287</ele><time>2026-04-23T15:57:23.985Z</time></trkpt><trkpt lat="46.0092529" lon="10.3575846"><ele>549.8571428571429</ele><time>2026-04-23T15:57:25.985Z</time></trkpt><trkpt lat="46.0092752" lon="10.3574893"><ele>549.1428571428571</ele><time>2026-04-23T15:57:27.985Z</time></trkpt><trkpt lat="46.0093057" lon="10.3573666"><ele>548.4285714285713</ele><time>2026-04-23T15:57:30.985Z</time></trkpt><trkpt lat="46.0093485" lon="10.3572754"><ele>547.7142857142857</ele><time>2026-04-23T15:57:32.984Z</time></trkpt><trkpt lat="46.0093934" lon="10.3571911"><ele>547.0</ele><time>2026-04-23T15:57:34.985Z</time></trkpt><trkpt lat="46.009442" lon="10.357113"><ele>547.0</ele><time>2026-04-23T15:57:36.985Z</time></trkpt><trkpt lat="46.0094908" lon="10.3570335"><ele>547.0</ele><time>2026-04-23T15:57:38.985Z</time></trkpt><trkpt lat="46.0095448" lon="10.3569561"><ele>547.0</ele><time>2026-04-23T15:57:40.985Z</time></trkpt><trkpt lat="46.0095957" lon="10.3568842"><ele>547.0</ele><time>2026-04-23T15:57:42.985Z</time></trkpt><trkpt lat="46.0096536" lon="10.3568263"><ele>547.0</ele><time>2026-04-23T15:57:44.985Z</time></trkpt><trkpt lat="46.0097177" lon="10.3567889"><ele>547.0</ele><time>2026-04-23T15:57:46.985Z</time></trkpt><trkpt lat="46.0097893" lon="10.3567541"><ele>547.0</ele><time>2026-04-23T15:57:48.984Z</time></trkpt><trkpt lat="46.0098671" lon="10.3567174"><ele>547.0</ele><time>2026-04-23T15:57:50.985Z</time></trkpt><trkpt lat="46.0099413" lon="10.3566907"><ele>547.0</ele><time>2026-04-23T15:57:52.985Z</time></trkpt><trkpt lat="46.0100222" lon="10.356667"><ele>547.0</ele><time>2026-04-23T15:57:54.985Z</time></trkpt><trkpt lat="46.0101001" lon="10.3566467"><ele>547.0</ele><time>2026-04-23T15:57:56.985Z</time></trkpt><trkpt lat="46.0101847" lon="10.3566368"><ele>547.0</ele><time>2026-04-23T15:57:58.985Z</time></trkpt><trkpt lat="46.0102681" lon="10.3566348"><ele>547.0</ele><time>2026-04-23T15:58:00.984Z</time></trkpt><trkpt lat="46.010347" lon="10.3566444"><ele>551.0</ele><time>2026-04-23T15:58:02.985Z</time></trkpt><trkpt lat="46.0104291" lon="10.3566618"><ele>555.0</ele><time>2026-04-23T15:58:04.985Z</time></trkpt><trkpt lat="46.0105114" lon="10.3566819"><ele>559.0</ele><time>2026-04-23T15:58:06.985Z</time></trkpt><trkpt lat="46.0105965" lon="10.3566825"><ele>563.0</ele><time>2026-04-23T15:58:08.985Z</time></trkpt><trkpt lat="46.0106815" lon="10.3566935"><ele>567.0</ele><time>2026-04-23T15:58:10.985Z</time></trkpt><trkpt lat="46.0107662" lon="10.3567054"><ele>571.0</ele><time>2026-04-23T15:58:12.985Z</time></trkpt><trkpt lat="46.0108535" lon="10.3567254"><ele>572.0</ele><time>2026-04-23T15:58:14.985Z</time></trkpt><trkpt lat="46.0109382" lon="10.356765"><ele>573.0</ele><time>2026-04-23T15:58:16.985Z</time></trkpt><trkpt lat="46.0110192" lon="10.3568172"><ele>574.0</ele><time>2026-04-23T15:58:18.985Z</time></trkpt><trkpt lat="46.0110996" lon="10.3568729"><ele>575.0</ele><time>2026-04-23T15:58:20.985Z</time></trkpt><trkpt lat="46.0111773" lon="10.3569325"><ele>576.0</ele><time>2026-04-23T15:58:22.984Z</time></trkpt><trkpt lat="46.011255" lon="10.3569897"><ele>577.0</ele><time>2026-04-23T15:58:24.985Z</time></trkpt><trkpt lat="46.0113338" lon="10.3570469"><ele>577.0</ele><time>2026-04-23T15:58:26.985Z</time></trkpt><trkpt lat="46.0114078" lon="10.3571115"><ele>577.0</ele><time>2026-04-23T15:58:28.985Z</time></trkpt><trkpt lat="46.0114834" lon="10.3571794"><ele>577.0</ele><time>2026-04-23T15:58:30.985Z</time></trkpt><trkpt lat="46.0115599" lon="10.3572487"><ele>577.0</ele><time>2026-04-23T15:58:32.985Z</time></trkpt><trkpt lat="46.0116365" lon="10.3573118"><ele>577.0</ele><time>2026-04-23T15:58:34.985Z</time></trkpt><trkpt lat="46.0117122" lon="10.3573717"><ele>577.0</ele><time>2026-04-23T15:58:36.984Z</time></trkpt><trkpt lat="46.0117808" lon="10.3574212"><ele>580.6666666666667</ele><time>2026-04-23T15:58:38.985Z</time></trkpt><trkpt lat="46.0118388" lon="10.3574685"><ele>584.3333333333334</ele><time>2026-04-23T15:58:40.985Z</time></trkpt><trkpt lat="46.0117558" lon="10.3574932"><ele>588.0</ele><time>2026-04-23T15:58:44.985Z</time></trkpt><trkpt lat="46.0116833" lon="10.3574454"><ele>591.6666666666666</ele><time>2026-04-23T15:58:46.985Z</time></trkpt><trkpt lat="46.0116107" lon="10.3574115"><ele>595.3333333333333</ele><time>2026-04-23T15:58:48.985Z</time></trkpt><trkpt lat="46.0115395" lon="10.3573851"><ele>599.0</ele><time>2026-04-23T15:58:50.985Z</time></trkpt><trkpt lat="46.0114658" lon="10.3573609"><ele>600.1666666666666</ele><time>2026-04-23T15:58:52.985Z</time></trkpt><trkpt lat="46.0113903" lon="10.3573422"><ele>601.3333333333333</ele><time>2026-04-23T15:58:54.984Z</time></trkpt><trkpt lat="46.0113149" lon="10.3573398"><ele>602.5</ele><time>2026-04-23T15:58:56.984Z</time></trkpt><trkpt lat="46.0112423" lon="10.3573601"><ele>603.6666666666666</ele><time>2026-04-23T15:58:58.985Z</time></trkpt><trkpt lat="46.0111696" lon="10.3573833"><ele>604.8333333333334</ele><time>2026-04-23T15:59:00.984Z</time></trkpt><trkpt lat="46.0110932" lon="10.3574109"><ele>606.0</ele><time>2026-04-23T15:59:02.985Z</time></trkpt><trkpt lat="46.0110234" lon="10.3574262"><ele>606.0</ele><time>2026-04-23T15:59:04.985Z</time></trkpt><trkpt lat="46.0109832" lon="10.3574961"><ele>606.0</ele><time>2026-04-23T15:59:06.985Z</time></trkpt><trkpt lat="46.0110268" lon="10.3576062"><ele>606.0</ele><time>2026-04-23T15:59:09.985Z</time></trkpt><trkpt lat="46.0110293" lon="10.3577099"><ele>606.0</ele><time>2026-04-23T15:59:12.985Z</time></trkpt><trkpt lat="46.0109487" lon="10.3577446"><ele>606.0</ele><time>2026-04-23T15:59:15.985Z</time></trkpt><trkpt lat="46.0108857" lon="10.3577522"><ele>606.0</ele><time>2026-04-23T15:59:17.985Z</time></trkpt><trkpt lat="46.0107958" lon="10.3577643"><ele>604.3333333333334</ele><time>2026-04-23T15:59:20.985Z</time></trkpt><trkpt lat="46.0107067" lon="10.3577543"><ele>602.6666666666666</ele><time>2026-04-23T15:59:23.985Z</time></trkpt><trkpt lat="46.0106181" lon="10.3577537"><ele>601.0</ele><time>2026-04-23T15:59:26.985Z</time></trkpt><trkpt lat="46.0105308" lon="10.3577841"><ele>599.3333333333333</ele><time>2026-04-23T15:59:29.985Z</time></trkpt><trkpt lat="46.0104514" lon="10.3578201"><ele>597.6666666666666</ele><time>2026-04-23T15:59:32.985Z</time></trkpt><trkpt lat="46.0103715" lon="10.3578585"><ele>596.0</ele><time>2026-04-23T15:59:35.985Z</time></trkpt><trkpt lat="46.0103465" lon="10.3579699"><ele>596.0</ele><time>2026-04-23T15:59:38.985Z</time></trkpt><trkpt lat="46.0103994" lon="10.3580211"><ele>596.0</ele><time>2026-04-23T15:59:40.985Z</time></trkpt><trkpt lat="46.0104826" lon="10.3580595"><ele>596.0</ele><time>2026-04-23T15:59:43.985Z</time></trkpt><trkpt lat="46.0105574" lon="10.358107"><ele>596.0</ele><time>2026-04-23T15:59:46.985Z</time></trkpt><trkpt lat="46.0106273" lon="10.3581636"><ele>596.0</ele><time>2026-04-23T15:59:49.985Z</time></trkpt><trkpt lat="46.0106954" lon="10.3582391"><ele>596.0</ele><time>2026-04-23T15:59:52.984Z</time></trkpt><trkpt lat="46.0107574" lon="10.358312"><ele>599.8333333333333</ele><time>2026-04-23T15:59:55.985Z</time></trkpt><trkpt lat="46.0108231" lon="10.3583622"><ele>603.6666666666666</ele><time>2026-04-23T15:59:58.985Z</time></trkpt><trkpt lat="46.0108916" lon="10.3583928"><ele>607.5</ele><time>2026-04-23T16:00:01.985Z</time></trkpt><trkpt lat="46.0109716" lon="10.3584288"><ele>611.3333333333334</ele><time>2026-04-23T16:00:04.985Z</time></trkpt><trkpt lat="46.0110335" lon="10.3584508"><ele>615.1666666666667</ele><time>2026-04-23T16:00:06.985Z</time></trkpt><trkpt lat="46.011117" lon="10.3584996"><ele>619.0</ele><time>2026-04-23T16:00:09.985Z</time></trkpt><trkpt lat="46.0111987" lon="10.3585336"><ele>621.2857142857142</ele><time>2026-04-23T16:00:12.985Z</time></trkpt><trkpt lat="46.0112803" lon="10.3585571"><ele>623.5714285714286</ele><time>2026-04-23T16:00:15.985Z</time></trkpt><trkpt lat="46.0113554" lon="10.3585689"><ele>625.8571428571429</ele><time>2026-04-23T16:00:18.985Z</time></trkpt><trkpt lat="46.0114247" lon="10.3585828"><ele>628.1428571428571</ele><time>2026-04-23T16:00:21.985Z</time></trkpt><trkpt lat="46.0114968" lon="10.3585984"><ele>630.4285714285714</ele><time>2026-04-23T16:00:24.985Z</time></trkpt><trkpt lat="46.0115699" lon="10.3586239"><ele>632.7142857142857</ele><time>2026-04-23T16:00:27.985Z</time></trkpt><trkpt lat="46.0116393" lon="10.3586508"><ele>635.0</ele><time>2026-04-23T16:00:30.985Z</time></trkpt><trkpt lat="46.0117115" lon="10.3586812"><ele>635.1666666666666</ele><time>2026-04-23T16:00:33.985Z</time></trkpt><trkpt lat="46.0117793" lon="10.3587117"><ele>635.3333333333333</ele><time>2026-04-23T16:00:36.985Z</time></trkpt><trkpt lat="46.0118515" lon="10.3587313"><ele>635.5</ele><time>2026-04-23T16:00:39.984Z</time></trkpt><trkpt lat="46.0119312" lon="10.3587667"><ele>635.6666666666666</ele><time>2026-04-23T16:00:42.985Z</time></trkpt><trkpt lat="46.0120052" lon="10.3587968"><ele>635.8333333333334</ele><time>2026-04-23T16:00:45.985Z</time></trkpt><trkpt lat="46.0120893" lon="10.3588102"><ele>636.0</ele><time>2026-04-23T16:00:48.985Z</time></trkpt><trkpt lat="46.0121232" lon="10.3588879"><ele>641.0</ele><time>2026-04-23T16:00:51.985Z</time></trkpt><trkpt lat="46.0120657" lon="10.3589389"><ele>646.0</ele><time>2026-04-23T16:00:55.984Z</time></trkpt><trkpt lat="46.0120005" lon="10.3589424"><ele>651.0</ele><time>2026-04-23T16:00:58.985Z</time></trkpt><trkpt lat="46.0119231" lon="10.3589752"><ele>656.0</ele><time>2026-04-23T16:01:02.985Z</time></trkpt><trkpt lat="46.0118477" lon="10.3589941"><ele>661.0</ele><time>2026-04-23T16:01:05.985Z</time></trkpt><trkpt lat="46.0117711" lon="10.3590349"><ele>666.0</ele><time>2026-04-23T16:01:08.985Z</time></trkpt><trkpt lat="46.0116946" lon="10.3590698"><ele>664.5</ele><time>2026-04-23T16:01:11.985Z</time></trkpt><trkpt lat="46.0116161" lon="10.3591134"><ele>663.0</ele><time>2026-04-23T16:01:14.985Z</time></trkpt><trkpt lat="46.0115199" lon="10.3591425"><ele>661.5</ele><time>2026-04-23T16:01:18.984Z</time></trkpt><trkpt lat="46.0114449" lon="10.3591743"><ele>660.0</ele><time>2026-04-23T16:01:20.985Z</time></trkpt><trkpt lat="46.0113884" lon="10.3592147"><ele>658.5</ele><time>2026-04-23T16:01:22.984Z</time></trkpt><trkpt lat="46.0113058" lon="10.3592818"><ele>657.0</ele><time>2026-04-23T16:01:25.985Z</time></trkpt><trkpt lat="46.0112487" lon="10.3593366"><ele>657.0</ele><time>2026-04-23T16:01:27.985Z</time></trkpt><trkpt lat="46.0111912" lon="10.3593972"><ele>657.0</ele><time>2026-04-23T16:01:29.985Z</time></trkpt><trkpt lat="46.0111621" lon="10.3594792"><ele>657.0</ele><time>2026-04-23T16:01:31.985Z</time></trkpt><trkpt lat="46.0112346" lon="10.3595632"><ele>657.0</ele><time>2026-04-23T16:01:34.985Z</time></trkpt><trkpt lat="46.0113021" lon="10.3596175"><ele>657.0</ele><time>2026-04-23T16:01:36.985Z</time></trkpt><trkpt lat="46.0113591" lon="10.3596746"><ele>657.0</ele><time>2026-04-23T16:01:38.985Z</time></trkpt><trkpt lat="46.0114348" lon="10.3597508"><ele>657.1428571428571</ele><time>2026-04-23T16:01:41.985Z</time></trkpt><trkpt lat="46.011486" lon="10.359818"><ele>657.2857142857143</ele><time>2026-04-23T16:01:43.985Z</time></trkpt><trkpt lat="46.01153" lon="10.3598961"><ele>657.4285714285714</ele><time>2026-04-23T16:01:45.985Z</time></trkpt><trkpt lat="46.0115703" lon="10.3599782"><ele>657.5714285714286</ele><time>2026-04-23T16:01:47.984Z</time></trkpt><trkpt lat="46.0116116" lon="10.3600531"><ele>657.7142857142858</ele><time>2026-04-23T16:01:49.984Z</time></trkpt><trkpt lat="46.0116565" lon="10.360119"><ele>657.8571428571429</ele><time>2026-04-23T16:01:51.985Z</time></trkpt><trkpt lat="46.0117011" lon="10.360186"><ele>658.0</ele><time>2026-04-23T16:01:53.985Z</time></trkpt><trkpt lat="46.0117518" lon="10.3602532"><ele>660.4285714285714</ele><time>2026-04-23T16:01:55.985Z</time></trkpt><trkpt lat="46.0118041" lon="10.3603167"><ele>662.8571428571429</ele><time>2026-04-23T16:01:57.985Z</time></trkpt><trkpt lat="46.0118542" lon="10.3603816"><ele>665.2857142857142</ele><time>2026-04-23T16:01:59.985Z</time></trkpt><trkpt lat="46.0119092" lon="10.360445"><ele>667.7142857142858</ele><time>2026-04-23T16:02:01.985Z</time></trkpt><trkpt lat="46.0119599" lon="10.360506"><ele>670.1428571428571</ele><time>2026-04-23T16:02:03.985Z</time></trkpt><trkpt lat="46.0120071" lon="10.3605705"><ele>672.5714285714286</ele><time>2026-04-23T16:02:05.985Z</time></trkpt><trkpt lat="46.012053" lon="10.3606363"><ele>675.0</ele><time>2026-04-23T16:02:07.985Z</time></trkpt><trkpt lat="46.012103" lon="10.3606976"><ele>675.0</ele><time>2026-04-23T16:02:09.985Z</time></trkpt><trkpt lat="46.0121492" lon="10.3607609"><ele>675.0</ele><time>2026-04-23T16:02:11.984Z</time></trkpt><trkpt lat="46.0121951" lon="10.3608288"><ele>675.0</ele><time>2026-04-23T16:02:13.985Z</time></trkpt><trkpt lat="46.0122323" lon="10.3609086"><ele>675.0</ele><time>2026-04-23T16:02:15.985Z</time></trkpt><trkpt lat="46.012258" lon="10.3609945"><ele>675.0</ele><time>2026-04-23T16:02:17.985Z</time></trkpt><trkpt lat="46.0122661" lon="10.3610896"><ele>675.0</ele><time>2026-04-23T16:02:19.985Z</time></trkpt><trkpt lat="46.0122596" lon="10.3611874"><ele>675.0</ele><time>2026-04-23T16:02:21.985Z</time></trkpt><trkpt lat="46.0122503" lon="10.3612848"><ele>675.2857142857142</ele><time>2026-04-23T16:02:23.985Z</time></trkpt><trkpt lat="46.012239" lon="10.361382"><ele>675.5714285714286</ele><time>2026-04-23T16:02:25.985Z</time></trkpt><trkpt lat="46.0122288" lon="10.3614769"><ele>675.8571428571429</ele><time>2026-04-23T16:02:27.985Z</time></trkpt><trkpt lat="46.0122178" lon="10.361571"><ele>676.1428571428571</ele><time>2026-04-23T16:02:29.985Z</time></trkpt><trkpt lat="46.0122101" lon="10.3616658"><ele>676.4285714285714</ele><time>2026-04-23T16:02:31.985Z</time></trkpt><trkpt lat="46.0122001" lon="10.3617615"><ele>676.7142857142857</ele><time>2026-04-23T16:02:33.985Z</time></trkpt><trkpt lat="46.0121927" lon="10.3618552"><ele>677.0</ele><time>2026-04-23T16:02:35.985Z</time></trkpt><trkpt lat="46.0121796" lon="10.3619485"><ele>676.9999999999999</ele><time>2026-04-23T16:02:37.985Z</time></trkpt><trkpt lat="46.0121675" lon="10.3620457"><ele>677.0</ele><time>2026-04-23T16:02:39.985Z</time></trkpt><trkpt lat="46.0121809" lon="10.3621412"><ele>677.0</ele><time>2026-04-23T16:02:41.985Z</time></trkpt><trkpt lat="46.0122168" lon="10.3622275"><ele>677.0</ele><time>2026-04-23T16:02:43.985Z</time></trkpt><trkpt lat="46.0122676" lon="10.3623001"><ele>677.0</ele><time>2026-04-23T16:02:45.985Z</time></trkpt><trkpt lat="46.0123289" lon="10.3623562"><ele>676.9999999999999</ele><time>2026-04-23T16:02:47.985Z</time></trkpt><trkpt lat="46.0123986" lon="10.3624018"><ele>677.0</ele><time>2026-04-23T16:02:49.985Z</time></trkpt><trkpt lat="46.0124777" lon="10.3624275"><ele>680.3333333333333</ele><time>2026-04-23T16:02:51.985Z</time></trkpt><trkpt lat="46.0125592" lon="10.3624287"><ele>683.6666666666666</ele><time>2026-04-23T16:02:53.985Z</time></trkpt><trkpt lat="46.0126392" lon="10.3624188"><ele>687.0</ele><time>2026-04-23T16:02:55.985Z</time></trkpt><trkpt lat="46.0127195" lon="10.3623981"><ele>690.3333333333334</ele><time>2026-04-23T16:02:57.985Z</time></trkpt><trkpt lat="46.0127983" lon="10.3623708"><ele>693.6666666666667</ele><time>2026-04-23T16:02:59.985Z</time></trkpt><trkpt lat="46.0128769" lon="10.3623388"><ele>697.0</ele><time>2026-04-23T16:03:01.985Z</time></trkpt><trkpt lat="46.0129523" lon="10.3623271"><ele>697.0</ele><time>2026-04-23T16:03:03.985Z</time></trkpt><trkpt lat="46.0130285" lon="10.3623287"><ele>697.0</ele><time>2026-04-23T16:03:05.985Z</time></trkpt><trkpt lat="46.0131096" lon="10.3623283"><ele>697.0</ele><time>2026-04-23T16:03:07.985Z</time></trkpt><trkpt lat="46.0131801" lon="10.3623417"><ele>697.0</ele><time>2026-04-23T16:03:09.985Z</time></trkpt><trkpt lat="46.013269" lon="10.3623662"><ele>697.0</ele><time>2026-04-23T16:03:12.985Z</time></trkpt><trkpt lat="46.0133418" lon="10.362361"><ele>697.0</ele><time>2026-04-23T16:03:15.985Z</time></trkpt><trkpt lat="46.0134024" lon="10.3623178"><ele>697.6666666666667</ele><time>2026-04-23T16:03:17.985Z</time></trkpt><trkpt lat="46.0134815" lon="10.3622663"><ele>698.3333333333334</ele><time>2026-04-23T16:03:19.985Z</time></trkpt><trkpt lat="46.0135638" lon="10.3622076"><ele>699.0</ele><time>2026-04-23T16:03:21.985Z</time></trkpt><trkpt lat="46.0136409" lon="10.3621384"><ele>699.6666666666666</ele><time>2026-04-23T16:03:23.985Z</time></trkpt><trkpt lat="46.0137236" lon="10.362096"><ele>700.3333333333333</ele><time>2026-04-23T16:03:25.985Z</time></trkpt><trkpt lat="46.0138104" lon="10.3620971"><ele>701.0</ele><time>2026-04-23T16:03:27.985Z</time></trkpt><trkpt lat="46.0138814" lon="10.3620544"><ele>699.5999999999999</ele><time>2026-04-23T16:03:29.985Z</time></trkpt><trkpt lat="46.0139341" lon="10.3619545"><ele>698.2</ele><time>2026-04-23T16:03:31.984Z</time></trkpt><trkpt lat="46.0139999" lon="10.3618455"><ele>696.8</ele><time>2026-04-23T16:03:33.985Z</time></trkpt><trkpt lat="46.0140903" lon="10.3617629"><ele>695.4000000000001</ele><time>2026-04-23T16:03:35.985Z</time></trkpt><trkpt lat="46.0141907" lon="10.3617025"><ele>694.0</ele><time>2026-04-23T16:03:37.985Z</time></trkpt><trkpt lat="46.0142901" lon="10.3616735"><ele>694.0</ele><time>2026-04-23T16:03:39.984Z</time></trkpt><trkpt lat="46.014397" lon="10.3616558"><ele>694.0</ele><time>2026-04-23T16:03:41.985Z</time></trkpt><trkpt lat="46.0144977" lon="10.361639"><ele>694.0</ele><time>2026-04-23T16:03:43.985Z</time></trkpt><trkpt lat="46.0146048" lon="10.3616137"><ele>694.0</ele><time>2026-04-23T16:03:45.985Z</time></trkpt><trkpt lat="46.0147225" lon="10.3615785"><ele>694.0</ele><time>2026-04-23T16:03:47.985Z</time></trkpt><trkpt lat="46.0148432" lon="10.3615487"><ele>694.0</ele><time>2026-04-23T16:03:49.985Z</time></trkpt><trkpt lat="46.014962" lon="10.361512"><ele>694.0</ele><time>2026-04-23T16:03:51.985Z</time></trkpt><trkpt lat="46.0150761" lon="10.3614804"><ele>694.0</ele><time>2026-04-23T16:03:53.985Z</time></trkpt><trkpt lat="46.0151887" lon="10.3614601"><ele>694.0</ele><time>2026-04-23T16:03:55.985Z</time></trkpt><trkpt lat="46.015299" lon="10.3614296"><ele>695.6</ele><time>2026-04-23T16:03:57.985Z</time></trkpt><trkpt lat="46.0153989" lon="10.361393"><ele>697.2</ele><time>2026-04-23T16:03:59.985Z</time></trkpt><trkpt lat="46.0154972" lon="10.3613586"><ele>698.8000000000001</ele><time>2026-04-23T16:04:01.985Z</time></trkpt><trkpt lat="46.0155892" lon="10.3613364"><ele>700.4000000000001</ele><time>2026-04-23T16:04:03.985Z</time></trkpt><trkpt lat="46.015673" lon="10.3613082"><ele>702.0</ele><time>2026-04-23T16:04:05.985Z</time></trkpt><trkpt lat="46.0157629" lon="10.3612731"><ele>699.2</ele><time>2026-04-23T16:04:07.985Z</time></trkpt><trkpt lat="46.0158468" lon="10.3612107"><ele>696.4000000000001</ele><time>2026-04-23T16:04:09.985Z</time></trkpt><trkpt lat="46.0159314" lon="10.3611572"><ele>693.5999999999999</ele><time>2026-04-23T16:04:11.985Z</time></trkpt><trkpt lat="46.0160215" lon="10.3611161"><ele>690.8</ele><time>2026-04-23T16:04:13.985Z</time></trkpt><trkpt lat="46.0161083" lon="10.3610848"><ele>688.0</ele><time>2026-04-23T16:04:15.984Z</time></trkpt><trkpt lat="46.0161987" lon="10.3610559"><ele>688.0</ele><time>2026-04-23T16:04:17.985Z</time></trkpt><trkpt lat="46.0162817" lon="10.3610129"><ele>688.0</ele><time>2026-04-23T16:04:19.984Z</time></trkpt><trkpt lat="46.0163603" lon="10.3609633"><ele>688.0</ele><time>2026-04-23T16:04:21.985Z</time></trkpt><trkpt lat="46.0164347" lon="10.3609133"><ele>688.0</ele><time>2026-04-23T16:04:23.985Z</time></trkpt><trkpt lat="46.0165143" lon="10.3608628"><ele>688.0</ele><time>2026-04-23T16:04:25.985Z</time></trkpt><trkpt lat="46.0165995" lon="10.3608359"><ele>688.0</ele><time>2026-04-23T16:04:27.985Z</time></trkpt><trkpt lat="46.0166802" lon="10.3608097"><ele>689.8571428571429</ele><time>2026-04-23T16:04:29.984Z</time></trkpt><trkpt lat="46.0167587" lon="10.3607811"><ele>691.7142857142858</ele><time>2026-04-23T16:04:31.985Z</time></trkpt><trkpt lat="46.0168295" lon="10.3607485"><ele>693.5714285714287</ele><time>2026-04-23T16:04:33.985Z</time></trkpt><trkpt lat="46.0168925" lon="10.3607184"><ele>695.4285714285714</ele><time>2026-04-23T16:04:35.985Z</time></trkpt><trkpt lat="46.0169569" lon="10.360698"><ele>697.2857142857142</ele><time>2026-04-23T16:04:37.985Z</time></trkpt><trkpt lat="46.0170284" lon="10.3606734"><ele>699.1428571428572</ele><time>2026-04-23T16:04:39.985Z</time></trkpt><trkpt lat="46.0170951" lon="10.3606391"><ele>701.0</ele><time>2026-04-23T16:04:41.985Z</time></trkpt><trkpt lat="46.0171462" lon="10.3605794"><ele>701.1666666666666</ele><time>2026-04-23T16:04:43.985Z</time></trkpt><trkpt lat="46.0172045" lon="10.3605161"><ele>701.3333333333333</ele><time>2026-04-23T16:04:45.985Z</time></trkpt><trkpt lat="46.0172632" lon="10.3604272"><ele>701.5</ele><time>2026-04-23T16:04:47.985Z</time></trkpt><trkpt lat="46.0173272" lon="10.3603427"><ele>701.6666666666666</ele><time>2026-04-23T16:04:49.985Z</time></trkpt><trkpt lat="46.0173962" lon="10.3602819"><ele>701.8333333333334</ele><time>2026-04-23T16:04:51.985Z</time></trkpt><trkpt lat="46.0174669" lon="10.3602379"><ele>702.0</ele><time>2026-04-23T16:04:53.985Z</time></trkpt><trkpt lat="46.0175398" lon="10.3601973"><ele>702.0</ele><time>2026-04-23T16:04:55.985Z</time></trkpt><trkpt lat="46.0176166" lon="10.3601612"><ele>702.0</ele><time>2026-04-23T16:04:57.985Z</time></trkpt><trkpt lat="46.0176939" lon="10.3601312"><ele>702.0</ele><time>2026-04-23T16:04:59.985Z</time></trkpt><trkpt lat="46.0177748" lon="10.3601122"><ele>702.0</ele><time>2026-04-23T16:05:01.985Z</time></trkpt><trkpt lat="46.0178477" lon="10.360095"><ele>702.0</ele><time>2026-04-23T16:05:03.985Z</time></trkpt><trkpt lat="46.0179178" lon="10.3600703"><ele>702.0</ele><time>2026-04-23T16:05:05.985Z</time></trkpt><trkpt lat="46.0179915" lon="10.3600474"><ele>702.0</ele><time>2026-04-23T16:05:07.985Z</time></trkpt><trkpt lat="46.0180653" lon="10.3600184"><ele>702.0</ele><time>2026-04-23T16:05:09.985Z</time></trkpt><trkpt lat="46.0181389" lon="10.3599895"><ele>702.0</ele><time>2026-04-23T16:05:11.985Z</time></trkpt><trkpt lat="46.0182118" lon="10.3599621"><ele>702.0</ele><time>2026-04-23T16:05:13.985Z</time></trkpt><trkpt lat="46.0182819" lon="10.35994"><ele>702.0</ele><time>2026-04-23T16:05:15.985Z</time></trkpt><trkpt lat="46.0183518" lon="10.3599117"><ele>702.0</ele><time>2026-04-23T16:05:17.984Z</time></trkpt><trkpt lat="46.0184265" lon="10.3598839"><ele>703.1666666666666</ele><time>2026-04-23T16:05:19.985Z</time></trkpt><trkpt lat="46.0185028" lon="10.3598787"><ele>704.3333333333334</ele><time>2026-04-23T16:05:21.985Z</time></trkpt><trkpt lat="46.0185751" lon="10.3598858"><ele>705.5</ele><time>2026-04-23T16:05:23.985Z</time></trkpt><trkpt lat="46.0186408" lon="10.3598961"><ele>706.6666666666667</ele><time>2026-04-23T16:05:25.985Z</time></trkpt><trkpt lat="46.0187297" lon="10.3599087"><ele>707.8333333333334</ele><time>2026-04-23T16:05:28.985Z</time></trkpt><trkpt lat="46.0188104" lon="10.3599334"><ele>709.0</ele><time>2026-04-23T16:05:31.985Z</time></trkpt><trkpt lat="46.0188846" lon="10.3599863"><ele>709.0</ele><time>2026-04-23T16:05:34.985Z</time></trkpt><trkpt lat="46.0189547" lon="10.3600465"><ele>709.0</ele><time>2026-04-23T16:05:37.985Z</time></trkpt><trkpt lat="46.0190313" lon="10.3601134"><ele>709.0</ele><time>2026-04-23T16:05:40.985Z</time></trkpt><trkpt lat="46.0191088" lon="10.3601749"><ele>709.0</ele><time>2026-04-23T16:05:43.984Z</time></trkpt><trkpt lat="46.019194" lon="10.3602168"><ele>709.0</ele><time>2026-04-23T16:05:46.985Z</time></trkpt><trkpt lat="46.0192777" lon="10.3602561"><ele>709.0</ele><time>2026-04-23T16:05:49.985Z</time></trkpt><trkpt lat="46.0193585" lon="10.3603006"><ele>710.0</ele><time>2026-04-23T16:05:52.985Z</time></trkpt><trkpt lat="46.0194351" lon="10.3603402"><ele>711.0</ele><time>2026-04-23T16:05:55.985Z</time></trkpt><trkpt lat="46.0195098" lon="10.3603779"><ele>712.0</ele><time>2026-04-23T16:05:58.985Z</time></trkpt><trkpt lat="46.0196012" lon="10.3604083"><ele>713.0</ele><time>2026-04-23T16:06:01.985Z</time></trkpt><trkpt lat="46.0196916" lon="10.3604366"><ele>714.0</ele><time>2026-04-23T16:06:04.985Z</time></trkpt><trkpt lat="46.0197553" lon="10.36046"><ele>715.0</ele><time>2026-04-23T16:06:06.985Z</time></trkpt><trkpt lat="46.0198164" lon="10.3604877"><ele>715.0</ele><time>2026-04-23T16:06:08.985Z</time></trkpt><trkpt lat="46.0198793" lon="10.3605149"><ele>715.0</ele><time>2026-04-23T16:06:10.985Z</time></trkpt><trkpt lat="46.0199415" lon="10.3605415"><ele>715.0</ele><time>2026-04-23T16:06:12.985Z</time></trkpt><trkpt lat="46.0200265" lon="10.3605726"><ele>715.0</ele><time>2026-04-23T16:06:15.985Z</time></trkpt><trkpt lat="46.0201005" lon="10.3605653"><ele>715.0</ele><time>2026-04-23T16:06:19.985Z</time></trkpt><trkpt lat="46.0201674" lon="10.3604967"><ele>715.0</ele><time>2026-04-23T16:06:22.985Z</time></trkpt><trkpt lat="46.0202221" lon="10.3604081"><ele>716.0</ele><time>2026-04-23T16:06:24.985Z</time></trkpt><trkpt lat="46.0202757" lon="10.3603236"><ele>717.0</ele><time>2026-04-23T16:06:27.984Z</time></trkpt><trkpt lat="46.0203313" lon="10.360218"><ele>718.0</ele><time>2026-04-23T16:06:30.985Z</time></trkpt><trkpt lat="46.0203797" lon="10.3601152"><ele>719.0</ele><time>2026-04-23T16:06:32.985Z</time></trkpt><trkpt lat="46.020458" lon="10.3600144"><ele>720.0</ele><time>2026-04-23T16:06:34.985Z</time></trkpt><trkpt lat="46.0205441" lon="10.3599066"><ele>720.0</ele><time>2026-04-23T16:06:36.985Z</time></trkpt><trkpt lat="46.0205973" lon="10.3598427"><ele>720.0</ele><time>2026-04-23T16:06:37.985Z</time></trkpt><trkpt lat="46.0206558" lon="10.3597699"><ele>720.0</ele><time>2026-04-23T16:06:38.985Z</time></trkpt><trkpt lat="46.0207165" lon="10.3596915"><ele>720.0</ele><time>2026-04-23T16:06:39.985Z</time></trkpt><trkpt lat="46.0207832" lon="10.3596241"><ele>720.0</ele><time>2026-04-23T16:06:40.985Z</time></trkpt><trkpt lat="46.0208552" lon="10.3595653"><ele>720.0</ele><time>2026-04-23T16:06:41.985Z</time></trkpt><trkpt lat="46.0209296" lon="10.3595228"><ele>719.3333333333334</ele><time>2026-04-23T16:06:42.985Z</time></trkpt><trkpt lat="46.0210083" lon="10.359482"><ele>718.6666666666666</ele><time>2026-04-23T16:06:43.985Z</time></trkpt><trkpt lat="46.0210797" lon="10.359439"><ele>718.0</ele><time>2026-04-23T16:06:44.985Z</time></trkpt><trkpt lat="46.0211418" lon="10.3593738"><ele>717.3333333333333</ele><time>2026-04-23T16:06:45.985Z</time></trkpt><trkpt lat="46.0211931" lon="10.3592917"><ele>716.6666666666666</ele><time>2026-04-23T16:06:46.985Z</time></trkpt><trkpt lat="46.0212407" lon="10.3592141"><ele>716.0</ele><time>2026-04-23T16:06:47.985Z</time></trkpt><trkpt lat="46.0212901" lon="10.3591456"><ele>716.0</ele><time>2026-04-23T16:06:48.985Z</time></trkpt><trkpt lat="46.0213801" lon="10.3590216"><ele>716.0</ele><time>2026-04-23T16:06:50.985Z</time></trkpt><trkpt lat="46.0214655" lon="10.3589042"><ele>716.0</ele><time>2026-04-23T16:06:52.985Z</time></trkpt><trkpt lat="46.0215519" lon="10.3587938"><ele>716.0</ele><time>2026-04-23T16:06:54.985Z</time></trkpt><trkpt lat="46.021652" lon="10.3587174"><ele>715.1999999999999</ele><time>2026-04-23T16:06:56.984Z</time></trkpt><trkpt lat="46.0217592" lon="10.3586695"><ele>714.4</ele><time>2026-04-23T16:06:58.985Z</time></trkpt><trkpt lat="46.0218659" lon="10.3586315"><ele>713.6</ele><time>2026-04-23T16:07:00.985Z</time></trkpt><trkpt lat="46.0219676" lon="10.3586051"><ele>712.8</ele><time>2026-04-23T16:07:02.985Z</time></trkpt><trkpt lat="46.0220667" lon="10.3586086"><ele>712.0</ele><time>2026-04-23T16:07:04.985Z</time></trkpt><trkpt lat="46.0221672" lon="10.3586066"><ele>712.0</ele><time>2026-04-23T16:07:06.985Z</time></trkpt><trkpt lat="46.0222654" lon="10.3585964"><ele>712.0</ele><time>2026-04-23T16:07:08.985Z</time></trkpt><trkpt lat="46.0223646" lon="10.3585743"><ele>712.0</ele><time>2026-04-23T16:07:10.985Z</time></trkpt><trkpt lat="46.0224599" lon="10.3585511"><ele>712.0</ele><time>2026-04-23T16:07:12.985Z</time></trkpt><trkpt lat="46.0225598" lon="10.3585212"><ele>712.0</ele><time>2026-04-23T16:07:14.985Z</time></trkpt><trkpt lat="46.0226591" lon="10.3584971"><ele>713.4000000000001</ele><time>2026-04-23T16:07:16.984Z</time></trkpt><trkpt lat="46.0227617" lon="10.3584895"><ele>714.8000000000001</ele><time>2026-04-23T16:07:18.985Z</time></trkpt><trkpt lat="46.0228619" lon="10.3584897"><ele>716.2</ele><time>2026-04-23T16:07:20.985Z</time></trkpt><trkpt lat="46.0229583" lon="10.3585026"><ele>717.6</ele><time>2026-04-23T16:07:22.985Z</time></trkpt><trkpt lat="46.0230597" lon="10.358516"><ele>719.0</ele><time>2026-04-23T16:07:24.985Z</time></trkpt><trkpt lat="46.0231606" lon="10.3585415"><ele>719.0</ele><time>2026-04-23T16:07:26.985Z</time></trkpt><trkpt lat="46.0232577" lon="10.3585819"><ele>719.0</ele><time>2026-04-23T16:07:28.985Z</time></trkpt><trkpt lat="46.0233518" lon="10.3586033"><ele>719.0</ele><time>2026-04-23T16:07:30.985Z</time></trkpt><trkpt lat="46.0234458" lon="10.3585745"><ele>719.0</ele><time>2026-04-23T16:07:32.985Z</time></trkpt><trkpt lat="46.0235303" lon="10.3585171"><ele>719.0</ele><time>2026-04-23T16:07:34.985Z</time></trkpt><trkpt lat="46.0236077" lon="10.3584545"><ele>721.0</ele><time>2026-04-23T16:07:36.985Z</time></trkpt><trkpt lat="46.0237003" lon="10.3584048"><ele>723.0</ele><time>2026-04-23T16:07:38.985Z</time></trkpt><trkpt lat="46.0237975" lon="10.3583756"><ele>725.0</ele><time>2026-04-23T16:07:40.985Z</time></trkpt><trkpt lat="46.0238848" lon="10.358347"><ele>727.0</ele><time>2026-04-23T16:07:42.985Z</time></trkpt><trkpt lat="46.0239804" lon="10.3583183"><ele>729.0</ele><time>2026-04-23T16:07:44.985Z</time></trkpt><trkpt lat="46.0240882" lon="10.3582852"><ele>731.0</ele><time>2026-04-23T16:07:46.985Z</time></trkpt><trkpt lat="46.0241895" lon="10.3582656"><ele>733.0</ele><time>2026-04-23T16:07:48.985Z</time></trkpt><trkpt lat="46.0242933" lon="10.3582479"><ele>735.0</ele><time>2026-04-23T16:07:50.985Z</time></trkpt><trkpt lat="46.0243921" lon="10.3582284"><ele>737.0</ele><time>2026-04-23T16:07:52.985Z</time></trkpt><trkpt lat="46.0244955" lon="10.3581982"><ele>739.0</ele><time>2026-04-23T16:07:54.984Z</time></trkpt><trkpt lat="46.0245971" lon="10.3581945"><ele>739.0</ele><time>2026-04-23T16:07:56.985Z</time></trkpt><trkpt lat="46.0247002" lon="10.3582166"><ele>739.0</ele><time>2026-04-23T16:07:58.985Z</time></trkpt><trkpt lat="46.024796" lon="10.3582283"><ele>739.0</ele><time>2026-04-23T16:08:00.985Z</time></trkpt><trkpt lat="46.0248976" lon="10.3582365"><ele>739.0</ele><time>2026-04-23T16:08:02.985Z</time></trkpt><trkpt lat="46.0249977" lon="10.3582352"><ele>739.0</ele><time>2026-04-23T16:08:04.985Z</time></trkpt><trkpt lat="46.0250992" lon="10.3582055"><ele>740.2</ele><time>2026-04-23T16:08:06.985Z</time></trkpt><trkpt lat="46.0251979" lon="10.3581731"><ele>741.4000000000001</ele><time>2026-04-23T16:08:08.985Z</time></trkpt><trkpt lat="46.0252832" lon="10.3581372"><ele>742.6</ele><time>2026-04-23T16:08:10.984Z</time></trkpt><trkpt lat="46.0253772" lon="10.3580713"><ele>743.8</ele><time>2026-04-23T16:08:12.985Z</time></trkpt><trkpt lat="46.0254749" lon="10.3580055"><ele>745.0</ele><time>2026-04-23T16:08:14.985Z</time></trkpt><trkpt lat="46.0255717" lon="10.3579665"><ele>745.0</ele><time>2026-04-23T16:08:16.985Z</time></trkpt><trkpt lat="46.0256676" lon="10.3579364"><ele>745.0</ele><time>2026-04-23T16:08:18.985Z</time></trkpt><trkpt lat="46.0257648" lon="10.3579109"><ele>745.0</ele><time>2026-04-23T16:08:20.985Z</time></trkpt><trkpt lat="46.0258648" lon="10.3578805"><ele>745.0</ele><time>2026-04-23T16:08:22.985Z</time></trkpt><trkpt lat="46.025966" lon="10.3578725"><ele>745.0</ele><time>2026-04-23T16:08:24.985Z</time></trkpt><trkpt lat="46.0260573" lon="10.3578768"><ele>745.6</ele><time>2026-04-23T16:08:26.985Z</time></trkpt><trkpt lat="46.0261557" lon="10.3579114"><ele>746.2</ele><time>2026-04-23T16:08:28.985Z</time></trkpt><trkpt lat="46.0262455" lon="10.3579396"><ele>746.8</ele><time>2026-04-23T16:08:30.984Z</time></trkpt><trkpt lat="46.0263418" lon="10.3579428"><ele>747.4</ele><time>2026-04-23T16:08:32.985Z</time></trkpt><trkpt lat="46.0264321" lon="10.3579509"><ele>748.0</ele><time>2026-04-23T16:08:34.984Z</time></trkpt><trkpt lat="46.0265149" lon="10.357964"><ele>748.0</ele><time>2026-04-23T16:08:36.985Z</time></trkpt><trkpt lat="46.0266008" lon="10.3580155"><ele>748.0</ele><time>2026-04-23T16:08:38.985Z</time></trkpt><trkpt lat="46.0266811" lon="10.3580497"><ele>748.0</ele><time>2026-04-23T16:08:40.985Z</time></trkpt><trkpt lat="46.0267547" lon="10.3581101"><ele>748.0</ele><time>2026-04-23T16:08:42.985Z</time></trkpt><trkpt lat="46.0268179" lon="10.3581764"><ele>748.0</ele><time>2026-04-23T16:08:44.985Z</time></trkpt><trkpt lat="46.0268743" lon="10.3582558"><ele>748.0</ele><time>2026-04-23T16:08:46.985Z</time></trkpt><trkpt lat="46.026913" lon="10.3583603"><ele>749.3333333333334</ele><time>2026-04-23T16:08:48.984Z</time></trkpt><trkpt lat="46.0269277" lon="10.3584659"><ele>750.6666666666667</ele><time>2026-04-23T16:08:50.985Z</time></trkpt><trkpt lat="46.026918" lon="10.358589"><ele>752.0</ele><time>2026-04-23T16:08:53.985Z</time></trkpt><trkpt lat="46.0268543" lon="10.3586565"><ele>753.3333333333334</ele><time>2026-04-23T16:08:58.985Z</time></trkpt><trkpt lat="46.0267916" lon="10.3586951"><ele>754.6666666666666</ele><time>2026-04-23T16:09:00.985Z</time></trkpt><trkpt lat="46.0267174" lon="10.3587181"><ele>756.0</ele><time>2026-04-23T16:09:02.985Z</time></trkpt><trkpt lat="46.0266418" lon="10.3587626"><ele>756.0</ele><time>2026-04-23T16:09:04.985Z</time></trkpt><trkpt lat="46.0265707" lon="10.3588359"><ele>756.0</ele><time>2026-04-23T16:09:06.985Z</time></trkpt><trkpt lat="46.0265222" lon="10.3589504"><ele>756.0</ele><time>2026-04-23T16:09:08.985Z</time></trkpt><trkpt lat="46.0264925" lon="10.3590709"><ele>756.0</ele><time>2026-04-23T16:09:10.985Z</time></trkpt><trkpt lat="46.0264773" lon="10.3592083"><ele>756.0</ele><time>2026-04-23T16:09:12.985Z</time></trkpt><trkpt lat="46.026467" lon="10.35935"><ele>757.5999999999999</ele><time>2026-04-23T16:09:14.985Z</time></trkpt><trkpt lat="46.0264578" lon="10.3594921"><ele>759.2</ele><time>2026-04-23T16:09:16.985Z</time></trkpt><trkpt lat="46.0264462" lon="10.3596338"><ele>760.8</ele><time>2026-04-23T16:09:18.985Z</time></trkpt><trkpt lat="46.026434" lon="10.359778"><ele>762.4000000000001</ele><time>2026-04-23T16:09:20.985Z</time></trkpt><trkpt lat="46.0264249" lon="10.3599304"><ele>764.0</ele><time>2026-04-23T16:09:22.985Z</time></trkpt><trkpt lat="46.0264195" lon="10.3600812"><ele>764.4000000000001</ele><time>2026-04-23T16:09:24.985Z</time></trkpt><trkpt lat="46.0264257" lon="10.3602278"><ele>764.8</ele><time>2026-04-23T16:09:26.985Z</time></trkpt><trkpt lat="46.0264342" lon="10.360373"><ele>765.2</ele><time>2026-04-23T16:09:28.985Z</time></trkpt><trkpt lat="46.0264505" lon="10.3605145"><ele>765.5999999999999</ele><time>2026-04-23T16:09:30.984Z</time></trkpt><trkpt lat="46.0264737" lon="10.360652"><ele>766.0</ele><time>2026-04-23T16:09:32.985Z</time></trkpt><trkpt lat="46.0264937" lon="10.3607956"><ele>766.4</ele><time>2026-04-23T16:09:34.984Z</time></trkpt><trkpt lat="46.0265184" lon="10.3609367"><ele>766.8</ele><time>2026-04-23T16:09:36.985Z</time></trkpt><trkpt lat="46.0265488" lon="10.3610719"><ele>767.1999999999999</ele><time>2026-04-23T16:09:38.985Z</time></trkpt><trkpt lat="46.026582" lon="10.3612075"><ele>767.5999999999999</ele><time>2026-04-23T16:09:40.985Z</time></trkpt><trkpt lat="46.026612" lon="10.3613528"><ele>768.0</ele><time>2026-04-23T16:09:42.985Z</time></trkpt><trkpt lat="46.026642" lon="10.3614981"><ele>768.2</ele><time>2026-04-23T16:09:44.985Z</time></trkpt><trkpt lat="46.0266741" lon="10.3616393"><ele>768.4</ele><time>2026-04-23T16:09:46.985Z</time></trkpt><trkpt lat="46.0267066" lon="10.3617751"><ele>768.6</ele><time>2026-04-23T16:09:48.985Z</time></trkpt><trkpt lat="46.0267387" lon="10.3619133"><ele>768.8000000000001</ele><time>2026-04-23T16:09:50.985Z</time></trkpt><trkpt lat="46.026761" lon="10.3620523"><ele>769.0</ele><time>2026-04-23T16:09:52.985Z</time></trkpt><trkpt lat="46.0267635" lon="10.3621942"><ele>770.9999999999999</ele><time>2026-04-23T16:09:54.985Z</time></trkpt><trkpt lat="46.0267232" lon="10.3623243"><ele>773.0</ele><time>2026-04-23T16:09:56.985Z</time></trkpt><trkpt lat="46.0266561" lon="10.3624069"><ele>775.0</ele><time>2026-04-23T16:09:58.985Z</time></trkpt><trkpt lat="46.0265799" lon="10.3624658"><ele>777.0</ele><time>2026-04-23T16:10:00.985Z</time></trkpt><trkpt lat="46.0265004" lon="10.3625059"><ele>778.9999999999999</ele><time>2026-04-23T16:10:02.985Z</time></trkpt><trkpt lat="46.0264186" lon="10.3625424"><ele>781.0</ele><time>2026-04-23T16:10:04.985Z</time></trkpt><trkpt lat="46.026334" lon="10.3625753"><ele>780.9999999999999</ele><time>2026-04-23T16:10:06.985Z</time></trkpt><trkpt lat="46.0262463" lon="10.3625978"><ele>781.0</ele><time>2026-04-23T16:10:08.985Z</time></trkpt><trkpt lat="46.0261623" lon="10.3626281"><ele>781.0</ele><time>2026-04-23T16:10:10.985Z</time></trkpt><trkpt lat="46.0260798" lon="10.3626502"><ele>781.0</ele><time>2026-04-23T16:10:12.985Z</time></trkpt><trkpt lat="46.0260001" lon="10.3626804"><ele>780.9999999999999</ele><time>2026-04-23T16:10:14.985Z</time></trkpt><trkpt lat="46.0259182" lon="10.3627064"><ele>781.0</ele><time>2026-04-23T16:10:16.985Z</time></trkpt><trkpt lat="46.0258318" lon="10.362734"><ele>782.1666666666666</ele><time>2026-04-23T16:10:18.985Z</time></trkpt><trkpt lat="46.0257461" lon="10.3627508"><ele>783.3333333333333</ele><time>2026-04-23T16:10:20.985Z</time></trkpt><trkpt lat="46.0256621" lon="10.362772"><ele>784.5</ele><time>2026-04-23T16:10:22.985Z</time></trkpt><trkpt lat="46.0255766" lon="10.3627963"><ele>785.6666666666667</ele><time>2026-04-23T16:10:24.985Z</time></trkpt><trkpt lat="46.0254915" lon="10.362823"><ele>786.8333333333334</ele><time>2026-04-23T16:10:26.984Z</time></trkpt><trkpt lat="46.0254072" lon="10.3628484"><ele>788.0</ele><time>2026-04-23T16:10:28.985Z</time></trkpt><trkpt lat="46.0253218" lon="10.3628679"><ele>788.0</ele><time>2026-04-23T16:10:30.985Z</time></trkpt><trkpt lat="46.0252352" lon="10.3628902"><ele>788.0</ele><time>2026-04-23T16:10:32.984Z</time></trkpt><trkpt lat="46.0251491" lon="10.362922"><ele>788.0</ele><time>2026-04-23T16:10:34.985Z</time></trkpt><trkpt lat="46.0250585" lon="10.3629565"><ele>788.0</ele><time>2026-04-23T16:10:36.985Z</time></trkpt><trkpt lat="46.0249674" lon="10.3629881"><ele>788.0</ele><time>2026-04-23T16:10:38.985Z</time></trkpt><trkpt lat="46.0248785" lon="10.3630195"><ele>792.0</ele><time>2026-04-23T16:10:40.985Z</time></trkpt><trkpt lat="46.024788" lon="10.3630452"><ele>796.0</ele><time>2026-04-23T16:10:42.985Z</time></trkpt><trkpt lat="46.024697" lon="10.363081"><ele>800.0</ele><time>2026-04-23T16:10:44.985Z</time></trkpt><trkpt lat="46.024605" lon="10.3631119"><ele>804.0</ele><time>2026-04-23T16:10:46.985Z</time></trkpt><trkpt lat="46.0245167" lon="10.3631466"><ele>808.0</ele><time>2026-04-23T16:10:48.985Z</time></trkpt><trkpt lat="46.0244313" lon="10.3632057"><ele>808.0</ele><time>2026-04-23T16:10:50.985Z</time></trkpt><trkpt lat="46.0243493" lon="10.3632704"><ele>808.0</ele><time>2026-04-23T16:10:52.985Z</time></trkpt><trkpt lat="46.0242701" lon="10.363339"><ele>808.0</ele><time>2026-04-23T16:10:54.984Z</time></trkpt><trkpt lat="46.0241909" lon="10.3634"><ele>808.0</ele><time>2026-04-23T16:10:56.985Z</time></trkpt><trkpt lat="46.0241023" lon="10.3634413"><ele>808.0</ele><time>2026-04-23T16:10:58.985Z</time></trkpt><trkpt lat="46.024008" lon="10.3634564"><ele>808.8</ele><time>2026-04-23T16:11:00.984Z</time></trkpt><trkpt lat="46.0239099" lon="10.3634383"><ele>809.5999999999999</ele><time>2026-04-23T16:11:02.985Z</time></trkpt><trkpt lat="46.0238225" lon="10.3634034"><ele>810.4000000000001</ele><time>2026-04-23T16:11:04.985Z</time></trkpt><trkpt lat="46.0237399" lon="10.3633532"><ele>811.2</ele><time>2026-04-23T16:11:06.985Z</time></trkpt><trkpt lat="46.0236626" lon="10.3633017"><ele>812.0</ele><time>2026-04-23T16:11:08.985Z</time></trkpt><trkpt lat="46.0235755" lon="10.3632587"><ele>812.0</ele><time>2026-04-23T16:11:10.985Z</time></trkpt><trkpt lat="46.0234857" lon="10.3632502"><ele>812.0</ele><time>2026-04-23T16:11:12.985Z</time></trkpt><trkpt lat="46.0233943" lon="10.3632721"><ele>812.0</ele><time>2026-04-23T16:11:14.985Z</time></trkpt><trkpt lat="46.0233046" lon="10.3633088"><ele>812.0</ele><time>2026-04-23T16:11:16.985Z</time></trkpt><trkpt lat="46.0232167" lon="10.3633588"><ele>812.0</ele><time>2026-04-23T16:11:18.985Z</time></trkpt><trkpt lat="46.0231293" lon="10.3634071"><ele>811.8</ele><time>2026-04-23T16:11:20.985Z</time></trkpt><trkpt lat="46.023046" lon="10.3634783"><ele>811.6</ele><time>2026-04-23T16:11:22.985Z</time></trkpt><trkpt lat="46.0229722" lon="10.3635599"><ele>811.4</ele><time>2026-04-23T16:11:24.985Z</time></trkpt><trkpt lat="46.0229012" lon="10.3636566"><ele>811.1999999999999</ele><time>2026-04-23T16:11:26.985Z</time></trkpt><trkpt lat="46.0228162" lon="10.3637267"><ele>811.0</ele><time>2026-04-23T16:11:28.985Z</time></trkpt><trkpt lat="46.0227258" lon="10.3637739"><ele>810.9999999999999</ele><time>2026-04-23T16:11:30.985Z</time></trkpt><trkpt lat="46.0226364" lon="10.3638177"><ele>811.0</ele><time>2026-04-23T16:11:32.985Z</time></trkpt><trkpt lat="46.0225458" lon="10.3638522"><ele>811.0</ele><time>2026-04-23T16:11:34.985Z</time></trkpt><trkpt lat="46.0224541" lon="10.3638779"><ele>811.0</ele><time>2026-04-23T16:11:36.985Z</time></trkpt><trkpt lat="46.0223666" lon="10.3639123"><ele>810.9999999999999</ele><time>2026-04-23T16:11:38.985Z</time></trkpt><trkpt lat="46.0223024" lon="10.363932"><ele>811.0</ele><time>2026-04-23T16:11:40.985Z</time></trkpt><trkpt lat="46.0222229" lon="10.3639387"><ele>814.8333333333333</ele><time>2026-04-23T16:11:43.985Z</time></trkpt><trkpt lat="46.0221438" lon="10.3639386"><ele>818.6666666666666</ele><time>2026-04-23T16:11:46.984Z</time></trkpt><trkpt lat="46.0222263" lon="10.3639838"><ele>822.5</ele><time>2026-04-23T16:11:51.985Z</time></trkpt><trkpt lat="46.0223166" lon="10.3640219"><ele>826.3333333333333</ele><time>2026-04-23T16:11:53.985Z</time></trkpt><trkpt lat="46.0223775" lon="10.3640848"><ele>830.1666666666666</ele><time>2026-04-23T16:11:55.985Z</time></trkpt><trkpt lat="46.0224283" lon="10.3641473"><ele>834.0</ele><time>2026-04-23T16:11:57.985Z</time></trkpt><trkpt lat="46.0225137" lon="10.3641974"><ele>834.0</ele><time>2026-04-23T16:12:00.985Z</time></trkpt><trkpt lat="46.0225762" lon="10.3642304"><ele>834.0</ele><time>2026-04-23T16:12:02.984Z</time></trkpt><trkpt lat="46.0226636" lon="10.3642791"><ele>834.0</ele><time>2026-04-23T16:12:05.984Z</time></trkpt><trkpt lat="46.0227314" lon="10.3642948"><ele>834.0</ele><time>2026-04-23T16:12:07.985Z</time></trkpt><trkpt lat="46.0227991" lon="10.3642994"><ele>834.0</ele><time>2026-04-23T16:12:09.985Z</time></trkpt><trkpt lat="46.0228677" lon="10.3642847"><ele>834.0</ele><time>2026-04-23T16:12:11.985Z</time></trkpt><trkpt lat="46.0229482" lon="10.3642626"><ele>834.0</ele><time>2026-04-23T16:12:14.985Z</time></trkpt><trkpt lat="46.023038" lon="10.3642356"><ele>834.0</ele><time>2026-04-23T16:12:17.985Z</time></trkpt><trkpt lat="46.0231086" lon="10.3642263"><ele>834.0</ele><time>2026-04-23T16:12:19.985Z</time></trkpt><trkpt lat="46.0231834" lon="10.3642466"><ele>834.0</ele><time>2026-04-23T16:12:22.985Z</time></trkpt><trkpt lat="46.0232513" lon="10.3643219"><ele>834.0</ele><time>2026-04-23T16:12:25.985Z</time></trkpt><trkpt lat="46.0233368" lon="10.3643297"><ele>834.0</ele><time>2026-04-23T16:12:28.985Z</time></trkpt><trkpt lat="46.02341" lon="10.3643459"><ele>834.0</ele><time>2026-04-23T16:12:30.984Z</time></trkpt><trkpt lat="46.0234836" lon="10.3643584"><ele>834.6666666666666</ele><time>2026-04-23T16:12:32.985Z</time></trkpt><trkpt lat="46.0235647" lon="10.3643624"><ele>835.3333333333333</ele><time>2026-04-23T16:12:34.985Z</time></trkpt><trkpt lat="46.0236365" lon="10.3643637"><ele>836.0</ele><time>2026-04-23T16:12:36.985Z</time></trkpt><trkpt lat="46.0237122" lon="10.3643751"><ele>836.6666666666666</ele><time>2026-04-23T16:12:38.985Z</time></trkpt><trkpt lat="46.0237884" lon="10.3643767"><ele>837.3333333333333</ele><time>2026-04-23T16:12:40.985Z</time></trkpt><trkpt lat="46.0238578" lon="10.3643802"><ele>838.0</ele><time>2026-04-23T16:12:42.985Z</time></trkpt><trkpt lat="46.0239471" lon="10.3643855"><ele>837.9999999999999</ele><time>2026-04-23T16:12:45.984Z</time></trkpt><trkpt lat="46.0240459" lon="10.3643646"><ele>838.0</ele><time>2026-04-23T16:12:48.985Z</time></trkpt><trkpt lat="46.0241199" lon="10.3643971"><ele>838.0</ele><time>2026-04-23T16:12:50.985Z</time></trkpt><trkpt lat="46.0241614" lon="10.3645128"><ele>838.0</ele><time>2026-04-23T16:12:53.985Z</time></trkpt><trkpt lat="46.0241871" lon="10.3646087"><ele>837.9999999999999</ele><time>2026-04-23T16:12:55.985Z</time></trkpt><trkpt lat="46.0242162" lon="10.3647071"><ele>838.0</ele><time>2026-04-23T16:12:57.984Z</time></trkpt><trkpt lat="46.0242282" lon="10.3648027"><ele>841.3333333333333</ele><time>2026-04-23T16:12:59.985Z</time></trkpt><trkpt lat="46.0243048" lon="10.3648716"><ele>844.6666666666666</ele><time>2026-04-23T16:13:02.985Z</time></trkpt><trkpt lat="46.0243693" lon="10.3649113"><ele>848.0</ele><time>2026-04-23T16:13:04.985Z</time></trkpt><trkpt lat="46.0244144" lon="10.3649759"><ele>851.3333333333333</ele><time>2026-04-23T16:13:06.985Z</time></trkpt><trkpt lat="46.0244591" lon="10.3650488"><ele>854.6666666666666</ele><time>2026-04-23T16:13:08.984Z</time></trkpt><trkpt lat="46.0244939" lon="10.3651642"><ele>858.0</ele><time>2026-04-23T16:13:11.985Z</time></trkpt><trkpt lat="46.0245094" lon="10.3652891"><ele>858.0</ele><time>2026-04-23T16:13:14.984Z</time></trkpt><trkpt lat="46.0245459" lon="10.3653861"><ele>858.0</ele><time>2026-04-23T16:13:17.985Z</time></trkpt><trkpt lat="46.024642" lon="10.3654154"><ele>858.0</ele><time>2026-04-23T16:13:20.985Z</time></trkpt><trkpt lat="46.0247073" lon="10.3654289"><ele>858.0</ele><time>2026-04-23T16:13:22.985Z</time></trkpt><trkpt lat="46.0247788" lon="10.3654285"><ele>858.0</ele><time>2026-04-23T16:13:24.985Z</time></trkpt><trkpt lat="46.0248475" lon="10.3654318"><ele>858.0</ele><time>2026-04-23T16:13:26.985Z</time></trkpt><trkpt lat="46.0249192" lon="10.3654457"><ele>858.1428571428571</ele><time>2026-04-23T16:13:28.985Z</time></trkpt><trkpt lat="46.0249868" lon="10.3654577"><ele>858.2857142857143</ele><time>2026-04-23T16:13:30.984Z</time></trkpt><trkpt lat="46.0250544" lon="10.3654764"><ele>858.4285714285713</ele><time>2026-04-23T16:13:32.985Z</time></trkpt><trkpt lat="46.0251187" lon="10.3654956"><ele>858.5714285714286</ele><time>2026-04-23T16:13:34.985Z</time></trkpt><trkpt lat="46.025184" lon="10.3655132"><ele>858.7142857142857</ele><time>2026-04-23T16:13:36.984Z</time></trkpt><trkpt lat="46.0252532" lon="10.3655305"><ele>858.8571428571428</ele><time>2026-04-23T16:13:38.985Z</time></trkpt><trkpt lat="46.0253234" lon="10.3655568"><ele>859.0</ele><time>2026-04-23T16:13:40.985Z</time></trkpt><trkpt lat="46.0253953" lon="10.3655773"><ele>861.9999999999999</ele><time>2026-04-23T16:13:42.985Z</time></trkpt><trkpt lat="46.0254589" lon="10.3656138"><ele>865.0</ele><time>2026-04-23T16:13:44.985Z</time></trkpt><trkpt lat="46.0255238" lon="10.3656713"><ele>868.0</ele><time>2026-04-23T16:13:46.985Z</time></trkpt><trkpt lat="46.0255939" lon="10.3657245"><ele>871.0</ele><time>2026-04-23T16:13:48.985Z</time></trkpt><trkpt lat="46.0256654" lon="10.3657694"><ele>873.9999999999999</ele><time>2026-04-23T16:13:50.985Z</time></trkpt><trkpt lat="46.025735" lon="10.3658075"><ele>877.0</ele><time>2026-04-23T16:13:52.984Z</time></trkpt><trkpt lat="46.0258128" lon="10.3658475"><ele>877.4999999999999</ele><time>2026-04-23T16:13:54.985Z</time></trkpt><trkpt lat="46.0258837" lon="10.3658947"><ele>878.0</ele><time>2026-04-23T16:13:56.984Z</time></trkpt><trkpt lat="46.0259445" lon="10.3659677"><ele>878.5</ele><time>2026-04-23T16:13:58.985Z</time></trkpt><trkpt lat="46.0259762" lon="10.3660644"><ele>879.0</ele><time>2026-04-23T16:14:00.985Z</time></trkpt><trkpt lat="46.0259559" lon="10.3661638"><ele>879.4999999999999</ele><time>2026-04-23T16:14:02.985Z</time></trkpt><trkpt lat="46.0258965" lon="10.3662314"><ele>880.0</ele><time>2026-04-23T16:14:04.985Z</time></trkpt><trkpt lat="46.0258188" lon="10.3662554"><ele>879.4999999999999</ele><time>2026-04-23T16:14:06.985Z</time></trkpt><trkpt lat="46.0257382" lon="10.3662672"><ele>879.0</ele><time>2026-04-23T16:14:08.985Z</time></trkpt><trkpt lat="46.0256584" lon="10.3662808"><ele>878.5</ele><time>2026-04-23T16:14:10.985Z</time></trkpt><trkpt lat="46.0255786" lon="10.3662949"><ele>878.0</ele><time>2026-04-23T16:14:12.985Z</time></trkpt><trkpt lat="46.0255005" lon="10.3663088"><ele>877.4999999999999</ele><time>2026-04-23T16:14:14.985Z</time></trkpt><trkpt lat="46.0254241" lon="10.3663255"><ele>877.0</ele><time>2026-04-23T16:14:16.985Z</time></trkpt><trkpt lat="46.0253481" lon="10.3663396"><ele>876.9999999999999</ele><time>2026-04-23T16:14:18.985Z</time></trkpt><trkpt lat="46.0252709" lon="10.3663519"><ele>877.0</ele><time>2026-04-23T16:14:20.985Z</time></trkpt><trkpt lat="46.0251938" lon="10.3663686"><ele>877.0</ele><time>2026-04-23T16:14:22.985Z</time></trkpt><trkpt lat="46.0251172" lon="10.366386"><ele>877.0</ele><time>2026-04-23T16:14:24.985Z</time></trkpt><trkpt lat="46.0250398" lon="10.3664107"><ele>876.9999999999999</ele><time>2026-04-23T16:14:26.984Z</time></trkpt><trkpt lat="46.0249621" lon="10.3664324"><ele>877.0</ele><time>2026-04-23T16:14:28.985Z</time></trkpt><trkpt lat="46.0248838" lon="10.3664552"><ele>880.4999999999999</ele><time>2026-04-23T16:14:30.985Z</time></trkpt><trkpt lat="46.0248043" lon="10.3664777"><ele>884.0</ele><time>2026-04-23T16:14:32.985Z</time></trkpt><trkpt lat="46.0247231" lon="10.366503"><ele>887.5</ele><time>2026-04-23T16:14:34.985Z</time></trkpt><trkpt lat="46.0246472" lon="10.366534"><ele>891.0</ele><time>2026-04-23T16:14:36.985Z</time></trkpt><trkpt lat="46.0245724" lon="10.3665649"><ele>894.4999999999999</ele><time>2026-04-23T16:14:38.985Z</time></trkpt><trkpt lat="46.0244985" lon="10.3665899"><ele>898.0</ele><time>2026-04-23T16:14:40.984Z</time></trkpt><trkpt lat="46.024423" lon="10.3666051"><ele>897.9999999999999</ele><time>2026-04-23T16:14:42.985Z</time></trkpt><trkpt lat="46.0243464" lon="10.3666125"><ele>898.0</ele><time>2026-04-23T16:14:44.985Z</time></trkpt><trkpt lat="46.0242651" lon="10.3666034"><ele>898.0</ele><time>2026-04-23T16:14:46.984Z</time></trkpt><trkpt lat="46.0241847" lon="10.3665985"><ele>898.0</ele><time>2026-04-23T16:14:48.985Z</time></trkpt><trkpt lat="46.0241034" lon="10.3665915"><ele>897.9999999999999</ele><time>2026-04-23T16:14:50.985Z</time></trkpt><trkpt lat="46.0240238" lon="10.3665841"><ele>898.0</ele><time>2026-04-23T16:14:52.984Z</time></trkpt><trkpt lat="46.0239462" lon="10.3665786"><ele>899.9999999999999</ele><time>2026-04-23T16:14:54.985Z</time></trkpt><trkpt lat="46.0238619" lon="10.3665757"><ele>902.0</ele><time>2026-04-23T16:14:56.985Z</time></trkpt><trkpt lat="46.0237858" lon="10.3665669"><ele>904.0</ele><time>2026-04-23T16:14:58.985Z</time></trkpt><trkpt lat="46.0237162" lon="10.3665623"><ele>906.0</ele><time>2026-04-23T16:15:00.985Z</time></trkpt><trkpt lat="46.0236409" lon="10.3665479"><ele>907.9999999999999</ele><time>2026-04-23T16:15:02.985Z</time></trkpt><trkpt lat="46.0235625" lon="10.3665358"><ele>910.0</ele><time>2026-04-23T16:15:04.985Z</time></trkpt><trkpt lat="46.0234861" lon="10.3665207"><ele>909.9999999999999</ele><time>2026-04-23T16:15:06.985Z</time></trkpt><trkpt lat="46.0234125" lon="10.3665029"><ele>910.0</ele><time>2026-04-23T16:15:08.985Z</time></trkpt><trkpt lat="46.0233351" lon="10.3664856"><ele>910.0</ele><time>2026-04-23T16:15:10.985Z</time></trkpt><trkpt lat="46.0232561" lon="10.3664722"><ele>910.0</ele><time>2026-04-23T16:15:12.984Z</time></trkpt><trkpt lat="46.02318" lon="10.3664737"><ele>909.9999999999999</ele><time>2026-04-23T16:15:14.985Z</time></trkpt><trkpt lat="46.023105" lon="10.3665005"><ele>910.0</ele><time>2026-04-23T16:15:16.985Z</time></trkpt><trkpt lat="46.0230435" lon="10.3665773"><ele>910.6666666666666</ele><time>2026-04-23T16:15:18.985Z</time></trkpt><trkpt lat="46.0230053" lon="10.3666844"><ele>911.3333333333333</ele><time>2026-04-23T16:15:20.984Z</time></trkpt><trkpt lat="46.02297" lon="10.366787"><ele>912.0</ele><time>2026-04-23T16:15:22.985Z</time></trkpt><trkpt lat="46.022922" lon="10.3668711"><ele>912.6666666666667</ele><time>2026-04-23T16:15:24.985Z</time></trkpt><trkpt lat="46.0228623" lon="10.3669394"><ele>913.3333333333334</ele><time>2026-04-23T16:15:26.985Z</time></trkpt><trkpt lat="46.0228034" lon="10.3670117"><ele>914.0</ele><time>2026-04-23T16:15:28.985Z</time></trkpt><trkpt lat="46.0227413" lon="10.3670744"><ele>914.0000000000001</ele><time>2026-04-23T16:15:30.985Z</time></trkpt><trkpt lat="46.0226921" lon="10.3671565"><ele>914.0</ele><time>2026-04-23T16:15:32.984Z</time></trkpt><trkpt lat="46.0226368" lon="10.3672319"><ele>914.0</ele><time>2026-04-23T16:15:34.985Z</time></trkpt><trkpt lat="46.0225892" lon="10.3673115"><ele>914.0</ele><time>2026-04-23T16:15:36.985Z</time></trkpt><trkpt lat="46.022574" lon="10.3674238"><ele>914.0000000000001</ele><time>2026-04-23T16:15:38.985Z</time></trkpt><trkpt lat="46.0225737" lon="10.3675352"><ele>914.0</ele><time>2026-04-23T16:15:40.985Z</time></trkpt><trkpt lat="46.0225758" lon="10.3676477"><ele>915.0000000000001</ele><time>2026-04-23T16:15:42.985Z</time></trkpt><trkpt lat="46.0225802" lon="10.3677582"><ele>916.0</ele><time>2026-04-23T16:15:44.985Z</time></trkpt><trkpt lat="46.0225829" lon="10.3678644"><ele>917.0</ele><time>2026-04-23T16:15:46.985Z</time></trkpt><trkpt lat="46.0225655" lon="10.3679698"><ele>918.0</ele><time>2026-04-23T16:15:48.985Z</time></trkpt><trkpt lat="46.0225171" lon="10.3680522"><ele>919.0000000000001</ele><time>2026-04-23T16:15:50.985Z</time></trkpt><trkpt lat="46.022457" lon="10.3681223"><ele>920.0</ele><time>2026-04-23T16:15:52.984Z</time></trkpt><trkpt lat="46.0223896" lon="10.3681758"><ele>922.0000000000001</ele><time>2026-04-23T16:15:54.985Z</time></trkpt><trkpt lat="46.0223201" lon="10.3682174"><ele>924.0</ele><time>2026-04-23T16:15:56.985Z</time></trkpt><trkpt lat="46.0222471" lon="10.3682476"><ele>926.0</ele><time>2026-04-23T16:15:58.985Z</time></trkpt><trkpt lat="46.0221739" lon="10.368265"><ele>928.0</ele><time>2026-04-23T16:16:00.985Z</time></trkpt><trkpt lat="46.0221011" lon="10.3682885"><ele>930.0000000000001</ele><time>2026-04-23T16:16:02.985Z</time></trkpt><trkpt lat="46.022024" lon="10.3683067"><ele>932.0</ele><time>2026-04-23T16:16:04.985Z</time></trkpt><trkpt lat="46.0219529" lon="10.368324"><ele>932.0000000000001</ele><time>2026-04-23T16:16:06.985Z</time></trkpt><trkpt lat="46.0218786" lon="10.3683368"><ele>932.0</ele><time>2026-04-23T16:16:08.985Z</time></trkpt><trkpt lat="46.0218001" lon="10.3683424"><ele>932.0</ele><time>2026-04-23T16:16:10.985Z</time></trkpt><trkpt lat="46.0217212" lon="10.3683569"><ele>932.0</ele><time>2026-04-23T16:16:12.985Z</time></trkpt><trkpt lat="46.0216416" lon="10.3683786"><ele>932.0000000000001</ele><time>2026-04-23T16:16:14.985Z</time></trkpt><trkpt lat="46.0215624" lon="10.3683992"><ele>932.0</ele><time>2026-04-23T16:16:16.984Z</time></trkpt><trkpt lat="46.0214839" lon="10.3684247"><ele>933.3333333333334</ele><time>2026-04-23T16:16:18.984Z</time></trkpt><trkpt lat="46.0214091" lon="10.3684653"><ele>934.6666666666667</ele><time>2026-04-23T16:16:20.985Z</time></trkpt><trkpt lat="46.0213319" lon="10.3685011"><ele>936.0</ele><time>2026-04-23T16:16:22.985Z</time></trkpt><trkpt lat="46.0212567" lon="10.3685351"><ele>937.3333333333333</ele><time>2026-04-23T16:16:24.985Z</time></trkpt><trkpt lat="46.0211792" lon="10.3685607"><ele>938.6666666666666</ele><time>2026-04-23T16:16:26.985Z</time></trkpt><trkpt lat="46.0211037" lon="10.3685948"><ele>940.0</ele><time>2026-04-23T16:16:28.985Z</time></trkpt><trkpt lat="46.0210243" lon="10.3686233"><ele>939.9999999999999</ele><time>2026-04-23T16:16:30.985Z</time></trkpt><trkpt lat="46.020945" lon="10.368642"><ele>940.0</ele><time>2026-04-23T16:16:32.985Z</time></trkpt><trkpt lat="46.0208685" lon="10.3686654"><ele>940.0</ele><time>2026-04-23T16:16:34.985Z</time></trkpt><trkpt lat="46.0207893" lon="10.3686867"><ele>940.0</ele><time>2026-04-23T16:16:36.984Z</time></trkpt><trkpt lat="46.0207095" lon="10.3687077"><ele>939.9999999999999</ele><time>2026-04-23T16:16:38.985Z</time></trkpt><trkpt lat="46.0206317" lon="10.3687291"><ele>940.0</ele><time>2026-04-23T16:16:40.985Z</time></trkpt><trkpt lat="46.0205543" lon="10.3687576"><ele>941.1666666666666</ele><time>2026-04-23T16:16:42.985Z</time></trkpt><trkpt lat="46.0204769" lon="10.3687858"><ele>942.3333333333333</ele><time>2026-04-23T16:16:44.985Z</time></trkpt><trkpt lat="46.0203985" lon="10.3688125"><ele>943.5</ele><time>2026-04-23T16:16:46.985Z</time></trkpt><trkpt lat="46.0203179" lon="10.3688366"><ele>944.6666666666667</ele><time>2026-04-23T16:16:48.985Z</time></trkpt><trkpt lat="46.0202395" lon="10.3688662"><ele>945.8333333333334</ele><time>2026-04-23T16:16:50.985Z</time></trkpt><trkpt lat="46.0201619" lon="10.3689033"><ele>947.0</ele><time>2026-04-23T16:16:52.985Z</time></trkpt><trkpt lat="46.0200841" lon="10.3689373"><ele>950.3333333333334</ele><time>2026-04-23T16:16:54.985Z</time></trkpt><trkpt lat="46.0200043" lon="10.3689619"><ele>953.6666666666667</ele><time>2026-04-23T16:16:56.985Z</time></trkpt><trkpt lat="46.0199243" lon="10.3689772"><ele>957.0</ele><time>2026-04-23T16:16:58.985Z</time></trkpt><trkpt lat="46.0198452" lon="10.36899"><ele>960.3333333333333</ele><time>2026-04-23T16:17:00.985Z</time></trkpt><trkpt lat="46.0197657" lon="10.3689964"><ele>963.6666666666666</ele><time>2026-04-23T16:17:02.985Z</time></trkpt><trkpt lat="46.0196854" lon="10.3689998"><ele>967.0</ele><time>2026-04-23T16:17:04.985Z</time></trkpt><trkpt lat="46.0196067" lon="10.36901"><ele>967.4999999999999</ele><time>2026-04-23T16:17:06.984Z</time></trkpt><trkpt lat="46.0195278" lon="10.3690233"><ele>968.0</ele><time>2026-04-23T16:17:08.984Z</time></trkpt><trkpt lat="46.019447" lon="10.3690349"><ele>968.5</ele><time>2026-04-23T16:17:10.985Z</time></trkpt><trkpt lat="46.0193645" lon="10.3690458"><ele>969.0</ele><time>2026-04-23T16:17:12.985Z</time></trkpt><trkpt lat="46.0192835" lon="10.3690625"><ele>969.4999999999999</ele><time>2026-04-23T16:17:14.985Z</time></trkpt><trkpt lat="46.0192026" lon="10.3690861"><ele>970.0</ele><time>2026-04-23T16:17:16.985Z</time></trkpt><trkpt lat="46.0191227" lon="10.369103"><ele>970.0</ele><time>2026-04-23T16:17:18.985Z</time></trkpt><trkpt lat="46.019038" lon="10.3691424"><ele>970.0</ele><time>2026-04-23T16:17:21.985Z</time></trkpt><trkpt lat="46.0189635" lon="10.3691784"><ele>970.0</ele><time>2026-04-23T16:17:23.985Z</time></trkpt><trkpt lat="46.0188756" lon="10.3692254"><ele>970.0</ele><time>2026-04-23T16:17:25.985Z</time></trkpt><trkpt lat="46.0187875" lon="10.3692819"><ele>970.0</ele><time>2026-04-23T16:17:27.985Z</time></trkpt><trkpt lat="46.0187064" lon="10.3693534"><ele>969.9999999999999</ele><time>2026-04-23T16:17:29.985Z</time></trkpt><trkpt lat="46.0186345" lon="10.3694304"><ele>970.0</ele><time>2026-04-23T16:17:31.985Z</time></trkpt><trkpt lat="46.0185611" lon="10.3695012"><ele>970.0</ele><time>2026-04-23T16:17:33.985Z</time></trkpt><trkpt lat="46.018486" lon="10.3695568"><ele>970.0</ele><time>2026-04-23T16:17:35.985Z</time></trkpt><trkpt lat="46.0184101" lon="10.3696026"><ele>969.9999999999999</ele><time>2026-04-23T16:17:37.985Z</time></trkpt><trkpt lat="46.0183353" lon="10.369645"><ele>970.0</ele><time>2026-04-23T16:17:39.985Z</time></trkpt><trkpt lat="46.0182604" lon="10.3696869"><ele>972.3333333333333</ele><time>2026-04-23T16:17:41.985Z</time></trkpt><trkpt lat="46.0181892" lon="10.3697293"><ele>974.6666666666666</ele><time>2026-04-23T16:17:43.985Z</time></trkpt><trkpt lat="46.0181188" lon="10.3697787"><ele>977.0</ele><time>2026-04-23T16:17:45.985Z</time></trkpt><trkpt lat="46.018045" lon="10.3698243"><ele>979.3333333333333</ele><time>2026-04-23T16:17:47.984Z</time></trkpt><trkpt lat="46.017978" lon="10.3698843"><ele>981.6666666666666</ele><time>2026-04-23T16:17:49.985Z</time></trkpt><trkpt lat="46.0179207" lon="10.3699626"><ele>984.0</ele><time>2026-04-23T16:17:51.984Z</time></trkpt><trkpt lat="46.0178763" lon="10.3700596"><ele>984.0</ele><time>2026-04-23T16:17:53.985Z</time></trkpt><trkpt lat="46.0178526" lon="10.3701701"><ele>984.0</ele><time>2026-04-23T16:17:55.985Z</time></trkpt><trkpt lat="46.0178323" lon="10.370281"><ele>984.0</ele><time>2026-04-23T16:17:57.984Z</time></trkpt><trkpt lat="46.0178072" lon="10.3703999"><ele>984.0</ele><time>2026-04-23T16:17:59.985Z</time></trkpt><trkpt lat="46.0177611" lon="10.3705106"><ele>984.0</ele><time>2026-04-23T16:18:01.985Z</time></trkpt><trkpt lat="46.0177018" lon="10.3706129"><ele>984.0</ele><time>2026-04-23T16:18:03.985Z</time></trkpt><trkpt lat="46.0176401" lon="10.3707173"><ele>984.0</ele><time>2026-04-23T16:18:05.984Z</time></trkpt><trkpt lat="46.0175855" lon="10.3708265"><ele>984.0000000000001</ele><time>2026-04-23T16:18:07.985Z</time></trkpt><trkpt lat="46.017536" lon="10.370947"><ele>984.0000000000001</ele><time>2026-04-23T16:18:09.985Z</time></trkpt><trkpt lat="46.0174888" lon="10.3710672"><ele>984.0</ele><time>2026-04-23T16:18:11.985Z</time></trkpt><trkpt lat="46.0174378" lon="10.3711792"><ele>984.0</ele><time>2026-04-23T16:18:13.985Z</time></trkpt><trkpt lat="46.0173914" lon="10.3712946"><ele>984.0</ele><time>2026-04-23T16:18:15.985Z</time></trkpt><trkpt lat="46.0173447" lon="10.3714103"><ele>984.0</ele><time>2026-04-23T16:18:17.985Z</time></trkpt><trkpt lat="46.0172961" lon="10.3715246"><ele>984.0</ele><time>2026-04-23T16:18:19.985Z</time></trkpt><trkpt lat="46.0172655" lon="10.3716486"><ele>984.0</ele><time>2026-04-23T16:18:21.985Z</time></trkpt><trkpt lat="46.0172705" lon="10.3717746"><ele>984.0</ele><time>2026-04-23T16:18:23.985Z</time></trkpt><trkpt lat="46.0172962" lon="10.3718875"><ele>984.0</ele><time>2026-04-23T16:18:25.985Z</time></trkpt><trkpt lat="46.0173241" lon="10.37199"><ele>984.0</ele><time>2026-04-23T16:18:27.985Z</time></trkpt><trkpt lat="46.0173496" lon="10.3720784"><ele>984.0</ele><time>2026-04-23T16:18:29.985Z</time></trkpt><trkpt lat="46.0173743" lon="10.3721635"><ele>984.0</ele><time>2026-04-23T16:18:31.985Z</time></trkpt><trkpt lat="46.017398" lon="10.3722475"><ele>984.0</ele><time>2026-04-23T16:18:33.984Z</time></trkpt><trkpt lat="46.0174322" lon="10.3723688"><ele>984.0</ele><time>2026-04-23T16:18:36.985Z</time></trkpt><trkpt lat="46.0174706" lon="10.3724877"><ele>984.0</ele><time>2026-04-23T16:18:39.985Z</time></trkpt><trkpt lat="46.0175337" lon="10.3725775"><ele>987.3333333333334</ele><time>2026-04-23T16:18:42.984Z</time></trkpt><trkpt lat="46.0175938" lon="10.3726271"><ele>990.6666666666667</ele><time>2026-04-23T16:18:44.985Z</time></trkpt><trkpt lat="46.0176694" lon="10.3726512"><ele>994.0</ele><time>2026-04-23T16:18:47.985Z</time></trkpt><trkpt lat="46.0177389" lon="10.3726337"><ele>997.3333333333334</ele><time>2026-04-23T16:18:50.985Z</time></trkpt><trkpt lat="46.0178217" lon="10.3725978"><ele>1000.6666666666667</ele><time>2026-04-23T16:18:53.985Z</time></trkpt><trkpt lat="46.0179167" lon="10.3725825"><ele>1004.0</ele><time>2026-04-23T16:18:56.985Z</time></trkpt><trkpt lat="46.0179849" lon="10.3725858"><ele>1004.0000000000001</ele><time>2026-04-23T16:18:58.985Z</time></trkpt><trkpt lat="46.0180707" lon="10.372618"><ele>1004.0</ele><time>2026-04-23T16:19:01.985Z</time></trkpt><trkpt lat="46.0181469" lon="10.3726609"><ele>1004.0</ele><time>2026-04-23T16:19:04.984Z</time></trkpt><trkpt lat="46.018211" lon="10.3727307"><ele>1004.0</ele><time>2026-04-23T16:19:07.985Z</time></trkpt><trkpt lat="46.0182814" lon="10.3728124"><ele>1004.0000000000001</ele><time>2026-04-23T16:19:10.985Z</time></trkpt><trkpt lat="46.0183431" lon="10.3728532"><ele>1004.0</ele><time>2026-04-23T16:19:12.985Z</time></trkpt><trkpt lat="46.018412" lon="10.3728491"><ele>1005.4285714285713</ele><time>2026-04-23T16:19:14.985Z</time></trkpt><trkpt lat="46.0184805" lon="10.3728267"><ele>1006.8571428571429</ele><time>2026-04-23T16:19:16.985Z</time></trkpt><trkpt lat="46.0185479" lon="10.3727975"><ele>1008.2857142857142</ele><time>2026-04-23T16:19:18.985Z</time></trkpt><trkpt lat="46.0186173" lon="10.3727738"><ele>1009.7142857142857</ele><time>2026-04-23T16:19:20.985Z</time></trkpt><trkpt lat="46.0186879" lon="10.3727423"><ele>1011.1428571428571</ele><time>2026-04-23T16:19:22.985Z</time></trkpt><trkpt lat="46.0187593" lon="10.3727143"><ele>1012.5714285714286</ele><time>2026-04-23T16:19:24.985Z</time></trkpt><trkpt lat="46.0188324" lon="10.3726794"><ele>1014.0</ele><time>2026-04-23T16:19:26.985Z</time></trkpt><trkpt lat="46.0189005" lon="10.372639"><ele>1014.0</ele><time>2026-04-23T16:19:28.985Z</time></trkpt><trkpt lat="46.0189719" lon="10.3726104"><ele>1014.0</ele><time>2026-04-23T16:19:30.985Z</time></trkpt><trkpt lat="46.0190429" lon="10.3725895"><ele>1014.0</ele><time>2026-04-23T16:19:32.985Z</time></trkpt><trkpt lat="46.0191129" lon="10.372571"><ele>1014.0</ele><time>2026-04-23T16:19:34.984Z</time></trkpt><trkpt lat="46.0191832" lon="10.3725592"><ele>1014.0</ele><time>2026-04-23T16:19:36.985Z</time></trkpt><trkpt lat="46.0192537" lon="10.3725602"><ele>1014.0</ele><time>2026-04-23T16:19:38.985Z</time></trkpt><trkpt lat="46.0193226" lon="10.3725602"><ele>1014.0</ele><time>2026-04-23T16:19:40.985Z</time></trkpt><trkpt lat="46.019391" lon="10.3725631"><ele>1015.7142857142857</ele><time>2026-04-23T16:19:42.985Z</time></trkpt><trkpt lat="46.0194587" lon="10.372593"><ele>1017.4285714285716</ele><time>2026-04-23T16:19:44.985Z</time></trkpt><trkpt lat="46.0195205" lon="10.3726432"><ele>1019.1428571428572</ele><time>2026-04-23T16:19:46.985Z</time></trkpt><trkpt lat="46.0195759" lon="10.3727054"><ele>1020.8571428571429</ele><time>2026-04-23T16:19:48.985Z</time></trkpt><trkpt lat="46.0196407" lon="10.3727449"><ele>1022.5714285714287</ele><time>2026-04-23T16:19:50.985Z</time></trkpt><trkpt lat="46.0197101" lon="10.3727514"><ele>1024.2857142857144</ele><time>2026-04-23T16:19:52.985Z</time></trkpt><trkpt lat="46.0197813" lon="10.3727416"><ele>1026.0</ele><time>2026-04-23T16:19:54.984Z</time></trkpt><trkpt lat="46.0198523" lon="10.3727207"><ele>1026.0000000000002</ele><time>2026-04-23T16:19:56.985Z</time></trkpt><trkpt lat="46.0199238" lon="10.3727066"><ele>1026.0</ele><time>2026-04-23T16:19:58.985Z</time></trkpt><trkpt lat="46.0199941" lon="10.3727017"><ele>1026.0</ele><time>2026-04-23T16:20:00.985Z</time></trkpt><trkpt lat="46.0200687" lon="10.3727065"><ele>1026.0</ele><time>2026-04-23T16:20:02.984Z</time></trkpt><trkpt lat="46.020145" lon="10.3727168"><ele>1026.0</ele><time>2026-04-23T16:20:04.984Z</time></trkpt><trkpt lat="46.0202133" lon="10.372728"><ele>1026.0000000000002</ele><time>2026-04-23T16:20:06.985Z</time></trkpt><trkpt lat="46.0202851" lon="10.3727323"><ele>1026.0</ele><time>2026-04-23T16:20:08.985Z</time></trkpt><trkpt lat="46.020363" lon="10.3727341"><ele>1027.8333333333333</ele><time>2026-04-23T16:20:10.985Z</time></trkpt><trkpt lat="46.0204407" lon="10.372736"><ele>1029.6666666666667</ele><time>2026-04-23T16:20:12.985Z</time></trkpt><trkpt lat="46.0205248" lon="10.3727274"><ele>1031.5</ele><time>2026-04-23T16:20:14.985Z</time></trkpt><trkpt lat="46.0206048" lon="10.3727138"><ele>1033.3333333333335</ele><time>2026-04-23T16:20:16.985Z</time></trkpt><trkpt lat="46.0206739" lon="10.372746"><ele>1035.1666666666667</ele><time>2026-04-23T16:20:18.985Z</time></trkpt><trkpt lat="46.020676" lon="10.3728505"><ele>1037.0</ele><time>2026-04-23T16:20:20.984Z</time></trkpt><trkpt lat="46.0206123" lon="10.372928"><ele>1037.0</ele><time>2026-04-23T16:20:22.985Z</time></trkpt><trkpt lat="46.0205465" lon="10.3729793"><ele>1037.0</ele><time>2026-04-23T16:20:24.985Z</time></trkpt><trkpt lat="46.0204823" lon="10.3730087"><ele>1037.0</ele><time>2026-04-23T16:20:26.984Z</time></trkpt><trkpt lat="46.020425" lon="10.3730467"><ele>1037.0</ele><time>2026-04-23T16:20:28.985Z</time></trkpt><trkpt lat="46.020369" lon="10.3730988"><ele>1037.0</ele><time>2026-04-23T16:20:30.985Z</time></trkpt><trkpt lat="46.0202831" lon="10.3731379"><ele>1037.0</ele><time>2026-04-23T16:20:33.985Z</time></trkpt><trkpt lat="46.020221" lon="10.3731632"><ele>1037.0</ele><time>2026-04-23T16:20:35.985Z</time></trkpt><trkpt lat="46.020134" lon="10.3732191"><ele>1037.7142857142858</ele><time>2026-04-23T16:20:38.984Z</time></trkpt><trkpt lat="46.0200686" lon="10.3732648"><ele>1038.4285714285713</ele><time>2026-04-23T16:20:40.985Z</time></trkpt><trkpt lat="46.0200102" lon="10.3733216"><ele>1039.142857142857</ele><time>2026-04-23T16:20:42.985Z</time></trkpt><trkpt lat="46.0199535" lon="10.3733765"><ele>1039.857142857143</ele><time>2026-04-23T16:20:44.985Z</time></trkpt><trkpt lat="46.0199002" lon="10.3734262"><ele>1040.5714285714287</ele><time>2026-04-23T16:20:46.985Z</time></trkpt><trkpt lat="46.0198301" lon="10.3735134"><ele>1041.2857142857142</ele><time>2026-04-23T16:20:49.985Z</time></trkpt><trkpt lat="46.0197842" lon="10.3735841"><ele>1042.0</ele><time>2026-04-23T16:20:51.985Z</time></trkpt><trkpt lat="46.0197171" lon="10.3736706"><ele>1042.0</ele><time>2026-04-23T16:20:54.985Z</time></trkpt><trkpt lat="46.0196492" lon="10.373744"><ele>1042.0</ele><time>2026-04-23T16:20:57.985Z</time></trkpt><trkpt lat="46.0195786" lon="10.3738257"><ele>1042.0</ele><time>2026-04-23T16:21:00.985Z</time></trkpt><trkpt lat="46.0195141" lon="10.3739208"><ele>1042.0</ele><time>2026-04-23T16:21:03.985Z</time></trkpt><trkpt lat="46.0194559" lon="10.3740077"><ele>1042.0</ele><time>2026-04-23T16:21:06.985Z</time></trkpt><trkpt lat="46.01942" lon="10.3741041"><ele>1042.0</ele><time>2026-04-23T16:21:09.985Z</time></trkpt><trkpt lat="46.0193984" lon="10.3742102"><ele>1043.5</ele><time>2026-04-23T16:21:12.985Z</time></trkpt><trkpt lat="46.0193638" lon="10.3743118"><ele>1045.0</ele><time>2026-04-23T16:21:15.985Z</time></trkpt><trkpt lat="46.0193014" lon="10.3743906"><ele>1046.5</ele><time>2026-04-23T16:21:18.985Z</time></trkpt><trkpt lat="46.0192219" lon="10.3744556"><ele>1048.0</ele><time>2026-04-23T16:21:21.985Z</time></trkpt><trkpt lat="46.0191542" lon="10.3745007"><ele>1049.5</ele><time>2026-04-23T16:21:23.985Z</time></trkpt><trkpt lat="46.0191033" lon="10.3745556"><ele>1051.0</ele><time>2026-04-23T16:21:25.985Z</time></trkpt><trkpt lat="46.0190477" lon="10.3746508"><ele>1053.6666666666665</ele><time>2026-04-23T16:21:28.985Z</time></trkpt><trkpt lat="46.0190036" lon="10.3747656"><ele>1056.3333333333333</ele><time>2026-04-23T16:21:31.985Z</time></trkpt><trkpt lat="46.0189706" lon="10.3748488"><ele>1059.0</ele><time>2026-04-23T16:21:33.985Z</time></trkpt><trkpt lat="46.0189127" lon="10.3749563"><ele>1061.6666666666667</ele><time>2026-04-23T16:21:36.985Z</time></trkpt><trkpt lat="46.0188728" lon="10.3750285"><ele>1064.3333333333335</ele><time>2026-04-23T16:21:38.985Z</time></trkpt><trkpt lat="46.0188246" lon="10.3751359"><ele>1067.0</ele><time>2026-04-23T16:21:41.985Z</time></trkpt><trkpt lat="46.0187796" lon="10.3752522"><ele>1067.0</ele><time>2026-04-23T16:21:44.985Z</time></trkpt><trkpt lat="46.0187328" lon="10.3753669"><ele>1067.0</ele><time>2026-04-23T16:21:47.985Z</time></trkpt><trkpt lat="46.0186865" lon="10.3754791"><ele>1067.0</ele><time>2026-04-23T16:21:50.985Z</time></trkpt><trkpt lat="46.0186558" lon="10.3755608"><ele>1067.0</ele><time>2026-04-23T16:21:52.985Z</time></trkpt><trkpt lat="46.0186104" lon="10.375676"><ele>1067.0</ele><time>2026-04-23T16:21:55.985Z</time></trkpt><trkpt lat="46.0185556" lon="10.3757875"><ele>1067.0</ele><time>2026-04-23T16:21:58.985Z</time></trkpt><trkpt lat="46.0185202" lon="10.375865"><ele>1070.2</ele><time>2026-04-23T16:22:00.985Z</time></trkpt><trkpt lat="46.0184985" lon="10.3759897"><ele>1073.4</ele><time>2026-04-23T16:22:03.985Z</time></trkpt><trkpt lat="46.0185039" lon="10.3761618"><ele>1076.6</ele><time>2026-04-23T16:22:07.984Z</time></trkpt><trkpt lat="46.0184839" lon="10.3762837"><ele>1079.8</ele><time>2026-04-23T16:22:10.985Z</time></trkpt><trkpt lat="46.0184652" lon="10.3764063"><ele>1083.0</ele><time>2026-04-23T16:22:13.985Z</time></trkpt><trkpt lat="46.0184406" lon="10.376521"><ele>1081.6666666666667</ele><time>2026-04-23T16:22:16.985Z</time></trkpt><trkpt lat="46.0184" lon="10.3766248"><ele>1080.3333333333333</ele><time>2026-04-23T16:22:19.985Z</time></trkpt><trkpt lat="46.0183519" lon="10.3767332"><ele>1079.0</ele><time>2026-04-23T16:22:22.985Z</time></trkpt><trkpt lat="46.0183138" lon="10.3768484"><ele>1077.6666666666665</ele><time>2026-04-23T16:22:25.985Z</time></trkpt><trkpt lat="46.0182848" lon="10.3769605"><ele>1076.3333333333333</ele><time>2026-04-23T16:22:28.985Z</time></trkpt><trkpt lat="46.018266" lon="10.3770894"><ele>1075.0</ele><time>2026-04-23T16:22:31.984Z</time></trkpt><trkpt lat="46.0182629" lon="10.3771806"><ele>1076.3333333333333</ele><time>2026-04-23T16:22:33.985Z</time></trkpt><trkpt lat="46.0182661" lon="10.3772769"><ele>1077.6666666666665</ele><time>2026-04-23T16:22:35.985Z</time></trkpt><trkpt lat="46.0182656" lon="10.3774075"><ele>1079.0</ele><time>2026-04-23T16:22:38.984Z</time></trkpt><trkpt lat="46.0182529" lon="10.377507"><ele>1080.3333333333333</ele><time>2026-04-23T16:22:41.985Z</time></trkpt><trkpt lat="46.018235" lon="10.3775968"><ele>1081.6666666666667</ele><time>2026-04-23T16:22:43.985Z</time></trkpt><trkpt lat="46.0182174" lon="10.3776863"><ele>1083.0</ele><time>2026-04-23T16:22:45.985Z</time></trkpt><trkpt lat="46.0181946" lon="10.3778168"><ele>1083.0</ele><time>2026-04-23T16:22:48.985Z</time></trkpt><trkpt lat="46.018186" lon="10.3779167"><ele>1083.0</ele><time>2026-04-23T16:22:50.985Z</time></trkpt><trkpt lat="46.0181836" lon="10.3780079"><ele>1083.0</ele><time>2026-04-23T16:22:52.984Z</time></trkpt><trkpt lat="46.0181953" lon="10.3781339"><ele>1083.0</ele><time>2026-04-23T16:22:55.985Z</time></trkpt><trkpt lat="46.0182082" lon="10.3782497"><ele>1083.0</ele><time>2026-04-23T16:22:58.985Z</time></trkpt><trkpt lat="46.0182117" lon="10.3783531"><ele>1083.0</ele><time>2026-04-23T16:23:01.985Z</time></trkpt><trkpt lat="46.0182316" lon="10.3784555"><ele>1083.0</ele><time>2026-04-23T16:23:04.985Z</time></trkpt><trkpt lat="46.0182496" lon="10.3785571"><ele>1084.5</ele><time>2026-04-23T16:23:07.985Z</time></trkpt><trkpt lat="46.0182661" lon="10.3786467"><ele>1086.0</ele><time>2026-04-23T16:23:10.984Z</time></trkpt><trkpt lat="46.018275" lon="10.3787407"><ele>1087.5</ele><time>2026-04-23T16:23:13.985Z</time></trkpt><trkpt lat="46.0182749" lon="10.37885"><ele>1089.0</ele><time>2026-04-23T16:23:16.985Z</time></trkpt><trkpt lat="46.0182673" lon="10.3789817"><ele>1090.5</ele><time>2026-04-23T16:23:19.985Z</time></trkpt><trkpt lat="46.0182605" lon="10.3791128"><ele>1092.0</ele><time>2026-04-23T16:23:22.985Z</time></trkpt><trkpt lat="46.0183124" lon="10.3791943"><ele>1097.5714285714287</ele><time>2026-04-23T16:23:25.985Z</time></trkpt><trkpt lat="46.018385" lon="10.3792145"><ele>1103.142857142857</ele><time>2026-04-23T16:23:28.985Z</time></trkpt><trkpt lat="46.0184398" lon="10.379262"><ele>1108.7142857142858</ele><time>2026-04-23T16:23:31.985Z</time></trkpt><trkpt lat="46.0184234" lon="10.3793524"><ele>1114.2857142857142</ele><time>2026-04-23T16:23:34.985Z</time></trkpt><trkpt lat="46.0184282" lon="10.3794681"><ele>1119.857142857143</ele><time>2026-04-23T16:23:38.985Z</time></trkpt><trkpt lat="46.0184287" lon="10.3795653"><ele>1125.4285714285716</ele><time>2026-04-23T16:23:41.985Z</time></trkpt><trkpt lat="46.0184131" lon="10.3796565"><ele>1131.0</ele><time>2026-04-23T16:23:44.985Z</time></trkpt><trkpt lat="46.0183906" lon="10.3797594"><ele>1130.1666666666667</ele><time>2026-04-23T16:23:47.985Z</time></trkpt><trkpt lat="46.0183655" lon="10.3798611"><ele>1129.3333333333333</ele><time>2026-04-23T16:23:50.985Z</time></trkpt><trkpt lat="46.0183624" lon="10.3799795"><ele>1128.5</ele><time>2026-04-23T16:23:53.985Z</time></trkpt><trkpt lat="46.0183226" lon="10.3800933"><ele>1127.6666666666665</ele><time>2026-04-23T16:23:56.985Z</time></trkpt><trkpt lat="46.0182612" lon="10.3801949"><ele>1126.8333333333333</ele><time>2026-04-23T16:23:59.985Z</time></trkpt><trkpt lat="46.0182064" lon="10.3802972"><ele>1126.0</ele><time>2026-04-23T16:24:02.985Z</time></trkpt><trkpt lat="46.01815" lon="10.3804037"><ele>1126.0</ele><time>2026-04-23T16:24:05.984Z</time></trkpt><trkpt lat="46.0180994" lon="10.3805106"><ele>1126.0</ele><time>2026-04-23T16:24:08.984Z</time></trkpt><trkpt lat="46.018044" lon="10.3805728"><ele>1126.0</ele><time>2026-04-23T16:24:11.984Z</time></trkpt><trkpt lat="46.0179774" lon="10.3806377"><ele>1126.0</ele><time>2026-04-23T16:24:14.985Z</time></trkpt><trkpt lat="46.0179213" lon="10.3807191"><ele>1126.0</ele><time>2026-04-23T16:24:17.985Z</time></trkpt><trkpt lat="46.0178739" lon="10.3808086"><ele>1126.0</ele><time>2026-04-23T16:24:21.985Z</time></trkpt><trkpt lat="46.0178441" lon="10.3808936"><ele>1129.0</ele><time>2026-04-23T16:24:24.985Z</time></trkpt><trkpt lat="46.0178247" lon="10.3809846"><ele>1132.0</ele><time>2026-04-23T16:24:27.985Z</time></trkpt><trkpt lat="46.0177966" lon="10.3810819"><ele>1135.0</ele><time>2026-04-23T16:24:30.985Z</time></trkpt><trkpt lat="46.017771" lon="10.3811714"><ele>1138.0</ele><time>2026-04-23T16:24:33.984Z</time></trkpt><trkpt lat="46.0177349" lon="10.3812565"><ele>1141.0</ele><time>2026-04-23T16:24:36.985Z</time></trkpt><trkpt lat="46.0176954" lon="10.3813531"><ele>1144.0</ele><time>2026-04-23T16:24:40.985Z</time></trkpt><trkpt lat="46.0176562" lon="10.3814471"><ele>1147.0</ele><time>2026-04-23T16:24:43.985Z</time></trkpt><trkpt lat="46.0176113" lon="10.3815328"><ele>1148.142857142857</ele><time>2026-04-23T16:24:46.985Z</time></trkpt><trkpt lat="46.0175892" lon="10.381625"><ele>1149.2857142857142</ele><time>2026-04-23T16:24:49.985Z</time></trkpt><trkpt lat="46.0175587" lon="10.381719"><ele>1150.4285714285716</ele><time>2026-04-23T16:24:52.985Z</time></trkpt><trkpt lat="46.0175178" lon="10.381798"><ele>1151.5714285714284</ele><time>2026-04-23T16:24:55.985Z</time></trkpt><trkpt lat="46.017473" lon="10.3818735"><ele>1152.7142857142858</ele><time>2026-04-23T16:24:58.985Z</time></trkpt><trkpt lat="46.0174235" lon="10.3819442"><ele>1153.857142857143</ele><time>2026-04-23T16:25:01.985Z</time></trkpt><trkpt lat="46.017377" lon="10.3820095"><ele>1155.0</ele><time>2026-04-23T16:25:04.985Z</time></trkpt><trkpt lat="46.0173253" lon="10.3821015"><ele>1158.4285714285713</ele><time>2026-04-23T16:25:08.985Z</time></trkpt><trkpt lat="46.0172949" lon="10.3821936"><ele>1161.857142857143</ele><time>2026-04-23T16:25:11.984Z</time></trkpt><trkpt lat="46.017264" lon="10.382284"><ele>1165.2857142857142</ele><time>2026-04-23T16:25:14.985Z</time></trkpt><trkpt lat="46.0172302" lon="10.3823616"><ele>1168.7142857142858</ele><time>2026-04-23T16:25:17.985Z</time></trkpt><trkpt lat="46.0171895" lon="10.3824528"><ele>1172.142857142857</ele><time>2026-04-23T16:25:20.985Z</time></trkpt><trkpt lat="46.0171508" lon="10.3825422"><ele>1175.5714285714284</ele><time>2026-04-23T16:25:23.985Z</time></trkpt><trkpt lat="46.0171116" lon="10.3826317"><ele>1179.0</ele><time>2026-04-23T16:25:26.985Z</time></trkpt><trkpt lat="46.0170627" lon="10.3827045"><ele>1179.0</ele><time>2026-04-23T16:25:29.985Z</time></trkpt><trkpt lat="46.017003" lon="10.3827659"><ele>1179.0</ele><time>2026-04-23T16:25:32.985Z</time></trkpt><trkpt lat="46.0169289" lon="10.3828121"><ele>1179.0</ele><time>2026-04-23T16:25:35.985Z</time></trkpt><trkpt lat="46.0168373" lon="10.3828424"><ele>1179.0</ele><time>2026-04-23T16:25:38.985Z</time></trkpt><trkpt lat="46.0167576" lon="10.3828626"><ele>1179.0</ele><time>2026-04-23T16:25:41.985Z</time></trkpt><trkpt lat="46.0166679" lon="10.3828614"><ele>1179.0</ele><time>2026-04-23T16:25:44.985Z</time></trkpt><trkpt lat="46.0165845" lon="10.3828724"><ele>1178.8333333333333</ele><time>2026-04-23T16:25:47.985Z</time></trkpt><trkpt lat="46.0165023" lon="10.3829048"><ele>1178.6666666666667</ele><time>2026-04-23T16:25:50.985Z</time></trkpt><trkpt lat="46.0164413" lon="10.3829746"><ele>1178.5</ele><time>2026-04-23T16:25:53.985Z</time></trkpt><trkpt lat="46.0164745" lon="10.3830631"><ele>1178.3333333333335</ele><time>2026-04-23T16:25:56.985Z</time></trkpt><trkpt lat="46.0165471" lon="10.3831144"><ele>1178.1666666666667</ele><time>2026-04-23T16:25:59.985Z</time></trkpt><trkpt lat="46.0166171" lon="10.3831803"><ele>1178.0</ele><time>2026-04-23T16:26:02.985Z</time></trkpt><trkpt lat="46.0166819" lon="10.383263"><ele>1181.6666666666667</ele><time>2026-04-23T16:26:05.985Z</time></trkpt><trkpt lat="46.016762" lon="10.3833228"><ele>1185.3333333333335</ele><time>2026-04-23T16:26:08.985Z</time></trkpt><trkpt lat="46.0168353" lon="10.3833851"><ele>1189.0</ele><time>2026-04-23T16:26:11.985Z</time></trkpt><trkpt lat="46.016906" lon="10.3834372"><ele>1192.6666666666667</ele><time>2026-04-23T16:26:14.985Z</time></trkpt><trkpt lat="46.0169854" lon="10.3834566"><ele>1196.3333333333333</ele><time>2026-04-23T16:26:17.985Z</time></trkpt><trkpt lat="46.0170699" lon="10.3834591"><ele>1200.0</ele><time>2026-04-23T16:26:20.985Z</time></trkpt><trkpt lat="46.0171575" lon="10.3834139"><ele>1200.0</ele><time>2026-04-23T16:26:23.985Z</time></trkpt><trkpt lat="46.0172349" lon="10.3833738"><ele>1200.0</ele><time>2026-04-23T16:26:26.985Z</time></trkpt><trkpt lat="46.0172971" lon="10.3833485"><ele>1200.0</ele><time>2026-04-23T16:26:28.985Z</time></trkpt><trkpt lat="46.0173578" lon="10.3833123"><ele>1200.0</ele><time>2026-04-23T16:26:30.985Z</time></trkpt><trkpt lat="46.0174163" lon="10.3832698"><ele>1200.0</ele><time>2026-04-23T16:26:32.985Z</time></trkpt><trkpt lat="46.0174976" lon="10.3832"><ele>1200.0</ele><time>2026-04-23T16:26:35.984Z</time></trkpt><trkpt lat="46.0175755" lon="10.3831412"><ele>1198.6666666666667</ele><time>2026-04-23T16:26:38.985Z</time></trkpt><trkpt lat="46.0176601" lon="10.3830918"><ele>1197.3333333333333</ele><time>2026-04-23T16:26:41.985Z</time></trkpt><trkpt lat="46.0177424" lon="10.3830377"><ele>1196.0</ele><time>2026-04-23T16:26:44.985Z</time></trkpt><trkpt lat="46.0178009" lon="10.3830021"><ele>1194.6666666666665</ele><time>2026-04-23T16:26:46.985Z</time></trkpt><trkpt lat="46.0178855" lon="10.3829471"><ele>1193.3333333333333</ele><time>2026-04-23T16:26:49.985Z</time></trkpt><trkpt lat="46.0179722" lon="10.3829021"><ele>1192.0</ele><time>2026-04-23T16:26:52.985Z</time></trkpt><trkpt lat="46.0180566" lon="10.3828497"><ele>1192.0</ele><time>2026-04-23T16:26:55.984Z</time></trkpt><trkpt lat="46.0181432" lon="10.3828067"><ele>1192.0</ele><time>2026-04-23T16:26:58.985Z</time></trkpt><trkpt lat="46.0182248" lon="10.3827696"><ele>1192.0</ele><time>2026-04-23T16:27:01.985Z</time></trkpt><trkpt lat="46.0182921" lon="10.3827553"><ele>1192.0</ele><time>2026-04-23T16:27:03.985Z</time></trkpt><trkpt lat="46.0183481" lon="10.382685"><ele>1192.0</ele><time>2026-04-23T16:27:06.985Z</time></trkpt><trkpt lat="46.0184133" lon="10.3826326"><ele>1192.0</ele><time>2026-04-23T16:27:09.985Z</time></trkpt><trkpt lat="46.0184768" lon="10.3825895"><ele>1197.3333333333333</ele><time>2026-04-23T16:27:11.985Z</time></trkpt><trkpt lat="46.0185435" lon="10.3825506"><ele>1202.6666666666665</ele><time>2026-04-23T16:27:13.985Z</time></trkpt><trkpt lat="46.0186136" lon="10.38252"><ele>1208.0</ele><time>2026-04-23T16:27:15.985Z</time></trkpt><trkpt lat="46.0186819" lon="10.3825051"><ele>1213.3333333333333</ele><time>2026-04-23T16:27:17.985Z</time></trkpt><trkpt lat="46.0187472" lon="10.3824505"><ele>1218.6666666666667</ele><time>2026-04-23T16:27:20.985Z</time></trkpt><trkpt lat="46.0188378" lon="10.3824088"><ele>1224.0</ele><time>2026-04-23T16:27:23.985Z</time></trkpt><trkpt lat="46.0189078" lon="10.3823794"><ele>1224.0</ele><time>2026-04-23T16:27:25.985Z</time></trkpt><trkpt lat="46.0189682" lon="10.3823518"><ele>1224.0</ele><time>2026-04-23T16:27:27.985Z</time></trkpt><trkpt lat="46.0190249" lon="10.3823076"><ele>1224.0</ele><time>2026-04-23T16:27:29.985Z</time></trkpt><trkpt lat="46.0191088" lon="10.3822527"><ele>1224.0</ele><time>2026-04-23T16:27:32.985Z</time></trkpt><trkpt lat="46.019171" lon="10.3822295"><ele>1224.0</ele><time>2026-04-23T16:27:34.985Z</time></trkpt><trkpt lat="46.0192293" lon="10.3821945"><ele>1224.0</ele><time>2026-04-23T16:27:36.985Z</time></trkpt><trkpt lat="46.0193048" lon="10.3821318"><ele>1224.0</ele><time>2026-04-23T16:27:39.985Z</time></trkpt><trkpt lat="46.0193878" lon="10.382083"><ele>1224.0</ele><time>2026-04-23T16:27:44.984Z</time></trkpt><trkpt lat="46.0194531" lon="10.3820454"><ele>1224.0</ele><time>2026-04-23T16:27:46.985Z</time></trkpt><trkpt lat="46.0195333" lon="10.3819851"><ele>1224.0</ele><time>2026-04-23T16:27:49.985Z</time></trkpt><trkpt lat="46.0195941" lon="10.3819483"><ele>1224.0</ele><time>2026-04-23T16:27:51.985Z</time></trkpt><trkpt lat="46.0196582" lon="10.3819236"><ele>1224.0</ele><time>2026-04-23T16:27:53.984Z</time></trkpt><trkpt lat="46.0197425" lon="10.3818757"><ele>1224.0</ele><time>2026-04-23T16:27:56.985Z</time></trkpt><trkpt lat="46.0198304" lon="10.3818232"><ele>1224.0</ele><time>2026-04-23T16:27:59.985Z</time></trkpt><trkpt lat="46.0199026" lon="10.3817515"><ele>1224.0</ele><time>2026-04-23T16:28:02.985Z</time></trkpt><trkpt lat="46.0199751" lon="10.3816812"><ele>1224.0</ele><time>2026-04-23T16:28:05.985Z</time></trkpt><trkpt lat="46.0200489" lon="10.3816309"><ele>1224.0</ele><time>2026-04-23T16:28:08.985Z</time></trkpt><trkpt lat="46.020128" lon="10.3815812"><ele>1224.0</ele><time>2026-04-23T16:28:11.985Z</time></trkpt><trkpt lat="46.0202095" lon="10.3815408"><ele>1224.0</ele><time>2026-04-23T16:28:14.985Z</time></trkpt><trkpt lat="46.0202935" lon="10.3815048"><ele>1224.6666666666667</ele><time>2026-04-23T16:28:17.985Z</time></trkpt><trkpt lat="46.0203695" lon="10.3814412"><ele>1225.3333333333333</ele><time>2026-04-23T16:28:20.984Z</time></trkpt><trkpt lat="46.0204484" lon="10.3813795"><ele>1226.0</ele><time>2026-04-23T16:28:23.985Z</time></trkpt><trkpt lat="46.0205266" lon="10.381333"><ele>1226.6666666666665</ele><time>2026-04-23T16:28:26.984Z</time></trkpt><trkpt lat="46.0206122" lon="10.3813072"><ele>1227.3333333333333</ele><time>2026-04-23T16:28:29.985Z</time></trkpt><trkpt lat="46.0207035" lon="10.3812871"><ele>1228.0</ele><time>2026-04-23T16:28:32.985Z</time></trkpt><trkpt lat="46.0207854" lon="10.3812771"><ele>1231.6666666666665</ele><time>2026-04-23T16:28:35.985Z</time></trkpt><trkpt lat="46.0208746" lon="10.3812576"><ele>1235.3333333333333</ele><time>2026-04-23T16:28:38.985Z</time></trkpt><trkpt lat="46.0209659" lon="10.381255"><ele>1239.0</ele><time>2026-04-23T16:28:41.985Z</time></trkpt><trkpt lat="46.02105" lon="10.3812721"><ele>1242.6666666666667</ele><time>2026-04-23T16:28:44.985Z</time></trkpt><trkpt lat="46.0211319" lon="10.381289"><ele>1246.3333333333335</ele><time>2026-04-23T16:28:47.985Z</time></trkpt><trkpt lat="46.0212265" lon="10.3812953"><ele>1250.0</ele><time>2026-04-23T16:28:50.985Z</time></trkpt><trkpt lat="46.0213144" lon="10.3812944"><ele>1250.0</ele><time>2026-04-23T16:28:53.985Z</time></trkpt><trkpt lat="46.0214027" lon="10.3812989"><ele>1250.0</ele><time>2026-04-23T16:28:56.985Z</time></trkpt><trkpt lat="46.021492" lon="10.3813162"><ele>1250.0</ele><time>2026-04-23T16:28:59.985Z</time></trkpt><trkpt lat="46.0215677" lon="10.3813478"><ele>1250.0</ele><time>2026-04-23T16:29:02.985Z</time></trkpt><trkpt lat="46.0216357" lon="10.3813979"><ele>1250.0</ele><time>2026-04-23T16:29:05.985Z</time></trkpt><trkpt lat="46.0217078" lon="10.3814297"><ele>1250.0</ele><time>2026-04-23T16:29:08.984Z</time></trkpt><trkpt lat="46.0217841" lon="10.3814665"><ele>1255.0</ele><time>2026-04-23T16:29:11.985Z</time></trkpt><trkpt lat="46.0218605" lon="10.3815095"><ele>1260.0</ele><time>2026-04-23T16:29:14.985Z</time></trkpt><trkpt lat="46.0219303" lon="10.3815735"><ele>1265.0</ele><time>2026-04-23T16:29:17.985Z</time></trkpt><trkpt lat="46.0219974" lon="10.381631"><ele>1270.0</ele><time>2026-04-23T16:29:20.985Z</time></trkpt><trkpt lat="46.0220641" lon="10.381688"><ele>1275.0</ele><time>2026-04-23T16:29:23.985Z</time></trkpt><trkpt lat="46.0221382" lon="10.3817452"><ele>1280.0</ele><time>2026-04-23T16:29:26.985Z</time></trkpt><trkpt lat="46.0222058" lon="10.3818081"><ele>1280.0</ele><time>2026-04-23T16:29:29.985Z</time></trkpt><trkpt lat="46.0222657" lon="10.3818628"><ele>1280.0</ele><time>2026-04-23T16:29:32.985Z</time></trkpt><trkpt lat="46.0223276" lon="10.3819248"><ele>1280.0</ele><time>2026-04-23T16:29:37.984Z</time></trkpt><trkpt lat="46.0223784" lon="10.3819939"><ele>1280.0</ele><time>2026-04-23T16:29:41.985Z</time></trkpt><trkpt lat="46.0224395" lon="10.3820961"><ele>1280.0</ele><time>2026-04-23T16:29:45.985Z</time></trkpt><trkpt lat="46.0224921" lon="10.3821801"><ele>1280.0</ele><time>2026-04-23T16:29:48.985Z</time></trkpt><trkpt lat="46.0225564" lon="10.3822923"><ele>1282.2857142857142</ele><time>2026-04-23T16:29:52.985Z</time></trkpt><trkpt lat="46.0225983" lon="10.3823604"><ele>1284.5714285714287</ele><time>2026-04-23T16:29:54.985Z</time></trkpt><trkpt lat="46.0226579" lon="10.3824465"><ele>1286.857142857143</ele><time>2026-04-23T16:29:57.985Z</time></trkpt><trkpt lat="46.0226806" lon="10.3825594"><ele>1289.142857142857</ele><time>2026-04-23T16:30:00.985Z</time></trkpt><trkpt lat="46.0226177" lon="10.3826116"><ele>1291.4285714285713</ele><time>2026-04-23T16:30:04.984Z</time></trkpt><trkpt lat="46.022554" lon="10.3826071"><ele>1293.7142857142858</ele><time>2026-04-23T16:30:07.984Z</time></trkpt><trkpt lat="46.0224889" lon="10.3826163"><ele>1296.0</ele><time>2026-04-23T16:30:10.985Z</time></trkpt><trkpt lat="46.0224239" lon="10.3826269"><ele>1297.0</ele><time>2026-04-23T16:30:13.984Z</time></trkpt><trkpt lat="46.02235" lon="10.3826129"><ele>1298.0</ele><time>2026-04-23T16:30:16.985Z</time></trkpt><trkpt lat="46.0222835" lon="10.3826123"><ele>1299.0</ele><time>2026-04-23T16:30:19.985Z</time></trkpt><trkpt lat="46.0222109" lon="10.3825964"><ele>1300.0</ele><time>2026-04-23T16:30:22.985Z</time></trkpt><trkpt lat="46.0221356" lon="10.3826035"><ele>1301.0</ele><time>2026-04-23T16:30:25.985Z</time></trkpt><trkpt lat="46.0220562" lon="10.3825906"><ele>1302.0</ele><time>2026-04-23T16:30:28.985Z</time></trkpt><trkpt lat="46.0219877" lon="10.3826297"><ele>1303.0</ele><time>2026-04-23T16:30:31.985Z</time></trkpt><trkpt lat="46.0219063" lon="10.3826587"><ele>1303.0</ele><time>2026-04-23T16:30:34.984Z</time></trkpt><trkpt lat="46.0218313" lon="10.3827093"><ele>1303.0</ele><time>2026-04-23T16:30:37.985Z</time></trkpt><trkpt lat="46.0217455" lon="10.382701"><ele>1303.0</ele><time>2026-04-23T16:30:40.985Z</time></trkpt><trkpt lat="46.0216701" lon="10.3827408"><ele>1303.0</ele><time>2026-04-23T16:30:43.985Z</time></trkpt><trkpt lat="46.0215999" lon="10.3827903"><ele>1303.0</ele><time>2026-04-23T16:30:46.984Z</time></trkpt><trkpt lat="46.0215066" lon="10.3828033"><ele>1303.0</ele><time>2026-04-23T16:30:49.984Z</time></trkpt><trkpt lat="46.0214405" lon="10.3828146"><ele>1302.5</ele><time>2026-04-23T16:30:51.985Z</time></trkpt><trkpt lat="46.0213526" lon="10.3828593"><ele>1302.0</ele><time>2026-04-23T16:30:54.985Z</time></trkpt><trkpt lat="46.0212668" lon="10.3829171"><ele>1301.5</ele><time>2026-04-23T16:30:57.985Z</time></trkpt><trkpt lat="46.0212025" lon="10.3829281"><ele>1301.0</ele><time>2026-04-23T16:30:59.985Z</time></trkpt><trkpt lat="46.0211363" lon="10.3829351"><ele>1300.5</ele><time>2026-04-23T16:31:01.985Z</time></trkpt><trkpt lat="46.0210687" lon="10.3829585"><ele>1300.0</ele><time>2026-04-23T16:31:03.985Z</time></trkpt><trkpt lat="46.0210035" lon="10.3829864"><ele>1301.0</ele><time>2026-04-23T16:31:05.985Z</time></trkpt><trkpt lat="46.02094" lon="10.3830146"><ele>1302.0</ele><time>2026-04-23T16:31:07.985Z</time></trkpt><trkpt lat="46.0208731" lon="10.3830417"><ele>1303.0</ele><time>2026-04-23T16:31:09.985Z</time></trkpt><trkpt lat="46.0208061" lon="10.383043"><ele>1304.0</ele><time>2026-04-23T16:31:11.985Z</time></trkpt><trkpt lat="46.0207236" lon="10.3831017"><ele>1305.0</ele><time>2026-04-23T16:31:14.985Z</time></trkpt><trkpt lat="46.0206875" lon="10.3832012"><ele>1306.0</ele><time>2026-04-23T16:31:17.985Z</time></trkpt><trkpt lat="46.0207591" lon="10.383229"><ele>1307.0</ele><time>2026-04-23T16:31:20.985Z</time></trkpt><trkpt lat="46.020844" lon="10.3832054"><ele>1309.857142857143</ele><time>2026-04-23T16:31:23.985Z</time></trkpt><trkpt lat="46.0209097" lon="10.3831926"><ele>1312.7142857142858</ele><time>2026-04-23T16:31:25.985Z</time></trkpt><trkpt lat="46.0210035" lon="10.3831829"><ele>1315.5714285714287</ele><time>2026-04-23T16:31:28.985Z</time></trkpt><trkpt lat="46.0210703" lon="10.3831889"><ele>1318.4285714285716</ele><time>2026-04-23T16:31:30.985Z</time></trkpt><trkpt lat="46.0211359" lon="10.3831942"><ele>1321.2857142857142</ele><time>2026-04-23T16:31:32.985Z</time></trkpt><trkpt lat="46.0212025" lon="10.3832063"><ele>1324.1428571428573</ele><time>2026-04-23T16:31:34.985Z</time></trkpt><trkpt lat="46.0212678" lon="10.3832294"><ele>1327.0</ele><time>2026-04-23T16:31:36.985Z</time></trkpt><trkpt lat="46.0213347" lon="10.3832527"><ele>1327.0000000000002</ele><time>2026-04-23T16:31:38.985Z</time></trkpt><trkpt lat="46.0214069" lon="10.3832749"><ele>1327.0</ele><time>2026-04-23T16:31:40.985Z</time></trkpt><trkpt lat="46.0214827" lon="10.3832928"><ele>1327.0</ele><time>2026-04-23T16:31:42.985Z</time></trkpt><trkpt lat="46.0215506" lon="10.383308"><ele>1327.0</ele><time>2026-04-23T16:31:44.985Z</time></trkpt><trkpt lat="46.0216164" lon="10.3833434"><ele>1327.0</ele><time>2026-04-23T16:31:46.984Z</time></trkpt><trkpt lat="46.0216821" lon="10.3833795"><ele>1327.0000000000002</ele><time>2026-04-23T16:31:48.985Z</time></trkpt><trkpt lat="46.0217459" lon="10.3834275"><ele>1327.0</ele><time>2026-04-23T16:31:50.985Z</time></trkpt><trkpt lat="46.0217914" lon="10.3835061"><ele>1326.8333333333333</ele><time>2026-04-23T16:31:52.985Z</time></trkpt><trkpt lat="46.0218223" lon="10.3836324"><ele>1326.6666666666665</ele><time>2026-04-23T16:31:55.985Z</time></trkpt><trkpt lat="46.0218483" lon="10.3837577"><ele>1326.5</ele><time>2026-04-23T16:31:58.985Z</time></trkpt><trkpt lat="46.0218709" lon="10.3838702"><ele>1326.3333333333333</ele><time>2026-04-23T16:32:01.985Z</time></trkpt><trkpt lat="46.0218776" lon="10.3839913"><ele>1326.1666666666667</ele><time>2026-04-23T16:32:04.985Z</time></trkpt><trkpt lat="46.0218708" lon="10.3840909"><ele>1326.0</ele><time>2026-04-23T16:32:06.985Z</time></trkpt><trkpt lat="46.021861" lon="10.3841861"><ele>1328.6666666666667</ele><time>2026-04-23T16:32:08.985Z</time></trkpt><trkpt lat="46.0218278" lon="10.384304"><ele>1331.3333333333333</ele><time>2026-04-23T16:32:11.984Z</time></trkpt><trkpt lat="46.0218162" lon="10.3843991"><ele>1334.0</ele><time>2026-04-23T16:32:13.985Z</time></trkpt><trkpt lat="46.0217988" lon="10.3844871"><ele>1336.6666666666665</ele><time>2026-04-23T16:32:15.984Z</time></trkpt><trkpt lat="46.0217646" lon="10.3846118"><ele>1339.3333333333333</ele><time>2026-04-23T16:32:18.985Z</time></trkpt><trkpt lat="46.0217367" lon="10.3846964"><ele>1342.0</ele><time>2026-04-23T16:32:20.985Z</time></trkpt><trkpt lat="46.0217181" lon="10.3847983"><ele>1343.1666666666665</ele><time>2026-04-23T16:32:22.985Z</time></trkpt><trkpt lat="46.0216923" lon="10.3849002"><ele>1344.3333333333333</ele><time>2026-04-23T16:32:24.985Z</time></trkpt><trkpt lat="46.0216671" lon="10.3850032"><ele>1345.5</ele><time>2026-04-23T16:32:26.985Z</time></trkpt><trkpt lat="46.0216413" lon="10.3851017"><ele>1346.6666666666667</ele><time>2026-04-23T16:32:28.985Z</time></trkpt><trkpt lat="46.0216102" lon="10.385199"><ele>1347.8333333333335</ele><time>2026-04-23T16:32:30.985Z</time></trkpt><trkpt lat="46.021579" lon="10.3852829"><ele>1349.0</ele><time>2026-04-23T16:32:32.985Z</time></trkpt><trkpt lat="46.021555" lon="10.3854024"><ele>1354.8333333333335</ele><time>2026-04-23T16:32:34.985Z</time></trkpt><trkpt lat="46.0215249" lon="10.3855131"><ele>1360.6666666666667</ele><time>2026-04-23T16:32:36.985Z</time></trkpt><trkpt lat="46.021497" lon="10.3856263"><ele>1366.5</ele><time>2026-04-23T16:32:38.985Z</time></trkpt><trkpt lat="46.0214684" lon="10.385736"><ele>1372.3333333333333</ele><time>2026-04-23T16:32:40.985Z</time></trkpt><trkpt lat="46.0214575" lon="10.385846"><ele>1378.1666666666665</ele><time>2026-04-23T16:32:42.985Z</time></trkpt><trkpt lat="46.021436" lon="10.3859425"><ele>1384.0</ele><time>2026-04-23T16:32:44.985Z</time></trkpt><trkpt lat="46.0214038" lon="10.3860278"><ele>1384.0</ele><time>2026-04-23T16:32:46.984Z</time></trkpt><trkpt lat="46.0213677" lon="10.3861118"><ele>1384.0</ele><time>2026-04-23T16:32:48.985Z</time></trkpt><trkpt lat="46.0213199" lon="10.3861932"><ele>1384.0</ele><time>2026-04-23T16:32:50.985Z</time></trkpt><trkpt lat="46.0212676" lon="10.3862716"><ele>1384.0</ele><time>2026-04-23T16:32:52.985Z</time></trkpt><trkpt lat="46.0212315" lon="10.3863668"><ele>1384.0</ele><time>2026-04-23T16:32:54.985Z</time></trkpt><trkpt lat="46.0211859" lon="10.3864534"><ele>1384.0</ele><time>2026-04-23T16:32:56.985Z</time></trkpt><trkpt lat="46.0211356" lon="10.3865308"><ele>1384.0</ele><time>2026-04-23T16:32:58.985Z</time></trkpt><trkpt lat="46.0210832" lon="10.3865983"><ele>1383.857142857143</ele><time>2026-04-23T16:33:00.985Z</time></trkpt><trkpt lat="46.021039" lon="10.3866756"><ele>1383.7142857142858</ele><time>2026-04-23T16:33:02.985Z</time></trkpt><trkpt lat="46.0210167" lon="10.3867661"><ele>1383.5714285714287</ele><time>2026-04-23T16:33:04.985Z</time></trkpt><trkpt lat="46.0210068" lon="10.3868585"><ele>1383.4285714285716</ele><time>2026-04-23T16:33:06.985Z</time></trkpt><trkpt lat="46.0209942" lon="10.386955"><ele>1383.2857142857142</ele><time>2026-04-23T16:33:08.984Z</time></trkpt><trkpt lat="46.0209802" lon="10.3870502"><ele>1383.1428571428573</ele><time>2026-04-23T16:33:10.985Z</time></trkpt><trkpt lat="46.0209688" lon="10.3871421"><ele>1383.0</ele><time>2026-04-23T16:33:12.985Z</time></trkpt><trkpt lat="46.0209609" lon="10.3872801"><ele>1383.0</ele><time>2026-04-23T16:33:15.985Z</time></trkpt><trkpt lat="46.0209598" lon="10.3874134"><ele>1383.0</ele><time>2026-04-23T16:33:18.985Z</time></trkpt><trkpt lat="46.0209496" lon="10.3875466"><ele>1383.0</ele><time>2026-04-23T16:33:21.985Z</time></trkpt><trkpt lat="46.0209145" lon="10.3876558"><ele>1383.0</ele><time>2026-04-23T16:33:24.985Z</time></trkpt><trkpt lat="46.0208698" lon="10.3877762"><ele>1383.0</ele><time>2026-04-23T16:33:27.985Z</time></trkpt><trkpt lat="46.0208433" lon="10.3878653"><ele>1383.0</ele><time>2026-04-23T16:33:29.985Z</time></trkpt><trkpt lat="46.0208194" lon="10.3879554"><ele>1383.5714285714287</ele><time>2026-04-23T16:33:31.985Z</time></trkpt><trkpt lat="46.0208202" lon="10.3880573"><ele>1384.142857142857</ele><time>2026-04-23T16:33:33.985Z</time></trkpt><trkpt lat="46.0208272" lon="10.3881623"><ele>1384.7142857142858</ele><time>2026-04-23T16:33:35.985Z</time></trkpt><trkpt lat="46.0208398" lon="10.3882612"><ele>1385.2857142857142</ele><time>2026-04-23T16:33:37.985Z</time></trkpt><trkpt lat="46.0208513" lon="10.3883581"><ele>1385.857142857143</ele><time>2026-04-23T16:33:39.985Z</time></trkpt><trkpt lat="46.0208615" lon="10.3884479"><ele>1386.4285714285716</ele><time>2026-04-23T16:33:41.985Z</time></trkpt><trkpt lat="46.0208541" lon="10.3885397"><ele>1387.0</ele><time>2026-04-23T16:33:43.985Z</time></trkpt><trkpt lat="46.0208393" lon="10.3886326"><ele>1387.0</ele><time>2026-04-23T16:33:45.985Z</time></trkpt><trkpt lat="46.0208341" lon="10.3887254"><ele>1387.0</ele><time>2026-04-23T16:33:47.985Z</time></trkpt><trkpt lat="46.0208395" lon="10.3888169"><ele>1387.0</ele><time>2026-04-23T16:33:49.985Z</time></trkpt><trkpt lat="46.0208483" lon="10.3889167"><ele>1387.0</ele><time>2026-04-23T16:33:51.985Z</time></trkpt><trkpt lat="46.0208446" lon="10.3890148"><ele>1387.0</ele><time>2026-04-23T16:33:53.985Z</time></trkpt><trkpt lat="46.0208329" lon="10.3891168"><ele>1387.0</ele><time>2026-04-23T16:33:55.984Z</time></trkpt><trkpt lat="46.0208135" lon="10.3892201"><ele>1387.0</ele><time>2026-04-23T16:33:57.985Z</time></trkpt><trkpt lat="46.020792" lon="10.3893275"><ele>1392.8333333333333</ele><time>2026-04-23T16:33:59.985Z</time></trkpt><trkpt lat="46.0207782" lon="10.3894407"><ele>1398.6666666666665</ele><time>2026-04-23T16:34:01.985Z</time></trkpt><trkpt lat="46.0207676" lon="10.3895581"><ele>1404.5</ele><time>2026-04-23T16:34:03.985Z</time></trkpt><trkpt lat="46.0207561" lon="10.3896759"><ele>1410.3333333333333</ele><time>2026-04-23T16:34:05.985Z</time></trkpt><trkpt lat="46.0207426" lon="10.3897804"><ele>1416.1666666666667</ele><time>2026-04-23T16:34:07.984Z</time></trkpt><trkpt lat="46.0207117" lon="10.3898617"><ele>1422.0</ele><time>2026-04-23T16:34:09.985Z</time></trkpt><trkpt lat="46.0206532" lon="10.3899158"><ele>1422.0</ele><time>2026-04-23T16:34:11.985Z</time></trkpt><trkpt lat="46.020581" lon="10.3899559"><ele>1422.0</ele><time>2026-04-23T16:34:13.985Z</time></trkpt><trkpt lat="46.0205231" lon="10.3900219"><ele>1422.0</ele><time>2026-04-23T16:34:15.985Z</time></trkpt><trkpt lat="46.0204802" lon="10.39011"><ele>1422.0</ele><time>2026-04-23T16:34:17.985Z</time></trkpt><trkpt lat="46.020439" lon="10.390201"><ele>1422.0</ele><time>2026-04-23T16:34:19.985Z</time></trkpt><trkpt lat="46.0204041" lon="10.3902999"><ele>1422.0</ele><time>2026-04-23T16:34:21.985Z</time></trkpt><trkpt lat="46.0203737" lon="10.3904029"><ele>1422.0</ele><time>2026-04-23T16:34:23.985Z</time></trkpt><trkpt lat="46.020333" lon="10.3904977"><ele>1422.0</ele><time>2026-04-23T16:34:25.985Z</time></trkpt><trkpt lat="46.0202847" lon="10.3905974"><ele>1422.0</ele><time>2026-04-23T16:34:27.985Z</time></trkpt><trkpt lat="46.0202419" lon="10.3907069"><ele>1422.0</ele><time>2026-04-23T16:34:29.985Z</time></trkpt><trkpt lat="46.0201988" lon="10.3908269"><ele>1422.0</ele><time>2026-04-23T16:34:31.984Z</time></trkpt><trkpt lat="46.0201537" lon="10.3909396"><ele>1422.0</ele><time>2026-04-23T16:34:33.985Z</time></trkpt><trkpt lat="46.0201189" lon="10.3910531"><ele>1419.3333333333333</ele><time>2026-04-23T16:34:35.985Z</time></trkpt><trkpt lat="46.0201194" lon="10.3911706"><ele>1416.6666666666667</ele><time>2026-04-23T16:34:37.984Z</time></trkpt><trkpt lat="46.02013" lon="10.3912942"><ele>1414.0</ele><time>2026-04-23T16:34:39.985Z</time></trkpt><trkpt lat="46.0201321" lon="10.3914198"><ele>1411.3333333333335</ele><time>2026-04-23T16:34:41.985Z</time></trkpt><trkpt lat="46.0201203" lon="10.3915524"><ele>1408.6666666666667</ele><time>2026-04-23T16:34:43.985Z</time></trkpt><trkpt lat="46.0201179" lon="10.3916865"><ele>1406.0</ele><time>2026-04-23T16:34:45.985Z</time></trkpt><trkpt lat="46.0201286" lon="10.3918374"><ele>1405.6</ele><time>2026-04-23T16:34:47.985Z</time></trkpt><trkpt lat="46.0201405" lon="10.3919854"><ele>1405.1999999999998</ele><time>2026-04-23T16:34:49.984Z</time></trkpt><trkpt lat="46.0201546" lon="10.3921289"><ele>1404.8000000000002</ele><time>2026-04-23T16:34:51.985Z</time></trkpt><trkpt lat="46.0201785" lon="10.3922661"><ele>1404.4</ele><time>2026-04-23T16:34:53.985Z</time></trkpt><trkpt lat="46.0202118" lon="10.3924102"><ele>1404.0</ele><time>2026-04-23T16:34:55.985Z</time></trkpt><trkpt lat="46.020228" lon="10.3925553"><ele>1404.0</ele><time>2026-04-23T16:34:57.985Z</time></trkpt><trkpt lat="46.0202323" lon="10.3926857"><ele>1404.0</ele><time>2026-04-23T16:34:59.985Z</time></trkpt><trkpt lat="46.0202312" lon="10.3928276"><ele>1404.0</ele><time>2026-04-23T16:35:01.985Z</time></trkpt><trkpt lat="46.020231" lon="10.3929802"><ele>1404.0</ele><time>2026-04-23T16:35:03.985Z</time></trkpt><trkpt lat="46.0202425" lon="10.3931269"><ele>1404.0</ele><time>2026-04-23T16:35:05.985Z</time></trkpt><trkpt lat="46.0202538" lon="10.3932711"><ele>1404.0</ele><time>2026-04-23T16:35:07.984Z</time></trkpt><trkpt lat="46.020244" lon="10.3934031"><ele>1404.0</ele><time>2026-04-23T16:35:09.984Z</time></trkpt><trkpt lat="46.0202442" lon="10.3935377"><ele>1404.0</ele><time>2026-04-23T16:35:11.985Z</time></trkpt><trkpt lat="46.0202581" lon="10.3936735"><ele>1404.0</ele><time>2026-04-23T16:35:13.985Z</time></trkpt><trkpt lat="46.0202344" lon="10.3938081"><ele>1404.0</ele><time>2026-04-23T16:35:15.985Z</time></trkpt><trkpt lat="46.0201919" lon="10.3939383"><ele>1403.6</ele><time>2026-04-23T16:35:17.985Z</time></trkpt><trkpt lat="46.0201644" lon="10.3940791"><ele>1403.2</ele><time>2026-04-23T16:35:19.985Z</time></trkpt><trkpt lat="46.0201402" lon="10.3942206"><ele>1402.8</ele><time>2026-04-23T16:35:21.985Z</time></trkpt><trkpt lat="46.0201634" lon="10.3943694"><ele>1402.3999999999999</ele><time>2026-04-23T16:35:23.984Z</time></trkpt><trkpt lat="46.0201841" lon="10.3945088"><ele>1402.0</ele><time>2026-04-23T16:35:25.985Z</time></trkpt><trkpt lat="46.0201362" lon="10.3946199"><ele>1401.0</ele><time>2026-04-23T16:35:27.985Z</time></trkpt><trkpt lat="46.0200798" lon="10.3947305"><ele>1400.0</ele><time>2026-04-23T16:35:29.985Z</time></trkpt><trkpt lat="46.0200769" lon="10.3948674"><ele>1399.0</ele><time>2026-04-23T16:35:31.985Z</time></trkpt><trkpt lat="46.0200901" lon="10.3949724"><ele>1398.0</ele><time>2026-04-23T16:35:33.985Z</time></trkpt><trkpt lat="46.0200814" lon="10.3951042"><ele>1397.0</ele><time>2026-04-23T16:35:36.985Z</time></trkpt><trkpt lat="46.0200583" lon="10.3952061"><ele>1396.0</ele><time>2026-04-23T16:35:38.985Z</time></trkpt><trkpt lat="46.0200699" lon="10.3953453"><ele>1396.0</ele><time>2026-04-23T16:35:40.985Z</time></trkpt><trkpt lat="46.0200911" lon="10.395475"><ele>1396.0</ele><time>2026-04-23T16:35:42.985Z</time></trkpt><trkpt lat="46.0201224" lon="10.3956105"><ele>1396.0</ele><time>2026-04-23T16:35:44.985Z</time></trkpt><trkpt lat="46.0201396" lon="10.3957202"><ele>1396.0</ele><time>2026-04-23T16:35:46.984Z</time></trkpt><trkpt lat="46.0201252" lon="10.3958655"><ele>1396.0</ele><time>2026-04-23T16:35:48.985Z</time></trkpt><trkpt lat="46.0201068" lon="10.3959982"><ele>1396.4</ele><time>2026-04-23T16:35:50.985Z</time></trkpt><trkpt lat="46.0200739" lon="10.3961287"><ele>1396.8</ele><time>2026-04-23T16:35:52.984Z</time></trkpt><trkpt lat="46.0200625" lon="10.3962864"><ele>1397.2</ele><time>2026-04-23T16:35:54.985Z</time></trkpt><trkpt lat="46.0200674" lon="10.3964307"><ele>1397.6000000000001</ele><time>2026-04-23T16:35:56.985Z</time></trkpt><trkpt lat="46.0200856" lon="10.396569"><ele>1398.0</ele><time>2026-04-23T16:35:58.984Z</time></trkpt><trkpt lat="46.0200887" lon="10.3966804"><ele>1400.1666666666667</ele><time>2026-04-23T16:36:00.985Z</time></trkpt><trkpt lat="46.0200715" lon="10.3967884"><ele>1402.3333333333333</ele><time>2026-04-23T16:36:02.985Z</time></trkpt><trkpt lat="46.0200665" lon="10.3969043"><ele>1404.5</ele><time>2026-04-23T16:36:04.985Z</time></trkpt><trkpt lat="46.0200796" lon="10.3970068"><ele>1406.6666666666665</ele><time>2026-04-23T16:36:06.985Z</time></trkpt><trkpt lat="46.0200971" lon="10.3971095"><ele>1408.8333333333333</ele><time>2026-04-23T16:36:08.985Z</time></trkpt><trkpt lat="46.0201184" lon="10.3972128"><ele>1411.0</ele><time>2026-04-23T16:36:10.985Z</time></trkpt><trkpt lat="46.0201237" lon="10.3973177"><ele>1412.0000000000002</ele><time>2026-04-23T16:36:12.985Z</time></trkpt><trkpt lat="46.0201235" lon="10.3974209"><ele>1413.0</ele><time>2026-04-23T16:36:14.985Z</time></trkpt><trkpt lat="46.0201215" lon="10.3975264"><ele>1414.0</ele><time>2026-04-23T16:36:16.984Z</time></trkpt><trkpt lat="46.0201211" lon="10.3976351"><ele>1415.0</ele><time>2026-04-23T16:36:18.985Z</time></trkpt><trkpt lat="46.0201113" lon="10.3977347"><ele>1416.0</ele><time>2026-04-23T16:36:20.984Z</time></trkpt><trkpt lat="46.0201149" lon="10.3978445"><ele>1417.0000000000002</ele><time>2026-04-23T16:36:22.985Z</time></trkpt><trkpt lat="46.0201148" lon="10.3979459"><ele>1418.0</ele><time>2026-04-23T16:36:24.985Z</time></trkpt><trkpt lat="46.0200958" lon="10.3980387"><ele>1418.0000000000002</ele><time>2026-04-23T16:36:26.985Z</time></trkpt><trkpt lat="46.0200721" lon="10.3981315"><ele>1418.0</ele><time>2026-04-23T16:36:28.985Z</time></trkpt><trkpt lat="46.0200708" lon="10.3982348"><ele>1418.0</ele><time>2026-04-23T16:36:30.985Z</time></trkpt><trkpt lat="46.0200658" lon="10.3983368"><ele>1418.0</ele><time>2026-04-23T16:36:32.984Z</time></trkpt><trkpt lat="46.0200586" lon="10.398433"><ele>1418.0</ele><time>2026-04-23T16:36:34.985Z</time></trkpt><trkpt lat="46.0200585" lon="10.3985629"><ele>1418.0000000000002</ele><time>2026-04-23T16:36:37.985Z</time></trkpt><trkpt lat="46.0200828" lon="10.3986688"><ele>1418.0</ele><time>2026-04-23T16:36:40.985Z</time></trkpt><trkpt lat="46.0201321" lon="10.3987549"><ele>1417.5</ele><time>2026-04-23T16:36:43.985Z</time></trkpt><trkpt lat="46.0201788" lon="10.3988512"><ele>1417.0</ele><time>2026-04-23T16:36:46.985Z</time></trkpt><trkpt lat="46.0202011" lon="10.3989648"><ele>1416.5</ele><time>2026-04-23T16:36:49.984Z</time></trkpt><trkpt lat="46.0201972" lon="10.3990644"><ele>1416.0</ele><time>2026-04-23T16:36:52.985Z</time></trkpt><trkpt lat="46.0201909" lon="10.3991794"><ele>1415.5</ele><time>2026-04-23T16:36:55.985Z</time></trkpt><trkpt lat="46.0201855" lon="10.3993019"><ele>1415.0</ele><time>2026-04-23T16:36:58.984Z</time></trkpt><trkpt lat="46.0201705" lon="10.3994169"><ele>1415.0</ele><time>2026-04-23T16:37:01.985Z</time></trkpt><trkpt lat="46.0201197" lon="10.399554"><ele>1415.0</ele><time>2026-04-23T16:37:05.984Z</time></trkpt><trkpt lat="46.0200966" lon="10.3996441"><ele>1415.0</ele><time>2026-04-23T16:37:07.985Z</time></trkpt><trkpt lat="46.0200764" lon="10.399752"><ele>1415.0</ele><time>2026-04-23T16:37:09.985Z</time></trkpt><trkpt lat="46.0200285" lon="10.3996753"><ele>1415.0</ele><time>2026-04-23T16:37:17.985Z</time></trkpt><trkpt lat="46.0200231" lon="10.3995839"><ele>1415.0</ele><time>2026-04-23T16:37:20.985Z</time></trkpt><trkpt lat="46.0200664" lon="10.399493"><ele>1415.0</ele><time>2026-04-23T16:37:23.985Z</time></trkpt><trkpt lat="46.0200864" lon="10.3993698"><ele>1415.0</ele><time>2026-04-23T16:37:26.985Z</time></trkpt><trkpt lat="46.0200649" lon="10.3992511"><ele>1415.0</ele><time>2026-04-23T16:37:29.985Z</time></trkpt><trkpt lat="46.0199866" lon="10.3991992"><ele>1415.0</ele><time>2026-04-23T16:37:32.984Z</time></trkpt><trkpt lat="46.0199188" lon="10.399212"><ele>1415.0</ele><time>2026-04-23T16:37:34.985Z</time></trkpt><trkpt lat="46.0198563" lon="10.3991961"><ele>1415.0</ele><time>2026-04-23T16:37:36.985Z</time></trkpt><trkpt lat="46.0198234" lon="10.3990982"><ele>1422.142857142857</ele><time>2026-04-23T16:37:39.985Z</time></trkpt><trkpt lat="46.0198198" lon="10.3989985"><ele>1429.2857142857142</ele><time>2026-04-23T16:37:41.985Z</time></trkpt><trkpt lat="46.0198147" lon="10.3988988"><ele>1436.4285714285716</ele><time>2026-04-23T16:37:43.985Z</time></trkpt><trkpt lat="46.0197962" lon="10.3987863"><ele>1443.5714285714284</ele><time>2026-04-23T16:37:46.985Z</time></trkpt><trkpt lat="46.0197971" lon="10.3986812"><ele>1450.7142857142856</ele><time>2026-04-23T16:37:49.985Z</time></trkpt><trkpt lat="46.0197907" lon="10.3985878"><ele>1457.857142857143</ele><time>2026-04-23T16:37:53.985Z</time></trkpt><trkpt lat="46.0198185" lon="10.3984859"><ele>1465.0</ele><time>2026-04-23T16:37:57.985Z</time></trkpt><trkpt lat="46.0198453" lon="10.3983723"><ele>1465.857142857143</ele><time>2026-04-23T16:38:02.055Z</time></trkpt><trkpt lat="46.01985" lon="10.3982758"><ele>1466.7142857142856</ele><time>2026-04-23T16:38:03.985Z</time></trkpt><trkpt lat="46.0198565" lon="10.3981791"><ele>1467.5714285714284</ele><time>2026-04-23T16:38:05.985Z</time></trkpt><trkpt lat="46.0198407" lon="10.3980819"><ele>1468.4285714285716</ele><time>2026-04-23T16:38:07.985Z</time></trkpt><trkpt lat="46.019846" lon="10.3979796"><ele>1469.2857142857142</ele><time>2026-04-23T16:38:09.985Z</time></trkpt><trkpt lat="46.0198512" lon="10.3978734"><ele>1470.142857142857</ele><time>2026-04-23T16:38:11.985Z</time></trkpt><trkpt lat="46.0198452" lon="10.397777"><ele>1471.0</ele><time>2026-04-23T16:38:13.985Z</time></trkpt><trkpt lat="46.0198191" lon="10.3976792"><ele>1471.5</ele><time>2026-04-23T16:38:15.985Z</time></trkpt><trkpt lat="46.019793" lon="10.3975822"><ele>1472.0</ele><time>2026-04-23T16:38:17.985Z</time></trkpt><trkpt lat="46.0197715" lon="10.3974849"><ele>1472.5</ele><time>2026-04-23T16:38:19.985Z</time></trkpt><trkpt lat="46.0197284" lon="10.3973797"><ele>1473.0</ele><time>2026-04-23T16:38:23.985Z</time></trkpt><trkpt lat="46.0197211" lon="10.3972741"><ele>1473.5</ele><time>2026-04-23T16:38:26.047Z</time></trkpt><trkpt lat="46.0196697" lon="10.3971295"><ele>1474.0</ele><time>2026-04-23T16:38:29.999Z</time></trkpt><trkpt lat="46.0196735" lon="10.3970164"><ele>1474.2857142857144</ele><time>2026-04-23T16:38:32.985Z</time></trkpt><trkpt lat="46.019639" lon="10.3969392"><ele>1474.5714285714287</ele><time>2026-04-23T16:38:34.985Z</time></trkpt><trkpt lat="46.0196237" lon="10.3968407"><ele>1474.857142857143</ele><time>2026-04-23T16:38:36.985Z</time></trkpt><trkpt lat="46.0196145" lon="10.3967396"><ele>1475.1428571428573</ele><time>2026-04-23T16:38:38.985Z</time></trkpt><trkpt lat="46.0196051" lon="10.3966392"><ele>1475.4285714285713</ele><time>2026-04-23T16:38:40.984Z</time></trkpt><trkpt lat="46.019589" lon="10.3965179"><ele>1475.7142857142858</ele><time>2026-04-23T16:38:42.985Z</time></trkpt><trkpt lat="46.0195616" lon="10.3964209"><ele>1476.0</ele><time>2026-04-23T16:38:44.985Z</time></trkpt><trkpt lat="46.0195615" lon="10.3962997"><ele>1475.2857142857142</ele><time>2026-04-23T16:38:46.985Z</time></trkpt><trkpt lat="46.0195476" lon="10.3961971"><ele>1474.5714285714284</ele><time>2026-04-23T16:38:48.985Z</time></trkpt><trkpt lat="46.0195387" lon="10.3960942"><ele>1473.857142857143</ele><time>2026-04-23T16:38:50.985Z</time></trkpt><trkpt lat="46.0195227" lon="10.3959871"><ele>1473.142857142857</ele><time>2026-04-23T16:38:52.985Z</time></trkpt><trkpt lat="46.0195225" lon="10.3958785"><ele>1472.4285714285716</ele><time>2026-04-23T16:38:54.984Z</time></trkpt><trkpt lat="46.0195056" lon="10.3957832"><ele>1471.7142857142858</ele><time>2026-04-23T16:38:56.985Z</time></trkpt><trkpt lat="46.0194733" lon="10.3956869"><ele>1471.0</ele><time>2026-04-23T16:38:58.985Z</time></trkpt><trkpt lat="46.0194592" lon="10.3955889"><ele>1470.5</ele><time>2026-04-23T16:39:00.985Z</time></trkpt><trkpt lat="46.0194922" lon="10.3954923"><ele>1470.0</ele><time>2026-04-23T16:39:02.985Z</time></trkpt><trkpt lat="46.019526" lon="10.3953967"><ele>1469.5</ele><time>2026-04-23T16:39:04.984Z</time></trkpt><trkpt lat="46.019519" lon="10.3952816"><ele>1469.0</ele><time>2026-04-23T16:39:06.985Z</time></trkpt><trkpt lat="46.0195175" lon="10.3951609"><ele>1468.5</ele><time>2026-04-23T16:39:08.985Z</time></trkpt><trkpt lat="46.0195167" lon="10.3950499"><ele>1468.0</ele><time>2026-04-23T16:39:10.985Z</time></trkpt><trkpt lat="46.0195158" lon="10.3949341"><ele>1468.0</ele><time>2026-04-23T16:39:12.984Z</time></trkpt><trkpt lat="46.0195153" lon="10.3948163"><ele>1468.0</ele><time>2026-04-23T16:39:14.985Z</time></trkpt><trkpt lat="46.0194862" lon="10.3947096"><ele>1468.0</ele><time>2026-04-23T16:39:17.985Z</time></trkpt><trkpt lat="46.0194222" lon="10.3946078"><ele>1468.0</ele><time>2026-04-23T16:39:20.985Z</time></trkpt><trkpt lat="46.0194413" lon="10.3945038"><ele>1468.0</ele><time>2026-04-23T16:39:23.985Z</time></trkpt><trkpt lat="46.0194994" lon="10.3944462"><ele>1468.0</ele><time>2026-04-23T16:39:25.985Z</time></trkpt><trkpt lat="46.0195315" lon="10.3943651"><ele>1467.7142857142856</ele><time>2026-04-23T16:39:27.985Z</time></trkpt><trkpt lat="46.0195384" lon="10.3942679"><ele>1467.4285714285716</ele><time>2026-04-23T16:39:29.985Z</time></trkpt><trkpt lat="46.0195712" lon="10.394178"><ele>1467.142857142857</ele><time>2026-04-23T16:39:31.985Z</time></trkpt><trkpt lat="46.0196051" lon="10.3940919"><ele>1466.8571428571427</ele><time>2026-04-23T16:39:33.985Z</time></trkpt><trkpt lat="46.0196238" lon="10.3939701"><ele>1466.5714285714284</ele><time>2026-04-23T16:39:35.985Z</time></trkpt><trkpt lat="46.0196239" lon="10.3938602"><ele>1466.2857142857142</ele><time>2026-04-23T16:39:37.985Z</time></trkpt><trkpt lat="46.019612" lon="10.3937554"><ele>1466.0</ele><time>2026-04-23T16:39:39.984Z</time></trkpt><trkpt lat="46.0196129" lon="10.3936642"><ele>1466.0</ele><time>2026-04-23T16:39:41.985Z</time></trkpt><trkpt lat="46.0195774" lon="10.3935659"><ele>1466.0</ele><time>2026-04-23T16:39:43.985Z</time></trkpt><trkpt lat="46.0195485" lon="10.393472"><ele>1466.0</ele><time>2026-04-23T16:39:45.985Z</time></trkpt><trkpt lat="46.0194921" lon="10.3933913"><ele>1466.0</ele><time>2026-04-23T16:39:47.985Z</time></trkpt><trkpt lat="46.0194491" lon="10.3933015"><ele>1466.0</ele><time>2026-04-23T16:39:49.985Z</time></trkpt><trkpt lat="46.0194515" lon="10.3931953"><ele>1466.0</ele><time>2026-04-23T16:39:52.985Z</time></trkpt><trkpt lat="46.019469" lon="10.3930803"><ele>1466.5</ele><time>2026-04-23T16:39:54.985Z</time></trkpt><trkpt lat="46.0194482" lon="10.3929693"><ele>1467.0</ele><time>2026-04-23T16:39:56.984Z</time></trkpt><trkpt lat="46.0194167" lon="10.3928669"><ele>1467.5</ele><time>2026-04-23T16:39:58.984Z</time></trkpt><trkpt lat="46.0194249" lon="10.3927361"><ele>1468.0</ele><time>2026-04-23T16:40:00.984Z</time></trkpt><trkpt lat="46.0194506" lon="10.3925951"><ele>1468.5</ele><time>2026-04-23T16:40:02.985Z</time></trkpt><trkpt lat="46.0194629" lon="10.39249"><ele>1469.0</ele><time>2026-04-23T16:40:04.985Z</time></trkpt><trkpt lat="46.0194524" lon="10.3923984"><ele>1469.0</ele><time>2026-04-23T16:40:06.985Z</time></trkpt><trkpt lat="46.0194797" lon="10.3922849"><ele>1469.0</ele><time>2026-04-23T16:40:09.984Z</time></trkpt><trkpt lat="46.0195275" lon="10.3921853"><ele>1469.0</ele><time>2026-04-23T16:40:11.984Z</time></trkpt><trkpt lat="46.0195403" lon="10.3920683"><ele>1469.0</ele><time>2026-04-23T16:40:13.985Z</time></trkpt><trkpt lat="46.0194888" lon="10.3920094"><ele>1469.0</ele><time>2026-04-23T16:40:14.985Z</time></trkpt><trkpt lat="46.0194309" lon="10.3919016"><ele>1469.0</ele><time>2026-04-23T16:40:16.985Z</time></trkpt><trkpt lat="46.0193856" lon="10.3917932"><ele>1468.2857142857142</ele><time>2026-04-23T16:40:18.985Z</time></trkpt><trkpt lat="46.0193797" lon="10.3916666"><ele>1467.5714285714284</ele><time>2026-04-23T16:40:20.985Z</time></trkpt><trkpt lat="46.0193257" lon="10.3915889"><ele>1466.857142857143</ele><time>2026-04-23T16:40:22.985Z</time></trkpt><trkpt lat="46.0192719" lon="10.3915364"><ele>1466.142857142857</ele><time>2026-04-23T16:40:24.985Z</time></trkpt><trkpt lat="46.0192437" lon="10.3914537"><ele>1465.4285714285716</ele><time>2026-04-23T16:40:26.985Z</time></trkpt><trkpt lat="46.0192298" lon="10.3913593"><ele>1464.7142857142858</ele><time>2026-04-23T16:40:28.985Z</time></trkpt><trkpt lat="46.0191675" lon="10.3912902"><ele>1464.0</ele><time>2026-04-23T16:40:30.985Z</time></trkpt><trkpt lat="46.0191094" lon="10.3911956"><ele>1463.5</ele><time>2026-04-23T16:40:32.985Z</time></trkpt><trkpt lat="46.0190988" lon="10.3911006"><ele>1463.0</ele><time>2026-04-23T16:40:34.985Z</time></trkpt><trkpt lat="46.0191471" lon="10.3910118"><ele>1462.5</ele><time>2026-04-23T16:40:36.985Z</time></trkpt><trkpt lat="46.0191916" lon="10.3909304"><ele>1462.0</ele><time>2026-04-23T16:40:38.985Z</time></trkpt><trkpt lat="46.0192087" lon="10.390821"><ele>1461.5</ele><time>2026-04-23T16:40:40.985Z</time></trkpt><trkpt lat="46.0192593" lon="10.3907274"><ele>1461.0</ele><time>2026-04-23T16:40:42.985Z</time></trkpt><trkpt lat="46.0193203" lon="10.3906374"><ele>1461.0</ele><time>2026-04-23T16:40:44.985Z</time></trkpt><trkpt lat="46.0193346" lon="10.3905335"><ele>1461.0</ele><time>2026-04-23T16:40:46.985Z</time></trkpt><trkpt lat="46.0193349" lon="10.3904304"><ele>1461.0</ele><time>2026-04-23T16:40:48.985Z</time></trkpt><trkpt lat="46.0193627" lon="10.3903185"><ele>1461.0</ele><time>2026-04-23T16:40:50.985Z</time></trkpt><trkpt lat="46.0193862" lon="10.3902031"><ele>1461.0</ele><time>2026-04-23T16:40:52.985Z</time></trkpt><trkpt lat="46.0193932" lon="10.3900982"><ele>1461.0</ele><time>2026-04-23T16:40:54.985Z</time></trkpt><trkpt lat="46.0193987" lon="10.3899726"><ele>1460.3333333333333</ele><time>2026-04-23T16:40:56.985Z</time></trkpt><trkpt lat="46.0194172" lon="10.3898438"><ele>1459.6666666666667</ele><time>2026-04-23T16:40:58.985Z</time></trkpt><trkpt lat="46.0194426" lon="10.3897196"><ele>1459.0</ele><time>2026-04-23T16:41:00.985Z</time></trkpt><trkpt lat="46.0194614" lon="10.3896082"><ele>1458.3333333333335</ele><time>2026-04-23T16:41:02.985Z</time></trkpt><trkpt lat="46.0194775" lon="10.3895202"><ele>1457.6666666666667</ele><time>2026-04-23T16:41:04.985Z</time></trkpt><trkpt lat="46.019493" lon="10.3894159"><ele>1457.0</ele><time>2026-04-23T16:41:06.985Z</time></trkpt><trkpt lat="46.0195104" lon="10.3893164"><ele>1457.0</ele><time>2026-04-23T16:41:08.985Z</time></trkpt><trkpt lat="46.0195178" lon="10.3892034"><ele>1457.0</ele><time>2026-04-23T16:41:11.984Z</time></trkpt><trkpt lat="46.0194875" lon="10.3890921"><ele>1457.0</ele><time>2026-04-23T16:41:14.985Z</time></trkpt><trkpt lat="46.0194206" lon="10.3890493"><ele>1457.0</ele><time>2026-04-23T16:41:17.985Z</time></trkpt><trkpt lat="46.0193621" lon="10.3890063"><ele>1457.0</ele><time>2026-04-23T16:41:22.985Z</time></trkpt><trkpt lat="46.0193003" lon="10.3889469"><ele>1457.0</ele><time>2026-04-23T16:41:30.985Z</time></trkpt><trkpt lat="46.0192301" lon="10.3889698"><ele>1457.0</ele><time>2026-04-23T16:41:33.985Z</time></trkpt><trkpt lat="46.0191697" lon="10.3890218"><ele>1457.0</ele><time>2026-04-23T16:41:36.985Z</time></trkpt><trkpt lat="46.0192089" lon="10.388925"><ele>1457.0</ele><time>2026-04-23T16:43:32.984Z</time></trkpt><trkpt lat="46.019249" lon="10.388806"><ele>1457.0</ele><time>2026-04-23T16:43:35.985Z</time></trkpt><trkpt lat="46.0192717" lon="10.3887166"><ele>1457.0</ele><time>2026-04-23T16:43:40.985Z</time></trkpt><trkpt lat="46.0193095" lon="10.3886059"><ele>1457.0</ele><time>2026-04-23T16:43:43.985Z</time></trkpt><trkpt lat="46.0193286" lon="10.3885186"><ele>1457.0</ele><time>2026-04-23T16:43:45.985Z</time></trkpt><trkpt lat="46.0193447" lon="10.3884147"><ele>1454.4285714285716</ele><time>2026-04-23T16:43:48.985Z</time></trkpt><trkpt lat="46.0193465" lon="10.3883172"><ele>1451.857142857143</ele><time>2026-04-23T16:43:50.985Z</time></trkpt><trkpt lat="46.0193569" lon="10.3882011"><ele>1449.2857142857142</ele><time>2026-04-23T16:43:51.985Z</time></trkpt><trkpt lat="46.0193513" lon="10.3880956"><ele>1446.7142857142858</ele><time>2026-04-23T16:43:53.984Z</time></trkpt><trkpt lat="46.0193576" lon="10.3879875"><ele>1444.142857142857</ele><time>2026-04-23T16:43:56.984Z</time></trkpt><trkpt lat="46.0193767" lon="10.3878875"><ele>1441.5714285714287</ele><time>2026-04-23T16:44:04.985Z</time></trkpt><trkpt lat="46.0194199" lon="10.3877953"><ele>1439.0</ele><time>2026-04-23T16:44:09.985Z</time></trkpt><trkpt lat="46.0194826" lon="10.3877301"><ele>1434.8333333333335</ele><time>2026-04-23T16:44:12.985Z</time></trkpt><trkpt lat="46.0195452" lon="10.3876705"><ele>1430.6666666666667</ele><time>2026-04-23T16:44:15.984Z</time></trkpt><trkpt lat="46.019594" lon="10.3875957"><ele>1426.5</ele><time>2026-04-23T16:44:20.984Z</time></trkpt><trkpt lat="46.0196359" lon="10.3875075"><ele>1422.3333333333333</ele><time>2026-04-23T16:44:24.985Z</time></trkpt><trkpt lat="46.0196453" lon="10.3874029"><ele>1418.1666666666665</ele><time>2026-04-23T16:44:28.984Z</time></trkpt><trkpt lat="46.0196037" lon="10.387293"><ele>1414.0</ele><time>2026-04-23T16:44:31.985Z</time></trkpt><trkpt lat="46.0195467" lon="10.3872118"><ele>1408.5</ele><time>2026-04-23T16:44:34.985Z</time></trkpt><trkpt lat="46.0194883" lon="10.3871229"><ele>1403.0</ele><time>2026-04-23T16:44:36.985Z</time></trkpt><trkpt lat="46.0194579" lon="10.3870048"><ele>1397.5</ele><time>2026-04-23T16:44:37.985Z</time></trkpt><trkpt lat="46.0194454" lon="10.386901"><ele>1392.0</ele><time>2026-04-23T16:44:39.985Z</time></trkpt><trkpt lat="46.019456" lon="10.3867536"><ele>1386.5</ele><time>2026-04-23T16:44:42.985Z</time></trkpt><trkpt lat="46.0194689" lon="10.386642"><ele>1381.0</ele><time>2026-04-23T16:44:44.985Z</time></trkpt><trkpt lat="46.01951" lon="10.3865086"><ele>1381.0</ele><time>2026-04-23T16:44:46.985Z</time></trkpt><trkpt lat="46.0195317" lon="10.3864067"><ele>1381.0</ele><time>2026-04-23T16:44:49.985Z</time></trkpt><trkpt lat="46.0195429" lon="10.3862954"><ele>1381.0</ele><time>2026-04-23T16:44:54.985Z</time></trkpt><trkpt lat="46.0195546" lon="10.3862045"><ele>1381.0</ele><time>2026-04-23T16:44:57.984Z</time></trkpt><trkpt lat="46.0195315" lon="10.3861146"><ele>1381.0</ele><time>2026-04-23T16:45:01.985Z</time></trkpt><trkpt lat="46.0195149" lon="10.3860251"><ele>1381.0</ele><time>2026-04-23T16:45:04.985Z</time></trkpt><trkpt lat="46.0194891" lon="10.3859002"><ele>1381.0</ele><time>2026-04-23T16:45:08.985Z</time></trkpt><trkpt lat="46.0195252" lon="10.3857304"><ele>1376.4</ele><time>2026-04-23T16:45:11.985Z</time></trkpt><trkpt lat="46.0196195" lon="10.3856472"><ele>1371.8</ele><time>2026-04-23T16:45:13.985Z</time></trkpt><trkpt lat="46.0196799" lon="10.3855235"><ele>1367.2</ele><time>2026-04-23T16:45:15.985Z</time></trkpt><trkpt lat="46.0197483" lon="10.3854472"><ele>1362.6000000000001</ele><time>2026-04-23T16:45:17.985Z</time></trkpt><trkpt lat="46.0198041" lon="10.3853822"><ele>1358.0</ele><time>2026-04-23T16:45:19.985Z</time></trkpt><trkpt lat="46.0198636" lon="10.3853021"><ele>1358.1666666666667</ele><time>2026-04-23T16:45:21.985Z</time></trkpt><trkpt lat="46.0199321" lon="10.3852445"><ele>1358.3333333333335</ele><time>2026-04-23T16:45:23.985Z</time></trkpt><trkpt lat="46.0199924" lon="10.3851737"><ele>1358.5</ele><time>2026-04-23T16:45:25.985Z</time></trkpt><trkpt lat="46.0200352" lon="10.3850601"><ele>1358.6666666666667</ele><time>2026-04-23T16:45:27.985Z</time></trkpt><trkpt lat="46.0200409" lon="10.3849578"><ele>1358.8333333333333</ele><time>2026-04-23T16:45:29.985Z</time></trkpt><trkpt lat="46.0200601" lon="10.3848706"><ele>1359.0</ele><time>2026-04-23T16:45:31.985Z</time></trkpt><trkpt lat="46.0200853" lon="10.3847685"><ele>1359.0</ele><time>2026-04-23T16:45:33.984Z</time></trkpt><trkpt lat="46.0201129" lon="10.3846817"><ele>1359.0</ele><time>2026-04-23T16:45:34.985Z</time></trkpt><trkpt lat="46.0201749" lon="10.3845969"><ele>1359.0</ele><time>2026-04-23T16:45:37.985Z</time></trkpt><trkpt lat="46.0202318" lon="10.3845176"><ele>1359.0</ele><time>2026-04-23T16:45:40.985Z</time></trkpt><trkpt lat="46.0202718" lon="10.3844219"><ele>1359.0</ele><time>2026-04-23T16:45:43.985Z</time></trkpt><trkpt lat="46.0203159" lon="10.3843538"><ele>1359.0</ele><time>2026-04-23T16:45:45.985Z</time></trkpt><trkpt lat="46.0203886" lon="10.3842852"><ele>1355.0</ele><time>2026-04-23T16:45:46.985Z</time></trkpt><trkpt lat="46.0204668" lon="10.384151"><ele>1351.0</ele><time>2026-04-23T16:45:48.985Z</time></trkpt><trkpt lat="46.0205188" lon="10.3840804"><ele>1347.0</ele><time>2026-04-23T16:45:50.985Z</time></trkpt><trkpt lat="46.0205438" lon="10.3839723"><ele>1343.0</ele><time>2026-04-23T16:45:53.985Z</time></trkpt><trkpt lat="46.0205909" lon="10.3839071"><ele>1339.0</ele><time>2026-04-23T16:45:56.985Z</time></trkpt><trkpt lat="46.0206321" lon="10.3838343"><ele>1335.0</ele><time>2026-04-23T16:46:01.985Z</time></trkpt><trkpt lat="46.0206432" lon="10.3837437"><ele>1330.3333333333333</ele><time>2026-04-23T16:46:07.985Z</time></trkpt><trkpt lat="46.0206839" lon="10.3836515"><ele>1325.6666666666667</ele><time>2026-04-23T16:46:14.985Z</time></trkpt><trkpt lat="46.0206831" lon="10.3835509"><ele>1321.0</ele><time>2026-04-23T16:46:21.984Z</time></trkpt><trkpt lat="46.0206226" lon="10.3834638"><ele>1316.3333333333335</ele><time>2026-04-23T16:46:24.985Z</time></trkpt><trkpt lat="46.0205323" lon="10.3834484"><ele>1311.6666666666667</ele><time>2026-04-23T16:46:28.985Z</time></trkpt><trkpt lat="46.0204701" lon="10.3833908"><ele>1307.0</ele><time>2026-04-23T16:46:31.985Z</time></trkpt><trkpt lat="46.0205044" lon="10.3833071"><ele>1307.0</ele><time>2026-04-23T16:46:35.985Z</time></trkpt><trkpt lat="46.0205207" lon="10.3832146"><ele>1307.0</ele><time>2026-04-23T16:46:43.985Z</time></trkpt><trkpt lat="46.0205593" lon="10.3831319"><ele>1307.0</ele><time>2026-04-23T16:46:46.985Z</time></trkpt><trkpt lat="46.0206089" lon="10.3830528"><ele>1307.0</ele><time>2026-04-23T16:46:50.985Z</time></trkpt><trkpt lat="46.020652" lon="10.3829549"><ele>1307.0</ele><time>2026-04-23T16:46:54.985Z</time></trkpt><trkpt lat="46.0206992" lon="10.3828875"><ele>1307.0</ele><time>2026-04-23T16:46:57.985Z</time></trkpt><trkpt lat="46.0207557" lon="10.3828116"><ele>1307.0</ele><time>2026-04-23T16:47:00.985Z</time></trkpt><trkpt lat="46.0208283" lon="10.3827631"><ele>1306.0</ele><time>2026-04-23T16:47:02.985Z</time></trkpt><trkpt lat="46.020876" lon="10.3826864"><ele>1305.0</ele><time>2026-04-23T16:47:06.985Z</time></trkpt><trkpt lat="46.020932" lon="10.382566"><ele>1304.0</ele><time>2026-04-23T16:47:09.985Z</time></trkpt><trkpt lat="46.0209727" lon="10.3824923"><ele>1303.0</ele><time>2026-04-23T16:47:11.985Z</time></trkpt><trkpt lat="46.0210223" lon="10.382428"><ele>1302.0</ele><time>2026-04-23T16:47:14.985Z</time></trkpt><trkpt lat="46.0210808" lon="10.3823836"><ele>1301.0</ele><time>2026-04-23T16:47:17.985Z</time></trkpt><trkpt lat="46.0211249" lon="10.382296"><ele>1300.0</ele><time>2026-04-23T16:47:21.985Z</time></trkpt><trkpt lat="46.0211612" lon="10.3821841"><ele>1295.5</ele><time>2026-04-23T16:47:24.984Z</time></trkpt><trkpt lat="46.0212133" lon="10.3820711"><ele>1291.0</ele><time>2026-04-23T16:47:26.985Z</time></trkpt><trkpt lat="46.0212544" lon="10.3819646"><ele>1286.5</ele><time>2026-04-23T16:47:28.985Z</time></trkpt><trkpt lat="46.0213144" lon="10.3818535"><ele>1282.0</ele><time>2026-04-23T16:47:30.985Z</time></trkpt><trkpt lat="46.0213663" lon="10.3817605"><ele>1277.5</ele><time>2026-04-23T16:47:33.985Z</time></trkpt><trkpt lat="46.02142" lon="10.3817027"><ele>1273.0</ele><time>2026-04-23T16:47:37.985Z</time></trkpt><trkpt lat="46.0214729" lon="10.3816048"><ele>1273.0</ele><time>2026-04-23T16:47:40.985Z</time></trkpt><trkpt lat="46.021513" lon="10.3815189"><ele>1273.0</ele><time>2026-04-23T16:47:43.985Z</time></trkpt><trkpt lat="46.021575" lon="10.3814348"><ele>1273.0</ele><time>2026-04-23T16:47:47.984Z</time></trkpt><trkpt lat="46.0216282" lon="10.381375"><ele>1273.0</ele><time>2026-04-23T16:48:37.985Z</time></trkpt><trkpt lat="46.0216475" lon="10.3812812"><ele>1273.0</ele><time>2026-04-23T16:48:47.985Z</time></trkpt><trkpt lat="46.0216382" lon="10.3811591"><ele>1273.0</ele><time>2026-04-23T16:48:52.985Z</time></trkpt><trkpt lat="46.0216519" lon="10.3810555"><ele>1269.1666666666665</ele><time>2026-04-23T16:48:57.985Z</time></trkpt><trkpt lat="46.0216312" lon="10.3809623"><ele>1265.3333333333333</ele><time>2026-04-23T16:49:00.985Z</time></trkpt><trkpt lat="46.0216338" lon="10.3808505"><ele>1261.5</ele><time>2026-04-23T16:49:03.985Z</time></trkpt><trkpt lat="46.0216186" lon="10.3807486"><ele>1257.6666666666667</ele><time>2026-04-23T16:49:05.985Z</time></trkpt><trkpt lat="46.0215824" lon="10.3806639"><ele>1253.8333333333335</ele><time>2026-04-23T16:49:08.985Z</time></trkpt><trkpt lat="46.0215184" lon="10.3805951"><ele>1250.0</ele><time>2026-04-23T16:49:11.985Z</time></trkpt><trkpt lat="46.0214333" lon="10.3805603"><ele>1250.0000000000002</ele><time>2026-04-23T16:49:14.984Z</time></trkpt><trkpt lat="46.0213648" lon="10.3805403"><ele>1250.0</ele><time>2026-04-23T16:49:18.985Z</time></trkpt><trkpt lat="46.0212927" lon="10.3804961"><ele>1250.0</ele><time>2026-04-23T16:49:23.985Z</time></trkpt><trkpt lat="46.0212143" lon="10.3804627"><ele>1250.0</ele><time>2026-04-23T16:49:28.985Z</time></trkpt><trkpt lat="46.0211409" lon="10.3804367"><ele>1250.0</ele><time>2026-04-23T16:49:35.985Z</time></trkpt><trkpt lat="46.0210758" lon="10.3804484"><ele>1250.0000000000002</ele><time>2026-04-23T16:49:39.984Z</time></trkpt><trkpt lat="46.0210067" lon="10.3804056"><ele>1250.0</ele><time>2026-04-23T16:49:42.985Z</time></trkpt><trkpt lat="46.0209311" lon="10.3803987"><ele>1246.0</ele><time>2026-04-23T16:49:45.985Z</time></trkpt><trkpt lat="46.0208417" lon="10.380351"><ele>1242.0</ele><time>2026-04-23T16:49:51.985Z</time></trkpt><trkpt lat="46.0207707" lon="10.3803022"><ele>1238.0</ele><time>2026-04-23T16:49:55.985Z</time></trkpt><trkpt lat="46.0207257" lon="10.3802341"><ele>1234.0</ele><time>2026-04-23T16:49:58.985Z</time></trkpt><trkpt lat="46.0206968" lon="10.3801035"><ele>1230.0</ele><time>2026-04-23T16:50:01.985Z</time></trkpt><trkpt lat="46.0207558" lon="10.3798886"><ele>1226.7142857142856</ele><time>2026-04-23T16:50:03.985Z</time></trkpt><trkpt lat="46.0207681" lon="10.3797949"><ele>1223.4285714285716</ele><time>2026-04-23T16:50:05.985Z</time></trkpt><trkpt lat="46.0207377" lon="10.3797095"><ele>1220.142857142857</ele><time>2026-04-23T16:50:09.985Z</time></trkpt><trkpt lat="46.0206794" lon="10.3796719"><ele>1216.8571428571427</ele><time>2026-04-23T16:50:13.984Z</time></trkpt><trkpt lat="46.0206484" lon="10.3795902"><ele>1213.5714285714284</ele><time>2026-04-23T16:50:17.985Z</time></trkpt><trkpt lat="46.02066" lon="10.3795"><ele>1210.2857142857142</ele><time>2026-04-23T16:50:19.985Z</time></trkpt><trkpt lat="46.0206742" lon="10.3793875"><ele>1207.0</ele><time>2026-04-23T16:50:23.985Z</time></trkpt><trkpt lat="46.0206995" lon="10.3792783"><ele>1203.6666666666665</ele><time>2026-04-23T16:50:28.985Z</time></trkpt><trkpt lat="46.0207367" lon="10.3791219"><ele>1200.3333333333333</ele><time>2026-04-23T16:50:30.985Z</time></trkpt><trkpt lat="46.0207608" lon="10.3789924"><ele>1197.0</ele><time>2026-04-23T16:50:33.984Z</time></trkpt><trkpt lat="46.020753" lon="10.3788816"><ele>1193.6666666666667</ele><time>2026-04-23T16:50:35.985Z</time></trkpt><trkpt lat="46.0207271" lon="10.3787761"><ele>1190.3333333333335</ele><time>2026-04-23T16:50:37.984Z</time></trkpt><trkpt lat="46.0207043" lon="10.378659"><ele>1187.0</ele><time>2026-04-23T16:50:39.985Z</time></trkpt><trkpt lat="46.0206721" lon="10.3785607"><ele>1184.5</ele><time>2026-04-23T16:50:41.985Z</time></trkpt><trkpt lat="46.0206846" lon="10.3784472"><ele>1182.0</ele><time>2026-04-23T16:50:43.984Z</time></trkpt><trkpt lat="46.0207182" lon="10.3783341"><ele>1179.5</ele><time>2026-04-23T16:50:45.985Z</time></trkpt><trkpt lat="46.0207129" lon="10.378232"><ele>1177.0</ele><time>2026-04-23T16:50:47.985Z</time></trkpt><trkpt lat="46.0207072" lon="10.3781341"><ele>1174.5</ele><time>2026-04-23T16:50:49.984Z</time></trkpt><trkpt lat="46.020723" lon="10.3779982"><ele>1172.0</ele><time>2026-04-23T16:50:52.985Z</time></trkpt><trkpt lat="46.0207874" lon="10.3779427"><ele>1172.4</ele><time>2026-04-23T16:50:55.985Z</time></trkpt><trkpt lat="46.0207848" lon="10.377766"><ele>1172.8000000000002</ele><time>2026-04-23T16:50:57.985Z</time></trkpt><trkpt lat="46.0207714" lon="10.377635"><ele>1173.2</ele><time>2026-04-23T16:50:58.984Z</time></trkpt><trkpt lat="46.0207863" lon="10.3775344"><ele>1173.6000000000001</ele><time>2026-04-23T16:50:59.985Z</time></trkpt><trkpt lat="46.0208179" lon="10.3774428"><ele>1174.0</ele><time>2026-04-23T16:51:01.985Z</time></trkpt><trkpt lat="46.0208213" lon="10.3772696"><ele>1171.1666666666665</ele><time>2026-04-23T16:51:03.985Z</time></trkpt><trkpt lat="46.0208626" lon="10.3771408"><ele>1168.3333333333333</ele><time>2026-04-23T16:51:06.985Z</time></trkpt><trkpt lat="46.0208629" lon="10.3770481"><ele>1165.5</ele><time>2026-04-23T16:51:09.984Z</time></trkpt><trkpt lat="46.0209073" lon="10.3769477"><ele>1162.6666666666667</ele><time>2026-04-23T16:51:12.985Z</time></trkpt><trkpt lat="46.0209507" lon="10.3768363"><ele>1159.8333333333335</ele><time>2026-04-23T16:51:13.985Z</time></trkpt><trkpt lat="46.0210108" lon="10.3767155"><ele>1157.0</ele><time>2026-04-23T16:51:15.985Z</time></trkpt><trkpt lat="46.0210607" lon="10.3765746"><ele>1157.0</ele><time>2026-04-23T16:51:18.985Z</time></trkpt><trkpt lat="46.0211938" lon="10.3764841"><ele>1157.0</ele><time>2026-04-23T16:51:22.985Z</time></trkpt><trkpt lat="46.0212851" lon="10.3764323"><ele>1157.0</ele><time>2026-04-23T16:51:24.984Z</time></trkpt><trkpt lat="46.0214001" lon="10.3764018"><ele>1157.0</ele><time>2026-04-23T16:51:27.985Z</time></trkpt><trkpt lat="46.0214847" lon="10.3763651"><ele>1153.3333333333335</ele><time>2026-04-23T16:51:29.985Z</time></trkpt><trkpt lat="46.0215616" lon="10.376337"><ele>1149.6666666666667</ele><time>2026-04-23T16:51:31.984Z</time></trkpt><trkpt lat="46.0216399" lon="10.3763154"><ele>1146.0</ele><time>2026-04-23T16:51:33.985Z</time></trkpt><trkpt lat="46.0217111" lon="10.3763175"><ele>1142.3333333333333</ele><time>2026-04-23T16:51:35.985Z</time></trkpt><trkpt lat="46.0217902" lon="10.3763144"><ele>1138.6666666666665</ele><time>2026-04-23T16:51:37.985Z</time></trkpt><trkpt lat="46.0218627" lon="10.3763089"><ele>1135.0</ele><time>2026-04-23T16:51:39.985Z</time></trkpt><trkpt lat="46.0219355" lon="10.3763149"><ele>1133.5</ele><time>2026-04-23T16:51:41.985Z</time></trkpt><trkpt lat="46.022012" lon="10.3763165"><ele>1132.0</ele><time>2026-04-23T16:51:44.985Z</time></trkpt><trkpt lat="46.0220916" lon="10.3762803"><ele>1130.5</ele><time>2026-04-23T16:51:47.985Z</time></trkpt><trkpt lat="46.0221718" lon="10.3762991"><ele>1129.0</ele><time>2026-04-23T16:51:51.985Z</time></trkpt><trkpt lat="46.0222746" lon="10.3762702"><ele>1127.5</ele><time>2026-04-23T16:52:06.985Z</time></trkpt><trkpt lat="46.0223623" lon="10.3762277"><ele>1126.0</ele><time>2026-04-23T16:52:10.985Z</time></trkpt><trkpt lat="46.0224312" lon="10.3761974"><ele>1124.6</ele><time>2026-04-23T16:52:13.985Z</time></trkpt><trkpt lat="46.0225125" lon="10.3761675"><ele>1123.1999999999998</ele><time>2026-04-23T16:52:15.985Z</time></trkpt><trkpt lat="46.0226736" lon="10.3761285"><ele>1121.8000000000002</ele><time>2026-04-23T16:52:17.985Z</time></trkpt><trkpt lat="46.022772" lon="10.3761211"><ele>1120.4</ele><time>2026-04-23T16:52:19.985Z</time></trkpt><trkpt lat="46.022863" lon="10.3760971"><ele>1119.0</ele><time>2026-04-23T16:52:21.985Z</time></trkpt><trkpt lat="46.0229265" lon="10.3760744"><ele>1119.0</ele><time>2026-04-23T16:52:22.985Z</time></trkpt><trkpt lat="46.0230176" lon="10.3760289"><ele>1119.0</ele><time>2026-04-23T16:52:24.985Z</time></trkpt><trkpt lat="46.0230919" lon="10.3759529"><ele>1119.0</ele><time>2026-04-23T16:52:26.985Z</time></trkpt><trkpt lat="46.0231545" lon="10.3758912"><ele>1119.0</ele><time>2026-04-23T16:52:28.985Z</time></trkpt><trkpt lat="46.0231928" lon="10.3757989"><ele>1119.0</ele><time>2026-04-23T16:52:30.984Z</time></trkpt><trkpt lat="46.0232452" lon="10.3757007"><ele>1119.0</ele><time>2026-04-23T16:52:32.985Z</time></trkpt><trkpt lat="46.0233257" lon="10.3756347"><ele>1119.3333333333333</ele><time>2026-04-23T16:52:35.985Z</time></trkpt><trkpt lat="46.0233687" lon="10.3755637"><ele>1119.6666666666667</ele><time>2026-04-23T16:52:37.985Z</time></trkpt><trkpt lat="46.0234427" lon="10.3755175"><ele>1120.0</ele><time>2026-04-23T16:52:40.985Z</time></trkpt><trkpt lat="46.0235215" lon="10.3754817"><ele>1120.3333333333335</ele><time>2026-04-23T16:52:43.985Z</time></trkpt><trkpt lat="46.0235864" lon="10.3754288"><ele>1120.6666666666667</ele><time>2026-04-23T16:52:46.985Z</time></trkpt><trkpt lat="46.0236554" lon="10.3753522"><ele>1121.0</ele><time>2026-04-23T16:52:49.984Z</time></trkpt><trkpt lat="46.0237236" lon="10.3753009"><ele>1116.3333333333335</ele><time>2026-04-23T16:52:52.984Z</time></trkpt><trkpt lat="46.0237859" lon="10.3752754"><ele>1111.6666666666667</ele><time>2026-04-23T16:52:56.985Z</time></trkpt><trkpt lat="46.023849" lon="10.3752093"><ele>1107.0</ele><time>2026-04-23T16:53:04.985Z</time></trkpt><trkpt lat="46.0239051" lon="10.3751554"><ele>1102.3333333333333</ele><time>2026-04-23T16:53:07.985Z</time></trkpt><trkpt lat="46.0239578" lon="10.3750697"><ele>1097.6666666666665</ele><time>2026-04-23T16:53:09.985Z</time></trkpt><trkpt lat="46.0240003" lon="10.3749869"><ele>1093.0</ele><time>2026-04-23T16:53:11.985Z</time></trkpt><trkpt lat="46.0241074" lon="10.3748979"><ele>1091.8333333333333</ele><time>2026-04-23T16:53:14.984Z</time></trkpt><trkpt lat="46.0241791" lon="10.3748469"><ele>1090.6666666666665</ele><time>2026-04-23T16:53:16.985Z</time></trkpt><trkpt lat="46.0242487" lon="10.374783"><ele>1089.5</ele><time>2026-04-23T16:53:18.985Z</time></trkpt><trkpt lat="46.0243115" lon="10.3747358"><ele>1088.3333333333333</ele><time>2026-04-23T16:53:20.985Z</time></trkpt><trkpt lat="46.0243977" lon="10.3746761"><ele>1087.1666666666667</ele><time>2026-04-23T16:53:22.985Z</time></trkpt><trkpt lat="46.0244551" lon="10.3745713"><ele>1086.0</ele><time>2026-04-23T16:53:24.985Z</time></trkpt><trkpt lat="46.0244575" lon="10.37446"><ele>1083.142857142857</ele><time>2026-04-23T16:53:26.984Z</time></trkpt><trkpt lat="46.024437" lon="10.3743616"><ele>1080.2857142857142</ele><time>2026-04-23T16:53:28.985Z</time></trkpt><trkpt lat="46.0244146" lon="10.3742707"><ele>1077.4285714285713</ele><time>2026-04-23T16:53:30.985Z</time></trkpt><trkpt lat="46.0243517" lon="10.3742218"><ele>1074.5714285714284</ele><time>2026-04-23T16:53:33.985Z</time></trkpt><trkpt lat="46.0243089" lon="10.374148"><ele>1071.7142857142856</ele><time>2026-04-23T16:53:46.985Z</time></trkpt><trkpt lat="46.0242389" lon="10.3741411"><ele>1068.857142857143</ele><time>2026-04-23T16:53:48.984Z</time></trkpt><trkpt lat="46.0241575" lon="10.3741255"><ele>1066.0</ele><time>2026-04-23T16:53:50.985Z</time></trkpt><trkpt lat="46.0240564" lon="10.3741046"><ele>1065.3333333333333</ele><time>2026-04-23T16:53:52.985Z</time></trkpt><trkpt lat="46.0239896" lon="10.3740971"><ele>1064.6666666666665</ele><time>2026-04-23T16:53:53.985Z</time></trkpt><trkpt lat="46.0238787" lon="10.3740837"><ele>1064.0</ele><time>2026-04-23T16:53:55.985Z</time></trkpt><trkpt lat="46.0238154" lon="10.3740807"><ele>1063.3333333333333</ele><time>2026-04-23T16:53:56.985Z</time></trkpt><trkpt lat="46.0236945" lon="10.3740634"><ele>1062.6666666666667</ele><time>2026-04-23T16:53:58.985Z</time></trkpt><trkpt lat="46.0236303" lon="10.3740457"><ele>1062.0</ele><time>2026-04-23T16:53:59.985Z</time></trkpt><trkpt lat="46.0235188" lon="10.3740081"><ele>1062.0</ele><time>2026-04-23T16:54:01.985Z</time></trkpt><trkpt lat="46.0234177" lon="10.3739898"><ele>1062.0</ele><time>2026-04-23T16:54:03.985Z</time></trkpt><trkpt lat="46.0233182" lon="10.373963"><ele>1062.0</ele><time>2026-04-23T16:54:05.985Z</time></trkpt><trkpt lat="46.0232291" lon="10.3739068"><ele>1062.0</ele><time>2026-04-23T16:54:07.985Z</time></trkpt><trkpt lat="46.0231579" lon="10.3738089"><ele>1062.0</ele><time>2026-04-23T16:54:10.984Z</time></trkpt><trkpt lat="46.0231332" lon="10.3736744"><ele>1058.8333333333333</ele><time>2026-04-23T16:54:12.985Z</time></trkpt><trkpt lat="46.0230784" lon="10.3735425"><ele>1055.6666666666667</ele><time>2026-04-23T16:54:14.985Z</time></trkpt><trkpt lat="46.0230844" lon="10.3734477"><ele>1052.5</ele><time>2026-04-23T16:54:16.985Z</time></trkpt><trkpt lat="46.0231342" lon="10.3733408"><ele>1049.3333333333335</ele><time>2026-04-23T16:54:18.984Z</time></trkpt><trkpt lat="46.0231679" lon="10.3732584"><ele>1046.1666666666667</ele><time>2026-04-23T16:54:19.984Z</time></trkpt><trkpt lat="46.0232051" lon="10.3731821"><ele>1043.0</ele><time>2026-04-23T16:54:20.985Z</time></trkpt><trkpt lat="46.0232451" lon="10.3730787"><ele>1041.5</ele><time>2026-04-23T16:54:21.985Z</time></trkpt><trkpt lat="46.0232722" lon="10.3729703"><ele>1040.0</ele><time>2026-04-23T16:54:22.985Z</time></trkpt><trkpt lat="46.0232967" lon="10.3728635"><ele>1038.5</ele><time>2026-04-23T16:54:23.985Z</time></trkpt><trkpt lat="46.023311" lon="10.3727669"><ele>1037.0</ele><time>2026-04-23T16:54:24.985Z</time></trkpt><trkpt lat="46.023315" lon="10.3726518"><ele>1035.5</ele><time>2026-04-23T16:54:25.985Z</time></trkpt><trkpt lat="46.023325" lon="10.3725358"><ele>1034.0</ele><time>2026-04-23T16:54:26.985Z</time></trkpt><trkpt lat="46.0233379" lon="10.3724098"><ele>1033.2</ele><time>2026-04-23T16:54:27.985Z</time></trkpt><trkpt lat="46.0233403" lon="10.3723168"><ele>1032.4</ele><time>2026-04-23T16:54:28.985Z</time></trkpt><trkpt lat="46.023338" lon="10.3721198"><ele>1031.6</ele><time>2026-04-23T16:54:30.984Z</time></trkpt><trkpt lat="46.0233219" lon="10.3719351"><ele>1030.8</ele><time>2026-04-23T16:54:32.985Z</time></trkpt><trkpt lat="46.023295" lon="10.3718519"><ele>1030.0</ele><time>2026-04-23T16:54:33.984Z</time></trkpt><trkpt lat="46.0232457" lon="10.3717091"><ele>1027.6</ele><time>2026-04-23T16:54:35.985Z</time></trkpt><trkpt lat="46.0231701" lon="10.3716008"><ele>1025.2</ele><time>2026-04-23T16:54:37.985Z</time></trkpt><trkpt lat="46.0231119" lon="10.3714915"><ele>1022.8</ele><time>2026-04-23T16:54:39.985Z</time></trkpt><trkpt lat="46.0230461" lon="10.3713569"><ele>1020.4</ele><time>2026-04-23T16:54:41.985Z</time></trkpt><trkpt lat="46.0229667" lon="10.3712485"><ele>1018.0</ele><time>2026-04-23T16:54:43.985Z</time></trkpt><trkpt lat="46.022979" lon="10.3710972"><ele>1014.0</ele><time>2026-04-23T16:54:46.985Z</time></trkpt><trkpt lat="46.0230142" lon="10.3709838"><ele>1010.0</ele><time>2026-04-23T16:55:06.984Z</time></trkpt><trkpt lat="46.0231017" lon="10.3709641"><ele>1006.0</ele><time>2026-04-23T16:55:07.985Z</time></trkpt><trkpt lat="46.0232174" lon="10.3709483"><ele>1002.0</ele><time>2026-04-23T16:55:09.985Z</time></trkpt><trkpt lat="46.0233338" lon="10.3709486"><ele>998.0</ele><time>2026-04-23T16:55:11.985Z</time></trkpt><trkpt lat="46.0234653" lon="10.3709535"><ele>996.3333333333334</ele><time>2026-04-23T16:55:13.985Z</time></trkpt><trkpt lat="46.023535" lon="10.3709588"><ele>994.6666666666667</ele><time>2026-04-23T16:55:14.985Z</time></trkpt><trkpt lat="46.0236193" lon="10.3709251"><ele>993.0</ele><time>2026-04-23T16:55:15.985Z</time></trkpt><trkpt lat="46.0236779" lon="10.3708897"><ele>991.3333333333333</ele><time>2026-04-23T16:55:16.985Z</time></trkpt><trkpt lat="46.0237526" lon="10.3708592"><ele>989.6666666666666</ele><time>2026-04-23T16:55:18.985Z</time></trkpt><trkpt lat="46.0238622" lon="10.3708302"><ele>988.0</ele><time>2026-04-23T16:55:20.985Z</time></trkpt><trkpt lat="46.0240121" lon="10.3708658"><ele>987.9999999999999</ele><time>2026-04-23T16:55:22.985Z</time></trkpt><trkpt lat="46.0240958" lon="10.3708733"><ele>988.0</ele><time>2026-04-23T16:55:23.985Z</time></trkpt><trkpt lat="46.0241846" lon="10.3708793"><ele>988.0</ele><time>2026-04-23T16:55:24.985Z</time></trkpt><trkpt lat="46.0242702" lon="10.3708735"><ele>988.0</ele><time>2026-04-23T16:55:25.985Z</time></trkpt><trkpt lat="46.0243649" lon="10.3708695"><ele>987.9999999999999</ele><time>2026-04-23T16:55:26.985Z</time></trkpt><trkpt lat="46.0244556" lon="10.3708651"><ele>988.0</ele><time>2026-04-23T16:55:27.985Z</time></trkpt><trkpt lat="46.0245439" lon="10.3708785"><ele>986.6666666666666</ele><time>2026-04-23T16:55:29.985Z</time></trkpt><trkpt lat="46.0246037" lon="10.3708388"><ele>985.3333333333333</ele><time>2026-04-23T16:55:31.985Z</time></trkpt><trkpt lat="46.0245849" lon="10.3706796"><ele>984.0</ele><time>2026-04-23T16:55:34.985Z</time></trkpt><trkpt lat="46.0245278" lon="10.3706013"><ele>982.6666666666667</ele><time>2026-04-23T16:55:35.985Z</time></trkpt><trkpt lat="46.0244943" lon="10.3705205"><ele>981.3333333333334</ele><time>2026-04-23T16:55:36.985Z</time></trkpt><trkpt lat="46.0244536" lon="10.3704313"><ele>980.0</ele><time>2026-04-23T16:55:37.985Z</time></trkpt><trkpt lat="46.0244176" lon="10.3703296"><ele>976.6666666666667</ele><time>2026-04-23T16:55:38.984Z</time></trkpt><trkpt lat="46.0243934" lon="10.3702047"><ele>973.3333333333334</ele><time>2026-04-23T16:55:39.985Z</time></trkpt><trkpt lat="46.024383" lon="10.3700784"><ele>970.0</ele><time>2026-04-23T16:55:40.985Z</time></trkpt><trkpt lat="46.0243774" lon="10.3699513"><ele>966.6666666666667</ele><time>2026-04-23T16:55:41.985Z</time></trkpt><trkpt lat="46.0243626" lon="10.3698212"><ele>963.3333333333334</ele><time>2026-04-23T16:55:42.985Z</time></trkpt><trkpt lat="46.0243435" lon="10.3697006"><ele>960.0</ele><time>2026-04-23T16:55:43.985Z</time></trkpt><trkpt lat="46.0243168" lon="10.3695935"><ele>958.5</ele><time>2026-04-23T16:55:44.985Z</time></trkpt><trkpt lat="46.0242856" lon="10.3695041"><ele>957.0</ele><time>2026-04-23T16:55:45.985Z</time></trkpt><trkpt lat="46.0242138" lon="10.369384"><ele>955.5</ele><time>2026-04-23T16:55:47.985Z</time></trkpt><trkpt lat="46.0241639" lon="10.3693285"><ele>954.0</ele><time>2026-04-23T16:55:48.984Z</time></trkpt><trkpt lat="46.024108" lon="10.3692807"><ele>952.5</ele><time>2026-04-23T16:55:49.985Z</time></trkpt><trkpt lat="46.0240423" lon="10.3692271"><ele>951.0</ele><time>2026-04-23T16:55:50.984Z</time></trkpt><trkpt lat="46.0239747" lon="10.3691657"><ele>950.1999999999999</ele><time>2026-04-23T16:55:51.985Z</time></trkpt><trkpt lat="46.0239016" lon="10.3691042"><ele>949.3999999999999</ele><time>2026-04-23T16:55:52.985Z</time></trkpt><trkpt lat="46.0238235" lon="10.3690352"><ele>948.6</ele><time>2026-04-23T16:55:53.985Z</time></trkpt><trkpt lat="46.0237438" lon="10.3689711"><ele>947.8</ele><time>2026-04-23T16:55:54.985Z</time></trkpt><trkpt lat="46.0236605" lon="10.3688986"><ele>947.0</ele><time>2026-04-23T16:55:55.985Z</time></trkpt><trkpt lat="46.0235688" lon="10.368813"><ele>944.5</ele><time>2026-04-23T16:55:56.985Z</time></trkpt><trkpt lat="46.0234685" lon="10.3687331"><ele>942.0</ele><time>2026-04-23T16:55:57.985Z</time></trkpt><trkpt lat="46.0233681" lon="10.3686517"><ele>939.5</ele><time>2026-04-23T16:55:58.985Z</time></trkpt><trkpt lat="46.0232591" lon="10.3685722"><ele>937.0</ele><time>2026-04-23T16:55:59.985Z</time></trkpt><trkpt lat="46.0231544" lon="10.3684961"><ele>936.0</ele><time>2026-04-23T16:56:00.984Z</time></trkpt><trkpt lat="46.0230461" lon="10.3684214"><ele>935.0</ele><time>2026-04-23T16:56:01.984Z</time></trkpt><trkpt lat="46.0229505" lon="10.3683663"><ele>934.0</ele><time>2026-04-23T16:56:02.985Z</time></trkpt><trkpt lat="46.0228577" lon="10.3683205"><ele>933.0</ele><time>2026-04-23T16:56:03.985Z</time></trkpt><trkpt lat="46.0227761" lon="10.3682413"><ele>932.0</ele><time>2026-04-23T16:56:04.985Z</time></trkpt><trkpt lat="46.0227133" lon="10.3681324"><ele>932.0000000000001</ele><time>2026-04-23T16:56:05.985Z</time></trkpt><trkpt lat="46.0226649" lon="10.3680464"><ele>932.0</ele><time>2026-04-23T16:56:06.985Z</time></trkpt><trkpt lat="46.0226206" lon="10.3679722"><ele>932.0</ele><time>2026-04-23T16:56:07.985Z</time></trkpt><trkpt lat="46.0226076" lon="10.367868"><ele>932.0</ele><time>2026-04-23T16:56:08.985Z</time></trkpt><trkpt lat="46.0226076" lon="10.367755"><ele>932.0000000000001</ele><time>2026-04-23T16:56:09.985Z</time></trkpt><trkpt lat="46.0226029" lon="10.3676411"><ele>932.0</ele><time>2026-04-23T16:56:10.985Z</time></trkpt><trkpt lat="46.0226046" lon="10.3675177"><ele>930.0000000000001</ele><time>2026-04-23T16:56:11.985Z</time></trkpt><trkpt lat="46.0226173" lon="10.3674087"><ele>928.0</ele><time>2026-04-23T16:56:12.985Z</time></trkpt><trkpt lat="46.0226495" lon="10.3673126"><ele>926.0</ele><time>2026-04-23T16:56:13.985Z</time></trkpt><trkpt lat="46.0226899" lon="10.36722"><ele>924.0</ele><time>2026-04-23T16:56:14.985Z</time></trkpt><trkpt lat="46.0227657" lon="10.367147"><ele>922.0000000000001</ele><time>2026-04-23T16:56:15.984Z</time></trkpt><trkpt lat="46.022826" lon="10.3670589"><ele>920.0</ele><time>2026-04-23T16:56:16.985Z</time></trkpt><trkpt lat="46.0228885" lon="10.3669781"><ele>918.8</ele><time>2026-04-23T16:56:17.985Z</time></trkpt><trkpt lat="46.0229424" lon="10.3669232"><ele>917.6</ele><time>2026-04-23T16:56:18.985Z</time></trkpt><trkpt lat="46.0230229" lon="10.36683"><ele>916.4000000000001</ele><time>2026-04-23T16:56:20.985Z</time></trkpt><trkpt lat="46.0230706" lon="10.3666579"><ele>915.2</ele><time>2026-04-23T16:56:22.985Z</time></trkpt><trkpt lat="46.0231216" lon="10.3665799"><ele>914.0</ele><time>2026-04-23T16:56:23.985Z</time></trkpt><trkpt lat="46.0231958" lon="10.3665387"><ele>914.0</ele><time>2026-04-23T16:56:24.985Z</time></trkpt><trkpt lat="46.0232823" lon="10.3665399"><ele>914.0000000000001</ele><time>2026-04-23T16:56:25.985Z</time></trkpt><trkpt lat="46.0233739" lon="10.366551"><ele>914.0000000000001</ele><time>2026-04-23T16:56:26.985Z</time></trkpt><trkpt lat="46.0234715" lon="10.3665608"><ele>914.0</ele><time>2026-04-23T16:56:27.985Z</time></trkpt><trkpt lat="46.0235726" lon="10.3665743"><ele>914.0</ele><time>2026-04-23T16:56:28.985Z</time></trkpt><trkpt lat="46.0236772" lon="10.3665915"><ele>913.0</ele><time>2026-04-23T16:56:29.985Z</time></trkpt><trkpt lat="46.0237852" lon="10.3666178"><ele>912.0</ele><time>2026-04-23T16:56:30.985Z</time></trkpt><trkpt lat="46.0238968" lon="10.3666223"><ele>911.0</ele><time>2026-04-23T16:56:31.985Z</time></trkpt><trkpt lat="46.0240118" lon="10.36663"><ele>910.0</ele><time>2026-04-23T16:56:32.985Z</time></trkpt><trkpt lat="46.0241274" lon="10.3666343"><ele>907.0</ele><time>2026-04-23T16:56:33.985Z</time></trkpt><trkpt lat="46.0242422" lon="10.3666315"><ele>904.0</ele><time>2026-04-23T16:56:34.985Z</time></trkpt><trkpt lat="46.0243502" lon="10.366637"><ele>901.0</ele><time>2026-04-23T16:56:35.985Z</time></trkpt><trkpt lat="46.024464" lon="10.3666373"><ele>898.0</ele><time>2026-04-23T16:56:36.985Z</time></trkpt><trkpt lat="46.0245788" lon="10.3666236"><ele>898.0</ele><time>2026-04-23T16:56:37.985Z</time></trkpt><trkpt lat="46.024693" lon="10.3665867"><ele>898.0</ele><time>2026-04-23T16:56:38.985Z</time></trkpt><trkpt lat="46.0248111" lon="10.366551"><ele>898.0</ele><time>2026-04-23T16:56:39.985Z</time></trkpt><trkpt lat="46.0249299" lon="10.3665179"><ele>898.0</ele><time>2026-04-23T16:56:40.985Z</time></trkpt><trkpt lat="46.0250545" lon="10.3664714"><ele>898.5</ele><time>2026-04-23T16:56:41.985Z</time></trkpt><trkpt lat="46.0251798" lon="10.3664425"><ele>899.0</ele><time>2026-04-23T16:56:42.985Z</time></trkpt><trkpt lat="46.025304" lon="10.3664169"><ele>899.5</ele><time>2026-04-23T16:56:43.985Z</time></trkpt><trkpt lat="46.0254307" lon="10.3663811"><ele>900.0</ele><time>2026-04-23T16:56:44.984Z</time></trkpt><trkpt lat="46.0255643" lon="10.3663679"><ele>896.0</ele><time>2026-04-23T16:56:45.985Z</time></trkpt><trkpt lat="46.0256885" lon="10.3663461"><ele>892.0</ele><time>2026-04-23T16:56:46.985Z</time></trkpt><trkpt lat="46.0257924" lon="10.3663273"><ele>888.0</ele><time>2026-04-23T16:56:47.985Z</time></trkpt><trkpt lat="46.0258812" lon="10.3663008"><ele>884.0</ele><time>2026-04-23T16:56:48.985Z</time></trkpt><trkpt lat="46.0259579" lon="10.3662395"><ele>880.0</ele><time>2026-04-23T16:56:49.985Z</time></trkpt><trkpt lat="46.0260273" lon="10.3661801"><ele>879.9999999999999</ele><time>2026-04-23T16:56:50.985Z</time></trkpt><trkpt lat="46.026016" lon="10.3660555"><ele>880.0</ele><time>2026-04-23T16:56:51.984Z</time></trkpt><trkpt lat="46.0259838" lon="10.3659461"><ele>880.0</ele><time>2026-04-23T16:56:52.985Z</time></trkpt><trkpt lat="46.0259365" lon="10.3658637"><ele>880.0</ele><time>2026-04-23T16:56:53.985Z</time></trkpt><trkpt lat="46.0258678" lon="10.365822"><ele>879.9999999999999</ele><time>2026-04-23T16:56:54.985Z</time></trkpt><trkpt lat="46.0257647" lon="10.3657774"><ele>880.0</ele><time>2026-04-23T16:56:55.984Z</time></trkpt><trkpt lat="46.0256803" lon="10.3657227"><ele>879.4999999999999</ele><time>2026-04-23T16:56:56.984Z</time></trkpt><trkpt lat="46.0255989" lon="10.3656661"><ele>879.0</ele><time>2026-04-23T16:56:57.985Z</time></trkpt><trkpt lat="46.0255084" lon="10.3656034"><ele>878.5</ele><time>2026-04-23T16:56:58.985Z</time></trkpt><trkpt lat="46.0254214" lon="10.3655624"><ele>878.0</ele><time>2026-04-23T16:56:59.985Z</time></trkpt><trkpt lat="46.025343" lon="10.3655419"><ele>877.4999999999999</ele><time>2026-04-23T16:57:00.985Z</time></trkpt><trkpt lat="46.0252649" lon="10.3655548"><ele>877.0</ele><time>2026-04-23T16:57:01.984Z</time></trkpt><trkpt lat="46.0251598" lon="10.3655314"><ele>873.9999999999999</ele><time>2026-04-23T16:57:03.985Z</time></trkpt><trkpt lat="46.0250529" lon="10.3654858"><ele>871.0</ele><time>2026-04-23T16:57:05.984Z</time></trkpt><trkpt lat="46.0249856" lon="10.3654684"><ele>868.0</ele><time>2026-04-23T16:57:06.985Z</time></trkpt><trkpt lat="46.0249134" lon="10.3654599"><ele>865.0</ele><time>2026-04-23T16:57:07.985Z</time></trkpt><trkpt lat="46.0248331" lon="10.3654696"><ele>861.9999999999999</ele><time>2026-04-23T16:57:09.985Z</time></trkpt><trkpt lat="46.0248227" lon="10.3653108"><ele>859.0</ele><time>2026-04-23T16:57:16.984Z</time></trkpt><trkpt lat="46.0247983" lon="10.3651806"><ele>859.0</ele><time>2026-04-23T16:57:17.985Z</time></trkpt><trkpt lat="46.0247946" lon="10.3650524"><ele>859.0000000000001</ele><time>2026-04-23T16:57:19.985Z</time></trkpt><trkpt lat="46.0248827" lon="10.3650595"><ele>859.0000000000001</ele><time>2026-04-23T16:57:22.985Z</time></trkpt><trkpt lat="46.0249661" lon="10.3650023"><ele>859.0</ele><time>2026-04-23T16:57:24.985Z</time></trkpt><trkpt lat="46.0250499" lon="10.364923"><ele>859.0</ele><time>2026-04-23T16:57:26.985Z</time></trkpt><trkpt lat="46.025098" lon="10.3648218"><ele>858.9999999999999</ele><time>2026-04-23T16:57:28.985Z</time></trkpt><trkpt lat="46.0251386" lon="10.3647385"><ele>859.0</ele><time>2026-04-23T16:57:30.985Z</time></trkpt><trkpt lat="46.0251698" lon="10.3646326"><ele>859.0</ele><time>2026-04-23T16:57:32.985Z</time></trkpt><trkpt lat="46.0252146" lon="10.3644933"><ele>859.0</ele><time>2026-04-23T16:57:34.985Z</time></trkpt><trkpt lat="46.0252555" lon="10.3644172"><ele>858.9999999999999</ele><time>2026-04-23T16:57:35.985Z</time></trkpt><trkpt lat="46.0252975" lon="10.3643406"><ele>859.0</ele><time>2026-04-23T16:57:36.985Z</time></trkpt><trkpt lat="46.0253386" lon="10.3642698"><ele>852.6666666666666</ele><time>2026-04-23T16:57:37.984Z</time></trkpt><trkpt lat="46.0253846" lon="10.3641885"><ele>846.3333333333333</ele><time>2026-04-23T16:57:38.984Z</time></trkpt><trkpt lat="46.0254455" lon="10.3640947"><ele>840.0</ele><time>2026-04-23T16:57:39.985Z</time></trkpt><trkpt lat="46.0255083" lon="10.3639984"><ele>833.6666666666667</ele><time>2026-04-23T16:57:40.985Z</time></trkpt><trkpt lat="46.0255699" lon="10.3639077"><ele>827.3333333333334</ele><time>2026-04-23T16:57:41.985Z</time></trkpt><trkpt lat="46.0256265" lon="10.3638269"><ele>821.0</ele><time>2026-04-23T16:57:42.985Z</time></trkpt><trkpt lat="46.0256851" lon="10.363754"><ele>818.0000000000001</ele><time>2026-04-23T16:57:43.985Z</time></trkpt><trkpt lat="46.0257437" lon="10.3637072"><ele>815.0</ele><time>2026-04-23T16:57:44.985Z</time></trkpt><trkpt lat="46.0258328" lon="10.3636037"><ele>812.0</ele><time>2026-04-23T16:57:46.985Z</time></trkpt><trkpt lat="46.0258951" lon="10.3635128"><ele>809.0</ele><time>2026-04-23T16:57:48.985Z</time></trkpt><trkpt lat="46.0259399" lon="10.3634473"><ele>806.0000000000001</ele><time>2026-04-23T16:57:49.985Z</time></trkpt><trkpt lat="46.0259852" lon="10.3633794"><ele>803.0</ele><time>2026-04-23T16:57:50.985Z</time></trkpt><trkpt lat="46.02604" lon="10.3632883"><ele>803.0000000000001</ele><time>2026-04-23T16:57:51.985Z</time></trkpt><trkpt lat="46.0260987" lon="10.3632052"><ele>803.0</ele><time>2026-04-23T16:57:52.985Z</time></trkpt><trkpt lat="46.026153" lon="10.3631236"><ele>803.0</ele><time>2026-04-23T16:57:53.985Z</time></trkpt><trkpt lat="46.0262042" lon="10.363047"><ele>803.0</ele><time>2026-04-23T16:57:54.985Z</time></trkpt><trkpt lat="46.0262499" lon="10.3629699"><ele>803.0000000000001</ele><time>2026-04-23T16:57:55.985Z</time></trkpt><trkpt lat="46.0262961" lon="10.362892"><ele>803.0</ele><time>2026-04-23T16:57:56.985Z</time></trkpt><trkpt lat="46.0263675" lon="10.3627668"><ele>798.5999999999999</ele><time>2026-04-23T16:57:58.985Z</time></trkpt><trkpt lat="46.0264307" lon="10.3626652"><ele>794.1999999999999</ele><time>2026-04-23T16:58:00.985Z</time></trkpt><trkpt lat="46.0265174" lon="10.3626178"><ele>789.8</ele><time>2026-04-23T16:58:02.985Z</time></trkpt><trkpt lat="46.0266371" lon="10.362532"><ele>785.4</ele><time>2026-04-23T16:58:04.985Z</time></trkpt><trkpt lat="46.0267022" lon="10.3624832"><ele>781.0</ele><time>2026-04-23T16:58:05.985Z</time></trkpt><trkpt lat="46.0267669" lon="10.3624189"><ele>781.0</ele><time>2026-04-23T16:58:06.984Z</time></trkpt><trkpt lat="46.0268377" lon="10.3623489"><ele>781.0</ele><time>2026-04-23T16:58:08.985Z</time></trkpt><trkpt lat="46.0268846" lon="10.3622812"><ele>781.0</ele><time>2026-04-23T16:58:10.984Z</time></trkpt><trkpt lat="46.0269749" lon="10.3621784"><ele>781.0</ele><time>2026-04-23T16:58:12.985Z</time></trkpt><trkpt lat="46.0270787" lon="10.3621054"><ele>781.0</ele><time>2026-04-23T16:58:14.985Z</time></trkpt><trkpt lat="46.0271211" lon="10.3620265"><ele>778.5999999999999</ele><time>2026-04-23T16:58:16.985Z</time></trkpt><trkpt lat="46.0270772" lon="10.3619215"><ele>776.2</ele><time>2026-04-23T16:58:18.984Z</time></trkpt><trkpt lat="46.027013" lon="10.3617946"><ele>773.8</ele><time>2026-04-23T16:58:20.985Z</time></trkpt><trkpt lat="46.0269985" lon="10.3616215"><ele>771.4000000000001</ele><time>2026-04-23T16:58:22.985Z</time></trkpt><trkpt lat="46.0270052" lon="10.36152"><ele>769.0</ele><time>2026-04-23T16:58:23.985Z</time></trkpt><trkpt lat="46.027017" lon="10.3614176"><ele>767.9999999999999</ele><time>2026-04-23T16:58:24.985Z</time></trkpt><trkpt lat="46.0270241" lon="10.3613071"><ele>767.0</ele><time>2026-04-23T16:58:25.985Z</time></trkpt><trkpt lat="46.0270285" lon="10.3612152"><ele>766.0</ele><time>2026-04-23T16:58:26.984Z</time></trkpt><trkpt lat="46.0270233" lon="10.3610918"><ele>765.0</ele><time>2026-04-23T16:58:27.985Z</time></trkpt><trkpt lat="46.0270104" lon="10.3609536"><ele>764.0</ele><time>2026-04-23T16:58:28.985Z</time></trkpt><trkpt lat="46.0270001" lon="10.3608268"><ele>763.0</ele><time>2026-04-23T16:58:29.985Z</time></trkpt><trkpt lat="46.0269774" lon="10.3606926"><ele>763.0</ele><time>2026-04-23T16:58:30.985Z</time></trkpt><trkpt lat="46.0269478" lon="10.3605587"><ele>763.0</ele><time>2026-04-23T16:58:31.985Z</time></trkpt><trkpt lat="46.0269297" lon="10.3604476"><ele>763.0</ele><time>2026-04-23T16:58:32.984Z</time></trkpt><trkpt lat="46.0269229" lon="10.3603269"><ele>763.0</ele><time>2026-04-23T16:58:33.984Z</time></trkpt><trkpt lat="46.0269138" lon="10.3601703"><ele>763.0</ele><time>2026-04-23T16:58:34.985Z</time></trkpt><trkpt lat="46.0269138" lon="10.3600614"><ele>763.0</ele><time>2026-04-23T16:58:35.985Z</time></trkpt><trkpt lat="46.0269178" lon="10.3599704"><ele>762.1666666666667</ele><time>2026-04-23T16:58:36.985Z</time></trkpt><trkpt lat="46.0269406" lon="10.3598853"><ele>761.3333333333334</ele><time>2026-04-23T16:58:37.985Z</time></trkpt><trkpt lat="46.0269803" lon="10.3597949"><ele>760.5</ele><time>2026-04-23T16:58:38.985Z</time></trkpt><trkpt lat="46.027022" lon="10.3597198"><ele>759.6666666666666</ele><time>2026-04-23T16:58:39.985Z</time></trkpt><trkpt lat="46.027075" lon="10.3596255"><ele>758.8333333333333</ele><time>2026-04-23T16:58:41.985Z</time></trkpt><trkpt lat="46.0270688" lon="10.3594916"><ele>758.0</ele><time>2026-04-23T16:58:43.985Z</time></trkpt><trkpt lat="46.0270917" lon="10.3593621"><ele>758.0</ele><time>2026-04-23T16:58:45.985Z</time></trkpt><trkpt lat="46.0271485" lon="10.3592543"><ele>758.0</ele><time>2026-04-23T16:58:47.985Z</time></trkpt><trkpt lat="46.0272404" lon="10.3591889"><ele>758.0</ele><time>2026-04-23T16:58:50.985Z</time></trkpt><trkpt lat="46.0273516" lon="10.359166"><ele>758.0</ele><time>2026-04-23T16:58:52.985Z</time></trkpt><trkpt lat="46.027416" lon="10.3591519"><ele>758.0</ele><time>2026-04-23T16:58:53.985Z</time></trkpt><trkpt lat="46.0274882" lon="10.3591237"><ele>758.0</ele><time>2026-04-23T16:58:54.985Z</time></trkpt><trkpt lat="46.0275663" lon="10.3590881"><ele>755.0</ele><time>2026-04-23T16:58:55.985Z</time></trkpt><trkpt lat="46.0276442" lon="10.3590443"><ele>752.0</ele><time>2026-04-23T16:58:56.985Z</time></trkpt><trkpt lat="46.0277234" lon="10.3589816"><ele>749.0</ele><time>2026-04-23T16:58:57.985Z</time></trkpt><trkpt lat="46.0277998" lon="10.3589145"><ele>746.0</ele><time>2026-04-23T16:58:58.985Z</time></trkpt><trkpt lat="46.0278732" lon="10.3588435"><ele>743.0</ele><time>2026-04-23T16:58:59.984Z</time></trkpt><trkpt lat="46.0279435" lon="10.3587785"><ele>740.0</ele><time>2026-04-23T16:59:00.985Z</time></trkpt><trkpt lat="46.028002" lon="10.3587025"><ele>740.0</ele><time>2026-04-23T16:59:01.985Z</time></trkpt><trkpt lat="46.0280134" lon="10.3586026"><ele>740.0</ele><time>2026-04-23T16:59:02.985Z</time></trkpt><trkpt lat="46.0280496" lon="10.3584381"><ele>740.0</ele><time>2026-04-23T16:59:04.985Z</time></trkpt><trkpt lat="46.0280742" lon="10.3583511"><ele>740.0</ele><time>2026-04-23T16:59:05.985Z</time></trkpt><trkpt lat="46.0281117" lon="10.3582723"><ele>740.0</ele><time>2026-04-23T16:59:06.985Z</time></trkpt><trkpt lat="46.028193" lon="10.3581456"><ele>740.0</ele><time>2026-04-23T16:59:08.985Z</time></trkpt><trkpt lat="46.0282673" lon="10.3580475"><ele>739.0</ele><time>2026-04-23T16:59:10.985Z</time></trkpt><trkpt lat="46.0283097" lon="10.3578988"><ele>738.0</ele><time>2026-04-23T16:59:12.985Z</time></trkpt><trkpt lat="46.0283818" lon="10.3578345"><ele>737.0</ele><time>2026-04-23T16:59:14.985Z</time></trkpt><trkpt lat="46.0283746" lon="10.3577275"><ele>736.0</ele><time>2026-04-23T16:59:16.985Z</time></trkpt><trkpt lat="46.0283516" lon="10.3575978"><ele>735.0</ele><time>2026-04-23T16:59:18.985Z</time></trkpt><trkpt lat="46.0283568" lon="10.3575017"><ele>734.0</ele><time>2026-04-23T16:59:20.985Z</time></trkpt><trkpt lat="46.0283693" lon="10.3573969"><ele>728.4000000000001</ele><time>2026-04-23T16:59:22.985Z</time></trkpt><trkpt lat="46.0283901" lon="10.3572998"><ele>722.8</ele><time>2026-04-23T16:59:23.985Z</time></trkpt><trkpt lat="46.0282676" lon="10.3571609"><ele>717.2</ele><time>2026-04-23T16:59:25.985Z</time></trkpt><trkpt lat="46.0282482" lon="10.3570154"><ele>711.5999999999999</ele><time>2026-04-23T16:59:27.985Z</time></trkpt><trkpt lat="46.0282473" lon="10.356868"><ele>706.0</ele><time>2026-04-23T16:59:30.985Z</time></trkpt><trkpt lat="46.0281919" lon="10.3567564"><ele>706.0</ele><time>2026-04-23T16:59:31.984Z</time></trkpt><trkpt lat="46.0281442" lon="10.3566158"><ele>706.0</ele><time>2026-04-23T16:59:33.985Z</time></trkpt><trkpt lat="46.0281294" lon="10.3564268"><ele>706.0</ele><time>2026-04-23T16:59:35.985Z</time></trkpt><trkpt lat="46.0280665" lon="10.3563105"><ele>706.0</ele><time>2026-04-23T16:59:37.984Z</time></trkpt><trkpt lat="46.0279724" lon="10.3562543"><ele>706.0</ele><time>2026-04-23T16:59:39.985Z</time></trkpt><trkpt lat="46.0279088" lon="10.3562339"><ele>702.3333333333334</ele><time>2026-04-23T16:59:40.985Z</time></trkpt><trkpt lat="46.0277906" lon="10.3561863"><ele>698.6666666666667</ele><time>2026-04-23T16:59:42.985Z</time></trkpt><trkpt lat="46.0277136" lon="10.3561754"><ele>695.0</ele><time>2026-04-23T16:59:43.985Z</time></trkpt><trkpt lat="46.0276458" lon="10.3561557"><ele>691.3333333333334</ele><time>2026-04-23T16:59:44.985Z</time></trkpt><trkpt lat="46.0275769" lon="10.3561241"><ele>687.6666666666666</ele><time>2026-04-23T16:59:45.985Z</time></trkpt><trkpt lat="46.0275096" lon="10.3560897"><ele>684.0</ele><time>2026-04-23T16:59:46.985Z</time></trkpt><trkpt lat="46.0274553" lon="10.3560207"><ele>684.0</ele><time>2026-04-23T16:59:47.985Z</time></trkpt><trkpt lat="46.0273971" lon="10.3559077"><ele>684.0</ele><time>2026-04-23T16:59:49.985Z</time></trkpt><trkpt lat="46.0273336" lon="10.3557667"><ele>684.0</ele><time>2026-04-23T16:59:51.985Z</time></trkpt><trkpt lat="46.0272803" lon="10.3556403"><ele>684.0</ele><time>2026-04-23T16:59:53.985Z</time></trkpt><trkpt lat="46.0271788" lon="10.3555792"><ele>684.0</ele><time>2026-04-23T16:59:55.984Z</time></trkpt><trkpt lat="46.0270483" lon="10.3555287"><ele>679.2</ele><time>2026-04-23T16:59:57.985Z</time></trkpt><trkpt lat="46.0269482" lon="10.3554928"><ele>674.4000000000001</ele><time>2026-04-23T16:59:59.985Z</time></trkpt><trkpt lat="46.0268267" lon="10.3554095"><ele>669.6</ele><time>2026-04-23T17:00:01.985Z</time></trkpt><trkpt lat="46.0267638" lon="10.3554017"><ele>664.8</ele><time>2026-04-23T17:00:02.985Z</time></trkpt><trkpt lat="46.0266873" lon="10.3553943"><ele>660.0</ele><time>2026-04-23T17:00:03.985Z</time></trkpt><trkpt lat="46.0265893" lon="10.3553544"><ele>660.0</ele><time>2026-04-23T17:00:04.985Z</time></trkpt><trkpt lat="46.0265107" lon="10.3552921"><ele>660.0</ele><time>2026-04-23T17:00:05.985Z</time></trkpt><trkpt lat="46.0264509" lon="10.3552063"><ele>660.0</ele><time>2026-04-23T17:00:06.985Z</time></trkpt><trkpt lat="46.0263908" lon="10.3550938"><ele>660.0</ele><time>2026-04-23T17:00:07.985Z</time></trkpt><trkpt lat="46.0263179" lon="10.35503"><ele>660.0</ele><time>2026-04-23T17:00:08.985Z</time></trkpt><trkpt lat="46.0262434" lon="10.354978"><ele>660.0</ele><time>2026-04-23T17:00:09.985Z</time></trkpt><trkpt lat="46.0261711" lon="10.3549196"><ele>660.0</ele><time>2026-04-23T17:00:10.985Z</time></trkpt><trkpt lat="46.0260834" lon="10.3548769"><ele>660.0</ele><time>2026-04-23T17:00:11.984Z</time></trkpt><trkpt lat="46.0260059" lon="10.3548351"><ele>660.0</ele><time>2026-04-23T17:00:12.985Z</time></trkpt><trkpt lat="46.0259343" lon="10.3548041"><ele>660.0</ele><time>2026-04-23T17:00:13.985Z</time></trkpt><trkpt lat="46.0258297" lon="10.3547534"><ele>660.0</ele><time>2026-04-23T17:00:15.984Z</time></trkpt><trkpt lat="46.0257366" lon="10.3547407"><ele>655.5</ele><time>2026-04-23T17:00:17.985Z</time></trkpt><trkpt lat="46.0256138" lon="10.3546018"><ele>651.0</ele><time>2026-04-23T17:00:19.985Z</time></trkpt><trkpt lat="46.0255596" lon="10.3545508"><ele>646.5</ele><time>2026-04-23T17:00:20.985Z</time></trkpt><trkpt lat="46.0254929" lon="10.3545129"><ele>642.0</ele><time>2026-04-23T17:00:21.985Z</time></trkpt><trkpt lat="46.0254197" lon="10.3544999"><ele>637.5</ele><time>2026-04-23T17:00:22.985Z</time></trkpt><trkpt lat="46.0253517" lon="10.3544675"><ele>633.0</ele><time>2026-04-23T17:00:23.985Z</time></trkpt><trkpt lat="46.0252764" lon="10.354438"><ele>633.0</ele><time>2026-04-23T17:00:24.985Z</time></trkpt><trkpt lat="46.0251763" lon="10.3543979"><ele>633.0</ele><time>2026-04-23T17:00:25.985Z</time></trkpt><trkpt lat="46.0251047" lon="10.3543573"><ele>633.0</ele><time>2026-04-23T17:00:26.985Z</time></trkpt><trkpt lat="46.0250395" lon="10.3543281"><ele>633.0</ele><time>2026-04-23T17:00:27.985Z</time></trkpt><trkpt lat="46.024913" lon="10.3543386"><ele>633.0</ele><time>2026-04-23T17:00:29.985Z</time></trkpt><trkpt lat="46.0248395" lon="10.3543512"><ele>632.0</ele><time>2026-04-23T17:00:30.985Z</time></trkpt><trkpt lat="46.0247434" lon="10.3543629"><ele>631.0</ele><time>2026-04-23T17:00:32.985Z</time></trkpt><trkpt lat="46.0246725" lon="10.3544227"><ele>630.0</ele><time>2026-04-23T17:00:34.985Z</time></trkpt><trkpt lat="46.0246211" lon="10.3544898"><ele>629.0</ele><time>2026-04-23T17:00:38.985Z</time></trkpt><trkpt lat="46.0245686" lon="10.3545869"><ele>628.0</ele><time>2026-04-23T17:00:43.985Z</time></trkpt><trkpt lat="46.0244947" lon="10.3546507"><ele>627.0</ele><time>2026-04-23T17:00:45.985Z</time></trkpt><trkpt lat="46.0244463" lon="10.3547437"><ele>631.8333333333334</ele><time>2026-04-23T17:00:46.985Z</time></trkpt><trkpt lat="46.0243679" lon="10.3547661"><ele>636.6666666666666</ele><time>2026-04-23T17:00:48.985Z</time></trkpt><trkpt lat="46.0242946" lon="10.3547774"><ele>641.5</ele><time>2026-04-23T17:00:50.984Z</time></trkpt><trkpt lat="46.0242086" lon="10.3548269"><ele>646.3333333333333</ele><time>2026-04-23T17:00:52.985Z</time></trkpt><trkpt lat="46.024138" lon="10.3548359"><ele>651.1666666666666</ele><time>2026-04-23T17:00:54.985Z</time></trkpt><trkpt lat="46.0240433" lon="10.3547932"><ele>656.0</ele><time>2026-04-23T17:00:56.985Z</time></trkpt><trkpt lat="46.02396" lon="10.3548048"><ele>656.0</ele><time>2026-04-23T17:00:59.985Z</time></trkpt><trkpt lat="46.023868" lon="10.3547925"><ele>656.0</ele><time>2026-04-23T17:01:02.984Z</time></trkpt><trkpt lat="46.0237922" lon="10.3547595"><ele>656.0</ele><time>2026-04-23T17:01:04.985Z</time></trkpt><trkpt lat="46.0237181" lon="10.3547527"><ele>656.0</ele><time>2026-04-23T17:01:07.985Z</time></trkpt><trkpt lat="46.0236502" lon="10.3547528"><ele>656.0</ele><time>2026-04-23T17:01:10.985Z</time></trkpt><trkpt lat="46.0235769" lon="10.3547767"><ele>656.0</ele><time>2026-04-23T17:01:14.985Z</time></trkpt><trkpt lat="46.0235021" lon="10.3548033"><ele>656.0</ele><time>2026-04-23T17:01:17.985Z</time></trkpt><trkpt lat="46.0234265" lon="10.3548489"><ele>656.0</ele><time>2026-04-23T17:01:20.985Z</time></trkpt><trkpt lat="46.023336" lon="10.3549077"><ele>656.0</ele><time>2026-04-23T17:01:25.985Z</time></trkpt><trkpt lat="46.0232905" lon="10.3550159"><ele>656.0</ele><time>2026-04-23T17:01:28.985Z</time></trkpt><trkpt lat="46.0232246" lon="10.3550964"><ele>656.0</ele><time>2026-04-23T17:01:31.985Z</time></trkpt><trkpt lat="46.0231817" lon="10.3551848"><ele>656.0</ele><time>2026-04-23T17:01:33.985Z</time></trkpt><trkpt lat="46.0231411" lon="10.3552731"><ele>657.3333333333333</ele><time>2026-04-23T17:01:35.985Z</time></trkpt><trkpt lat="46.0230788" lon="10.3553311"><ele>658.6666666666666</ele><time>2026-04-23T17:01:37.985Z</time></trkpt><trkpt lat="46.0230078" lon="10.3553985"><ele>660.0</ele><time>2026-04-23T17:01:39.985Z</time></trkpt><trkpt lat="46.0229464" lon="10.3554698"><ele>661.3333333333334</ele><time>2026-04-23T17:01:41.985Z</time></trkpt><trkpt lat="46.0229034" lon="10.3555493"><ele>662.6666666666667</ele><time>2026-04-23T17:01:43.985Z</time></trkpt><trkpt lat="46.0228495" lon="10.3556445"><ele>664.0</ele><time>2026-04-23T17:01:45.985Z</time></trkpt><trkpt lat="46.0227906" lon="10.3557362"><ele>664.0</ele><time>2026-04-23T17:01:47.985Z</time></trkpt><trkpt lat="46.0227564" lon="10.3558484"><ele>664.0</ele><time>2026-04-23T17:01:49.985Z</time></trkpt><trkpt lat="46.0227083" lon="10.3559527"><ele>664.0</ele><time>2026-04-23T17:01:51.985Z</time></trkpt><trkpt lat="46.0226456" lon="10.3560204"><ele>664.0</ele><time>2026-04-23T17:01:53.985Z</time></trkpt><trkpt lat="46.0225789" lon="10.3560732"><ele>664.0</ele><time>2026-04-23T17:01:55.985Z</time></trkpt><trkpt lat="46.0225133" lon="10.3561069"><ele>664.0</ele><time>2026-04-23T17:01:57.984Z</time></trkpt><trkpt lat="46.0224278" lon="10.3561533"><ele>664.0</ele><time>2026-04-23T17:01:59.985Z</time></trkpt><trkpt lat="46.0223588" lon="10.3562193"><ele>664.0</ele><time>2026-04-23T17:02:01.985Z</time></trkpt><trkpt lat="46.0222944" lon="10.3562795"><ele>664.0</ele><time>2026-04-23T17:02:04.985Z</time></trkpt><trkpt lat="46.0223495" lon="10.3561274"><ele>664.0</ele><time>2026-04-23T17:02:10.985Z</time></trkpt><trkpt lat="46.0224392" lon="10.356031"><ele>664.0</ele><time>2026-04-23T17:02:12.985Z</time></trkpt><trkpt lat="46.0225798" lon="10.3559535"><ele>664.0</ele><time>2026-04-23T17:02:14.985Z</time></trkpt><trkpt lat="46.0226338" lon="10.3558807"><ele>664.0</ele><time>2026-04-23T17:02:15.985Z</time></trkpt><trkpt lat="46.0226901" lon="10.3557898"><ele>664.0</ele><time>2026-04-23T17:02:16.985Z</time></trkpt><trkpt lat="46.0227268" lon="10.3556788"><ele>664.0</ele><time>2026-04-23T17:02:17.985Z</time></trkpt><trkpt lat="46.0227866" lon="10.3555886"><ele>664.0</ele><time>2026-04-23T17:02:18.985Z</time></trkpt><trkpt lat="46.0228361" lon="10.3554924"><ele>664.0</ele><time>2026-04-23T17:02:19.985Z</time></trkpt><trkpt lat="46.022891" lon="10.3553984"><ele>659.8000000000001</ele><time>2026-04-23T17:02:20.985Z</time></trkpt><trkpt lat="46.0229644" lon="10.3553045"><ele>655.6</ele><time>2026-04-23T17:02:21.985Z</time></trkpt><trkpt lat="46.0230515" lon="10.3552244"><ele>651.4</ele><time>2026-04-23T17:02:22.985Z</time></trkpt><trkpt lat="46.0231259" lon="10.3551327"><ele>647.2</ele><time>2026-04-23T17:02:23.985Z</time></trkpt><trkpt lat="46.023187" lon="10.3550097"><ele>643.0</ele><time>2026-04-23T17:02:24.985Z</time></trkpt><trkpt lat="46.0232301" lon="10.354926"><ele>643.0</ele><time>2026-04-23T17:02:25.985Z</time></trkpt><trkpt lat="46.0232734" lon="10.3548518"><ele>643.0</ele><time>2026-04-23T17:02:26.985Z</time></trkpt><trkpt lat="46.0233475" lon="10.3547273"><ele>643.0</ele><time>2026-04-23T17:02:28.985Z</time></trkpt><trkpt lat="46.0233973" lon="10.3546261"><ele>643.0</ele><time>2026-04-23T17:02:30.984Z</time></trkpt><trkpt lat="46.0233478" lon="10.3545294"><ele>643.0</ele><time>2026-04-23T17:02:33.985Z</time></trkpt><trkpt lat="46.0232361" lon="10.354535"><ele>638.0</ele><time>2026-04-23T17:02:35.984Z</time></trkpt><trkpt lat="46.0231588" lon="10.3545832"><ele>633.0</ele><time>2026-04-23T17:02:36.985Z</time></trkpt><trkpt lat="46.0230928" lon="10.3546057"><ele>628.0</ele><time>2026-04-23T17:02:37.985Z</time></trkpt><trkpt lat="46.0230104" lon="10.3546064"><ele>623.0</ele><time>2026-04-23T17:02:38.985Z</time></trkpt><trkpt lat="46.022916" lon="10.354586"><ele>618.0</ele><time>2026-04-23T17:02:39.984Z</time></trkpt><trkpt lat="46.0228302" lon="10.3545752"><ele>613.0</ele><time>2026-04-23T17:02:40.985Z</time></trkpt><trkpt lat="46.0227385" lon="10.3545694"><ele>613.0</ele><time>2026-04-23T17:02:41.984Z</time></trkpt><trkpt lat="46.0226587" lon="10.3545862"><ele>613.0</ele><time>2026-04-23T17:02:42.985Z</time></trkpt><trkpt lat="46.0225776" lon="10.3545982"><ele>613.0</ele><time>2026-04-23T17:02:43.985Z</time></trkpt><trkpt lat="46.0224786" lon="10.3546142"><ele>613.0</ele><time>2026-04-23T17:02:44.985Z</time></trkpt><trkpt lat="46.0223773" lon="10.3546177"><ele>613.0</ele><time>2026-04-23T17:02:45.985Z</time></trkpt><trkpt lat="46.0222924" lon="10.3546314"><ele>613.0</ele><time>2026-04-23T17:02:46.985Z</time></trkpt><trkpt lat="46.022203" lon="10.3546474"><ele>613.6666666666667</ele><time>2026-04-23T17:02:47.985Z</time></trkpt><trkpt lat="46.0221102" lon="10.3546793"><ele>614.3333333333334</ele><time>2026-04-23T17:02:48.984Z</time></trkpt><trkpt lat="46.0220281" lon="10.3547147"><ele>615.0</ele><time>2026-04-23T17:02:49.984Z</time></trkpt><trkpt lat="46.0219378" lon="10.3547337"><ele>615.6666666666666</ele><time>2026-04-23T17:02:50.985Z</time></trkpt><trkpt lat="46.0218566" lon="10.3547305"><ele>616.3333333333333</ele><time>2026-04-23T17:02:51.985Z</time></trkpt><trkpt lat="46.02177" lon="10.3547602"><ele>617.0</ele><time>2026-04-23T17:02:52.985Z</time></trkpt><trkpt lat="46.0217024" lon="10.3548326"><ele>616.3333333333333</ele><time>2026-04-23T17:02:53.985Z</time></trkpt><trkpt lat="46.0216354" lon="10.3548671"><ele>615.6666666666666</ele><time>2026-04-23T17:02:54.984Z</time></trkpt><trkpt lat="46.0215687" lon="10.3548757"><ele>615.0</ele><time>2026-04-23T17:02:55.985Z</time></trkpt><trkpt lat="46.0214844" lon="10.3548135"><ele>614.3333333333334</ele><time>2026-04-23T17:02:57.985Z</time></trkpt><trkpt lat="46.021427" lon="10.3547585"><ele>613.6666666666667</ele><time>2026-04-23T17:02:58.985Z</time></trkpt><trkpt lat="46.0213123" lon="10.3547448"><ele>613.0</ele><time>2026-04-23T17:03:00.985Z</time></trkpt><trkpt lat="46.0212078" lon="10.3546755"><ele>613.0</ele><time>2026-04-23T17:03:02.985Z</time></trkpt><trkpt lat="46.0211258" lon="10.3545742"><ele>613.0</ele><time>2026-04-23T17:03:04.985Z</time></trkpt><trkpt lat="46.0210949" lon="10.3544915"><ele>613.0</ele><time>2026-04-23T17:03:05.985Z</time></trkpt><trkpt lat="46.0210329" lon="10.354392"><ele>613.0</ele><time>2026-04-23T17:03:07.985Z</time></trkpt><trkpt lat="46.0209204" lon="10.354331"><ele>613.0</ele><time>2026-04-23T17:03:09.985Z</time></trkpt><trkpt lat="46.0208058" lon="10.3543547"><ele>611.6666666666667</ele><time>2026-04-23T17:03:11.985Z</time></trkpt><trkpt lat="46.0207242" lon="10.3543671"><ele>610.3333333333334</ele><time>2026-04-23T17:03:12.985Z</time></trkpt><trkpt lat="46.0206482" lon="10.3544015"><ele>609.0</ele><time>2026-04-23T17:03:13.984Z</time></trkpt><trkpt lat="46.0205703" lon="10.3544406"><ele>607.6666666666666</ele><time>2026-04-23T17:03:14.985Z</time></trkpt><trkpt lat="46.0204951" lon="10.3544735"><ele>606.3333333333333</ele><time>2026-04-23T17:03:15.985Z</time></trkpt><trkpt lat="46.020416" lon="10.3544078"><ele>605.0</ele><time>2026-04-23T17:03:16.985Z</time></trkpt><trkpt lat="46.020323" lon="10.3543732"><ele>605.0</ele><time>2026-04-23T17:03:17.985Z</time></trkpt><trkpt lat="46.0202448" lon="10.354343"><ele>605.0</ele><time>2026-04-23T17:03:18.985Z</time></trkpt><trkpt lat="46.0201801" lon="10.3543379"><ele>605.0</ele><time>2026-04-23T17:03:19.985Z</time></trkpt><trkpt lat="46.0201026" lon="10.3543391"><ele>605.0</ele><time>2026-04-23T17:03:20.984Z</time></trkpt><trkpt lat="46.0200201" lon="10.3543349"><ele>605.0</ele><time>2026-04-23T17:03:21.984Z</time></trkpt><trkpt lat="46.0199135" lon="10.3543355"><ele>605.0</ele><time>2026-04-23T17:03:22.985Z</time></trkpt><trkpt lat="46.0198186" lon="10.3543176"><ele>602.2</ele><time>2026-04-23T17:03:23.984Z</time></trkpt><trkpt lat="46.0197361" lon="10.3542904"><ele>599.4</ele><time>2026-04-23T17:03:24.985Z</time></trkpt><trkpt lat="46.0196142" lon="10.3542481"><ele>596.6</ele><time>2026-04-23T17:03:25.985Z</time></trkpt><trkpt lat="46.019515" lon="10.3542109"><ele>593.8</ele><time>2026-04-23T17:03:26.985Z</time></trkpt><trkpt lat="46.0194145" lon="10.3541708"><ele>591.0</ele><time>2026-04-23T17:03:27.985Z</time></trkpt><trkpt lat="46.0193387" lon="10.3541438"><ele>591.0</ele><time>2026-04-23T17:03:28.985Z</time></trkpt><trkpt lat="46.0192545" lon="10.354104"><ele>591.0</ele><time>2026-04-23T17:03:29.985Z</time></trkpt><trkpt lat="46.0191816" lon="10.3540877"><ele>591.0</ele><time>2026-04-23T17:03:30.985Z</time></trkpt><trkpt lat="46.0190939" lon="10.3540676"><ele>591.0</ele><time>2026-04-23T17:03:31.985Z</time></trkpt><trkpt lat="46.0190204" lon="10.354051"><ele>591.0</ele><time>2026-04-23T17:03:32.985Z</time></trkpt><trkpt lat="46.0189433" lon="10.3540351"><ele>591.0</ele><time>2026-04-23T17:03:33.985Z</time></trkpt><trkpt lat="46.0188718" lon="10.3540561"><ele>589.0</ele><time>2026-04-23T17:03:34.984Z</time></trkpt><trkpt lat="46.0187959" lon="10.3540673"><ele>587.0</ele><time>2026-04-23T17:03:35.985Z</time></trkpt><trkpt lat="46.0187133" lon="10.3540834"><ele>585.0</ele><time>2026-04-23T17:03:36.985Z</time></trkpt><trkpt lat="46.0186204" lon="10.3541171"><ele>583.0</ele><time>2026-04-23T17:03:37.985Z</time></trkpt><trkpt lat="46.0185316" lon="10.354143"><ele>581.0</ele><time>2026-04-23T17:03:38.985Z</time></trkpt><trkpt lat="46.0184491" lon="10.3541474"><ele>579.0</ele><time>2026-04-23T17:03:39.985Z</time></trkpt><trkpt lat="46.0183696" lon="10.3541599"><ele>575.6666666666666</ele><time>2026-04-23T17:03:40.985Z</time></trkpt><trkpt lat="46.0182821" lon="10.3541667"><ele>572.3333333333334</ele><time>2026-04-23T17:03:41.985Z</time></trkpt><trkpt lat="46.0181968" lon="10.3541918"><ele>569.0</ele><time>2026-04-23T17:03:42.985Z</time></trkpt><trkpt lat="46.0181252" lon="10.3542069"><ele>565.6666666666667</ele><time>2026-04-23T17:03:43.984Z</time></trkpt><trkpt lat="46.0180611" lon="10.3542155"><ele>562.3333333333334</ele><time>2026-04-23T17:03:44.984Z</time></trkpt><trkpt lat="46.0179376" lon="10.3542378"><ele>559.0</ele><time>2026-04-23T17:03:46.985Z</time></trkpt><trkpt lat="46.0178634" lon="10.3542933"><ele>559.0</ele><time>2026-04-23T17:03:47.984Z</time></trkpt><trkpt lat="46.0177878" lon="10.3543378"><ele>559.0</ele><time>2026-04-23T17:03:48.985Z</time></trkpt><trkpt lat="46.0177181" lon="10.3543721"><ele>559.0</ele><time>2026-04-23T17:03:49.985Z</time></trkpt><trkpt lat="46.0176581" lon="10.3544096"><ele>559.0</ele><time>2026-04-23T17:03:50.985Z</time></trkpt><trkpt lat="46.0175655" lon="10.3544446"><ele>559.0</ele><time>2026-04-23T17:03:52.985Z</time></trkpt><trkpt lat="46.0174867" lon="10.3544794"><ele>559.0</ele><time>2026-04-23T17:03:54.985Z</time></trkpt><trkpt lat="46.0174174" lon="10.3544943"><ele>557.3333333333334</ele><time>2026-04-23T17:03:56.985Z</time></trkpt><trkpt lat="46.0173461" lon="10.3545224"><ele>555.6666666666667</ele><time>2026-04-23T17:03:58.985Z</time></trkpt><trkpt lat="46.0172557" lon="10.3545549"><ele>554.0</ele><time>2026-04-23T17:04:00.985Z</time></trkpt><trkpt lat="46.0171763" lon="10.3546022"><ele>552.3333333333334</ele><time>2026-04-23T17:04:02.985Z</time></trkpt><trkpt lat="46.0170934" lon="10.3546379"><ele>550.6666666666666</ele><time>2026-04-23T17:04:05.985Z</time></trkpt><trkpt lat="46.0170193" lon="10.3546994"><ele>549.0</ele><time>2026-04-23T17:04:07.985Z</time></trkpt><trkpt lat="46.0169513" lon="10.3547649"><ele>549.0</ele><time>2026-04-23T17:04:09.985Z</time></trkpt><trkpt lat="46.016871" lon="10.3548608"><ele>549.0</ele><time>2026-04-23T17:04:11.985Z</time></trkpt><trkpt lat="46.0168079" lon="10.3549617"><ele>549.0</ele><time>2026-04-23T17:04:13.985Z</time></trkpt><trkpt lat="46.0167522" lon="10.3550507"><ele>549.0</ele><time>2026-04-23T17:04:15.985Z</time></trkpt><trkpt lat="46.0166782" lon="10.3551108"><ele>549.0</ele><time>2026-04-23T17:04:18.984Z</time></trkpt><trkpt lat="46.0165858" lon="10.3551528"><ele>546.0</ele><time>2026-04-23T17:04:21.985Z</time></trkpt><trkpt lat="46.0164897" lon="10.3551787"><ele>543.0</ele><time>2026-04-23T17:04:23.985Z</time></trkpt><trkpt lat="46.0164274" lon="10.3551621"><ele>540.0</ele><time>2026-04-23T17:04:24.984Z</time></trkpt><trkpt lat="46.0163232" lon="10.3551005"><ele>537.0</ele><time>2026-04-23T17:04:26.985Z</time></trkpt><trkpt lat="46.0162539" lon="10.3550937"><ele>534.0</ele><time>2026-04-23T17:04:27.985Z</time></trkpt><trkpt lat="46.0161885" lon="10.3550859"><ele>531.0</ele><time>2026-04-23T17:04:28.985Z</time></trkpt><trkpt lat="46.0160847" lon="10.3550799"><ele>531.0</ele><time>2026-04-23T17:04:30.985Z</time></trkpt><trkpt lat="46.0159957" lon="10.3550092"><ele>531.0</ele><time>2026-04-23T17:04:32.985Z</time></trkpt><trkpt lat="46.0159316" lon="10.3549347"><ele>531.0</ele><time>2026-04-23T17:04:34.985Z</time></trkpt><trkpt lat="46.0159417" lon="10.3547921"><ele>531.0</ele><time>2026-04-23T17:04:37.985Z</time></trkpt><trkpt lat="46.0160293" lon="10.3546428"><ele>531.0</ele><time>2026-04-23T17:04:39.985Z</time></trkpt><trkpt lat="46.0160669" lon="10.3545249"><ele>528.3333333333334</ele><time>2026-04-23T17:04:41.985Z</time></trkpt><trkpt lat="46.0161131" lon="10.3544299"><ele>525.6666666666666</ele><time>2026-04-23T17:04:43.985Z</time></trkpt><trkpt lat="46.0160531" lon="10.3543792"><ele>523.0</ele><time>2026-04-23T17:04:44.985Z</time></trkpt><trkpt lat="46.0159899" lon="10.3543048"><ele>520.3333333333333</ele><time>2026-04-23T17:04:46.985Z</time></trkpt><trkpt lat="46.0159112" lon="10.3542536"><ele>517.6666666666666</ele><time>2026-04-23T17:04:48.985Z</time></trkpt><trkpt lat="46.0158304" lon="10.3542008"><ele>515.0</ele><time>2026-04-23T17:04:50.985Z</time></trkpt><trkpt lat="46.0157622" lon="10.3541689"><ele>513.3333333333333</ele><time>2026-04-23T17:04:51.985Z</time></trkpt><trkpt lat="46.0157086" lon="10.3541213"><ele>511.66666666666663</ele><time>2026-04-23T17:04:52.985Z</time></trkpt><trkpt lat="46.015614" lon="10.3540003"><ele>510.0</ele><time>2026-04-23T17:04:54.985Z</time></trkpt><trkpt lat="46.0155564" lon="10.3539322"><ele>508.33333333333337</ele><time>2026-04-23T17:04:55.985Z</time></trkpt><trkpt lat="46.0155145" lon="10.3538368"><ele>506.6666666666667</ele><time>2026-04-23T17:04:57.985Z</time></trkpt><trkpt lat="46.0154687" lon="10.3537559"><ele>505.0</ele><time>2026-04-23T17:04:59.985Z</time></trkpt><trkpt lat="46.0153957" lon="10.3537083"><ele>505.0</ele><time>2026-04-23T17:05:01.985Z</time></trkpt><trkpt lat="46.0153157" lon="10.3537145"><ele>505.0</ele><time>2026-04-23T17:05:08.985Z</time></trkpt><trkpt lat="46.0152473" lon="10.3537792"><ele>505.0</ele><time>2026-04-23T17:05:10.985Z</time></trkpt><trkpt lat="46.0151341" lon="10.3538703"><ele>505.0</ele><time>2026-04-23T17:05:12.985Z</time></trkpt><trkpt lat="46.0150407" lon="10.353996"><ele>505.0</ele><time>2026-04-23T17:05:14.985Z</time></trkpt><trkpt lat="46.0149586" lon="10.3540353"><ele>499.8</ele><time>2026-04-23T17:05:16.985Z</time></trkpt><trkpt lat="46.0148716" lon="10.354026"><ele>494.6</ele><time>2026-04-23T17:05:18.985Z</time></trkpt><trkpt lat="46.0148317" lon="10.3539405"><ele>489.4</ele><time>2026-04-23T17:05:20.985Z</time></trkpt><trkpt lat="46.0147366" lon="10.3539082"><ele>484.2</ele><time>2026-04-23T17:05:23.985Z</time></trkpt><trkpt lat="46.0146396" lon="10.3539399"><ele>479.0</ele><time>2026-04-23T17:05:24.985Z</time></trkpt><trkpt lat="46.0145434" lon="10.3539715"><ele>479.0</ele><time>2026-04-23T17:05:26.984Z</time></trkpt><trkpt lat="46.0144511" lon="10.3540466"><ele>479.0</ele><time>2026-04-23T17:05:29.984Z</time></trkpt><trkpt lat="46.0143601" lon="10.3541387"><ele>479.0</ele><time>2026-04-23T17:05:31.985Z</time></trkpt><trkpt lat="46.0142796" lon="10.3541996"><ele>479.0</ele><time>2026-04-23T17:05:33.985Z</time></trkpt><trkpt lat="46.0141675" lon="10.3541936"><ele>479.0</ele><time>2026-04-23T17:05:35.985Z</time></trkpt><trkpt lat="46.0140922" lon="10.3541884"><ele>474.99999999999994</ele><time>2026-04-23T17:05:37.985Z</time></trkpt><trkpt lat="46.0140181" lon="10.3542221"><ele>471.0</ele><time>2026-04-23T17:05:39.985Z</time></trkpt><trkpt lat="46.0139688" lon="10.3542796"><ele>467.0</ele><time>2026-04-23T17:05:40.985Z</time></trkpt><trkpt lat="46.0138912" lon="10.3543813"><ele>463.0</ele><time>2026-04-23T17:05:42.985Z</time></trkpt><trkpt lat="46.0138419" lon="10.3544481"><ele>458.99999999999994</ele><time>2026-04-23T17:05:45.985Z</time></trkpt><trkpt lat="46.0137878" lon="10.3545251"><ele>455.0</ele><time>2026-04-23T17:05:47.985Z</time></trkpt><trkpt lat="46.0137355" lon="10.3546033"><ele>454.99999999999994</ele><time>2026-04-23T17:05:49.985Z</time></trkpt><trkpt lat="46.0136545" lon="10.354637"><ele>455.0</ele><time>2026-04-23T17:05:51.984Z</time></trkpt><trkpt lat="46.0135483" lon="10.3546328"><ele>455.0</ele><time>2026-04-23T17:05:53.985Z</time></trkpt><trkpt lat="46.0134827" lon="10.3546386"><ele>455.0</ele><time>2026-04-23T17:05:54.985Z</time></trkpt><trkpt lat="46.0134046" lon="10.3546871"><ele>454.99999999999994</ele><time>2026-04-23T17:05:55.985Z</time></trkpt><trkpt lat="46.013331" lon="10.3547131"><ele>455.0</ele><time>2026-04-23T17:05:56.985Z</time></trkpt><trkpt lat="46.0132518" lon="10.3547596"><ele>454.49999999999994</ele><time>2026-04-23T17:05:57.985Z</time></trkpt><trkpt lat="46.0131606" lon="10.3547687"><ele>454.0</ele><time>2026-04-23T17:05:58.985Z</time></trkpt><trkpt lat="46.0130835" lon="10.3547485"><ele>453.5</ele><time>2026-04-23T17:05:59.984Z</time></trkpt><trkpt lat="46.0129972" lon="10.3547102"><ele>453.0</ele><time>2026-04-23T17:06:00.985Z</time></trkpt><trkpt lat="46.0129009" lon="10.3546781"><ele>452.49999999999994</ele><time>2026-04-23T17:06:01.985Z</time></trkpt><trkpt lat="46.0128215" lon="10.3546465"><ele>452.0</ele><time>2026-04-23T17:06:02.985Z</time></trkpt><trkpt lat="46.0127269" lon="10.3545914"><ele>452.0</ele><time>2026-04-23T17:06:04.985Z</time></trkpt><trkpt lat="46.0126582" lon="10.35454"><ele>452.0</ele><time>2026-04-23T17:06:06.985Z</time></trkpt><trkpt lat="46.0125798" lon="10.3543847"><ele>452.0</ele><time>2026-04-23T17:06:08.985Z</time></trkpt><trkpt lat="46.0125173" lon="10.3542333"><ele>452.0</ele><time>2026-04-23T17:06:10.985Z</time></trkpt><trkpt lat="46.012535" lon="10.3540568"><ele>451.99999999999994</ele><time>2026-04-23T17:06:12.985Z</time></trkpt><trkpt lat="46.0125339" lon="10.3539567"><ele>452.0</ele><time>2026-04-23T17:06:13.985Z</time></trkpt><trkpt lat="46.0125335" lon="10.3538492"><ele>452.0</ele><time>2026-04-23T17:06:14.985Z</time></trkpt><trkpt lat="46.0125355" lon="10.3537241"><ele>452.0</ele><time>2026-04-23T17:06:15.985Z</time></trkpt><trkpt lat="46.0125437" lon="10.3536076"><ele>451.99999999999994</ele><time>2026-04-23T17:06:16.985Z</time></trkpt><trkpt lat="46.0125494" lon="10.3534876"><ele>452.0</ele><time>2026-04-23T17:06:17.985Z</time></trkpt><trkpt lat="46.0125213" lon="10.3533557"><ele>449.49999999999994</ele><time>2026-04-23T17:06:18.985Z</time></trkpt><trkpt lat="46.0125069" lon="10.3532494"><ele>447.0</ele><time>2026-04-23T17:06:19.985Z</time></trkpt><trkpt lat="46.0125016" lon="10.3531398"><ele>444.5</ele><time>2026-04-23T17:06:21.985Z</time></trkpt><trkpt lat="46.0124417" lon="10.3530659"><ele>442.0</ele><time>2026-04-23T17:06:23.985Z</time></trkpt><trkpt lat="46.0123535" lon="10.3530248"><ele>439.49999999999994</ele><time>2026-04-23T17:06:26.985Z</time></trkpt><trkpt lat="46.0122749" lon="10.3530404"><ele>437.0</ele><time>2026-04-23T17:06:28.985Z</time></trkpt><trkpt lat="46.0121885" lon="10.3530392"><ele>435.49999999999994</ele><time>2026-04-23T17:06:30.985Z</time></trkpt><trkpt lat="46.0121054" lon="10.3530219"><ele>434.0</ele><time>2026-04-23T17:06:31.985Z</time></trkpt><trkpt lat="46.0120356" lon="10.3529731"><ele>432.5</ele><time>2026-04-23T17:06:32.985Z</time></trkpt><trkpt lat="46.0119559" lon="10.3529828"><ele>431.0</ele><time>2026-04-23T17:06:33.985Z</time></trkpt><trkpt lat="46.0118893" lon="10.3529563"><ele>429.49999999999994</ele><time>2026-04-23T17:06:34.985Z</time></trkpt><trkpt lat="46.011803" lon="10.352926"><ele>428.0</ele><time>2026-04-23T17:06:35.984Z</time></trkpt><trkpt lat="46.0117446" lon="10.352881"><ele>427.99999999999994</ele><time>2026-04-23T17:06:36.985Z</time></trkpt><trkpt lat="46.0116676" lon="10.3528614"><ele>428.0</ele><time>2026-04-23T17:06:37.985Z</time></trkpt><trkpt lat="46.0116027" lon="10.3528174"><ele>428.0</ele><time>2026-04-23T17:06:38.985Z</time></trkpt><trkpt lat="46.011526" lon="10.3528171"><ele>428.0</ele><time>2026-04-23T17:06:39.985Z</time></trkpt><trkpt lat="46.0114494" lon="10.3528097"><ele>427.99999999999994</ele><time>2026-04-23T17:06:40.985Z</time></trkpt><trkpt lat="46.0113722" lon="10.3528027"><ele>428.0</ele><time>2026-04-23T17:06:41.985Z</time></trkpt><trkpt lat="46.0112926" lon="10.3527843"><ele>427.49999999999994</ele><time>2026-04-23T17:06:42.985Z</time></trkpt><trkpt lat="46.0112163" lon="10.3527538"><ele>427.0</ele><time>2026-04-23T17:06:43.985Z</time></trkpt><trkpt lat="46.0111813" lon="10.3526748"><ele>426.5</ele><time>2026-04-23T17:06:44.985Z</time></trkpt><trkpt lat="46.011114" lon="10.3526403"><ele>426.0</ele><time>2026-04-23T17:06:45.985Z</time></trkpt><trkpt lat="46.0110356" lon="10.3525895"><ele>425.49999999999994</ele><time>2026-04-23T17:06:46.985Z</time></trkpt><trkpt lat="46.0109887" lon="10.3525282"><ele>425.0</ele><time>2026-04-23T17:06:47.985Z</time></trkpt><trkpt lat="46.0108804" lon="10.3524302"><ele>424.8333333333333</ele><time>2026-04-23T17:06:49.985Z</time></trkpt><trkpt lat="46.0107733" lon="10.3523511"><ele>424.66666666666663</ele><time>2026-04-23T17:06:51.985Z</time></trkpt><trkpt lat="46.0107102" lon="10.3523233"><ele>424.5</ele><time>2026-04-23T17:06:52.985Z</time></trkpt><trkpt lat="46.0106455" lon="10.3523025"><ele>424.33333333333337</ele><time>2026-04-23T17:06:53.985Z</time></trkpt><trkpt lat="46.0105621" lon="10.3522455"><ele>424.1666666666667</ele><time>2026-04-23T17:06:55.985Z</time></trkpt><trkpt lat="46.0104632" lon="10.352214"><ele>424.0</ele><time>2026-04-23T17:06:57.985Z</time></trkpt><trkpt lat="46.0103672" lon="10.3521908"><ele>424.00000000000006</ele><time>2026-04-23T17:06:59.985Z</time></trkpt><trkpt lat="46.0102734" lon="10.35216"><ele>424.0</ele><time>2026-04-23T17:07:01.985Z</time></trkpt><trkpt lat="46.0101901" lon="10.3521415"><ele>424.0</ele><time>2026-04-23T17:07:03.985Z</time></trkpt><trkpt lat="46.0101051" lon="10.3521447"><ele>424.0</ele><time>2026-04-23T17:07:05.984Z</time></trkpt><trkpt lat="46.0100248" lon="10.3521433"><ele>424.00000000000006</ele><time>2026-04-23T17:07:07.985Z</time></trkpt><trkpt lat="46.0099397" lon="10.3521224"><ele>424.0</ele><time>2026-04-23T17:07:09.985Z</time></trkpt><trkpt lat="46.0098552" lon="10.3521074"><ele>424.4</ele><time>2026-04-23T17:07:11.984Z</time></trkpt><trkpt lat="46.0097685" lon="10.3521133"><ele>424.79999999999995</ele><time>2026-04-23T17:07:13.985Z</time></trkpt><trkpt lat="46.0096752" lon="10.352134"><ele>425.20000000000005</ele><time>2026-04-23T17:07:15.985Z</time></trkpt><trkpt lat="46.0095831" lon="10.3521752"><ele>425.6</ele><time>2026-04-23T17:07:17.985Z</time></trkpt><trkpt lat="46.0094922" lon="10.3522167"><ele>426.0</ele><time>2026-04-23T17:07:19.985Z</time></trkpt><trkpt lat="46.0094008" lon="10.3521845"><ele>426.0</ele><time>2026-04-23T17:07:21.985Z</time></trkpt><trkpt lat="46.0093135" lon="10.3521314"><ele>426.0</ele><time>2026-04-23T17:07:23.985Z</time></trkpt><trkpt lat="46.0092138" lon="10.3520902"><ele>426.0</ele><time>2026-04-23T17:07:25.985Z</time></trkpt><trkpt lat="46.0091457" lon="10.3520827"><ele>426.0</ele><time>2026-04-23T17:07:26.985Z</time></trkpt><trkpt lat="46.0090781" lon="10.3520999"><ele>426.0</ele><time>2026-04-23T17:07:27.985Z</time></trkpt><trkpt lat="46.008956" lon="10.3521372"><ele>425.4</ele><time>2026-04-23T17:07:29.985Z</time></trkpt><trkpt lat="46.0088452" lon="10.3521801"><ele>424.8</ele><time>2026-04-23T17:07:31.985Z</time></trkpt><trkpt lat="46.0087752" lon="10.3521789"><ele>424.2</ele><time>2026-04-23T17:07:34.985Z</time></trkpt><trkpt lat="46.0087321" lon="10.3520603"><ele>423.59999999999997</ele><time>2026-04-23T17:07:37.985Z</time></trkpt><trkpt lat="46.0086963" lon="10.3518845"><ele>423.0</ele><time>2026-04-23T17:07:39.985Z</time></trkpt><trkpt lat="46.0086617" lon="10.3517676"><ele>423.0</ele><time>2026-04-23T17:07:40.984Z</time></trkpt><trkpt lat="46.0086254" lon="10.3516602"><ele>423.0</ele><time>2026-04-23T17:07:41.985Z</time></trkpt><trkpt lat="46.0085938" lon="10.351545"><ele>423.0</ele><time>2026-04-23T17:07:42.984Z</time></trkpt><trkpt lat="46.0085623" lon="10.3514253"><ele>423.0</ele><time>2026-04-23T17:07:43.985Z</time></trkpt><trkpt lat="46.0085383" lon="10.3513374"><ele>423.0</ele><time>2026-04-23T17:07:44.985Z</time></trkpt><trkpt lat="46.0084449" lon="10.3512138"><ele>420.79999999999995</ele><time>2026-04-23T17:07:46.985Z</time></trkpt><trkpt lat="46.0083523" lon="10.3511724"><ele>418.6</ele><time>2026-04-23T17:07:48.985Z</time></trkpt><trkpt lat="46.0082491" lon="10.3511877"><ele>416.4</ele><time>2026-04-23T17:07:50.985Z</time></trkpt><trkpt lat="46.0081291" lon="10.3511955"><ele>414.20000000000005</ele><time>2026-04-23T17:07:52.985Z</time></trkpt><trkpt lat="46.0080241" lon="10.3511489"><ele>412.0</ele><time>2026-04-23T17:07:54.984Z</time></trkpt><trkpt lat="46.007984" lon="10.351059"><ele>411.50000000000006</ele><time>2026-04-23T17:07:57.985Z</time></trkpt><trkpt lat="46.0079615" lon="10.3509449"><ele>411.0</ele><time>2026-04-23T17:07:59.985Z</time></trkpt><trkpt lat="46.0079069" lon="10.3507911"><ele>410.5</ele><time>2026-04-23T17:08:01.985Z</time></trkpt><trkpt lat="46.0078714" lon="10.3507048"><ele>410.0</ele><time>2026-04-23T17:08:02.985Z</time></trkpt><trkpt lat="46.0078248" lon="10.3506169"><ele>409.50000000000006</ele><time>2026-04-23T17:08:03.985Z</time></trkpt><trkpt lat="46.0077702" lon="10.350518"><ele>409.0</ele><time>2026-04-23T17:08:04.985Z</time></trkpt><trkpt lat="46.0077048" lon="10.3504369"><ele>406.6</ele><time>2026-04-23T17:08:05.985Z</time></trkpt><trkpt lat="46.007627" lon="10.3503596"><ele>404.2</ele><time>2026-04-23T17:08:06.985Z</time></trkpt><trkpt lat="46.007545" lon="10.3502893"><ele>401.8</ele><time>2026-04-23T17:08:07.985Z</time></trkpt><trkpt lat="46.0074609" lon="10.3502205"><ele>399.40000000000003</ele><time>2026-04-23T17:08:08.985Z</time></trkpt><trkpt lat="46.0073821" lon="10.350157"><ele>397.0</ele><time>2026-04-23T17:08:09.985Z</time></trkpt><trkpt lat="46.0072923" lon="10.3501033"><ele>396.40000000000003</ele><time>2026-04-23T17:08:10.985Z</time></trkpt><trkpt lat="46.0071966" lon="10.3500705"><ele>395.8</ele><time>2026-04-23T17:08:11.985Z</time></trkpt><trkpt lat="46.0071003" lon="10.3500322"><ele>395.2</ele><time>2026-04-23T17:08:12.985Z</time></trkpt><trkpt lat="46.0069991" lon="10.3499731"><ele>394.6</ele><time>2026-04-23T17:08:13.985Z</time></trkpt><trkpt lat="46.0068993" lon="10.3499059"><ele>394.0</ele><time>2026-04-23T17:08:14.985Z</time></trkpt><trkpt lat="46.006802" lon="10.3498433"><ele>394.00000000000006</ele><time>2026-04-23T17:08:15.985Z</time></trkpt><trkpt lat="46.0067116" lon="10.3497754"><ele>394.0</ele><time>2026-04-23T17:08:16.985Z</time></trkpt><trkpt lat="46.0066441" lon="10.3497138"><ele>394.0</ele><time>2026-04-23T17:08:17.985Z</time></trkpt><trkpt lat="46.0065792" lon="10.349651"><ele>394.0</ele><time>2026-04-23T17:08:18.985Z</time></trkpt><trkpt lat="46.0065044" lon="10.3495902"><ele>394.00000000000006</ele><time>2026-04-23T17:08:19.985Z</time></trkpt><trkpt lat="46.0064208" lon="10.3495286"><ele>394.0</ele><time>2026-04-23T17:08:20.984Z</time></trkpt><trkpt lat="46.0063291" lon="10.3494731"><ele>390.6</ele><time>2026-04-23T17:08:21.985Z</time></trkpt><trkpt lat="46.0062257" lon="10.3494365"><ele>387.2</ele><time>2026-04-23T17:08:22.985Z</time></trkpt><trkpt lat="46.0061222" lon="10.3494086"><ele>383.8</ele><time>2026-04-23T17:08:23.985Z</time></trkpt><trkpt lat="46.0060177" lon="10.3493805"><ele>380.40000000000003</ele><time>2026-04-23T17:08:24.985Z</time></trkpt><trkpt lat="46.0059117" lon="10.3493489"><ele>377.0</ele><time>2026-04-23T17:08:25.985Z</time></trkpt><trkpt lat="46.0058063" lon="10.3493064"><ele>376.6</ele><time>2026-04-23T17:08:26.985Z</time></trkpt><trkpt lat="46.0057065" lon="10.3492581"><ele>376.20000000000005</ele><time>2026-04-23T17:08:27.985Z</time></trkpt><trkpt lat="46.005607" lon="10.3492227"><ele>375.8</ele><time>2026-04-23T17:08:28.985Z</time></trkpt><trkpt lat="46.0055093" lon="10.3492022"><ele>375.4</ele><time>2026-04-23T17:08:29.985Z</time></trkpt><trkpt lat="46.0054118" lon="10.3491992"><ele>375.0</ele><time>2026-04-23T17:08:30.985Z</time></trkpt><trkpt lat="46.0053162" lon="10.3491957"><ele>375.0</ele><time>2026-04-23T17:08:31.985Z</time></trkpt><trkpt lat="46.005225" lon="10.3491857"><ele>375.0</ele><time>2026-04-23T17:08:32.985Z</time></trkpt><trkpt lat="46.0051343" lon="10.3491617"><ele>375.0</ele><time>2026-04-23T17:08:33.985Z</time></trkpt><trkpt lat="46.0050385" lon="10.3491315"><ele>375.0</ele><time>2026-04-23T17:08:34.985Z</time></trkpt><trkpt lat="46.0049413" lon="10.349102"><ele>375.0</ele><time>2026-04-23T17:08:35.985Z</time></trkpt><trkpt lat="46.0048456" lon="10.3490774"><ele>376.0</ele><time>2026-04-23T17:08:36.985Z</time></trkpt><trkpt lat="46.004753" lon="10.3490531"><ele>377.0</ele><time>2026-04-23T17:08:37.985Z</time></trkpt><trkpt lat="46.0046552" lon="10.349025"><ele>378.0</ele><time>2026-04-23T17:08:38.985Z</time></trkpt><trkpt lat="46.0045614" lon="10.3489959"><ele>379.0</ele><time>2026-04-23T17:08:39.985Z</time></trkpt><trkpt lat="46.0044725" lon="10.3489639"><ele>380.0</ele><time>2026-04-23T17:08:40.985Z</time></trkpt><trkpt lat="46.0043914" lon="10.348931"><ele>380.0</ele><time>2026-04-23T17:08:41.985Z</time></trkpt><trkpt lat="46.0043305" lon="10.348904"><ele>380.0</ele><time>2026-04-23T17:08:42.985Z</time></trkpt><trkpt lat="46.0042539" lon="10.3488416"><ele>380.0</ele><time>2026-04-23T17:08:44.985Z</time></trkpt><trkpt lat="46.0042956" lon="10.3487019"><ele>380.0</ele><time>2026-04-23T17:08:46.985Z</time></trkpt><trkpt lat="46.0043195" lon="10.3486073"><ele>380.0</ele><time>2026-04-23T17:08:47.985Z</time></trkpt><trkpt lat="46.0043416" lon="10.3484966"><ele>380.0</ele><time>2026-04-23T17:08:48.984Z</time></trkpt><trkpt lat="46.0043663" lon="10.348385"><ele>377.5</ele><time>2026-04-23T17:08:49.985Z</time></trkpt><trkpt lat="46.0043939" lon="10.3482702"><ele>375.0</ele><time>2026-04-23T17:08:50.985Z</time></trkpt><trkpt lat="46.0044112" lon="10.3481569"><ele>372.5</ele><time>2026-04-23T17:08:51.985Z</time></trkpt><trkpt lat="46.0044372" lon="10.3480464"><ele>370.0</ele><time>2026-04-23T17:08:52.985Z</time></trkpt><trkpt lat="46.0044725" lon="10.3479458"><ele>367.5</ele><time>2026-04-23T17:08:53.984Z</time></trkpt><trkpt lat="46.0044972" lon="10.3478528"><ele>365.0</ele><time>2026-04-23T17:08:54.985Z</time></trkpt><trkpt lat="46.0045052" lon="10.3477329"><ele>363.5</ele><time>2026-04-23T17:08:56.985Z</time></trkpt><trkpt lat="46.0044875" lon="10.3475974"><ele>362.0</ele><time>2026-04-23T17:08:58.985Z</time></trkpt><trkpt lat="46.004461" lon="10.3475092"><ele>360.5</ele><time>2026-04-23T17:08:59.985Z</time></trkpt><trkpt lat="46.004402" lon="10.347442"><ele>359.0</ele><time>2026-04-23T17:09:01.985Z</time></trkpt><trkpt lat="46.0043055" lon="10.3474735"><ele>357.5</ele><time>2026-04-23T17:09:03.985Z</time></trkpt><trkpt lat="46.0042104" lon="10.3475364"><ele>356.0</ele><time>2026-04-23T17:09:05.985Z</time></trkpt><trkpt lat="46.004108" lon="10.3476129"><ele>354.5</ele><time>2026-04-23T17:09:07.985Z</time></trkpt><trkpt lat="46.0040018" lon="10.3476897"><ele>353.0</ele><time>2026-04-23T17:09:09.985Z</time></trkpt><trkpt lat="46.0038975" lon="10.3477714"><ele>351.5</ele><time>2026-04-23T17:09:11.984Z</time></trkpt><trkpt lat="46.003784" lon="10.3478341"><ele>350.0</ele><time>2026-04-23T17:09:13.985Z</time></trkpt><trkpt lat="46.0036734" lon="10.3478994"><ele>350.0</ele><time>2026-04-23T17:09:15.985Z</time></trkpt><trkpt lat="46.0035627" lon="10.3479684"><ele>350.0</ele><time>2026-04-23T17:09:17.985Z</time></trkpt><trkpt lat="46.0035002" lon="10.3479901"><ele>350.0</ele><time>2026-04-23T17:09:18.985Z</time></trkpt><trkpt lat="46.0034391" lon="10.3480221"><ele>350.0</ele><time>2026-04-23T17:09:19.984Z</time></trkpt><trkpt lat="46.0033201" lon="10.3480859"><ele>350.0</ele><time>2026-04-23T17:09:21.985Z</time></trkpt><trkpt lat="46.0032568" lon="10.3481161"><ele>350.0</ele><time>2026-04-23T17:09:22.985Z</time></trkpt><trkpt lat="46.0031415" lon="10.3481642"><ele>351.8</ele><time>2026-04-23T17:09:24.985Z</time></trkpt><trkpt lat="46.0030779" lon="10.348172"><ele>353.6</ele><time>2026-04-23T17:09:25.985Z</time></trkpt><trkpt lat="46.0030146" lon="10.3481775"><ele>355.4</ele><time>2026-04-23T17:09:26.985Z</time></trkpt><trkpt lat="46.0028981" lon="10.3481824"><ele>357.2</ele><time>2026-04-23T17:09:28.985Z</time></trkpt><trkpt lat="46.0027887" lon="10.3481877"><ele>359.0</ele><time>2026-04-23T17:09:30.985Z</time></trkpt><trkpt lat="46.0026687" lon="10.3481846"><ele>359.0</ele><time>2026-04-23T17:09:32.985Z</time></trkpt><trkpt lat="46.0025483" lon="10.3481872"><ele>359.0</ele><time>2026-04-23T17:09:34.985Z</time></trkpt><trkpt lat="46.002422" lon="10.3481944"><ele>359.0</ele><time>2026-04-23T17:09:36.985Z</time></trkpt><trkpt lat="46.0023583" lon="10.3481901"><ele>359.0</ele><time>2026-04-23T17:09:37.985Z</time></trkpt><trkpt lat="46.0022931" lon="10.3481881"><ele>359.0</ele><time>2026-04-23T17:09:38.985Z</time></trkpt><trkpt lat="46.0021741" lon="10.3481553"><ele>359.0</ele><time>2026-04-23T17:09:40.985Z</time></trkpt><trkpt lat="46.0020555" lon="10.3481246"><ele>359.0</ele><time>2026-04-23T17:09:42.984Z</time></trkpt><trkpt lat="46.0019728" lon="10.3481076"><ele>359.0</ele><time>2026-04-23T17:09:43.985Z</time></trkpt><trkpt lat="46.0018621" lon="10.3480753"><ele>359.0</ele><time>2026-04-23T17:09:45.985Z</time></trkpt><trkpt lat="46.001798" lon="10.3480457"><ele>359.0</ele><time>2026-04-23T17:09:46.985Z</time></trkpt><trkpt lat="46.0016888" lon="10.3479821"><ele>357.79999999999995</ele><time>2026-04-23T17:09:48.985Z</time></trkpt><trkpt lat="46.0015909" lon="10.3479065"><ele>356.59999999999997</ele><time>2026-04-23T17:09:50.985Z</time></trkpt><trkpt lat="46.001487" lon="10.3478313"><ele>355.4</ele><time>2026-04-23T17:09:52.984Z</time></trkpt><trkpt lat="46.0013884" lon="10.3477605"><ele>354.2</ele><time>2026-04-23T17:09:54.985Z</time></trkpt><trkpt lat="46.0012963" lon="10.347699"><ele>353.0</ele><time>2026-04-23T17:09:56.984Z</time></trkpt><trkpt lat="46.0011877" lon="10.3476378"><ele>353.0</ele><time>2026-04-23T17:09:58.985Z</time></trkpt><trkpt lat="46.0011209" lon="10.3475922"><ele>353.0</ele><time>2026-04-23T17:09:59.985Z</time></trkpt><trkpt lat="46.0010572" lon="10.3475302"><ele>353.0</ele><time>2026-04-23T17:10:00.985Z</time></trkpt><trkpt lat="46.0010009" lon="10.347459"><ele>353.0</ele><time>2026-04-23T17:10:01.985Z</time></trkpt><trkpt lat="46.000944" lon="10.3473902"><ele>353.0</ele><time>2026-04-23T17:10:02.985Z</time></trkpt><trkpt lat="46.0008538" lon="10.347271"><ele>353.0</ele><time>2026-04-23T17:10:04.985Z</time></trkpt><trkpt lat="46.0007735" lon="10.3471529"><ele>354.5</ele><time>2026-04-23T17:10:06.985Z</time></trkpt><trkpt lat="46.0006956" lon="10.3470339"><ele>356.0</ele><time>2026-04-23T17:10:08.985Z</time></trkpt><trkpt lat="46.000619" lon="10.346913"><ele>357.5</ele><time>2026-04-23T17:10:10.985Z</time></trkpt><trkpt lat="46.0005485" lon="10.3467767"><ele>359.0</ele><time>2026-04-23T17:10:12.984Z</time></trkpt><trkpt lat="46.000488" lon="10.3466339"><ele>359.0</ele><time>2026-04-23T17:10:14.984Z</time></trkpt><trkpt lat="46.0004234" lon="10.3465008"><ele>359.0</ele><time>2026-04-23T17:10:16.985Z</time></trkpt><trkpt lat="46.0003627" lon="10.3463707"><ele>359.0</ele><time>2026-04-23T17:10:18.985Z</time></trkpt><trkpt lat="46.0003086" lon="10.3462536"><ele>359.0</ele><time>2026-04-23T17:10:20.985Z</time></trkpt><trkpt lat="46.0002557" lon="10.3461284"><ele>359.0</ele><time>2026-04-23T17:10:22.985Z</time></trkpt><trkpt lat="46.0002102" lon="10.3459905"><ele>359.0</ele><time>2026-04-23T17:10:24.985Z</time></trkpt><trkpt lat="46.0001579" lon="10.3458371"><ele>359.0</ele><time>2026-04-23T17:10:26.985Z</time></trkpt><trkpt lat="46.0001015" lon="10.3456934"><ele>359.0</ele><time>2026-04-23T17:10:28.985Z</time></trkpt><trkpt lat="46.0000474" lon="10.345542"><ele>359.0</ele><time>2026-04-23T17:10:30.985Z</time></trkpt><trkpt lat="45.9999937" lon="10.3453956"><ele>358.4</ele><time>2026-04-23T17:10:32.985Z</time></trkpt><trkpt lat="45.9999442" lon="10.3452482"><ele>357.79999999999995</ele><time>2026-04-23T17:10:34.984Z</time></trkpt><trkpt lat="45.9998937" lon="10.3451026"><ele>357.20000000000005</ele><time>2026-04-23T17:10:36.985Z</time></trkpt><trkpt lat="45.9998393" lon="10.3449618"><ele>356.6</ele><time>2026-04-23T17:10:38.985Z</time></trkpt><trkpt lat="45.9997884" lon="10.3448266"><ele>356.0</ele><time>2026-04-23T17:10:40.985Z</time></trkpt><trkpt lat="45.9997319" lon="10.3446973"><ele>355.0</ele><time>2026-04-23T17:10:42.985Z</time></trkpt><trkpt lat="45.9996696" lon="10.3445493"><ele>354.0</ele><time>2026-04-23T17:10:44.985Z</time></trkpt><trkpt lat="45.9996117" lon="10.3444058"><ele>353.0</ele><time>2026-04-23T17:10:46.984Z</time></trkpt><trkpt lat="45.99955" lon="10.3442675"><ele>352.0</ele><time>2026-04-23T17:10:48.984Z</time></trkpt><trkpt lat="45.9994838" lon="10.3441367"><ele>352.0</ele><time>2026-04-23T17:10:50.984Z</time></trkpt><trkpt lat="45.9993964" lon="10.3440182"><ele>352.0</ele><time>2026-04-23T17:10:52.985Z</time></trkpt><trkpt lat="45.9993136" lon="10.3439052"><ele>352.0</ele><time>2026-04-23T17:10:54.985Z</time></trkpt><trkpt lat="45.9992662" lon="10.3437802"><ele>352.0</ele><time>2026-04-23T17:10:56.985Z</time></trkpt><trkpt lat="45.9992624" lon="10.3436314"><ele>352.0</ele><time>2026-04-23T17:10:58.985Z</time></trkpt><trkpt lat="45.9992668" lon="10.3434483"><ele>352.2857142857143</ele><time>2026-04-23T17:11:00.985Z</time></trkpt><trkpt lat="45.9992452" lon="10.3433492"><ele>352.57142857142856</ele><time>2026-04-23T17:11:01.985Z</time></trkpt><trkpt lat="45.9992151" lon="10.3432521"><ele>352.8571428571429</ele><time>2026-04-23T17:11:02.985Z</time></trkpt><trkpt lat="45.9991869" lon="10.3431555"><ele>353.1428571428571</ele><time>2026-04-23T17:11:03.985Z</time></trkpt><trkpt lat="45.9991576" lon="10.3430678"><ele>353.4285714285714</ele><time>2026-04-23T17:11:04.985Z</time></trkpt><trkpt lat="45.9991264" lon="10.3429759"><ele>353.7142857142857</ele><time>2026-04-23T17:11:05.985Z</time></trkpt><trkpt lat="45.9990965" lon="10.3428917"><ele>354.0</ele><time>2026-04-23T17:11:06.985Z</time></trkpt><trkpt lat="45.9990635" lon="10.3428106"><ele>353.2</ele><time>2026-04-23T17:11:07.985Z</time></trkpt><trkpt lat="45.9990328" lon="10.3427299"><ele>352.4</ele><time>2026-04-23T17:11:08.985Z</time></trkpt><trkpt lat="45.9989785" lon="10.3425723"><ele>351.6</ele><time>2026-04-23T17:11:10.985Z</time></trkpt><trkpt lat="45.9989272" lon="10.342419"><ele>350.8</ele><time>2026-04-23T17:11:12.985Z</time></trkpt><trkpt lat="45.9988735" lon="10.3422601"><ele>350.0</ele><time>2026-04-23T17:11:14.985Z</time></trkpt><trkpt lat="45.9988167" lon="10.3421039"><ele>349.25</ele><time>2026-04-23T17:11:16.985Z</time></trkpt><trkpt lat="45.9987608" lon="10.3419497"><ele>348.5</ele><time>2026-04-23T17:11:18.985Z</time></trkpt><trkpt lat="45.9987043" lon="10.3418025"><ele>347.75</ele><time>2026-04-23T17:11:20.985Z</time></trkpt><trkpt lat="45.9986383" lon="10.3416504"><ele>347.0</ele><time>2026-04-23T17:11:22.985Z</time></trkpt><trkpt lat="45.9985827" lon="10.3414952"><ele>345.75</ele><time>2026-04-23T17:11:24.985Z</time></trkpt><trkpt lat="45.998524" lon="10.3413605"><ele>344.5</ele><time>2026-04-23T17:11:26.985Z</time></trkpt><trkpt lat="45.9984721" lon="10.3412091"><ele>343.25</ele><time>2026-04-23T17:11:28.985Z</time></trkpt><trkpt lat="45.9984184" lon="10.3410606"><ele>342.0</ele><time>2026-04-23T17:11:30.985Z</time></trkpt><trkpt lat="45.9983393" lon="10.340915"><ele>342.0</ele><time>2026-04-23T17:11:32.985Z</time></trkpt><trkpt lat="45.9982892" lon="10.3408362"><ele>342.0</ele><time>2026-04-23T17:11:33.985Z</time></trkpt><trkpt lat="45.9982512" lon="10.3407579"><ele>342.0</ele><time>2026-04-23T17:11:34.985Z</time></trkpt><trkpt lat="45.998278" lon="10.3406461"><ele>342.0</ele><time>2026-04-23T17:11:36.984Z</time></trkpt><trkpt lat="45.9983587" lon="10.3406277"><ele>342.0</ele><time>2026-04-23T17:11:38.985Z</time></trkpt><trkpt lat="45.9984557" lon="10.3407095"><ele>342.0</ele><time>2026-04-23T17:11:40.985Z</time></trkpt><trkpt lat="45.9985381" lon="10.3407838"><ele>342.0</ele><time>2026-04-23T17:11:42.985Z</time></trkpt><trkpt lat="45.9986077" lon="10.3408306"><ele>342.0</ele><time>2026-04-23T17:11:44.985Z</time></trkpt><trkpt lat="45.9986987" lon="10.3408929"><ele>342.0</ele><time>2026-04-23T17:11:46.985Z</time></trkpt><trkpt lat="45.9987894" lon="10.3409014"><ele>342.0</ele><time>2026-04-23T17:11:48.985Z</time></trkpt><trkpt lat="45.9988769" lon="10.3408504"><ele>342.0</ele><time>2026-04-23T17:11:50.985Z</time></trkpt><trkpt lat="45.998944" lon="10.3408153"><ele>342.0</ele><time>2026-04-23T17:11:52.985Z</time></trkpt><trkpt lat="45.9990021" lon="10.34073"><ele>342.0</ele><time>2026-04-23T17:11:54.985Z</time></trkpt><trkpt lat="45.9989779" lon="10.3405961"><ele>342.0</ele><time>2026-04-23T17:11:56.985Z</time></trkpt><trkpt lat="45.9989265" lon="10.3404451"><ele>342.0</ele><time>2026-04-23T17:11:58.985Z</time></trkpt><trkpt lat="45.998865" lon="10.3403106"><ele>342.0</ele><time>2026-04-23T17:12:00.985Z</time></trkpt><trkpt lat="45.9988037" lon="10.3401745"><ele>342.0</ele><time>2026-04-23T17:12:02.984Z</time></trkpt><trkpt lat="45.9987406" lon="10.3400282"><ele>341.6</ele><time>2026-04-23T17:12:04.985Z</time></trkpt><trkpt lat="45.9986759" lon="10.3398883"><ele>341.20000000000005</ele><time>2026-04-23T17:12:06.985Z</time></trkpt><trkpt lat="45.9986103" lon="10.3397512"><ele>340.8</ele><time>2026-04-23T17:12:08.985Z</time></trkpt><trkpt lat="45.9985528" lon="10.3396251"><ele>340.4</ele><time>2026-04-23T17:12:10.985Z</time></trkpt><trkpt lat="45.9985181" lon="10.3395479"><ele>340.0</ele><time>2026-04-23T17:12:11.985Z</time></trkpt><trkpt lat="45.9984549" lon="10.339416"><ele>340.0</ele><time>2026-04-23T17:12:13.985Z</time></trkpt><trkpt lat="45.9983945" lon="10.3392886"><ele>340.0</ele><time>2026-04-23T17:12:15.985Z</time></trkpt><trkpt lat="45.9983382" lon="10.3391508"><ele>340.0</ele><time>2026-04-23T17:12:17.985Z</time></trkpt><trkpt lat="45.9982896" lon="10.3390153"><ele>340.0</ele><time>2026-04-23T17:12:19.985Z</time></trkpt><trkpt lat="45.9982585" lon="10.3388726"><ele>340.0</ele><time>2026-04-23T17:12:21.985Z</time></trkpt><trkpt lat="45.9982974" lon="10.3387028"><ele>340.0</ele><time>2026-04-23T17:12:23.985Z</time></trkpt><trkpt lat="45.9983342" lon="10.3386251"><ele>340.0</ele><time>2026-04-23T17:12:24.985Z</time></trkpt><trkpt lat="45.9983792" lon="10.3385576"><ele>340.0</ele><time>2026-04-23T17:12:25.985Z</time></trkpt><trkpt lat="45.9984287" lon="10.3384941"><ele>340.0</ele><time>2026-04-23T17:12:26.985Z</time></trkpt><trkpt lat="45.9984785" lon="10.3384331"><ele>340.0</ele><time>2026-04-23T17:12:27.985Z</time></trkpt><trkpt lat="45.9985248" lon="10.3383667"><ele>340.0</ele><time>2026-04-23T17:12:28.985Z</time></trkpt><trkpt lat="45.9985728" lon="10.3383023"><ele>340.0</ele><time>2026-04-23T17:12:29.985Z</time></trkpt><trkpt lat="45.998662" lon="10.3381764"><ele>340.0</ele><time>2026-04-23T17:12:31.984Z</time></trkpt><trkpt lat="45.9987099" lon="10.3381135"><ele>340.0</ele><time>2026-04-23T17:12:32.985Z</time></trkpt><trkpt lat="45.9987569" lon="10.3380497"><ele>340.0</ele><time>2026-04-23T17:12:33.985Z</time></trkpt><trkpt lat="45.9988532" lon="10.3379339"><ele>340.0</ele><time>2026-04-23T17:12:35.984Z</time></trkpt><trkpt lat="45.9988998" lon="10.3378689"><ele>340.0</ele><time>2026-04-23T17:12:36.985Z</time></trkpt><trkpt lat="45.9989904" lon="10.3377455"><ele>340.0</ele><time>2026-04-23T17:12:38.985Z</time></trkpt><trkpt lat="45.9990847" lon="10.337633"><ele>341.5</ele><time>2026-04-23T17:12:40.985Z</time></trkpt><trkpt lat="45.9991822" lon="10.3375303"><ele>343.0</ele><time>2026-04-23T17:12:42.985Z</time></trkpt><trkpt lat="45.9992812" lon="10.3374408"><ele>344.5</ele><time>2026-04-23T17:12:44.984Z</time></trkpt><trkpt lat="45.9993817" lon="10.3373653"><ele>346.0</ele><time>2026-04-23T17:12:46.985Z</time></trkpt><trkpt lat="45.999495" lon="10.3373419"><ele>346.0</ele><time>2026-04-23T17:12:48.984Z</time></trkpt><trkpt lat="45.9996084" lon="10.3373252"><ele>346.0</ele><time>2026-04-23T17:12:50.985Z</time></trkpt><trkpt lat="45.9997008" lon="10.3372349"><ele>346.0</ele><time>2026-04-23T17:12:52.985Z</time></trkpt><trkpt lat="45.9997275" lon="10.3370759"><ele>346.0</ele><time>2026-04-23T17:12:54.985Z</time></trkpt><trkpt lat="45.9997434" lon="10.336913"><ele>346.6</ele><time>2026-04-23T17:12:56.985Z</time></trkpt><trkpt lat="45.9997875" lon="10.3367745"><ele>347.20000000000005</ele><time>2026-04-23T17:12:58.985Z</time></trkpt><trkpt lat="45.9998433" lon="10.3366535"><ele>347.79999999999995</ele><time>2026-04-23T17:13:00.985Z</time></trkpt><trkpt lat="45.9998983" lon="10.3365331"><ele>348.4</ele><time>2026-04-23T17:13:02.985Z</time></trkpt><trkpt lat="45.9998909" lon="10.3364023"><ele>349.0</ele><time>2026-04-23T17:13:04.985Z</time></trkpt><trkpt lat="45.9997871" lon="10.3363464"><ele>350.16666666666663</ele><time>2026-04-23T17:13:06.985Z</time></trkpt><trkpt lat="45.9996632" lon="10.3363287"><ele>351.3333333333333</ele><time>2026-04-23T17:13:08.985Z</time></trkpt><trkpt lat="45.9995949" lon="10.3363208"><ele>352.5</ele><time>2026-04-23T17:13:09.985Z</time></trkpt><trkpt lat="45.9995261" lon="10.3363124"><ele>353.6666666666667</ele><time>2026-04-23T17:13:10.985Z</time></trkpt><trkpt lat="45.9994562" lon="10.336311"><ele>354.83333333333337</ele><time>2026-04-23T17:13:11.985Z</time></trkpt><trkpt lat="45.9993839" lon="10.3363081"><ele>356.0</ele><time>2026-04-23T17:13:12.985Z</time></trkpt><trkpt lat="45.9993094" lon="10.3363028"><ele>356.0</ele><time>2026-04-23T17:13:13.985Z</time></trkpt><trkpt lat="45.9992335" lon="10.3363037"><ele>356.0</ele><time>2026-04-23T17:13:14.985Z</time></trkpt><trkpt lat="45.9991539" lon="10.3363059"><ele>356.0</ele><time>2026-04-23T17:13:15.985Z</time></trkpt><trkpt lat="45.9990732" lon="10.3363097"><ele>356.0</ele><time>2026-04-23T17:13:16.985Z</time></trkpt><trkpt lat="45.9989914" lon="10.3363096"><ele>356.0</ele><time>2026-04-23T17:13:17.985Z</time></trkpt><trkpt lat="45.9989185" lon="10.336312"><ele>356.0</ele><time>2026-04-23T17:13:18.985Z</time></trkpt><trkpt lat="45.9988329" lon="10.3363015"><ele>354.8</ele><time>2026-04-23T17:13:20.985Z</time></trkpt><trkpt lat="45.9987395" lon="10.3362776"><ele>353.6</ele><time>2026-04-23T17:13:22.984Z</time></trkpt><trkpt lat="45.9986099" lon="10.3362835"><ele>352.4</ele><time>2026-04-23T17:13:24.985Z</time></trkpt><trkpt lat="45.9985361" lon="10.3362763"><ele>351.2</ele><time>2026-04-23T17:13:25.985Z</time></trkpt><trkpt lat="45.99846" lon="10.336274"><ele>350.0</ele><time>2026-04-23T17:13:26.985Z</time></trkpt><trkpt lat="45.9983831" lon="10.3362728"><ele>349.1666666666667</ele><time>2026-04-23T17:13:27.985Z</time></trkpt><trkpt lat="45.9983052" lon="10.3362724"><ele>348.33333333333337</ele><time>2026-04-23T17:13:28.985Z</time></trkpt><trkpt lat="45.9982224" lon="10.3362792"><ele>347.5</ele><time>2026-04-23T17:13:29.985Z</time></trkpt><trkpt lat="45.9981386" lon="10.3362823"><ele>346.6666666666667</ele><time>2026-04-23T17:13:30.985Z</time></trkpt><trkpt lat="45.9980563" lon="10.3362732"><ele>345.8333333333333</ele><time>2026-04-23T17:13:31.985Z</time></trkpt><trkpt lat="45.9979725" lon="10.3362507"><ele>345.0</ele><time>2026-04-23T17:13:32.985Z</time></trkpt><trkpt lat="45.9978822" lon="10.336216"><ele>345.0</ele><time>2026-04-23T17:13:33.985Z</time></trkpt><trkpt lat="45.9977958" lon="10.3361673"><ele>345.0</ele><time>2026-04-23T17:13:34.985Z</time></trkpt><trkpt lat="45.9977101" lon="10.3361203"><ele>345.0</ele><time>2026-04-23T17:13:35.985Z</time></trkpt><trkpt lat="45.9976284" lon="10.3360621"><ele>345.0</ele><time>2026-04-23T17:13:36.985Z</time></trkpt><trkpt lat="45.9975545" lon="10.3359945"><ele>345.0</ele><time>2026-04-23T17:13:37.985Z</time></trkpt><trkpt lat="45.997481" lon="10.3359391"><ele>345.0</ele><time>2026-04-23T17:13:38.985Z</time></trkpt><trkpt lat="45.9974068" lon="10.3358917"><ele>343.8333333333333</ele><time>2026-04-23T17:13:39.985Z</time></trkpt><trkpt lat="45.9973348" lon="10.3358448"><ele>342.6666666666667</ele><time>2026-04-23T17:13:40.984Z</time></trkpt><trkpt lat="45.9972627" lon="10.335794"><ele>341.5</ele><time>2026-04-23T17:13:41.985Z</time></trkpt><trkpt lat="45.997192" lon="10.3357432"><ele>340.33333333333337</ele><time>2026-04-23T17:13:42.985Z</time></trkpt><trkpt lat="45.9971238" lon="10.3356936"><ele>339.1666666666667</ele><time>2026-04-23T17:13:43.985Z</time></trkpt><trkpt lat="45.9970517" lon="10.3356474"><ele>338.0</ele><time>2026-04-23T17:13:44.985Z</time></trkpt><trkpt lat="45.9969798" lon="10.3356098"><ele>338.0</ele><time>2026-04-23T17:13:45.985Z</time></trkpt><trkpt lat="45.9969102" lon="10.3355787"><ele>338.0</ele><time>2026-04-23T17:13:46.985Z</time></trkpt><trkpt lat="45.9968337" lon="10.3355656"><ele>338.0</ele><time>2026-04-23T17:13:47.984Z</time></trkpt><trkpt lat="45.9967587" lon="10.3355532"><ele>338.0</ele><time>2026-04-23T17:13:48.985Z</time></trkpt><trkpt lat="45.9966854" lon="10.3355505"><ele>338.0</ele><time>2026-04-23T17:13:49.985Z</time></trkpt><trkpt lat="45.9966156" lon="10.3355442"><ele>338.0</ele><time>2026-04-23T17:13:50.985Z</time></trkpt><trkpt lat="45.9965492" lon="10.3355477"><ele>338.0</ele><time>2026-04-23T17:13:51.985Z</time></trkpt><trkpt lat="45.9964323" lon="10.3355397"><ele>337.25</ele><time>2026-04-23T17:13:53.985Z</time></trkpt><trkpt lat="45.9963257" lon="10.3355642"><ele>336.5</ele><time>2026-04-23T17:13:55.985Z</time></trkpt><trkpt lat="45.9962155" lon="10.3356013"><ele>335.75</ele><time>2026-04-23T17:13:57.985Z</time></trkpt><trkpt lat="45.9961028" lon="10.3356455"><ele>335.0</ele><time>2026-04-23T17:13:59.985Z</time></trkpt><trkpt lat="45.9959913" lon="10.3356769"><ele>335.0</ele><time>2026-04-23T17:14:01.985Z</time></trkpt><trkpt lat="45.99588" lon="10.3356437"><ele>335.0</ele><time>2026-04-23T17:14:03.985Z</time></trkpt><trkpt lat="45.9957865" lon="10.3355463"><ele>335.0</ele><time>2026-04-23T17:14:05.985Z</time></trkpt><trkpt lat="45.9957076" lon="10.3354197"><ele>335.0</ele><time>2026-04-23T17:14:07.985Z</time></trkpt><trkpt lat="45.9956073" lon="10.3353239"><ele>338.0</ele><time>2026-04-23T17:14:09.985Z</time></trkpt><trkpt lat="45.9955243" lon="10.3352034"><ele>341.0</ele><time>2026-04-23T17:14:11.985Z</time></trkpt><trkpt lat="45.9954765" lon="10.3350561"><ele>344.0</ele><time>2026-04-23T17:14:13.985Z</time></trkpt><trkpt lat="45.9954371" lon="10.3349027"><ele>347.0</ele><time>2026-04-23T17:14:15.985Z</time></trkpt><trkpt lat="45.9953691" lon="10.3347724"><ele>347.8</ele><time>2026-04-23T17:14:17.985Z</time></trkpt><trkpt lat="45.995283" lon="10.3346606"><ele>348.6</ele><time>2026-04-23T17:14:19.984Z</time></trkpt><trkpt lat="45.9951777" lon="10.3346001"><ele>349.40000000000003</ele><time>2026-04-23T17:14:21.985Z</time></trkpt><trkpt lat="45.9950806" lon="10.334537"><ele>350.20000000000005</ele><time>2026-04-23T17:14:23.985Z</time></trkpt><trkpt lat="45.9949784" lon="10.3344663"><ele>351.0</ele><time>2026-04-23T17:14:25.985Z</time></trkpt><trkpt lat="45.9948744" lon="10.3343955"><ele>351.0</ele><time>2026-04-23T17:14:27.985Z</time></trkpt><trkpt lat="45.9947742" lon="10.3342981"><ele>351.0</ele><time>2026-04-23T17:14:29.985Z</time></trkpt><trkpt lat="45.9946977" lon="10.3341881"><ele>351.0</ele><time>2026-04-23T17:14:31.985Z</time></trkpt><trkpt lat="45.9946172" lon="10.3340779"><ele>351.0</ele><time>2026-04-23T17:14:33.985Z</time></trkpt><trkpt lat="45.9945326" lon="10.3339674"><ele>351.5</ele><time>2026-04-23T17:14:35.985Z</time></trkpt><trkpt lat="45.9944454" lon="10.3338629"><ele>352.0</ele><time>2026-04-23T17:14:37.984Z</time></trkpt><trkpt lat="45.9943635" lon="10.3337616"><ele>352.5</ele><time>2026-04-23T17:14:39.985Z</time></trkpt><trkpt lat="45.9942676" lon="10.3336852"><ele>353.0</ele><time>2026-04-23T17:14:41.985Z</time></trkpt><trkpt lat="45.9941634" lon="10.3335776"><ele>353.0</ele><time>2026-04-23T17:14:43.984Z</time></trkpt><trkpt lat="45.9941157" lon="10.3335069"><ele>353.0</ele><time>2026-04-23T17:14:44.985Z</time></trkpt><trkpt lat="45.9940749" lon="10.3334267"><ele>353.0</ele><time>2026-04-23T17:14:45.985Z</time></trkpt><trkpt lat="45.9940405" lon="10.333346"><ele>353.0</ele><time>2026-04-23T17:14:46.985Z</time></trkpt><trkpt lat="45.9940091" lon="10.3332652"><ele>353.0</ele><time>2026-04-23T17:14:47.985Z</time></trkpt><trkpt lat="45.9939639" lon="10.3331142"><ele>353.0</ele><time>2026-04-23T17:14:49.985Z</time></trkpt><trkpt lat="45.9939275" lon="10.3329877"><ele>355.0</ele><time>2026-04-23T17:14:51.984Z</time></trkpt><trkpt lat="45.9938861" lon="10.3328758"><ele>357.0</ele><time>2026-04-23T17:14:53.985Z</time></trkpt><trkpt lat="45.9938304" lon="10.332779"><ele>359.0</ele><time>2026-04-23T17:14:55.985Z</time></trkpt><trkpt lat="45.9937579" lon="10.3326849"><ele>361.0</ele><time>2026-04-23T17:14:57.985Z</time></trkpt><trkpt lat="45.9936825" lon="10.332593"><ele>363.0</ele><time>2026-04-23T17:14:59.985Z</time></trkpt><trkpt lat="45.9936114" lon="10.3325031"><ele>363.0</ele><time>2026-04-23T17:15:01.985Z</time></trkpt><trkpt lat="45.993553" lon="10.332404"><ele>363.0</ele><time>2026-04-23T17:15:03.985Z</time></trkpt><trkpt lat="45.9935071" lon="10.3322947"><ele>363.0</ele><time>2026-04-23T17:15:05.985Z</time></trkpt><trkpt lat="45.9934841" lon="10.3321809"><ele>363.0</ele><time>2026-04-23T17:15:07.985Z</time></trkpt><trkpt lat="45.9934756" lon="10.3320594"><ele>363.0</ele><time>2026-04-23T17:15:09.985Z</time></trkpt><trkpt lat="45.9934823" lon="10.3319345"><ele>363.0</ele><time>2026-04-23T17:15:11.984Z</time></trkpt><trkpt lat="45.9934899" lon="10.3318108"><ele>364.8333333333333</ele><time>2026-04-23T17:15:13.985Z</time></trkpt><trkpt lat="45.9934759" lon="10.3316893"><ele>366.6666666666667</ele><time>2026-04-23T17:15:15.985Z</time></trkpt><trkpt lat="45.9934375" lon="10.3315709"><ele>368.5</ele><time>2026-04-23T17:15:17.985Z</time></trkpt><trkpt lat="45.9933937" lon="10.3314583"><ele>370.33333333333337</ele><time>2026-04-23T17:15:19.985Z</time></trkpt><trkpt lat="45.9933434" lon="10.3313556"><ele>372.1666666666667</ele><time>2026-04-23T17:15:21.985Z</time></trkpt><trkpt lat="45.9932797" lon="10.3312626"><ele>374.0</ele><time>2026-04-23T17:15:23.985Z</time></trkpt><trkpt lat="45.9932245" lon="10.3311688"><ele>374.0</ele><time>2026-04-23T17:15:25.985Z</time></trkpt><trkpt lat="45.9931749" lon="10.3310624"><ele>374.0</ele><time>2026-04-23T17:15:27.985Z</time></trkpt><trkpt lat="45.993133" lon="10.3309603"><ele>374.0</ele><time>2026-04-23T17:15:29.985Z</time></trkpt><trkpt lat="45.9930871" lon="10.3308429"><ele>374.0</ele><time>2026-04-23T17:15:31.985Z</time></trkpt><trkpt lat="45.9930279" lon="10.3307238"><ele>374.0</ele><time>2026-04-23T17:15:33.985Z</time></trkpt><trkpt lat="45.9929494" lon="10.3306311"><ele>375.83333333333337</ele><time>2026-04-23T17:15:35.985Z</time></trkpt><trkpt lat="45.9928747" lon="10.3305397"><ele>377.6666666666667</ele><time>2026-04-23T17:15:37.984Z</time></trkpt><trkpt lat="45.9928253" lon="10.3304268"><ele>379.5</ele><time>2026-04-23T17:15:39.985Z</time></trkpt><trkpt lat="45.9927985" lon="10.3303169"><ele>381.33333333333337</ele><time>2026-04-23T17:15:41.985Z</time></trkpt><trkpt lat="45.9927977" lon="10.3301956"><ele>383.1666666666667</ele><time>2026-04-23T17:15:43.985Z</time></trkpt><trkpt lat="45.9928056" lon="10.3300902"><ele>385.0</ele><time>2026-04-23T17:15:45.985Z</time></trkpt><trkpt lat="45.9928025" lon="10.3299629"><ele>385.00000000000006</ele><time>2026-04-23T17:15:48.985Z</time></trkpt><trkpt lat="45.9927829" lon="10.3298737"><ele>385.0</ele><time>2026-04-23T17:15:50.985Z</time></trkpt><trkpt lat="45.9927562" lon="10.3297497"><ele>385.0</ele><time>2026-04-23T17:15:53.985Z</time></trkpt><trkpt lat="45.9927334" lon="10.3296145"><ele>385.0</ele><time>2026-04-23T17:15:56.985Z</time></trkpt><trkpt lat="45.9927033" lon="10.3295192"><ele>385.00000000000006</ele><time>2026-04-23T17:15:58.985Z</time></trkpt><trkpt lat="45.9926428" lon="10.3294365"><ele>385.0</ele><time>2026-04-23T17:16:00.985Z</time></trkpt><trkpt lat="45.9925812" lon="10.3293534"><ele>385.0</ele><time>2026-04-23T17:16:02.985Z</time></trkpt><trkpt lat="45.9925374" lon="10.3292443"><ele>385.0</ele><time>2026-04-23T17:16:04.985Z</time></trkpt><trkpt lat="45.9924933" lon="10.3291124"><ele>385.0</ele><time>2026-04-23T17:16:06.985Z</time></trkpt><trkpt lat="45.9924033" lon="10.3290422"><ele>385.0</ele><time>2026-04-23T17:16:08.985Z</time></trkpt><trkpt lat="45.9922978" lon="10.3290621"><ele>385.0</ele><time>2026-04-23T17:16:10.985Z</time></trkpt><trkpt lat="45.9921957" lon="10.3290614"><ele>385.0</ele><time>2026-04-23T17:16:12.984Z</time></trkpt><trkpt lat="45.9920935" lon="10.3290138"><ele>385.0</ele><time>2026-04-23T17:16:14.985Z</time></trkpt><trkpt lat="45.9919995" lon="10.3289314"><ele>385.0</ele><time>2026-04-23T17:16:16.984Z</time></trkpt><trkpt lat="45.9919083" lon="10.3288346"><ele>385.0</ele><time>2026-04-23T17:16:18.985Z</time></trkpt><trkpt lat="45.9918178" lon="10.3287251"><ele>385.0</ele><time>2026-04-23T17:16:20.985Z</time></trkpt><trkpt lat="45.991729" lon="10.3286075"><ele>385.6</ele><time>2026-04-23T17:16:22.985Z</time></trkpt><trkpt lat="45.9916329" lon="10.3285185"><ele>386.2</ele><time>2026-04-23T17:16:24.985Z</time></trkpt><trkpt lat="45.9915432" lon="10.328441"><ele>386.79999999999995</ele><time>2026-04-23T17:16:26.985Z</time></trkpt><trkpt lat="45.9914569" lon="10.3283446"><ele>387.4</ele><time>2026-04-23T17:16:28.985Z</time></trkpt><trkpt lat="45.9913671" lon="10.3282563"><ele>388.0</ele><time>2026-04-23T17:16:30.985Z</time></trkpt><trkpt lat="45.9912762" lon="10.3281631"><ele>388.0</ele><time>2026-04-23T17:16:32.985Z</time></trkpt><trkpt lat="45.9911801" lon="10.3280699"><ele>388.0</ele><time>2026-04-23T17:16:34.985Z</time></trkpt><trkpt lat="45.9910814" lon="10.3279748"><ele>388.0</ele><time>2026-04-23T17:16:36.985Z</time></trkpt><trkpt lat="45.9909819" lon="10.3278755"><ele>388.0</ele><time>2026-04-23T17:16:38.985Z</time></trkpt><trkpt lat="45.9908831" lon="10.3277773"><ele>388.5</ele><time>2026-04-23T17:16:40.985Z</time></trkpt><trkpt lat="45.9907805" lon="10.3276824"><ele>389.0</ele><time>2026-04-23T17:16:42.985Z</time></trkpt><trkpt lat="45.9906815" lon="10.3275777"><ele>389.5</ele><time>2026-04-23T17:16:44.985Z</time></trkpt><trkpt lat="45.9905674" lon="10.327504"><ele>390.0</ele><time>2026-04-23T17:16:46.985Z</time></trkpt><trkpt lat="45.9904563" lon="10.3274255"><ele>390.0</ele><time>2026-04-23T17:16:48.984Z</time></trkpt><trkpt lat="45.9903467" lon="10.3273553"><ele>390.0</ele><time>2026-04-23T17:16:50.985Z</time></trkpt><trkpt lat="45.9902378" lon="10.3272919"><ele>390.0</ele><time>2026-04-23T17:16:52.985Z</time></trkpt><trkpt lat="45.990137" lon="10.3272085"><ele>390.0</ele><time>2026-04-23T17:16:54.985Z</time></trkpt><trkpt lat="45.9900532" lon="10.327091"><ele>389.0</ele><time>2026-04-23T17:16:56.985Z</time></trkpt><trkpt lat="45.989977" lon="10.3269583"><ele>388.0</ele><time>2026-04-23T17:16:58.985Z</time></trkpt><trkpt lat="45.9899111" lon="10.326822"><ele>387.0</ele><time>2026-04-23T17:17:00.985Z</time></trkpt><trkpt lat="45.9898529" lon="10.3266901"><ele>386.0</ele><time>2026-04-23T17:17:02.985Z</time></trkpt><trkpt lat="45.9898007" lon="10.3265553"><ele>386.0</ele><time>2026-04-23T17:17:04.985Z</time></trkpt><trkpt lat="45.9897472" lon="10.3264185"><ele>386.0</ele><time>2026-04-23T17:17:06.985Z</time></trkpt><trkpt lat="45.9896749" lon="10.326294"><ele>386.0</ele><time>2026-04-23T17:17:08.984Z</time></trkpt><trkpt lat="45.9895976" lon="10.3261645"><ele>386.0</ele><time>2026-04-23T17:17:10.985Z</time></trkpt><trkpt lat="45.9895103" lon="10.3260475"><ele>385.75</ele><time>2026-04-23T17:17:12.985Z</time></trkpt><trkpt lat="45.989414" lon="10.3259452"><ele>385.5</ele><time>2026-04-23T17:17:14.985Z</time></trkpt><trkpt lat="45.9893178" lon="10.3258489"><ele>385.25</ele><time>2026-04-23T17:17:16.985Z</time></trkpt><trkpt lat="45.9892225" lon="10.3257441"><ele>385.0</ele><time>2026-04-23T17:17:18.985Z</time></trkpt><trkpt lat="45.9891342" lon="10.3256242"><ele>386.5</ele><time>2026-04-23T17:17:20.985Z</time></trkpt><trkpt lat="45.9890713" lon="10.3254775"><ele>388.0</ele><time>2026-04-23T17:17:22.985Z</time></trkpt><trkpt lat="45.9890144" lon="10.3253316"><ele>389.5</ele><time>2026-04-23T17:17:24.985Z</time></trkpt><trkpt lat="45.9889664" lon="10.3251819"><ele>391.0</ele><time>2026-04-23T17:17:26.985Z</time></trkpt><trkpt lat="45.9889389" lon="10.3250246"><ele>391.0</ele><time>2026-04-23T17:17:28.984Z</time></trkpt><trkpt lat="45.988915" lon="10.3248673"><ele>391.0</ele><time>2026-04-23T17:17:30.985Z</time></trkpt><trkpt lat="45.9888698" lon="10.324718"><ele>391.0</ele><time>2026-04-23T17:17:32.985Z</time></trkpt><trkpt lat="45.9888323" lon="10.3245721"><ele>391.0</ele><time>2026-04-23T17:17:34.984Z</time></trkpt><trkpt lat="45.9888071" lon="10.3244186"><ele>391.0</ele><time>2026-04-23T17:17:36.985Z</time></trkpt><trkpt lat="45.9887878" lon="10.324263"><ele>391.8</ele><time>2026-04-23T17:17:38.985Z</time></trkpt><trkpt lat="45.9887774" lon="10.3241008"><ele>392.6</ele><time>2026-04-23T17:17:40.985Z</time></trkpt><trkpt lat="45.9887807" lon="10.3239428"><ele>393.4</ele><time>2026-04-23T17:17:42.985Z</time></trkpt><trkpt lat="45.9887875" lon="10.323792"><ele>394.2</ele><time>2026-04-23T17:17:44.985Z</time></trkpt><trkpt lat="45.9887917" lon="10.3236601"><ele>395.0</ele><time>2026-04-23T17:17:46.985Z</time></trkpt><trkpt lat="45.9887785" lon="10.3235341"><ele>396.4</ele><time>2026-04-23T17:17:48.985Z</time></trkpt><trkpt lat="45.9887529" lon="10.3234086"><ele>397.8</ele><time>2026-04-23T17:17:50.985Z</time></trkpt><trkpt lat="45.988735" lon="10.3232647"><ele>399.20000000000005</ele><time>2026-04-23T17:17:52.985Z</time></trkpt><trkpt lat="45.9887185" lon="10.3231397"><ele>400.6</ele><time>2026-04-23T17:17:54.985Z</time></trkpt><trkpt lat="45.988703" lon="10.3230251"><ele>402.0</ele><time>2026-04-23T17:17:56.985Z</time></trkpt><trkpt lat="45.9886755" lon="10.3229025"><ele>403.8</ele><time>2026-04-23T17:17:58.985Z</time></trkpt><trkpt lat="45.9886169" lon="10.3227883"><ele>405.6</ele><time>2026-04-23T17:18:00.985Z</time></trkpt><trkpt lat="45.9885467" lon="10.3226802"><ele>407.40000000000003</ele><time>2026-04-23T17:18:02.985Z</time></trkpt><trkpt lat="45.9884664" lon="10.322574"><ele>409.20000000000005</ele><time>2026-04-23T17:18:04.985Z</time></trkpt><trkpt lat="45.9883925" lon="10.3224551"><ele>411.0</ele><time>2026-04-23T17:18:06.985Z</time></trkpt><trkpt lat="45.9883173" lon="10.3223391"><ele>408.6666666666667</ele><time>2026-04-23T17:18:08.985Z</time></trkpt><trkpt lat="45.9882595" lon="10.3221857"><ele>406.33333333333337</ele><time>2026-04-23T17:18:10.985Z</time></trkpt><trkpt lat="45.9882276" lon="10.3221058"><ele>404.0</ele><time>2026-04-23T17:18:11.985Z</time></trkpt><trkpt lat="45.9881957" lon="10.322017"><ele>401.6666666666667</ele><time>2026-04-23T17:18:12.985Z</time></trkpt><trkpt lat="45.9881614" lon="10.3219272"><ele>399.33333333333337</ele><time>2026-04-23T17:18:13.985Z</time></trkpt><trkpt lat="45.9881198" lon="10.3218349"><ele>397.0</ele><time>2026-04-23T17:18:14.984Z</time></trkpt><trkpt lat="45.9880735" lon="10.3217415"><ele>397.00000000000006</ele><time>2026-04-23T17:18:15.985Z</time></trkpt><trkpt lat="45.9880338" lon="10.3216437"><ele>397.0</ele><time>2026-04-23T17:18:16.985Z</time></trkpt><trkpt lat="45.9879992" lon="10.3215406"><ele>397.0</ele><time>2026-04-23T17:18:17.985Z</time></trkpt><trkpt lat="45.9879567" lon="10.321437"><ele>397.0</ele><time>2026-04-23T17:18:18.985Z</time></trkpt><trkpt lat="45.9879158" lon="10.3213313"><ele>397.00000000000006</ele><time>2026-04-23T17:18:19.984Z</time></trkpt><trkpt lat="45.9878853" lon="10.3212256"><ele>397.0</ele><time>2026-04-23T17:18:20.985Z</time></trkpt><trkpt lat="45.9878607" lon="10.3211167"><ele>397.33333333333337</ele><time>2026-04-23T17:18:21.985Z</time></trkpt><trkpt lat="45.9878435" lon="10.3210116"><ele>397.6666666666667</ele><time>2026-04-23T17:18:22.985Z</time></trkpt><trkpt lat="45.9878264" lon="10.3209066"><ele>398.0</ele><time>2026-04-23T17:18:23.985Z</time></trkpt><trkpt lat="45.9878066" lon="10.3208065"><ele>398.33333333333337</ele><time>2026-04-23T17:18:24.985Z</time></trkpt><trkpt lat="45.9877889" lon="10.3207118"><ele>398.6666666666667</ele><time>2026-04-23T17:18:25.984Z</time></trkpt><trkpt lat="45.9877717" lon="10.3206227"><ele>399.0</ele><time>2026-04-23T17:18:26.985Z</time></trkpt><trkpt lat="45.9877264" lon="10.3204553"><ele>399.5</ele><time>2026-04-23T17:18:28.985Z</time></trkpt><trkpt lat="45.9876798" lon="10.3202861"><ele>400.0</ele><time>2026-04-23T17:18:30.985Z</time></trkpt><trkpt lat="45.9876224" lon="10.3202242"><ele>400.5</ele><time>2026-04-23T17:18:31.984Z</time></trkpt><trkpt lat="45.9875507" lon="10.3202111"><ele>401.0</ele><time>2026-04-23T17:18:32.985Z</time></trkpt><trkpt lat="45.987471" lon="10.3202376"><ele>401.5</ele><time>2026-04-23T17:18:33.985Z</time></trkpt><trkpt lat="45.9873881" lon="10.3202645"><ele>402.0</ele><time>2026-04-23T17:18:34.984Z</time></trkpt><trkpt lat="45.9872955" lon="10.320282"><ele>399.0</ele><time>2026-04-23T17:18:35.985Z</time></trkpt><trkpt lat="45.9871931" lon="10.3202711"><ele>396.0</ele><time>2026-04-23T17:18:36.984Z</time></trkpt><trkpt lat="45.9870948" lon="10.3202404"><ele>393.0</ele><time>2026-04-23T17:18:37.985Z</time></trkpt><trkpt lat="45.9869897" lon="10.3201832"><ele>390.0</ele><time>2026-04-23T17:18:38.985Z</time></trkpt><trkpt lat="45.9868932" lon="10.3201044"><ele>387.0</ele><time>2026-04-23T17:18:39.984Z</time></trkpt><trkpt lat="45.9868256" lon="10.3200438"><ele>387.0</ele><time>2026-04-23T17:18:40.985Z</time></trkpt><trkpt lat="45.9867699" lon="10.319989"><ele>387.0</ele><time>2026-04-23T17:18:41.985Z</time></trkpt><trkpt lat="45.9867499" lon="10.3198966"><ele>387.0</ele><time>2026-04-23T17:18:43.985Z</time></trkpt><trkpt lat="45.9867923" lon="10.3198171"><ele>387.0</ele><time>2026-04-23T17:19:32.985Z</time></trkpt><trkpt lat="45.9868497" lon="10.319743"><ele>387.0</ele><time>2026-04-23T17:19:35.985Z</time></trkpt><trkpt lat="45.9869095" lon="10.3196578"><ele>394.0</ele><time>2026-04-23T17:19:38.985Z</time></trkpt><trkpt lat="45.9868702" lon="10.3195836"><ele>394.0</ele><time>2026-04-23T17:20:19.935Z</time></trkpt></trkseg></trk></gpx>